<?xml version="1.0" encoding="utf-8"?>
<gpx xmlns:xsi="http://www.w3.org/2001/XMLSchema-instance" xmlns:xsd="http://www.w3.org/2001/XMLSchema" version="1.1" creator="Shapelink.com" xmlns="http://www.topografix.com/GPX/1/1" xmlns:gpxtpx="http://www.garmin.com/xmlschemas/TrackPointExtension/v1">
  <metadata>
    <name>Ciclismo 21.68 km, 2019-12-10</name>
    <desc></desc>
    <author><name>Peter Littke</name></author> 
    <time>2019-12-10T08:35:48Z</time>
  </metadata>
  <trk>
    <name>Ciclismo 21.68 km, 2019-12-10</name>
    <trkseg>
      <trkpt lat="59.340716" lon="18.085105">
        <ele>40</ele>
        <time>2019-12-10T08:35:48Z</time>
      </trkpt>
      <trkpt lat="59.340685" lon="18.085073">
        <ele>41</ele>
        <time>2019-12-10T08:35:53Z</time>
      </trkpt>
      <trkpt lat="59.340649" lon="18.084959">
        <ele>42</ele>
        <time>2019-12-10T08:36:02Z</time>
      </trkpt>
      <trkpt lat="59.340648" lon="18.084917">
        <ele>41</ele>
        <time>2019-12-10T08:36:03Z</time>
      </trkpt>
      <trkpt lat="59.340648" lon="18.084877">
        <ele>39</ele>
        <time>2019-12-10T08:36:04Z</time>
      </trkpt>
      <trkpt lat="59.340614" lon="18.084825">
        <ele>37</ele>
        <time>2019-12-10T08:36:05Z</time>
      </trkpt>
      <trkpt lat="59.340596" lon="18.084768">
        <ele>35</ele>
        <time>2019-12-10T08:36:06Z</time>
      </trkpt>
      <trkpt lat="59.340562" lon="18.084698">
        <ele>0</ele>
        <time>2019-12-10T08:36:06Z</time>
      </trkpt>
      <trkpt lat="59.340566" lon="18.084636">
        <ele>35</ele>
        <time>2019-12-10T08:36:07Z</time>
      </trkpt>
      <trkpt lat="59.340561" lon="18.084574">
        <ele>34</ele>
        <time>2019-12-10T08:36:09Z</time>
      </trkpt>
      <trkpt lat="59.340572" lon="18.084509">
        <ele>34</ele>
        <time>2019-12-10T08:36:10Z</time>
      </trkpt>
      <trkpt lat="59.340581" lon="18.084441">
        <ele>0</ele>
        <time>2019-12-10T08:36:10Z</time>
      </trkpt>
      <trkpt lat="59.340588" lon="18.084369">
        <ele>35</ele>
        <time>2019-12-10T08:36:11Z</time>
      </trkpt>
      <trkpt lat="59.340597" lon="18.084298">
        <ele>35</ele>
        <time>2019-12-10T08:36:13Z</time>
      </trkpt>
      <trkpt lat="59.340608" lon="18.08423">
        <ele>35</ele>
        <time>2019-12-10T08:36:14Z</time>
      </trkpt>
      <trkpt lat="59.34062" lon="18.084162">
        <ele>35</ele>
        <time>2019-12-10T08:36:15Z</time>
      </trkpt>
      <trkpt lat="59.340634" lon="18.084101">
        <ele>36</ele>
        <time>2019-12-10T08:36:16Z</time>
      </trkpt>
      <trkpt lat="59.340651" lon="18.084055">
        <ele>37</ele>
        <time>2019-12-10T08:36:17Z</time>
      </trkpt>
      <trkpt lat="59.34067" lon="18.08401">
        <ele>38</ele>
        <time>2019-12-10T08:36:18Z</time>
      </trkpt>
      <trkpt lat="59.340679" lon="18.083965">
        <ele>38</ele>
        <time>2019-12-10T08:36:19Z</time>
      </trkpt>
      <trkpt lat="59.340692" lon="18.083919">
        <ele>38</ele>
        <time>2019-12-10T08:36:20Z</time>
      </trkpt>
      <trkpt lat="59.340704" lon="18.083872">
        <ele>38</ele>
        <time>2019-12-10T08:36:21Z</time>
      </trkpt>
      <trkpt lat="59.340709" lon="18.083837">
        <ele>38</ele>
        <time>2019-12-10T08:36:22Z</time>
      </trkpt>
      <trkpt lat="59.340698" lon="18.083782">
        <ele>36</ele>
        <time>2019-12-10T08:36:24Z</time>
      </trkpt>
      <trkpt lat="59.340682" lon="18.083739">
        <ele>0</ele>
        <time>2019-12-10T08:36:25Z</time>
      </trkpt>
      <trkpt lat="59.34067" lon="18.083676">
        <ele>34</ele>
        <time>2019-12-10T08:36:28Z</time>
      </trkpt>
      <trkpt lat="59.340656" lon="18.083646">
        <ele>33</ele>
        <time>2019-12-10T08:36:29Z</time>
      </trkpt>
      <trkpt lat="59.340624" lon="18.083616">
        <ele>33</ele>
        <time>2019-12-10T08:36:30Z</time>
      </trkpt>
      <trkpt lat="59.34059" lon="18.08359">
        <ele>0</ele>
        <time>2019-12-10T08:36:30Z</time>
      </trkpt>
      <trkpt lat="59.340554" lon="18.083562">
        <ele>33</ele>
        <time>2019-12-10T08:36:31Z</time>
      </trkpt>
      <trkpt lat="59.340512" lon="18.083536">
        <ele>32</ele>
        <time>2019-12-10T08:36:33Z</time>
      </trkpt>
      <trkpt lat="59.34047" lon="18.083504">
        <ele>32</ele>
        <time>2019-12-10T08:36:34Z</time>
      </trkpt>
      <trkpt lat="59.340422" lon="18.083474">
        <ele>32</ele>
        <time>2019-12-10T08:36:35Z</time>
      </trkpt>
      <trkpt lat="59.340374" lon="18.083444">
        <ele>32</ele>
        <time>2019-12-10T08:36:36Z</time>
      </trkpt>
      <trkpt lat="59.340326" lon="18.083411">
        <ele>32</ele>
        <time>2019-12-10T08:36:37Z</time>
      </trkpt>
      <trkpt lat="59.340282" lon="18.083377">
        <ele>32</ele>
        <time>2019-12-10T08:36:38Z</time>
      </trkpt>
      <trkpt lat="59.340234" lon="18.083345">
        <ele>32</ele>
        <time>2019-12-10T08:36:39Z</time>
      </trkpt>
      <trkpt lat="59.340184" lon="18.083315">
        <ele>33</ele>
        <time>2019-12-10T08:36:40Z</time>
      </trkpt>
      <trkpt lat="59.340138" lon="18.083281">
        <ele>0</ele>
        <time>2019-12-10T08:36:40Z</time>
      </trkpt>
      <trkpt lat="59.340088" lon="18.083249">
        <ele>33</ele>
        <time>2019-12-10T08:36:41Z</time>
      </trkpt>
      <trkpt lat="59.340042" lon="18.083207">
        <ele>33</ele>
        <time>2019-12-10T08:36:43Z</time>
      </trkpt>
      <trkpt lat="59.34" lon="18.083158">
        <ele>33</ele>
        <time>2019-12-10T08:36:44Z</time>
      </trkpt>
      <trkpt lat="59.339958" lon="18.083118">
        <ele>0</ele>
        <time>2019-12-10T08:36:44Z</time>
      </trkpt>
      <trkpt lat="59.339912" lon="18.083096">
        <ele>33</ele>
        <time>2019-12-10T08:36:45Z</time>
      </trkpt>
      <trkpt lat="59.339866" lon="18.083071">
        <ele>33</ele>
        <time>2019-12-10T08:36:47Z</time>
      </trkpt>
      <trkpt lat="59.339814" lon="18.083041">
        <ele>33</ele>
        <time>2019-12-10T08:36:48Z</time>
      </trkpt>
      <trkpt lat="59.33976" lon="18.083008">
        <ele>33</ele>
        <time>2019-12-10T08:36:49Z</time>
      </trkpt>
      <trkpt lat="59.339712" lon="18.082975">
        <ele>33</ele>
        <time>2019-12-10T08:36:50Z</time>
      </trkpt>
      <trkpt lat="59.339658" lon="18.082941">
        <ele>0</ele>
        <time>2019-12-10T08:36:50Z</time>
      </trkpt>
      <trkpt lat="59.339602" lon="18.082904">
        <ele>33</ele>
        <time>2019-12-10T08:36:51Z</time>
      </trkpt>
      <trkpt lat="59.339546" lon="18.082867">
        <ele>33</ele>
        <time>2019-12-10T08:36:53Z</time>
      </trkpt>
      <trkpt lat="59.339492" lon="18.082833">
        <ele>33</ele>
        <time>2019-12-10T08:36:54Z</time>
      </trkpt>
      <trkpt lat="59.339446" lon="18.082809">
        <ele>34</ele>
        <time>2019-12-10T08:36:55Z</time>
      </trkpt>
      <trkpt lat="59.339406" lon="18.082782">
        <ele>34</ele>
        <time>2019-12-10T08:36:56Z</time>
      </trkpt>
      <trkpt lat="59.33937" lon="18.082745">
        <ele>34</ele>
        <time>2019-12-10T08:36:57Z</time>
      </trkpt>
      <trkpt lat="59.339348" lon="18.082699">
        <ele>34</ele>
        <time>2019-12-10T08:36:58Z</time>
      </trkpt>
      <trkpt lat="59.339344" lon="18.082644">
        <ele>33</ele>
        <time>2019-12-10T08:36:59Z</time>
      </trkpt>
      <trkpt lat="59.339332" lon="18.082598">
        <ele>33</ele>
        <time>2019-12-10T08:37:00Z</time>
      </trkpt>
      <trkpt lat="59.339318" lon="18.082566">
        <ele>33</ele>
        <time>2019-12-10T08:37:01Z</time>
      </trkpt>
      <trkpt lat="59.339298" lon="18.082506">
        <ele>33</ele>
        <time>2019-12-10T08:37:03Z</time>
      </trkpt>
      <trkpt lat="59.33927" lon="18.082473">
        <ele>32</ele>
        <time>2019-12-10T08:37:04Z</time>
      </trkpt>
      <trkpt lat="59.339251" lon="18.082455">
        <ele>0</ele>
        <time>2019-12-10T08:37:05Z</time>
      </trkpt>
      <trkpt lat="59.339227" lon="18.082435">
        <ele>31</ele>
        <time>2019-12-10T08:37:06Z</time>
      </trkpt>
      <trkpt lat="59.3392" lon="18.082416">
        <ele>30</ele>
        <time>2019-12-10T08:37:08Z</time>
      </trkpt>
      <trkpt lat="59.33916" lon="18.082398">
        <ele>29</ele>
        <time>2019-12-10T08:37:09Z</time>
      </trkpt>
      <trkpt lat="59.339119" lon="18.082378">
        <ele>28</ele>
        <time>2019-12-10T08:37:10Z</time>
      </trkpt>
      <trkpt lat="59.339075" lon="18.082359">
        <ele>28</ele>
        <time>2019-12-10T08:37:11Z</time>
      </trkpt>
      <trkpt lat="59.339035" lon="18.082337">
        <ele>28</ele>
        <time>2019-12-10T08:37:12Z</time>
      </trkpt>
      <trkpt lat="59.338994" lon="18.082315">
        <ele>28</ele>
        <time>2019-12-10T08:37:13Z</time>
      </trkpt>
      <trkpt lat="59.338951" lon="18.082295">
        <ele>28</ele>
        <time>2019-12-10T08:37:14Z</time>
      </trkpt>
      <trkpt lat="59.338908" lon="18.082273">
        <ele>28</ele>
        <time>2019-12-10T08:37:15Z</time>
      </trkpt>
      <trkpt lat="59.338869" lon="18.082252">
        <ele>28</ele>
        <time>2019-12-10T08:37:16Z</time>
      </trkpt>
      <trkpt lat="59.33883" lon="18.08223">
        <ele>28</ele>
        <time>2019-12-10T08:37:17Z</time>
      </trkpt>
      <trkpt lat="59.338782" lon="18.082202">
        <ele>0</ele>
        <time>2019-12-10T08:37:17Z</time>
      </trkpt>
      <trkpt lat="59.338738" lon="18.082173">
        <ele>28</ele>
        <time>2019-12-10T08:37:18Z</time>
      </trkpt>
      <trkpt lat="59.338695" lon="18.082142">
        <ele>28</ele>
        <time>2019-12-10T08:37:20Z</time>
      </trkpt>
      <trkpt lat="59.33865" lon="18.082109">
        <ele>28</ele>
        <time>2019-12-10T08:37:21Z</time>
      </trkpt>
      <trkpt lat="59.338605" lon="18.082078">
        <ele>28</ele>
        <time>2019-12-10T08:37:22Z</time>
      </trkpt>
      <trkpt lat="59.338561" lon="18.082049">
        <ele>0</ele>
        <time>2019-12-10T08:37:22Z</time>
      </trkpt>
      <trkpt lat="59.338511" lon="18.082015">
        <ele>28</ele>
        <time>2019-12-10T08:37:23Z</time>
      </trkpt>
      <trkpt lat="59.33846" lon="18.081984">
        <ele>28</ele>
        <time>2019-12-10T08:37:25Z</time>
      </trkpt>
      <trkpt lat="59.338411" lon="18.081954">
        <ele>28</ele>
        <time>2019-12-10T08:37:26Z</time>
      </trkpt>
      <trkpt lat="59.338363" lon="18.081922">
        <ele>29</ele>
        <time>2019-12-10T08:37:27Z</time>
      </trkpt>
      <trkpt lat="59.33832" lon="18.081881">
        <ele>0</ele>
        <time>2019-12-10T08:37:27Z</time>
      </trkpt>
      <trkpt lat="59.338279" lon="18.081834">
        <ele>29</ele>
        <time>2019-12-10T08:37:28Z</time>
      </trkpt>
      <trkpt lat="59.338244" lon="18.081795">
        <ele>28</ele>
        <time>2019-12-10T08:37:30Z</time>
      </trkpt>
      <trkpt lat="59.338206" lon="18.081756">
        <ele>28</ele>
        <time>2019-12-10T08:37:31Z</time>
      </trkpt>
      <trkpt lat="59.338169" lon="18.081727">
        <ele>29</ele>
        <time>2019-12-10T08:37:32Z</time>
      </trkpt>
      <trkpt lat="59.338126" lon="18.081689">
        <ele>29</ele>
        <time>2019-12-10T08:37:33Z</time>
      </trkpt>
      <trkpt lat="59.338079" lon="18.081652">
        <ele>29</ele>
        <time>2019-12-10T08:37:34Z</time>
      </trkpt>
      <trkpt lat="59.338036" lon="18.081616">
        <ele>29</ele>
        <time>2019-12-10T08:37:35Z</time>
      </trkpt>
      <trkpt lat="59.337991" lon="18.081583">
        <ele>29</ele>
        <time>2019-12-10T08:37:36Z</time>
      </trkpt>
      <trkpt lat="59.337945" lon="18.081548">
        <ele>29</ele>
        <time>2019-12-10T08:37:37Z</time>
      </trkpt>
      <trkpt lat="59.337897" lon="18.081516">
        <ele>29</ele>
        <time>2019-12-10T08:37:38Z</time>
      </trkpt>
      <trkpt lat="59.337845" lon="18.081478">
        <ele>0</ele>
        <time>2019-12-10T08:37:38Z</time>
      </trkpt>
      <trkpt lat="59.337795" lon="18.081439">
        <ele>29</ele>
        <time>2019-12-10T08:37:39Z</time>
      </trkpt>
      <trkpt lat="59.33775" lon="18.081402">
        <ele>30</ele>
        <time>2019-12-10T08:37:41Z</time>
      </trkpt>
      <trkpt lat="59.337706" lon="18.081372">
        <ele>0</ele>
        <time>2019-12-10T08:37:41Z</time>
      </trkpt>
      <trkpt lat="59.337658" lon="18.081341">
        <ele>30</ele>
        <time>2019-12-10T08:37:42Z</time>
      </trkpt>
      <trkpt lat="59.337615" lon="18.081309">
        <ele>30</ele>
        <time>2019-12-10T08:37:44Z</time>
      </trkpt>
      <trkpt lat="59.337573" lon="18.081272">
        <ele>30</ele>
        <time>2019-12-10T08:37:45Z</time>
      </trkpt>
      <trkpt lat="59.337535" lon="18.081237">
        <ele>30</ele>
        <time>2019-12-10T08:37:46Z</time>
      </trkpt>
      <trkpt lat="59.337501" lon="18.081212">
        <ele>30</ele>
        <time>2019-12-10T08:37:47Z</time>
      </trkpt>
      <trkpt lat="59.337465" lon="18.081183">
        <ele>30</ele>
        <time>2019-12-10T08:37:48Z</time>
      </trkpt>
      <trkpt lat="59.337418" lon="18.081146">
        <ele>30</ele>
        <time>2019-12-10T08:37:49Z</time>
      </trkpt>
      <trkpt lat="59.337372" lon="18.081109">
        <ele>0</ele>
        <time>2019-12-10T08:37:49Z</time>
      </trkpt>
      <trkpt lat="59.337334" lon="18.081077">
        <ele>30</ele>
        <time>2019-12-10T08:37:50Z</time>
      </trkpt>
      <trkpt lat="59.337301" lon="18.081051">
        <ele>30</ele>
        <time>2019-12-10T08:37:52Z</time>
      </trkpt>
      <trkpt lat="59.337276" lon="18.081024">
        <ele>30</ele>
        <time>2019-12-10T08:37:53Z</time>
      </trkpt>
      <trkpt lat="59.337254" lon="18.081009">
        <ele>30</ele>
        <time>2019-12-10T08:37:54Z</time>
      </trkpt>
      <trkpt lat="59.337232" lon="18.081001">
        <ele>30</ele>
        <time>2019-12-10T08:37:55Z</time>
      </trkpt>
      <trkpt lat="59.337213" lon="18.080987">
        <ele>31</ele>
        <time>2019-12-10T08:37:56Z</time>
      </trkpt>
      <trkpt lat="59.33719" lon="18.08097">
        <ele>31</ele>
        <time>2019-12-10T08:37:57Z</time>
      </trkpt>
      <trkpt lat="59.337163" lon="18.080935">
        <ele>31</ele>
        <time>2019-12-10T08:37:58Z</time>
      </trkpt>
      <trkpt lat="59.337139" lon="18.080895">
        <ele>31</ele>
        <time>2019-12-10T08:37:59Z</time>
      </trkpt>
      <trkpt lat="59.337121" lon="18.080846">
        <ele>31</ele>
        <time>2019-12-10T08:38:00Z</time>
      </trkpt>
      <trkpt lat="59.337107" lon="18.080817">
        <ele>0</ele>
        <time>2019-12-10T08:38:00Z</time>
      </trkpt>
      <trkpt lat="59.337087" lon="18.080778">
        <ele>32</ele>
        <time>2019-12-10T08:38:01Z</time>
      </trkpt>
      <trkpt lat="59.337057" lon="18.080738">
        <ele>31</ele>
        <time>2019-12-10T08:38:03Z</time>
      </trkpt>
      <trkpt lat="59.337018" lon="18.080698">
        <ele>31</ele>
        <time>2019-12-10T08:38:04Z</time>
      </trkpt>
      <trkpt lat="59.336975" lon="18.080662">
        <ele>0</ele>
        <time>2019-12-10T08:38:04Z</time>
      </trkpt>
      <trkpt lat="59.33693" lon="18.080632">
        <ele>32</ele>
        <time>2019-12-10T08:38:05Z</time>
      </trkpt>
      <trkpt lat="59.336884" lon="18.080598">
        <ele>32</ele>
        <time>2019-12-10T08:38:07Z</time>
      </trkpt>
      <trkpt lat="59.336838" lon="18.080566">
        <ele>31</ele>
        <time>2019-12-10T08:38:08Z</time>
      </trkpt>
      <trkpt lat="59.336775" lon="18.080532">
        <ele>31</ele>
        <time>2019-12-10T08:38:09Z</time>
      </trkpt>
      <trkpt lat="59.336714" lon="18.080496">
        <ele>31</ele>
        <time>2019-12-10T08:38:10Z</time>
      </trkpt>
      <trkpt lat="59.336665" lon="18.080458">
        <ele>31</ele>
        <time>2019-12-10T08:38:11Z</time>
      </trkpt>
      <trkpt lat="59.336627" lon="18.080424">
        <ele>31</ele>
        <time>2019-12-10T08:38:12Z</time>
      </trkpt>
      <trkpt lat="59.336591" lon="18.08039">
        <ele>32</ele>
        <time>2019-12-10T08:38:13Z</time>
      </trkpt>
      <trkpt lat="59.336548" lon="18.080352">
        <ele>32</ele>
        <time>2019-12-10T08:38:14Z</time>
      </trkpt>
      <trkpt lat="59.336503" lon="18.080308">
        <ele>0</ele>
        <time>2019-12-10T08:38:14Z</time>
      </trkpt>
      <trkpt lat="59.336458" lon="18.080268">
        <ele>32</ele>
        <time>2019-12-10T08:38:15Z</time>
      </trkpt>
      <trkpt lat="59.336411" lon="18.080236">
        <ele>32</ele>
        <time>2019-12-10T08:38:17Z</time>
      </trkpt>
      <trkpt lat="59.336366" lon="18.0802">
        <ele>33</ele>
        <time>2019-12-10T08:38:18Z</time>
      </trkpt>
      <trkpt lat="59.336319" lon="18.080162">
        <ele>33</ele>
        <time>2019-12-10T08:38:19Z</time>
      </trkpt>
      <trkpt lat="59.336275" lon="18.080122">
        <ele>0</ele>
        <time>2019-12-10T08:38:19Z</time>
      </trkpt>
      <trkpt lat="59.336229" lon="18.08008">
        <ele>33</ele>
        <time>2019-12-10T08:38:20Z</time>
      </trkpt>
      <trkpt lat="59.336178" lon="18.080032">
        <ele>34</ele>
        <time>2019-12-10T08:38:22Z</time>
      </trkpt>
      <trkpt lat="59.336134" lon="18.07998">
        <ele>34</ele>
        <time>2019-12-10T08:38:23Z</time>
      </trkpt>
      <trkpt lat="59.33609" lon="18.079924">
        <ele>33</ele>
        <time>2019-12-10T08:38:24Z</time>
      </trkpt>
      <trkpt lat="59.33604" lon="18.079872">
        <ele>0</ele>
        <time>2019-12-10T08:38:24Z</time>
      </trkpt>
      <trkpt lat="59.335995" lon="18.079832">
        <ele>33</ele>
        <time>2019-12-10T08:38:25Z</time>
      </trkpt>
      <trkpt lat="59.335947" lon="18.079792">
        <ele>33</ele>
        <time>2019-12-10T08:38:27Z</time>
      </trkpt>
      <trkpt lat="59.335897" lon="18.079762">
        <ele>33</ele>
        <time>2019-12-10T08:38:28Z</time>
      </trkpt>
      <trkpt lat="59.335849" lon="18.079736">
        <ele>33</ele>
        <time>2019-12-10T08:38:29Z</time>
      </trkpt>
      <trkpt lat="59.335801" lon="18.079714">
        <ele>32</ele>
        <time>2019-12-10T08:38:30Z</time>
      </trkpt>
      <trkpt lat="59.335756" lon="18.079688">
        <ele>32</ele>
        <time>2019-12-10T08:38:31Z</time>
      </trkpt>
      <trkpt lat="59.335711" lon="18.07966">
        <ele>32</ele>
        <time>2019-12-10T08:38:32Z</time>
      </trkpt>
      <trkpt lat="59.335665" lon="18.079626">
        <ele>31</ele>
        <time>2019-12-10T08:38:33Z</time>
      </trkpt>
      <trkpt lat="59.335619" lon="18.079586">
        <ele>30</ele>
        <time>2019-12-10T08:38:34Z</time>
      </trkpt>
      <trkpt lat="59.335567" lon="18.079544">
        <ele>0</ele>
        <time>2019-12-10T08:38:34Z</time>
      </trkpt>
      <trkpt lat="59.335511" lon="18.079506">
        <ele>29</ele>
        <time>2019-12-10T08:38:35Z</time>
      </trkpt>
      <trkpt lat="59.335454" lon="18.079466">
        <ele>28</ele>
        <time>2019-12-10T08:38:37Z</time>
      </trkpt>
      <trkpt lat="59.335398" lon="18.079422">
        <ele>28</ele>
        <time>2019-12-10T08:38:38Z</time>
      </trkpt>
      <trkpt lat="59.33534" lon="18.079378">
        <ele>0</ele>
        <time>2019-12-10T08:38:38Z</time>
      </trkpt>
      <trkpt lat="59.335281" lon="18.079334">
        <ele>27</ele>
        <time>2019-12-10T08:38:39Z</time>
      </trkpt>
      <trkpt lat="59.33522" lon="18.07929">
        <ele>26</ele>
        <time>2019-12-10T08:38:41Z</time>
      </trkpt>
      <trkpt lat="59.33516" lon="18.07924">
        <ele>26</ele>
        <time>2019-12-10T08:38:42Z</time>
      </trkpt>
      <trkpt lat="59.335097" lon="18.079194">
        <ele>0</ele>
        <time>2019-12-10T08:38:42Z</time>
      </trkpt>
      <trkpt lat="59.335034" lon="18.079144">
        <ele>25</ele>
        <time>2019-12-10T08:38:43Z</time>
      </trkpt>
      <trkpt lat="59.334972" lon="18.079094">
        <ele>24</ele>
        <time>2019-12-10T08:38:45Z</time>
      </trkpt>
      <trkpt lat="59.33491" lon="18.079046">
        <ele>24</ele>
        <time>2019-12-10T08:38:46Z</time>
      </trkpt>
      <trkpt lat="59.33485" lon="18.079">
        <ele>24</ele>
        <time>2019-12-10T08:38:47Z</time>
      </trkpt>
      <trkpt lat="59.334791" lon="18.078948">
        <ele>23</ele>
        <time>2019-12-10T08:38:48Z</time>
      </trkpt>
      <trkpt lat="59.334731" lon="18.078898">
        <ele>23</ele>
        <time>2019-12-10T08:38:49Z</time>
      </trkpt>
      <trkpt lat="59.33467" lon="18.078846">
        <ele>0</ele>
        <time>2019-12-10T08:38:49Z</time>
      </trkpt>
      <trkpt lat="59.334608" lon="18.078794">
        <ele>23</ele>
        <time>2019-12-10T08:38:50Z</time>
      </trkpt>
      <trkpt lat="59.334546" lon="18.07874">
        <ele>22</ele>
        <time>2019-12-10T08:38:52Z</time>
      </trkpt>
      <trkpt lat="59.334483" lon="18.078688">
        <ele>22</ele>
        <time>2019-12-10T08:38:53Z</time>
      </trkpt>
      <trkpt lat="59.334421" lon="18.078636">
        <ele>22</ele>
        <time>2019-12-10T08:38:54Z</time>
      </trkpt>
      <trkpt lat="59.334361" lon="18.078586">
        <ele>21</ele>
        <time>2019-12-10T08:38:55Z</time>
      </trkpt>
      <trkpt lat="59.334302" lon="18.078538">
        <ele>21</ele>
        <time>2019-12-10T08:38:56Z</time>
      </trkpt>
      <trkpt lat="59.334248" lon="18.078478">
        <ele>20</ele>
        <time>2019-12-10T08:38:57Z</time>
      </trkpt>
      <trkpt lat="59.334194" lon="18.078422">
        <ele>0</ele>
        <time>2019-12-10T08:38:57Z</time>
      </trkpt>
      <trkpt lat="59.334141" lon="18.07837">
        <ele>20</ele>
        <time>2019-12-10T08:38:58Z</time>
      </trkpt>
      <trkpt lat="59.334087" lon="18.078326">
        <ele>19</ele>
        <time>2019-12-10T08:39:00Z</time>
      </trkpt>
      <trkpt lat="59.334031" lon="18.078284">
        <ele>18</ele>
        <time>2019-12-10T08:39:01Z</time>
      </trkpt>
      <trkpt lat="59.333975" lon="18.078234">
        <ele>18</ele>
        <time>2019-12-10T08:39:02Z</time>
      </trkpt>
      <trkpt lat="59.33392" lon="18.07818">
        <ele>17</ele>
        <time>2019-12-10T08:39:03Z</time>
      </trkpt>
      <trkpt lat="59.333865" lon="18.078125">
        <ele>17</ele>
        <time>2019-12-10T08:39:04Z</time>
      </trkpt>
      <trkpt lat="59.333811" lon="18.078068">
        <ele>16</ele>
        <time>2019-12-10T08:39:05Z</time>
      </trkpt>
      <trkpt lat="59.333758" lon="18.078008">
        <ele>0</ele>
        <time>2019-12-10T08:39:05Z</time>
      </trkpt>
      <trkpt lat="59.333705" lon="18.077951">
        <ele>16</ele>
        <time>2019-12-10T08:39:06Z</time>
      </trkpt>
      <trkpt lat="59.333653" lon="18.077895">
        <ele>14</ele>
        <time>2019-12-10T08:39:08Z</time>
      </trkpt>
      <trkpt lat="59.3336" lon="18.077841">
        <ele>14</ele>
        <time>2019-12-10T08:39:09Z</time>
      </trkpt>
      <trkpt lat="59.333545" lon="18.07779">
        <ele>14</ele>
        <time>2019-12-10T08:39:10Z</time>
      </trkpt>
      <trkpt lat="59.333492" lon="18.07773">
        <ele>13</ele>
        <time>2019-12-10T08:39:11Z</time>
      </trkpt>
      <trkpt lat="59.333435" lon="18.077678">
        <ele>13</ele>
        <time>2019-12-10T08:39:12Z</time>
      </trkpt>
      <trkpt lat="59.333375" lon="18.077633">
        <ele>13</ele>
        <time>2019-12-10T08:39:13Z</time>
      </trkpt>
      <trkpt lat="59.333314" lon="18.077591">
        <ele>0</ele>
        <time>2019-12-10T08:39:13Z</time>
      </trkpt>
      <trkpt lat="59.333255" lon="18.077545">
        <ele>13</ele>
        <time>2019-12-10T08:39:14Z</time>
      </trkpt>
      <trkpt lat="59.333201" lon="18.077504">
        <ele>12</ele>
        <time>2019-12-10T08:39:16Z</time>
      </trkpt>
      <trkpt lat="59.333152" lon="18.077457">
        <ele>0</ele>
        <time>2019-12-10T08:39:16Z</time>
      </trkpt>
      <trkpt lat="59.333105" lon="18.07741">
        <ele>12</ele>
        <time>2019-12-10T08:39:17Z</time>
      </trkpt>
      <trkpt lat="59.33306" lon="18.077372">
        <ele>11</ele>
        <time>2019-12-10T08:39:19Z</time>
      </trkpt>
      <trkpt lat="59.333017" lon="18.077338">
        <ele>11</ele>
        <time>2019-12-10T08:39:20Z</time>
      </trkpt>
      <trkpt lat="59.332976" lon="18.077306">
        <ele>11</ele>
        <time>2019-12-10T08:39:21Z</time>
      </trkpt>
      <trkpt lat="59.33294" lon="18.077278">
        <ele>12</ele>
        <time>2019-12-10T08:39:22Z</time>
      </trkpt>
      <trkpt lat="59.332901" lon="18.077275">
        <ele>12</ele>
        <time>2019-12-10T08:39:23Z</time>
      </trkpt>
      <trkpt lat="59.332872" lon="18.077254">
        <ele>11</ele>
        <time>2019-12-10T08:39:24Z</time>
      </trkpt>
      <trkpt lat="59.33285" lon="18.077221">
        <ele>11</ele>
        <time>2019-12-10T08:39:25Z</time>
      </trkpt>
      <trkpt lat="59.332831" lon="18.077189">
        <ele>0</ele>
        <time>2019-12-10T08:39:25Z</time>
      </trkpt>
      <trkpt lat="59.332817" lon="18.07716">
        <ele>10</ele>
        <time>2019-12-10T08:39:26Z</time>
      </trkpt>
      <trkpt lat="59.332808" lon="18.077111">
        <ele>9</ele>
        <time>2019-12-10T08:39:29Z</time>
      </trkpt>
      <trkpt lat="59.332821" lon="18.077069">
        <ele>9</ele>
        <time>2019-12-10T08:39:31Z</time>
      </trkpt>
      <trkpt lat="59.332831" lon="18.077038">
        <ele>8</ele>
        <time>2019-12-10T08:39:32Z</time>
      </trkpt>
      <trkpt lat="59.332843" lon="18.076994">
        <ele>8</ele>
        <time>2019-12-10T08:39:33Z</time>
      </trkpt>
      <trkpt lat="59.332856" lon="18.076944">
        <ele>7</ele>
        <time>2019-12-10T08:39:34Z</time>
      </trkpt>
      <trkpt lat="59.332875" lon="18.076878">
        <ele>7</ele>
        <time>2019-12-10T08:39:35Z</time>
      </trkpt>
      <trkpt lat="59.332893" lon="18.076814">
        <ele>0</ele>
        <time>2019-12-10T08:39:35Z</time>
      </trkpt>
      <trkpt lat="59.332909" lon="18.076754">
        <ele>6</ele>
        <time>2019-12-10T08:39:36Z</time>
      </trkpt>
      <trkpt lat="59.332923" lon="18.076697">
        <ele>6</ele>
        <time>2019-12-10T08:39:38Z</time>
      </trkpt>
      <trkpt lat="59.332938" lon="18.076641">
        <ele>6</ele>
        <time>2019-12-10T08:39:39Z</time>
      </trkpt>
      <trkpt lat="59.332951" lon="18.076589">
        <ele>6</ele>
        <time>2019-12-10T08:39:40Z</time>
      </trkpt>
      <trkpt lat="59.332964" lon="18.076539">
        <ele>6</ele>
        <time>2019-12-10T08:39:41Z</time>
      </trkpt>
      <trkpt lat="59.332977" lon="18.076492">
        <ele>6</ele>
        <time>2019-12-10T08:39:42Z</time>
      </trkpt>
      <trkpt lat="59.332993" lon="18.076451">
        <ele>5</ele>
        <time>2019-12-10T08:39:43Z</time>
      </trkpt>
      <trkpt lat="59.333013" lon="18.076412">
        <ele>5</ele>
        <time>2019-12-10T08:39:44Z</time>
      </trkpt>
      <trkpt lat="59.333032" lon="18.076374">
        <ele>5</ele>
        <time>2019-12-10T08:39:45Z</time>
      </trkpt>
      <trkpt lat="59.333052" lon="18.076337">
        <ele>0</ele>
        <time>2019-12-10T08:39:45Z</time>
      </trkpt>
      <trkpt lat="59.333069" lon="18.0763">
        <ele>5</ele>
        <time>2019-12-10T08:39:46Z</time>
      </trkpt>
      <trkpt lat="59.333085" lon="18.076263">
        <ele>4</ele>
        <time>2019-12-10T08:39:48Z</time>
      </trkpt>
      <trkpt lat="59.333099" lon="18.076231">
        <ele>4</ele>
        <time>2019-12-10T08:39:49Z</time>
      </trkpt>
      <trkpt lat="59.333112" lon="18.076203">
        <ele>4</ele>
        <time>2019-12-10T08:39:50Z</time>
      </trkpt>
      <trkpt lat="59.333125" lon="18.076156">
        <ele>4</ele>
        <time>2019-12-10T08:39:52Z</time>
      </trkpt>
      <trkpt lat="59.333123" lon="18.076119">
        <ele>4</ele>
        <time>2019-12-10T08:39:54Z</time>
      </trkpt>
      <trkpt lat="59.333123" lon="18.076119">
        <ele>0</ele>
        <time>2019-12-10T08:39:58Z</time>
      </trkpt>
      <trkpt lat="59.333094" lon="18.076071">
        <ele>5</ele>
        <time>2019-12-10T08:40:58Z</time>
      </trkpt>
      <trkpt lat="59.333071" lon="18.076045">
        <ele>5</ele>
        <time>2019-12-10T08:40:59Z</time>
      </trkpt>
      <trkpt lat="59.333046" lon="18.076018">
        <ele>6</ele>
        <time>2019-12-10T08:41:01Z</time>
      </trkpt>
      <trkpt lat="59.333018" lon="18.075993">
        <ele>6</ele>
        <time>2019-12-10T08:41:02Z</time>
      </trkpt>
      <trkpt lat="59.332991" lon="18.075968">
        <ele>6</ele>
        <time>2019-12-10T08:41:03Z</time>
      </trkpt>
      <trkpt lat="59.332965" lon="18.075943">
        <ele>6</ele>
        <time>2019-12-10T08:41:04Z</time>
      </trkpt>
      <trkpt lat="59.332939" lon="18.075919">
        <ele>6</ele>
        <time>2019-12-10T08:41:05Z</time>
      </trkpt>
      <trkpt lat="59.332913" lon="18.075896">
        <ele>6</ele>
        <time>2019-12-10T08:41:06Z</time>
      </trkpt>
      <trkpt lat="59.332887" lon="18.075876">
        <ele>5</ele>
        <time>2019-12-10T08:41:07Z</time>
      </trkpt>
      <trkpt lat="59.332858" lon="18.075858">
        <ele>5</ele>
        <time>2019-12-10T08:41:08Z</time>
      </trkpt>
      <trkpt lat="59.332831" lon="18.07584">
        <ele>5</ele>
        <time>2019-12-10T08:41:09Z</time>
      </trkpt>
      <trkpt lat="59.332806" lon="18.07582">
        <ele>6</ele>
        <time>2019-12-10T08:41:10Z</time>
      </trkpt>
      <trkpt lat="59.332784" lon="18.075797">
        <ele>6</ele>
        <time>2019-12-10T08:41:11Z</time>
      </trkpt>
      <trkpt lat="59.332763" lon="18.07577">
        <ele>6</ele>
        <time>2019-12-10T08:41:12Z</time>
      </trkpt>
      <trkpt lat="59.332744" lon="18.075734">
        <ele>0</ele>
        <time>2019-12-10T08:41:12Z</time>
      </trkpt>
      <trkpt lat="59.332729" lon="18.075689">
        <ele>6</ele>
        <time>2019-12-10T08:41:13Z</time>
      </trkpt>
      <trkpt lat="59.332716" lon="18.075636">
        <ele>6</ele>
        <time>2019-12-10T08:41:15Z</time>
      </trkpt>
      <trkpt lat="59.332705" lon="18.075577">
        <ele>6</ele>
        <time>2019-12-10T08:41:16Z</time>
      </trkpt>
      <trkpt lat="59.332694" lon="18.075516">
        <ele>6</ele>
        <time>2019-12-10T08:41:17Z</time>
      </trkpt>
      <trkpt lat="59.332683" lon="18.075456">
        <ele>0</ele>
        <time>2019-12-10T08:41:17Z</time>
      </trkpt>
      <trkpt lat="59.332672" lon="18.075402">
        <ele>6</ele>
        <time>2019-12-10T08:41:18Z</time>
      </trkpt>
      <trkpt lat="59.332659" lon="18.075356">
        <ele>6</ele>
        <time>2019-12-10T08:41:20Z</time>
      </trkpt>
      <trkpt lat="59.332645" lon="18.075319">
        <ele>6</ele>
        <time>2019-12-10T08:41:21Z</time>
      </trkpt>
      <trkpt lat="59.332629" lon="18.075289">
        <ele>6</ele>
        <time>2019-12-10T08:41:22Z</time>
      </trkpt>
      <trkpt lat="59.332602" lon="18.075263">
        <ele>6</ele>
        <time>2019-12-10T08:41:24Z</time>
      </trkpt>
      <trkpt lat="59.332582" lon="18.075261">
        <ele>6</ele>
        <time>2019-12-10T08:41:26Z</time>
      </trkpt>
      <trkpt lat="59.332556" lon="18.075264">
        <ele>5</ele>
        <time>2019-12-10T08:41:29Z</time>
      </trkpt>
      <trkpt lat="59.332533" lon="18.075265">
        <ele>5</ele>
        <time>2019-12-10T08:41:31Z</time>
      </trkpt>
      <trkpt lat="59.332505" lon="18.075263">
        <ele>5</ele>
        <time>2019-12-10T08:41:33Z</time>
      </trkpt>
      <trkpt lat="59.332485" lon="18.075256">
        <ele>5</ele>
        <time>2019-12-10T08:41:34Z</time>
      </trkpt>
      <trkpt lat="59.332461" lon="18.075245">
        <ele>5</ele>
        <time>2019-12-10T08:41:35Z</time>
      </trkpt>
      <trkpt lat="59.332436" lon="18.075231">
        <ele>5</ele>
        <time>2019-12-10T08:41:36Z</time>
      </trkpt>
      <trkpt lat="59.332407" lon="18.075207">
        <ele>0</ele>
        <time>2019-12-10T08:41:36Z</time>
      </trkpt>
      <trkpt lat="59.332379" lon="18.075175">
        <ele>4</ele>
        <time>2019-12-10T08:41:37Z</time>
      </trkpt>
      <trkpt lat="59.332352" lon="18.075138">
        <ele>4</ele>
        <time>2019-12-10T08:41:39Z</time>
      </trkpt>
      <trkpt lat="59.332326" lon="18.075098">
        <ele>4</ele>
        <time>2019-12-10T08:41:40Z</time>
      </trkpt>
      <trkpt lat="59.332299" lon="18.075058">
        <ele>4</ele>
        <time>2019-12-10T08:41:41Z</time>
      </trkpt>
      <trkpt lat="59.332272" lon="18.075017">
        <ele>4</ele>
        <time>2019-12-10T08:41:42Z</time>
      </trkpt>
      <trkpt lat="59.332245" lon="18.074975">
        <ele>4</ele>
        <time>2019-12-10T08:41:43Z</time>
      </trkpt>
      <trkpt lat="59.332219" lon="18.074935">
        <ele>4</ele>
        <time>2019-12-10T08:41:44Z</time>
      </trkpt>
      <trkpt lat="59.332189" lon="18.074897">
        <ele>4</ele>
        <time>2019-12-10T08:41:45Z</time>
      </trkpt>
      <trkpt lat="59.33216" lon="18.074862">
        <ele>5</ele>
        <time>2019-12-10T08:41:46Z</time>
      </trkpt>
      <trkpt lat="59.332131" lon="18.074829">
        <ele>5</ele>
        <time>2019-12-10T08:41:47Z</time>
      </trkpt>
      <trkpt lat="59.332105" lon="18.074798">
        <ele>4</ele>
        <time>2019-12-10T08:41:48Z</time>
      </trkpt>
      <trkpt lat="59.33208" lon="18.074769">
        <ele>4</ele>
        <time>2019-12-10T08:41:49Z</time>
      </trkpt>
      <trkpt lat="59.332057" lon="18.074739">
        <ele>4</ele>
        <time>2019-12-10T08:41:50Z</time>
      </trkpt>
      <trkpt lat="59.332036" lon="18.074705">
        <ele>5</ele>
        <time>2019-12-10T08:41:51Z</time>
      </trkpt>
      <trkpt lat="59.332014" lon="18.074667">
        <ele>5</ele>
        <time>2019-12-10T08:41:52Z</time>
      </trkpt>
      <trkpt lat="59.33199" lon="18.07463">
        <ele>0</ele>
        <time>2019-12-10T08:41:52Z</time>
      </trkpt>
      <trkpt lat="59.331963" lon="18.074597">
        <ele>5</ele>
        <time>2019-12-10T08:41:53Z</time>
      </trkpt>
      <trkpt lat="59.331936" lon="18.074563">
        <ele>5</ele>
        <time>2019-12-10T08:41:55Z</time>
      </trkpt>
      <trkpt lat="59.331906" lon="18.074525">
        <ele>0</ele>
        <time>2019-12-10T08:41:55Z</time>
      </trkpt>
      <trkpt lat="59.331879" lon="18.074491">
        <ele>5</ele>
        <time>2019-12-10T08:41:56Z</time>
      </trkpt>
      <trkpt lat="59.331849" lon="18.074455">
        <ele>6</ele>
        <time>2019-12-10T08:41:58Z</time>
      </trkpt>
      <trkpt lat="59.331824" lon="18.07442">
        <ele>7</ele>
        <time>2019-12-10T08:41:59Z</time>
      </trkpt>
      <trkpt lat="59.331803" lon="18.074387">
        <ele>7</ele>
        <time>2019-12-10T08:42:00Z</time>
      </trkpt>
      <trkpt lat="59.331783" lon="18.074352">
        <ele>8</ele>
        <time>2019-12-10T08:42:01Z</time>
      </trkpt>
      <trkpt lat="59.331767" lon="18.074313">
        <ele>9</ele>
        <time>2019-12-10T08:42:02Z</time>
      </trkpt>
      <trkpt lat="59.331742" lon="18.074264">
        <ele>9</ele>
        <time>2019-12-10T08:42:03Z</time>
      </trkpt>
      <trkpt lat="59.331721" lon="18.074202">
        <ele>9</ele>
        <time>2019-12-10T08:42:04Z</time>
      </trkpt>
      <trkpt lat="59.331698" lon="18.074144">
        <ele>10</ele>
        <time>2019-12-10T08:42:05Z</time>
      </trkpt>
      <trkpt lat="59.331678" lon="18.074078">
        <ele>10</ele>
        <time>2019-12-10T08:42:06Z</time>
      </trkpt>
      <trkpt lat="59.331659" lon="18.074012">
        <ele>0</ele>
        <time>2019-12-10T08:42:06Z</time>
      </trkpt>
      <trkpt lat="59.331636" lon="18.073947">
        <ele>10</ele>
        <time>2019-12-10T08:42:07Z</time>
      </trkpt>
      <trkpt lat="59.331614" lon="18.073878">
        <ele>11</ele>
        <time>2019-12-10T08:42:09Z</time>
      </trkpt>
      <trkpt lat="59.331598" lon="18.07381">
        <ele>11</ele>
        <time>2019-12-10T08:42:10Z</time>
      </trkpt>
      <trkpt lat="59.33158" lon="18.073743">
        <ele>12</ele>
        <time>2019-12-10T08:42:11Z</time>
      </trkpt>
      <trkpt lat="59.331566" lon="18.073677">
        <ele>12</ele>
        <time>2019-12-10T08:42:12Z</time>
      </trkpt>
      <trkpt lat="59.331555" lon="18.073606">
        <ele>12</ele>
        <time>2019-12-10T08:42:13Z</time>
      </trkpt>
      <trkpt lat="59.331538" lon="18.073534">
        <ele>12</ele>
        <time>2019-12-10T08:42:14Z</time>
      </trkpt>
      <trkpt lat="59.33152" lon="18.073459">
        <ele>0</ele>
        <time>2019-12-10T08:42:14Z</time>
      </trkpt>
      <trkpt lat="59.331508" lon="18.073387">
        <ele>13</ele>
        <time>2019-12-10T08:42:15Z</time>
      </trkpt>
      <trkpt lat="59.3315" lon="18.07332">
        <ele>13</ele>
        <time>2019-12-10T08:42:17Z</time>
      </trkpt>
      <trkpt lat="59.331496" lon="18.07325">
        <ele>14</ele>
        <time>2019-12-10T08:42:18Z</time>
      </trkpt>
      <trkpt lat="59.331489" lon="18.073181">
        <ele>14</ele>
        <time>2019-12-10T08:42:19Z</time>
      </trkpt>
      <trkpt lat="59.331481" lon="18.073114">
        <ele>14</ele>
        <time>2019-12-10T08:42:20Z</time>
      </trkpt>
      <trkpt lat="59.331476" lon="18.073048">
        <ele>0</ele>
        <time>2019-12-10T08:42:20Z</time>
      </trkpt>
      <trkpt lat="59.331472" lon="18.072989">
        <ele>14</ele>
        <time>2019-12-10T08:42:21Z</time>
      </trkpt>
      <trkpt lat="59.331466" lon="18.072932">
        <ele>15</ele>
        <time>2019-12-10T08:42:23Z</time>
      </trkpt>
      <trkpt lat="59.331461" lon="18.072874">
        <ele>15</ele>
        <time>2019-12-10T08:42:24Z</time>
      </trkpt>
      <trkpt lat="59.331458" lon="18.072817">
        <ele>15</ele>
        <time>2019-12-10T08:42:25Z</time>
      </trkpt>
      <trkpt lat="59.331453" lon="18.072765">
        <ele>15</ele>
        <time>2019-12-10T08:42:26Z</time>
      </trkpt>
      <trkpt lat="59.331445" lon="18.072717">
        <ele>14</ele>
        <time>2019-12-10T08:42:27Z</time>
      </trkpt>
      <trkpt lat="59.331427" lon="18.072665">
        <ele>13</ele>
        <time>2019-12-10T08:42:28Z</time>
      </trkpt>
      <trkpt lat="59.331412" lon="18.072615">
        <ele>13</ele>
        <time>2019-12-10T08:42:29Z</time>
      </trkpt>
      <trkpt lat="59.331401" lon="18.072574">
        <ele>13</ele>
        <time>2019-12-10T08:42:30Z</time>
      </trkpt>
      <trkpt lat="59.331391" lon="18.072538">
        <ele>13</ele>
        <time>2019-12-10T08:42:31Z</time>
      </trkpt>
      <trkpt lat="59.331377" lon="18.072509">
        <ele>13</ele>
        <time>2019-12-10T08:42:32Z</time>
      </trkpt>
      <trkpt lat="59.331354" lon="18.072493">
        <ele>12</ele>
        <time>2019-12-10T08:42:33Z</time>
      </trkpt>
      <trkpt lat="59.331324" lon="18.072489">
        <ele>0</ele>
        <time>2019-12-10T08:42:33Z</time>
      </trkpt>
      <trkpt lat="59.331289" lon="18.072498">
        <ele>12</ele>
        <time>2019-12-10T08:42:34Z</time>
      </trkpt>
      <trkpt lat="59.331252" lon="18.072516">
        <ele>13</ele>
        <time>2019-12-10T08:42:36Z</time>
      </trkpt>
      <trkpt lat="59.33121" lon="18.072541">
        <ele>0</ele>
        <time>2019-12-10T08:42:36Z</time>
      </trkpt>
      <trkpt lat="59.331165" lon="18.072567">
        <ele>13</ele>
        <time>2019-12-10T08:42:37Z</time>
      </trkpt>
      <trkpt lat="59.33112" lon="18.072596">
        <ele>13</ele>
        <time>2019-12-10T08:42:39Z</time>
      </trkpt>
      <trkpt lat="59.331075" lon="18.072625">
        <ele>13</ele>
        <time>2019-12-10T08:42:40Z</time>
      </trkpt>
      <trkpt lat="59.331028" lon="18.072653">
        <ele>13</ele>
        <time>2019-12-10T08:42:41Z</time>
      </trkpt>
      <trkpt lat="59.33098" lon="18.072683">
        <ele>13</ele>
        <time>2019-12-10T08:42:42Z</time>
      </trkpt>
      <trkpt lat="59.330933" lon="18.072712">
        <ele>13</ele>
        <time>2019-12-10T08:42:43Z</time>
      </trkpt>
      <trkpt lat="59.330882" lon="18.07274">
        <ele>13</ele>
        <time>2019-12-10T08:42:44Z</time>
      </trkpt>
      <trkpt lat="59.330833" lon="18.07277">
        <ele>13</ele>
        <time>2019-12-10T08:42:45Z</time>
      </trkpt>
      <trkpt lat="59.330784" lon="18.072801">
        <ele>13</ele>
        <time>2019-12-10T08:42:46Z</time>
      </trkpt>
      <trkpt lat="59.330733" lon="18.072832">
        <ele>0</ele>
        <time>2019-12-10T08:42:46Z</time>
      </trkpt>
      <trkpt lat="59.33068" lon="18.072858">
        <ele>14</ele>
        <time>2019-12-10T08:42:47Z</time>
      </trkpt>
      <trkpt lat="59.330628" lon="18.07289">
        <ele>13</ele>
        <time>2019-12-10T08:42:49Z</time>
      </trkpt>
      <trkpt lat="59.330575" lon="18.072918">
        <ele>13</ele>
        <time>2019-12-10T08:42:50Z</time>
      </trkpt>
      <trkpt lat="59.330518" lon="18.072941">
        <ele>13</ele>
        <time>2019-12-10T08:42:51Z</time>
      </trkpt>
      <trkpt lat="59.33046" lon="18.072964">
        <ele>13</ele>
        <time>2019-12-10T08:42:52Z</time>
      </trkpt>
      <trkpt lat="59.3304" lon="18.072989">
        <ele>0</ele>
        <time>2019-12-10T08:42:52Z</time>
      </trkpt>
      <trkpt lat="59.33034" lon="18.073014">
        <ele>13</ele>
        <time>2019-12-10T08:42:53Z</time>
      </trkpt>
      <trkpt lat="59.330279" lon="18.073041">
        <ele>13</ele>
        <time>2019-12-10T08:42:55Z</time>
      </trkpt>
      <trkpt lat="59.330216" lon="18.073068">
        <ele>0</ele>
        <time>2019-12-10T08:42:55Z</time>
      </trkpt>
      <trkpt lat="59.330153" lon="18.073097">
        <ele>12</ele>
        <time>2019-12-10T08:42:56Z</time>
      </trkpt>
      <trkpt lat="59.330092" lon="18.073133">
        <ele>12</ele>
        <time>2019-12-10T08:42:58Z</time>
      </trkpt>
      <trkpt lat="59.330031" lon="18.073169">
        <ele>13</ele>
        <time>2019-12-10T08:42:59Z</time>
      </trkpt>
      <trkpt lat="59.329972" lon="18.0732">
        <ele>13</ele>
        <time>2019-12-10T08:43:00Z</time>
      </trkpt>
      <trkpt lat="59.329915" lon="18.073228">
        <ele>13</ele>
        <time>2019-12-10T08:43:01Z</time>
      </trkpt>
      <trkpt lat="59.329864" lon="18.073251">
        <ele>14</ele>
        <time>2019-12-10T08:43:02Z</time>
      </trkpt>
      <trkpt lat="59.329814" lon="18.073264">
        <ele>13</ele>
        <time>2019-12-10T08:43:03Z</time>
      </trkpt>
      <trkpt lat="59.329758" lon="18.073266">
        <ele>0</ele>
        <time>2019-12-10T08:43:03Z</time>
      </trkpt>
      <trkpt lat="59.3297" lon="18.073248">
        <ele>13</ele>
        <time>2019-12-10T08:43:04Z</time>
      </trkpt>
      <trkpt lat="59.329634" lon="18.073217">
        <ele>13</ele>
        <time>2019-12-10T08:43:06Z</time>
      </trkpt>
      <trkpt lat="59.329571" lon="18.07319">
        <ele>13</ele>
        <time>2019-12-10T08:43:07Z</time>
      </trkpt>
      <trkpt lat="59.329509" lon="18.073171">
        <ele>12</ele>
        <time>2019-12-10T08:43:08Z</time>
      </trkpt>
      <trkpt lat="59.329447" lon="18.073156">
        <ele>12</ele>
        <time>2019-12-10T08:43:09Z</time>
      </trkpt>
      <trkpt lat="59.329386" lon="18.073141">
        <ele>12</ele>
        <time>2019-12-10T08:43:10Z</time>
      </trkpt>
      <trkpt lat="59.329326" lon="18.073126">
        <ele>12</ele>
        <time>2019-12-10T08:43:11Z</time>
      </trkpt>
      <trkpt lat="59.329269" lon="18.073113">
        <ele>0</ele>
        <time>2019-12-10T08:43:11Z</time>
      </trkpt>
      <trkpt lat="59.329214" lon="18.073102">
        <ele>11</ele>
        <time>2019-12-10T08:43:12Z</time>
      </trkpt>
      <trkpt lat="59.329161" lon="18.073089">
        <ele>11</ele>
        <time>2019-12-10T08:43:14Z</time>
      </trkpt>
      <trkpt lat="59.329106" lon="18.073076">
        <ele>11</ele>
        <time>2019-12-10T08:43:15Z</time>
      </trkpt>
      <trkpt lat="59.329051" lon="18.073063">
        <ele>11</ele>
        <time>2019-12-10T08:43:16Z</time>
      </trkpt>
      <trkpt lat="59.328997" lon="18.07305">
        <ele>11</ele>
        <time>2019-12-10T08:43:17Z</time>
      </trkpt>
      <trkpt lat="59.328942" lon="18.073038">
        <ele>11</ele>
        <time>2019-12-10T08:43:18Z</time>
      </trkpt>
      <trkpt lat="59.328887" lon="18.073026">
        <ele>10</ele>
        <time>2019-12-10T08:43:19Z</time>
      </trkpt>
      <trkpt lat="59.328829" lon="18.073013">
        <ele>10</ele>
        <time>2019-12-10T08:43:20Z</time>
      </trkpt>
      <trkpt lat="59.328771" lon="18.072998">
        <ele>0</ele>
        <time>2019-12-10T08:43:20Z</time>
      </trkpt>
      <trkpt lat="59.328713" lon="18.072983">
        <ele>10</ele>
        <time>2019-12-10T08:43:21Z</time>
      </trkpt>
      <trkpt lat="59.328652" lon="18.072965">
        <ele>11</ele>
        <time>2019-12-10T08:43:23Z</time>
      </trkpt>
      <trkpt lat="59.328596" lon="18.07295">
        <ele>11</ele>
        <time>2019-12-10T08:43:24Z</time>
      </trkpt>
      <trkpt lat="59.328543" lon="18.072936">
        <ele>11</ele>
        <time>2019-12-10T08:43:25Z</time>
      </trkpt>
      <trkpt lat="59.328495" lon="18.072924">
        <ele>12</ele>
        <time>2019-12-10T08:43:26Z</time>
      </trkpt>
      <trkpt lat="59.328449" lon="18.072911">
        <ele>12</ele>
        <time>2019-12-10T08:43:27Z</time>
      </trkpt>
      <trkpt lat="59.328405" lon="18.072897">
        <ele>12</ele>
        <time>2019-12-10T08:43:28Z</time>
      </trkpt>
      <trkpt lat="59.328364" lon="18.072886">
        <ele>12</ele>
        <time>2019-12-10T08:43:29Z</time>
      </trkpt>
      <trkpt lat="59.328328" lon="18.072877">
        <ele>12</ele>
        <time>2019-12-10T08:43:30Z</time>
      </trkpt>
      <trkpt lat="59.328294" lon="18.072869">
        <ele>0</ele>
        <time>2019-12-10T08:43:30Z</time>
      </trkpt>
      <trkpt lat="59.328263" lon="18.072861">
        <ele>11</ele>
        <time>2019-12-10T08:43:31Z</time>
      </trkpt>
      <trkpt lat="59.328237" lon="18.072854">
        <ele>11</ele>
        <time>2019-12-10T08:43:32Z</time>
      </trkpt>
      <trkpt lat="59.328214" lon="18.072847">
        <ele>11</ele>
        <time>2019-12-10T08:43:34Z</time>
      </trkpt>
      <trkpt lat="59.328194" lon="18.072841">
        <ele>11</ele>
        <time>2019-12-10T08:43:35Z</time>
      </trkpt>
      <trkpt lat="59.328167" lon="18.072833">
        <ele>10</ele>
        <time>2019-12-10T08:43:37Z</time>
      </trkpt>
      <trkpt lat="59.328158" lon="18.07283">
        <ele>0</ele>
        <time>2019-12-10T08:43:42Z</time>
      </trkpt>
      <trkpt lat="59.328113" lon="18.072823">
        <ele>10</ele>
        <time>2019-12-10T08:44:06Z</time>
      </trkpt>
      <trkpt lat="59.328081" lon="18.072817">
        <ele>10</ele>
        <time>2019-12-10T08:44:07Z</time>
      </trkpt>
      <trkpt lat="59.328043" lon="18.072813">
        <ele>10</ele>
        <time>2019-12-10T08:44:09Z</time>
      </trkpt>
      <trkpt lat="59.327999" lon="18.072812">
        <ele>10</ele>
        <time>2019-12-10T08:44:10Z</time>
      </trkpt>
      <trkpt lat="59.327953" lon="18.072816">
        <ele>10</ele>
        <time>2019-12-10T08:44:11Z</time>
      </trkpt>
      <trkpt lat="59.327907" lon="18.072831">
        <ele>10</ele>
        <time>2019-12-10T08:44:12Z</time>
      </trkpt>
      <trkpt lat="59.32786" lon="18.072858">
        <ele>9</ele>
        <time>2019-12-10T08:44:13Z</time>
      </trkpt>
      <trkpt lat="59.327812" lon="18.072896">
        <ele>9</ele>
        <time>2019-12-10T08:44:14Z</time>
      </trkpt>
      <trkpt lat="59.327764" lon="18.072944">
        <ele>9</ele>
        <time>2019-12-10T08:44:15Z</time>
      </trkpt>
      <trkpt lat="59.327715" lon="18.072998">
        <ele>0</ele>
        <time>2019-12-10T08:44:15Z</time>
      </trkpt>
      <trkpt lat="59.327665" lon="18.073053">
        <ele>9</ele>
        <time>2019-12-10T08:44:16Z</time>
      </trkpt>
      <trkpt lat="59.327617" lon="18.073111">
        <ele>8</ele>
        <time>2019-12-10T08:44:18Z</time>
      </trkpt>
      <trkpt lat="59.327569" lon="18.073171">
        <ele>8</ele>
        <time>2019-12-10T08:44:19Z</time>
      </trkpt>
      <trkpt lat="59.327521" lon="18.07323">
        <ele>8</ele>
        <time>2019-12-10T08:44:20Z</time>
      </trkpt>
      <trkpt lat="59.327472" lon="18.07329">
        <ele>8</ele>
        <time>2019-12-10T08:44:21Z</time>
      </trkpt>
      <trkpt lat="59.327424" lon="18.073349">
        <ele>8</ele>
        <time>2019-12-10T08:44:22Z</time>
      </trkpt>
      <trkpt lat="59.327377" lon="18.073407">
        <ele>8</ele>
        <time>2019-12-10T08:44:23Z</time>
      </trkpt>
      <trkpt lat="59.32733" lon="18.073464">
        <ele>8</ele>
        <time>2019-12-10T08:44:24Z</time>
      </trkpt>
      <trkpt lat="59.327284" lon="18.073519">
        <ele>0</ele>
        <time>2019-12-10T08:44:24Z</time>
      </trkpt>
      <trkpt lat="59.327238" lon="18.073574">
        <ele>8</ele>
        <time>2019-12-10T08:44:25Z</time>
      </trkpt>
      <trkpt lat="59.327193" lon="18.073629">
        <ele>8</ele>
        <time>2019-12-10T08:44:26Z</time>
      </trkpt>
      <trkpt lat="59.327149" lon="18.073682">
        <ele>8</ele>
        <time>2019-12-10T08:44:28Z</time>
      </trkpt>
      <trkpt lat="59.327106" lon="18.073734">
        <ele>8</ele>
        <time>2019-12-10T08:44:29Z</time>
      </trkpt>
      <trkpt lat="59.327064" lon="18.073785">
        <ele>8</ele>
        <time>2019-12-10T08:44:30Z</time>
      </trkpt>
      <trkpt lat="59.327023" lon="18.073835">
        <ele>8</ele>
        <time>2019-12-10T08:44:31Z</time>
      </trkpt>
      <trkpt lat="59.326983" lon="18.073885">
        <ele>8</ele>
        <time>2019-12-10T08:44:32Z</time>
      </trkpt>
      <trkpt lat="59.326946" lon="18.073932">
        <ele>8</ele>
        <time>2019-12-10T08:44:33Z</time>
      </trkpt>
      <trkpt lat="59.326911" lon="18.073975">
        <ele>8</ele>
        <time>2019-12-10T08:44:34Z</time>
      </trkpt>
      <trkpt lat="59.326879" lon="18.074014">
        <ele>8</ele>
        <time>2019-12-10T08:44:35Z</time>
      </trkpt>
      <trkpt lat="59.32685" lon="18.07405">
        <ele>0</ele>
        <time>2019-12-10T08:44:35Z</time>
      </trkpt>
      <trkpt lat="59.326822" lon="18.074081">
        <ele>8</ele>
        <time>2019-12-10T08:44:36Z</time>
      </trkpt>
      <trkpt lat="59.326796" lon="18.074105">
        <ele>8</ele>
        <time>2019-12-10T08:44:38Z</time>
      </trkpt>
      <trkpt lat="59.326773" lon="18.074127">
        <ele>8</ele>
        <time>2019-12-10T08:44:39Z</time>
      </trkpt>
      <trkpt lat="59.326751" lon="18.07415">
        <ele>8</ele>
        <time>2019-12-10T08:44:40Z</time>
      </trkpt>
      <trkpt lat="59.326728" lon="18.074176">
        <ele>8</ele>
        <time>2019-12-10T08:44:41Z</time>
      </trkpt>
      <trkpt lat="59.326702" lon="18.074205">
        <ele>8</ele>
        <time>2019-12-10T08:44:42Z</time>
      </trkpt>
      <trkpt lat="59.326673" lon="18.074237">
        <ele>7</ele>
        <time>2019-12-10T08:44:43Z</time>
      </trkpt>
      <trkpt lat="59.326642" lon="18.074274">
        <ele>7</ele>
        <time>2019-12-10T08:44:44Z</time>
      </trkpt>
      <trkpt lat="59.326609" lon="18.074315">
        <ele>0</ele>
        <time>2019-12-10T08:44:44Z</time>
      </trkpt>
      <trkpt lat="59.326575" lon="18.074361">
        <ele>7</ele>
        <time>2019-12-10T08:44:45Z</time>
      </trkpt>
      <trkpt lat="59.326539" lon="18.074413">
        <ele>7</ele>
        <time>2019-12-10T08:44:47Z</time>
      </trkpt>
      <trkpt lat="59.326501" lon="18.074471">
        <ele>7</ele>
        <time>2019-12-10T08:44:48Z</time>
      </trkpt>
      <trkpt lat="59.326461" lon="18.07453">
        <ele>7</ele>
        <time>2019-12-10T08:44:49Z</time>
      </trkpt>
      <trkpt lat="59.326419" lon="18.074593">
        <ele>0</ele>
        <time>2019-12-10T08:44:49Z</time>
      </trkpt>
      <trkpt lat="59.326375" lon="18.074659">
        <ele>7</ele>
        <time>2019-12-10T08:44:50Z</time>
      </trkpt>
      <trkpt lat="59.32633" lon="18.074723">
        <ele>6</ele>
        <time>2019-12-10T08:44:52Z</time>
      </trkpt>
      <trkpt lat="59.326282" lon="18.074782">
        <ele>6</ele>
        <time>2019-12-10T08:44:53Z</time>
      </trkpt>
      <trkpt lat="59.326231" lon="18.074839">
        <ele>6</ele>
        <time>2019-12-10T08:44:54Z</time>
      </trkpt>
      <trkpt lat="59.326179" lon="18.074892">
        <ele>6</ele>
        <time>2019-12-10T08:44:55Z</time>
      </trkpt>
      <trkpt lat="59.326126" lon="18.074944">
        <ele>6</ele>
        <time>2019-12-10T08:44:56Z</time>
      </trkpt>
      <trkpt lat="59.326074" lon="18.074993">
        <ele>6</ele>
        <time>2019-12-10T08:44:57Z</time>
      </trkpt>
      <trkpt lat="59.326022" lon="18.075043">
        <ele>0</ele>
        <time>2019-12-10T08:44:57Z</time>
      </trkpt>
      <trkpt lat="59.325972" lon="18.075091">
        <ele>5</ele>
        <time>2019-12-10T08:44:58Z</time>
      </trkpt>
      <trkpt lat="59.325922" lon="18.07514">
        <ele>5</ele>
        <time>2019-12-10T08:45:00Z</time>
      </trkpt>
      <trkpt lat="59.325872" lon="18.075186">
        <ele>5</ele>
        <time>2019-12-10T08:45:01Z</time>
      </trkpt>
      <trkpt lat="59.32582" lon="18.075234">
        <ele>5</ele>
        <time>2019-12-10T08:45:02Z</time>
      </trkpt>
      <trkpt lat="59.325769" lon="18.075284">
        <ele>5</ele>
        <time>2019-12-10T08:45:03Z</time>
      </trkpt>
      <trkpt lat="59.32572" lon="18.075332">
        <ele>0</ele>
        <time>2019-12-10T08:45:03Z</time>
      </trkpt>
      <trkpt lat="59.325671" lon="18.075378">
        <ele>5</ele>
        <time>2019-12-10T08:45:04Z</time>
      </trkpt>
      <trkpt lat="59.325621" lon="18.075422">
        <ele>4</ele>
        <time>2019-12-10T08:45:06Z</time>
      </trkpt>
      <trkpt lat="59.325572" lon="18.075464">
        <ele>0</ele>
        <time>2019-12-10T08:45:06Z</time>
      </trkpt>
      <trkpt lat="59.325522" lon="18.075498">
        <ele>4</ele>
        <time>2019-12-10T08:45:07Z</time>
      </trkpt>
      <trkpt lat="59.325471" lon="18.075522">
        <ele>4</ele>
        <time>2019-12-10T08:45:09Z</time>
      </trkpt>
      <trkpt lat="59.325419" lon="18.075534">
        <ele>4</ele>
        <time>2019-12-10T08:45:10Z</time>
      </trkpt>
      <trkpt lat="59.325365" lon="18.075546">
        <ele>4</ele>
        <time>2019-12-10T08:45:11Z</time>
      </trkpt>
      <trkpt lat="59.325312" lon="18.075552">
        <ele>3</ele>
        <time>2019-12-10T08:45:12Z</time>
      </trkpt>
      <trkpt lat="59.325258" lon="18.075556">
        <ele>3</ele>
        <time>2019-12-10T08:45:13Z</time>
      </trkpt>
      <trkpt lat="59.325205" lon="18.075564">
        <ele>3</ele>
        <time>2019-12-10T08:45:14Z</time>
      </trkpt>
      <trkpt lat="59.325149" lon="18.075574">
        <ele>3</ele>
        <time>2019-12-10T08:45:15Z</time>
      </trkpt>
      <trkpt lat="59.325093" lon="18.075582">
        <ele>3</ele>
        <time>2019-12-10T08:45:16Z</time>
      </trkpt>
      <trkpt lat="59.325035" lon="18.07559">
        <ele>0</ele>
        <time>2019-12-10T08:45:16Z</time>
      </trkpt>
      <trkpt lat="59.324978" lon="18.075594">
        <ele>3</ele>
        <time>2019-12-10T08:45:17Z</time>
      </trkpt>
      <trkpt lat="59.32492" lon="18.075594">
        <ele>2</ele>
        <time>2019-12-10T08:45:19Z</time>
      </trkpt>
      <trkpt lat="59.324862" lon="18.07559">
        <ele>2</ele>
        <time>2019-12-10T08:45:20Z</time>
      </trkpt>
      <trkpt lat="59.324805" lon="18.075584">
        <ele>2</ele>
        <time>2019-12-10T08:45:21Z</time>
      </trkpt>
      <trkpt lat="59.324749" lon="18.075568">
        <ele>2</ele>
        <time>2019-12-10T08:45:22Z</time>
      </trkpt>
      <trkpt lat="59.324694" lon="18.075546">
        <ele>0</ele>
        <time>2019-12-10T08:45:22Z</time>
      </trkpt>
      <trkpt lat="59.324639" lon="18.07552">
        <ele>2</ele>
        <time>2019-12-10T08:45:23Z</time>
      </trkpt>
      <trkpt lat="59.324583" lon="18.075494">
        <ele>0</ele>
        <time>2019-12-10T08:45:24Z</time>
      </trkpt>
      <trkpt lat="59.324528" lon="18.075472">
        <ele>2</ele>
        <time>2019-12-10T08:45:25Z</time>
      </trkpt>
      <trkpt lat="59.324473" lon="18.075454">
        <ele>2</ele>
        <time>2019-12-10T08:45:27Z</time>
      </trkpt>
      <trkpt lat="59.324418" lon="18.075438">
        <ele>2</ele>
        <time>2019-12-10T08:45:28Z</time>
      </trkpt>
      <trkpt lat="59.324363" lon="18.075424">
        <ele>2</ele>
        <time>2019-12-10T08:45:29Z</time>
      </trkpt>
      <trkpt lat="59.324309" lon="18.075412">
        <ele>2</ele>
        <time>2019-12-10T08:45:30Z</time>
      </trkpt>
      <trkpt lat="59.324255" lon="18.075396">
        <ele>2</ele>
        <time>2019-12-10T08:45:31Z</time>
      </trkpt>
      <trkpt lat="59.324201" lon="18.075382">
        <ele>2</ele>
        <time>2019-12-10T08:45:32Z</time>
      </trkpt>
      <trkpt lat="59.324147" lon="18.075366">
        <ele>2</ele>
        <time>2019-12-10T08:45:33Z</time>
      </trkpt>
      <trkpt lat="59.324092" lon="18.075348">
        <ele>0</ele>
        <time>2019-12-10T08:45:33Z</time>
      </trkpt>
      <trkpt lat="59.324037" lon="18.075328">
        <ele>2</ele>
        <time>2019-12-10T08:45:34Z</time>
      </trkpt>
      <trkpt lat="59.323982" lon="18.075304">
        <ele>2</ele>
        <time>2019-12-10T08:45:36Z</time>
      </trkpt>
      <trkpt lat="59.323927" lon="18.07528">
        <ele>3</ele>
        <time>2019-12-10T08:45:37Z</time>
      </trkpt>
      <trkpt lat="59.323873" lon="18.075259">
        <ele>3</ele>
        <time>2019-12-10T08:45:38Z</time>
      </trkpt>
      <trkpt lat="59.323819" lon="18.07524">
        <ele>3</ele>
        <time>2019-12-10T08:45:39Z</time>
      </trkpt>
      <trkpt lat="59.323766" lon="18.075222">
        <ele>3</ele>
        <time>2019-12-10T08:45:40Z</time>
      </trkpt>
      <trkpt lat="59.323713" lon="18.075202">
        <ele>3</ele>
        <time>2019-12-10T08:45:41Z</time>
      </trkpt>
      <trkpt lat="59.32366" lon="18.07518">
        <ele>0</ele>
        <time>2019-12-10T08:45:41Z</time>
      </trkpt>
      <trkpt lat="59.323607" lon="18.07516">
        <ele>3</ele>
        <time>2019-12-10T08:45:42Z</time>
      </trkpt>
      <trkpt lat="59.323555" lon="18.07514">
        <ele>0</ele>
        <time>2019-12-10T08:45:43Z</time>
      </trkpt>
      <trkpt lat="59.323504" lon="18.07512">
        <ele>3</ele>
        <time>2019-12-10T08:45:44Z</time>
      </trkpt>
      <trkpt lat="59.323452" lon="18.0751">
        <ele>3</ele>
        <time>2019-12-10T08:45:46Z</time>
      </trkpt>
      <trkpt lat="59.323401" lon="18.07508">
        <ele>3</ele>
        <time>2019-12-10T08:45:47Z</time>
      </trkpt>
      <trkpt lat="59.323349" lon="18.075062">
        <ele>3</ele>
        <time>2019-12-10T08:45:48Z</time>
      </trkpt>
      <trkpt lat="59.323297" lon="18.07504">
        <ele>3</ele>
        <time>2019-12-10T08:45:49Z</time>
      </trkpt>
      <trkpt lat="59.323245" lon="18.075022">
        <ele>3</ele>
        <time>2019-12-10T08:45:50Z</time>
      </trkpt>
      <trkpt lat="59.323192" lon="18.075">
        <ele>3</ele>
        <time>2019-12-10T08:45:51Z</time>
      </trkpt>
      <trkpt lat="59.323139" lon="18.07498">
        <ele>3</ele>
        <time>2019-12-10T08:45:52Z</time>
      </trkpt>
      <trkpt lat="59.323086" lon="18.07496">
        <ele>0</ele>
        <time>2019-12-10T08:45:52Z</time>
      </trkpt>
      <trkpt lat="59.323034" lon="18.07494">
        <ele>3</ele>
        <time>2019-12-10T08:45:53Z</time>
      </trkpt>
      <trkpt lat="59.322982" lon="18.074914">
        <ele>2</ele>
        <time>2019-12-10T08:45:55Z</time>
      </trkpt>
      <trkpt lat="59.322931" lon="18.074876">
        <ele>2</ele>
        <time>2019-12-10T08:45:56Z</time>
      </trkpt>
      <trkpt lat="59.322882" lon="18.074836">
        <ele>2</ele>
        <time>2019-12-10T08:45:57Z</time>
      </trkpt>
      <trkpt lat="59.322833" lon="18.074788">
        <ele>2</ele>
        <time>2019-12-10T08:45:58Z</time>
      </trkpt>
      <trkpt lat="59.322784" lon="18.07474">
        <ele>2</ele>
        <time>2019-12-10T08:45:59Z</time>
      </trkpt>
      <trkpt lat="59.322736" lon="18.074694">
        <ele>2</ele>
        <time>2019-12-10T08:46:00Z</time>
      </trkpt>
      <trkpt lat="59.322688" lon="18.074642">
        <ele>0</ele>
        <time>2019-12-10T08:46:00Z</time>
      </trkpt>
      <trkpt lat="59.322639" lon="18.074589">
        <ele>2</ele>
        <time>2019-12-10T08:46:01Z</time>
      </trkpt>
      <trkpt lat="59.322588" lon="18.074536">
        <ele>2</ele>
        <time>2019-12-10T08:46:02Z</time>
      </trkpt>
      <trkpt lat="59.322538" lon="18.074484">
        <ele>2</ele>
        <time>2019-12-10T08:46:04Z</time>
      </trkpt>
      <trkpt lat="59.322487" lon="18.074434">
        <ele>2</ele>
        <time>2019-12-10T08:46:05Z</time>
      </trkpt>
      <trkpt lat="59.322438" lon="18.074384">
        <ele>2</ele>
        <time>2019-12-10T08:46:06Z</time>
      </trkpt>
      <trkpt lat="59.322391" lon="18.074329">
        <ele>2</ele>
        <time>2019-12-10T08:46:07Z</time>
      </trkpt>
      <trkpt lat="59.322344" lon="18.074277">
        <ele>2</ele>
        <time>2019-12-10T08:46:08Z</time>
      </trkpt>
      <trkpt lat="59.322294" lon="18.074226">
        <ele>2</ele>
        <time>2019-12-10T08:46:09Z</time>
      </trkpt>
      <trkpt lat="59.322248" lon="18.074175">
        <ele>2</ele>
        <time>2019-12-10T08:46:10Z</time>
      </trkpt>
      <trkpt lat="59.3222" lon="18.074125">
        <ele>0</ele>
        <time>2019-12-10T08:46:10Z</time>
      </trkpt>
      <trkpt lat="59.322152" lon="18.074077">
        <ele>2</ele>
        <time>2019-12-10T08:46:11Z</time>
      </trkpt>
      <trkpt lat="59.322105" lon="18.074031">
        <ele>2</ele>
        <time>2019-12-10T08:46:13Z</time>
      </trkpt>
      <trkpt lat="59.322062" lon="18.073985">
        <ele>2</ele>
        <time>2019-12-10T08:46:14Z</time>
      </trkpt>
      <trkpt lat="59.32202" lon="18.073944">
        <ele>2</ele>
        <time>2019-12-10T08:46:15Z</time>
      </trkpt>
      <trkpt lat="59.321982" lon="18.073903">
        <ele>2</ele>
        <time>2019-12-10T08:46:16Z</time>
      </trkpt>
      <trkpt lat="59.321952" lon="18.073863">
        <ele>3</ele>
        <time>2019-12-10T08:46:17Z</time>
      </trkpt>
      <trkpt lat="59.321932" lon="18.073816">
        <ele>3</ele>
        <time>2019-12-10T08:46:18Z</time>
      </trkpt>
      <trkpt lat="59.321926" lon="18.073762">
        <ele>3</ele>
        <time>2019-12-10T08:46:19Z</time>
      </trkpt>
      <trkpt lat="59.321926" lon="18.073705">
        <ele>0</ele>
        <time>2019-12-10T08:46:19Z</time>
      </trkpt>
      <trkpt lat="59.321933" lon="18.073643">
        <ele>3</ele>
        <time>2019-12-10T08:46:20Z</time>
      </trkpt>
      <trkpt lat="59.321946" lon="18.073572">
        <ele>3</ele>
        <time>2019-12-10T08:46:22Z</time>
      </trkpt>
      <trkpt lat="59.321957" lon="18.073501">
        <ele>4</ele>
        <time>2019-12-10T08:46:23Z</time>
      </trkpt>
      <trkpt lat="59.321972" lon="18.073427">
        <ele>0</ele>
        <time>2019-12-10T08:46:23Z</time>
      </trkpt>
      <trkpt lat="59.321986" lon="18.073352">
        <ele>4</ele>
        <time>2019-12-10T08:46:24Z</time>
      </trkpt>
      <trkpt lat="59.322" lon="18.073276">
        <ele>4</ele>
        <time>2019-12-10T08:46:26Z</time>
      </trkpt>
      <trkpt lat="59.322014" lon="18.073197">
        <ele>0</ele>
        <time>2019-12-10T08:46:26Z</time>
      </trkpt>
      <trkpt lat="59.32203" lon="18.07312">
        <ele>4</ele>
        <time>2019-12-10T08:46:27Z</time>
      </trkpt>
      <trkpt lat="59.322044" lon="18.073044">
        <ele>4</ele>
        <time>2019-12-10T08:46:29Z</time>
      </trkpt>
      <trkpt lat="59.322056" lon="18.072978">
        <ele>5</ele>
        <time>2019-12-10T08:46:30Z</time>
      </trkpt>
      <trkpt lat="59.322064" lon="18.072916">
        <ele>5</ele>
        <time>2019-12-10T08:46:31Z</time>
      </trkpt>
      <trkpt lat="59.322072" lon="18.072852">
        <ele>5</ele>
        <time>2019-12-10T08:46:32Z</time>
      </trkpt>
      <trkpt lat="59.322075" lon="18.072785">
        <ele>5</ele>
        <time>2019-12-10T08:46:33Z</time>
      </trkpt>
      <trkpt lat="59.322075" lon="18.072719">
        <ele>5</ele>
        <time>2019-12-10T08:46:34Z</time>
      </trkpt>
      <trkpt lat="59.32207" lon="18.072653">
        <ele>5</ele>
        <time>2019-12-10T08:46:35Z</time>
      </trkpt>
      <trkpt lat="59.32206" lon="18.072586">
        <ele>5</ele>
        <time>2019-12-10T08:46:36Z</time>
      </trkpt>
      <trkpt lat="59.32205" lon="18.072524">
        <ele>5</ele>
        <time>2019-12-10T08:46:37Z</time>
      </trkpt>
      <trkpt lat="59.322038" lon="18.072466">
        <ele>0</ele>
        <time>2019-12-10T08:46:37Z</time>
      </trkpt>
      <trkpt lat="59.322024" lon="18.072413">
        <ele>5</ele>
        <time>2019-12-10T08:46:38Z</time>
      </trkpt>
      <trkpt lat="59.322005" lon="18.072373">
        <ele>5</ele>
        <time>2019-12-10T08:46:39Z</time>
      </trkpt>
      <trkpt lat="59.321982" lon="18.07234">
        <ele>5</ele>
        <time>2019-12-10T08:46:41Z</time>
      </trkpt>
      <trkpt lat="59.321952" lon="18.072308">
        <ele>5</ele>
        <time>2019-12-10T08:46:42Z</time>
      </trkpt>
      <trkpt lat="59.32192" lon="18.072279">
        <ele>5</ele>
        <time>2019-12-10T08:46:43Z</time>
      </trkpt>
      <trkpt lat="59.32189" lon="18.072254">
        <ele>5</ele>
        <time>2019-12-10T08:46:44Z</time>
      </trkpt>
      <trkpt lat="59.321858" lon="18.072236">
        <ele>5</ele>
        <time>2019-12-10T08:46:45Z</time>
      </trkpt>
      <trkpt lat="59.321828" lon="18.072218">
        <ele>5</ele>
        <time>2019-12-10T08:46:46Z</time>
      </trkpt>
      <trkpt lat="59.321796" lon="18.0722">
        <ele>5</ele>
        <time>2019-12-10T08:46:47Z</time>
      </trkpt>
      <trkpt lat="59.321762" lon="18.072191">
        <ele>6</ele>
        <time>2019-12-10T08:46:48Z</time>
      </trkpt>
      <trkpt lat="59.321729" lon="18.07219">
        <ele>6</ele>
        <time>2019-12-10T08:46:49Z</time>
      </trkpt>
      <trkpt lat="59.321695" lon="18.072191">
        <ele>6</ele>
        <time>2019-12-10T08:46:50Z</time>
      </trkpt>
      <trkpt lat="59.32166" lon="18.07219">
        <ele>6</ele>
        <time>2019-12-10T08:46:51Z</time>
      </trkpt>
      <trkpt lat="59.321624" lon="18.072184">
        <ele>6</ele>
        <time>2019-12-10T08:46:52Z</time>
      </trkpt>
      <trkpt lat="59.321588" lon="18.072169">
        <ele>0</ele>
        <time>2019-12-10T08:46:52Z</time>
      </trkpt>
      <trkpt lat="59.321554" lon="18.072147">
        <ele>6</ele>
        <time>2019-12-10T08:46:53Z</time>
      </trkpt>
      <trkpt lat="59.321518" lon="18.072122">
        <ele>7</ele>
        <time>2019-12-10T08:46:55Z</time>
      </trkpt>
      <trkpt lat="59.321484" lon="18.072096">
        <ele>7</ele>
        <time>2019-12-10T08:46:56Z</time>
      </trkpt>
      <trkpt lat="59.32145" lon="18.072076">
        <ele>7</ele>
        <time>2019-12-10T08:46:57Z</time>
      </trkpt>
      <trkpt lat="59.321416" lon="18.07206">
        <ele>0</ele>
        <time>2019-12-10T08:46:57Z</time>
      </trkpt>
      <trkpt lat="59.32138" lon="18.072038">
        <ele>7</ele>
        <time>2019-12-10T08:46:58Z</time>
      </trkpt>
      <trkpt lat="59.321347" lon="18.072009">
        <ele>7</ele>
        <time>2019-12-10T08:47:00Z</time>
      </trkpt>
      <trkpt lat="59.321314" lon="18.07198">
        <ele>7</ele>
        <time>2019-12-10T08:47:01Z</time>
      </trkpt>
      <trkpt lat="59.321279" lon="18.071954">
        <ele>7</ele>
        <time>2019-12-10T08:47:02Z</time>
      </trkpt>
      <trkpt lat="59.321247" lon="18.071925">
        <ele>7</ele>
        <time>2019-12-10T08:47:03Z</time>
      </trkpt>
      <trkpt lat="59.321218" lon="18.071892">
        <ele>7</ele>
        <time>2019-12-10T08:47:04Z</time>
      </trkpt>
      <trkpt lat="59.321191" lon="18.071852">
        <ele>7</ele>
        <time>2019-12-10T08:47:05Z</time>
      </trkpt>
      <trkpt lat="59.321166" lon="18.071805">
        <ele>7</ele>
        <time>2019-12-10T08:47:06Z</time>
      </trkpt>
      <trkpt lat="59.321145" lon="18.071751">
        <ele>0</ele>
        <time>2019-12-10T08:47:06Z</time>
      </trkpt>
      <trkpt lat="59.321127" lon="18.071691">
        <ele>8</ele>
        <time>2019-12-10T08:47:07Z</time>
      </trkpt>
      <trkpt lat="59.321114" lon="18.071629">
        <ele>8</ele>
        <time>2019-12-10T08:47:09Z</time>
      </trkpt>
      <trkpt lat="59.321104" lon="18.071565">
        <ele>8</ele>
        <time>2019-12-10T08:47:10Z</time>
      </trkpt>
      <trkpt lat="59.321095" lon="18.071503">
        <ele>9</ele>
        <time>2019-12-10T08:47:11Z</time>
      </trkpt>
      <trkpt lat="59.321087" lon="18.071441">
        <ele>9</ele>
        <time>2019-12-10T08:47:12Z</time>
      </trkpt>
      <trkpt lat="59.32108" lon="18.071381">
        <ele>9</ele>
        <time>2019-12-10T08:47:13Z</time>
      </trkpt>
      <trkpt lat="59.321073" lon="18.071325">
        <ele>10</ele>
        <time>2019-12-10T08:47:14Z</time>
      </trkpt>
      <trkpt lat="59.321066" lon="18.071274">
        <ele>10</ele>
        <time>2019-12-10T08:47:15Z</time>
      </trkpt>
      <trkpt lat="59.321059" lon="18.071223">
        <ele>10</ele>
        <time>2019-12-10T08:47:16Z</time>
      </trkpt>
      <trkpt lat="59.321051" lon="18.071171">
        <ele>0</ele>
        <time>2019-12-10T08:47:16Z</time>
      </trkpt>
      <trkpt lat="59.321039" lon="18.071123">
        <ele>10</ele>
        <time>2019-12-10T08:47:17Z</time>
      </trkpt>
      <trkpt lat="59.321022" lon="18.071079">
        <ele>11</ele>
        <time>2019-12-10T08:47:19Z</time>
      </trkpt>
      <trkpt lat="59.321" lon="18.071041">
        <ele>11</ele>
        <time>2019-12-10T08:47:20Z</time>
      </trkpt>
      <trkpt lat="59.320973" lon="18.071012">
        <ele>11</ele>
        <time>2019-12-10T08:47:21Z</time>
      </trkpt>
      <trkpt lat="59.320943" lon="18.070987">
        <ele>11</ele>
        <time>2019-12-10T08:47:22Z</time>
      </trkpt>
      <trkpt lat="59.320912" lon="18.070963">
        <ele>0</ele>
        <time>2019-12-10T08:47:22Z</time>
      </trkpt>
      <trkpt lat="59.320881" lon="18.07094">
        <ele>11</ele>
        <time>2019-12-10T08:47:23Z</time>
      </trkpt>
      <trkpt lat="59.320849" lon="18.070917">
        <ele>12</ele>
        <time>2019-12-10T08:47:25Z</time>
      </trkpt>
      <trkpt lat="59.320818" lon="18.070895">
        <ele>12</ele>
        <time>2019-12-10T08:47:26Z</time>
      </trkpt>
      <trkpt lat="59.320787" lon="18.070874">
        <ele>12</ele>
        <time>2019-12-10T08:47:27Z</time>
      </trkpt>
      <trkpt lat="59.320756" lon="18.070854">
        <ele>12</ele>
        <time>2019-12-10T08:47:28Z</time>
      </trkpt>
      <trkpt lat="59.320724" lon="18.070836">
        <ele>12</ele>
        <time>2019-12-10T08:47:29Z</time>
      </trkpt>
      <trkpt lat="59.320693" lon="18.070823">
        <ele>12</ele>
        <time>2019-12-10T08:47:30Z</time>
      </trkpt>
      <trkpt lat="59.320662" lon="18.070812">
        <ele>12</ele>
        <time>2019-12-10T08:47:31Z</time>
      </trkpt>
      <trkpt lat="59.320633" lon="18.070803">
        <ele>13</ele>
        <time>2019-12-10T08:47:32Z</time>
      </trkpt>
      <trkpt lat="59.320606" lon="18.070788">
        <ele>13</ele>
        <time>2019-12-10T08:47:33Z</time>
      </trkpt>
      <trkpt lat="59.320585" lon="18.070758">
        <ele>13</ele>
        <time>2019-12-10T08:47:34Z</time>
      </trkpt>
      <trkpt lat="59.320569" lon="18.070714">
        <ele>13</ele>
        <time>2019-12-10T08:47:35Z</time>
      </trkpt>
      <trkpt lat="59.320559" lon="18.070672">
        <ele>0</ele>
        <time>2019-12-10T08:47:35Z</time>
      </trkpt>
      <trkpt lat="59.320548" lon="18.07062">
        <ele>13</ele>
        <time>2019-12-10T08:47:38Z</time>
      </trkpt>
      <trkpt lat="59.32054" lon="18.070577">
        <ele>13</ele>
        <time>2019-12-10T08:47:40Z</time>
      </trkpt>
      <trkpt lat="59.320527" lon="18.07051">
        <ele>0</ele>
        <time>2019-12-10T08:47:41Z</time>
      </trkpt>
      <trkpt lat="59.320518" lon="18.070457">
        <ele>13</ele>
        <time>2019-12-10T08:47:42Z</time>
      </trkpt>
      <trkpt lat="59.320506" lon="18.0704">
        <ele>13</ele>
        <time>2019-12-10T08:47:44Z</time>
      </trkpt>
      <trkpt lat="59.320491" lon="18.070344">
        <ele>13</ele>
        <time>2019-12-10T08:47:45Z</time>
      </trkpt>
      <trkpt lat="59.320473" lon="18.070297">
        <ele>13</ele>
        <time>2019-12-10T08:47:46Z</time>
      </trkpt>
      <trkpt lat="59.320448" lon="18.070266">
        <ele>14</ele>
        <time>2019-12-10T08:47:47Z</time>
      </trkpt>
      <trkpt lat="59.320418" lon="18.070253">
        <ele>14</ele>
        <time>2019-12-10T08:47:48Z</time>
      </trkpt>
      <trkpt lat="59.320379" lon="18.070257">
        <ele>14</ele>
        <time>2019-12-10T08:47:49Z</time>
      </trkpt>
      <trkpt lat="59.320333" lon="18.070267">
        <ele>14</ele>
        <time>2019-12-10T08:47:50Z</time>
      </trkpt>
      <trkpt lat="59.320283" lon="18.070279">
        <ele>14</ele>
        <time>2019-12-10T08:47:51Z</time>
      </trkpt>
      <trkpt lat="59.320232" lon="18.070292">
        <ele>14</ele>
        <time>2019-12-10T08:47:52Z</time>
      </trkpt>
      <trkpt lat="59.320182" lon="18.070307">
        <ele>14</ele>
        <time>2019-12-10T08:47:53Z</time>
      </trkpt>
      <trkpt lat="59.320134" lon="18.070323">
        <ele>14</ele>
        <time>2019-12-10T08:47:54Z</time>
      </trkpt>
      <trkpt lat="59.320087" lon="18.070337">
        <ele>0</ele>
        <time>2019-12-10T08:47:54Z</time>
      </trkpt>
      <trkpt lat="59.320044" lon="18.070348">
        <ele>14</ele>
        <time>2019-12-10T08:47:55Z</time>
      </trkpt>
      <trkpt lat="59.320004" lon="18.070359">
        <ele>14</ele>
        <time>2019-12-10T08:47:57Z</time>
      </trkpt>
      <trkpt lat="59.319964" lon="18.070372">
        <ele>14</ele>
        <time>2019-12-10T08:47:58Z</time>
      </trkpt>
      <trkpt lat="59.319926" lon="18.070384">
        <ele>14</ele>
        <time>2019-12-10T08:47:59Z</time>
      </trkpt>
      <trkpt lat="59.319888" lon="18.070398">
        <ele>14</ele>
        <time>2019-12-10T08:48:00Z</time>
      </trkpt>
      <trkpt lat="59.319851" lon="18.070417">
        <ele>14</ele>
        <time>2019-12-10T08:48:01Z</time>
      </trkpt>
      <trkpt lat="59.319813" lon="18.070435">
        <ele>14</ele>
        <time>2019-12-10T08:48:02Z</time>
      </trkpt>
      <trkpt lat="59.319773" lon="18.070457">
        <ele>15</ele>
        <time>2019-12-10T08:48:03Z</time>
      </trkpt>
      <trkpt lat="59.319733" lon="18.070484">
        <ele>15</ele>
        <time>2019-12-10T08:48:04Z</time>
      </trkpt>
      <trkpt lat="59.319696" lon="18.07051">
        <ele>15</ele>
        <time>2019-12-10T08:48:05Z</time>
      </trkpt>
      <trkpt lat="59.319659" lon="18.070533">
        <ele>15</ele>
        <time>2019-12-10T08:48:06Z</time>
      </trkpt>
      <trkpt lat="59.319623" lon="18.070552">
        <ele>0</ele>
        <time>2019-12-10T08:48:06Z</time>
      </trkpt>
      <trkpt lat="59.31959" lon="18.070572">
        <ele>15</ele>
        <time>2019-12-10T08:48:07Z</time>
      </trkpt>
      <trkpt lat="59.31956" lon="18.070591">
        <ele>15</ele>
        <time>2019-12-10T08:48:09Z</time>
      </trkpt>
      <trkpt lat="59.319529" lon="18.070612">
        <ele>15</ele>
        <time>2019-12-10T08:48:10Z</time>
      </trkpt>
      <trkpt lat="59.319496" lon="18.070626">
        <ele>15</ele>
        <time>2019-12-10T08:48:11Z</time>
      </trkpt>
      <trkpt lat="59.319463" lon="18.070643">
        <ele>15</ele>
        <time>2019-12-10T08:48:12Z</time>
      </trkpt>
      <trkpt lat="59.319428" lon="18.070659">
        <ele>15</ele>
        <time>2019-12-10T08:48:13Z</time>
      </trkpt>
      <trkpt lat="59.319395" lon="18.070673">
        <ele>0</ele>
        <time>2019-12-10T08:48:13Z</time>
      </trkpt>
      <trkpt lat="59.319361" lon="18.070685">
        <ele>16</ele>
        <time>2019-12-10T08:48:14Z</time>
      </trkpt>
      <trkpt lat="59.319329" lon="18.070703">
        <ele>16</ele>
        <time>2019-12-10T08:48:16Z</time>
      </trkpt>
      <trkpt lat="59.319297" lon="18.07072">
        <ele>17</ele>
        <time>2019-12-10T08:48:17Z</time>
      </trkpt>
      <trkpt lat="59.319264" lon="18.070742">
        <ele>17</ele>
        <time>2019-12-10T08:48:18Z</time>
      </trkpt>
      <trkpt lat="59.319233" lon="18.070769">
        <ele>18</ele>
        <time>2019-12-10T08:48:19Z</time>
      </trkpt>
      <trkpt lat="59.319203" lon="18.070799">
        <ele>18</ele>
        <time>2019-12-10T08:48:20Z</time>
      </trkpt>
      <trkpt lat="59.319174" lon="18.07082">
        <ele>18</ele>
        <time>2019-12-10T08:48:21Z</time>
      </trkpt>
      <trkpt lat="59.319145" lon="18.070842">
        <ele>0</ele>
        <time>2019-12-10T08:48:21Z</time>
      </trkpt>
      <trkpt lat="59.319116" lon="18.07086">
        <ele>19</ele>
        <time>2019-12-10T08:48:22Z</time>
      </trkpt>
      <trkpt lat="59.319086" lon="18.070873">
        <ele>19</ele>
        <time>2019-12-10T08:48:24Z</time>
      </trkpt>
      <trkpt lat="59.319057" lon="18.070888">
        <ele>20</ele>
        <time>2019-12-10T08:48:25Z</time>
      </trkpt>
      <trkpt lat="59.31903" lon="18.070916">
        <ele>0</ele>
        <time>2019-12-10T08:48:25Z</time>
      </trkpt>
      <trkpt lat="59.319003" lon="18.070941">
        <ele>20</ele>
        <time>2019-12-10T08:48:26Z</time>
      </trkpt>
      <trkpt lat="59.318977" lon="18.070962">
        <ele>21</ele>
        <time>2019-12-10T08:48:28Z</time>
      </trkpt>
      <trkpt lat="59.318953" lon="18.070981">
        <ele>22</ele>
        <time>2019-12-10T08:48:29Z</time>
      </trkpt>
      <trkpt lat="59.318929" lon="18.071">
        <ele>22</ele>
        <time>2019-12-10T08:48:30Z</time>
      </trkpt>
      <trkpt lat="59.318905" lon="18.071016">
        <ele>23</ele>
        <time>2019-12-10T08:48:31Z</time>
      </trkpt>
      <trkpt lat="59.318882" lon="18.071037">
        <ele>23</ele>
        <time>2019-12-10T08:48:32Z</time>
      </trkpt>
      <trkpt lat="59.318857" lon="18.071051">
        <ele>0</ele>
        <time>2019-12-10T08:48:32Z</time>
      </trkpt>
      <trkpt lat="59.318832" lon="18.071063">
        <ele>23</ele>
        <time>2019-12-10T08:48:33Z</time>
      </trkpt>
      <trkpt lat="59.318809" lon="18.071087">
        <ele>24</ele>
        <time>2019-12-10T08:48:35Z</time>
      </trkpt>
      <trkpt lat="59.318784" lon="18.071106">
        <ele>25</ele>
        <time>2019-12-10T08:48:36Z</time>
      </trkpt>
      <trkpt lat="59.318758" lon="18.071124">
        <ele>25</ele>
        <time>2019-12-10T08:48:37Z</time>
      </trkpt>
      <trkpt lat="59.318733" lon="18.071142">
        <ele>25</ele>
        <time>2019-12-10T08:48:38Z</time>
      </trkpt>
      <trkpt lat="59.318709" lon="18.071161">
        <ele>26</ele>
        <time>2019-12-10T08:48:39Z</time>
      </trkpt>
      <trkpt lat="59.318686" lon="18.071181">
        <ele>26</ele>
        <time>2019-12-10T08:48:40Z</time>
      </trkpt>
      <trkpt lat="59.318661" lon="18.071191">
        <ele>0</ele>
        <time>2019-12-10T08:48:40Z</time>
      </trkpt>
      <trkpt lat="59.318637" lon="18.07119">
        <ele>26</ele>
        <time>2019-12-10T08:48:41Z</time>
      </trkpt>
      <trkpt lat="59.318612" lon="18.071185">
        <ele>27</ele>
        <time>2019-12-10T08:48:43Z</time>
      </trkpt>
      <trkpt lat="59.318588" lon="18.071194">
        <ele>27</ele>
        <time>2019-12-10T08:48:44Z</time>
      </trkpt>
      <trkpt lat="59.318563" lon="18.071201">
        <ele>27</ele>
        <time>2019-12-10T08:48:45Z</time>
      </trkpt>
      <trkpt lat="59.318539" lon="18.071212">
        <ele>28</ele>
        <time>2019-12-10T08:48:46Z</time>
      </trkpt>
      <trkpt lat="59.318516" lon="18.071222">
        <ele>28</ele>
        <time>2019-12-10T08:48:47Z</time>
      </trkpt>
      <trkpt lat="59.318494" lon="18.071226">
        <ele>29</ele>
        <time>2019-12-10T08:48:48Z</time>
      </trkpt>
      <trkpt lat="59.318472" lon="18.071238">
        <ele>29</ele>
        <time>2019-12-10T08:48:49Z</time>
      </trkpt>
      <trkpt lat="59.318452" lon="18.071251">
        <ele>29</ele>
        <time>2019-12-10T08:48:50Z</time>
      </trkpt>
      <trkpt lat="59.318428" lon="18.071264">
        <ele>30</ele>
        <time>2019-12-10T08:48:51Z</time>
      </trkpt>
      <trkpt lat="59.318404" lon="18.071272">
        <ele>0</ele>
        <time>2019-12-10T08:48:51Z</time>
      </trkpt>
      <trkpt lat="59.318378" lon="18.071277">
        <ele>30</ele>
        <time>2019-12-10T08:48:52Z</time>
      </trkpt>
      <trkpt lat="59.318354" lon="18.071288">
        <ele>31</ele>
        <time>2019-12-10T08:48:54Z</time>
      </trkpt>
      <trkpt lat="59.318331" lon="18.071294">
        <ele>31</ele>
        <time>2019-12-10T08:48:55Z</time>
      </trkpt>
      <trkpt lat="59.318306" lon="18.071307">
        <ele>32</ele>
        <time>2019-12-10T08:48:56Z</time>
      </trkpt>
      <trkpt lat="59.318282" lon="18.071319">
        <ele>32</ele>
        <time>2019-12-10T08:48:57Z</time>
      </trkpt>
      <trkpt lat="59.318254" lon="18.071332">
        <ele>32</ele>
        <time>2019-12-10T08:48:58Z</time>
      </trkpt>
      <trkpt lat="59.318226" lon="18.071344">
        <ele>33</ele>
        <time>2019-12-10T08:48:59Z</time>
      </trkpt>
      <trkpt lat="59.318199" lon="18.071358">
        <ele>33</ele>
        <time>2019-12-10T08:49:00Z</time>
      </trkpt>
      <trkpt lat="59.318176" lon="18.071381">
        <ele>0</ele>
        <time>2019-12-10T08:49:00Z</time>
      </trkpt>
      <trkpt lat="59.318153" lon="18.071406">
        <ele>33</ele>
        <time>2019-12-10T08:49:01Z</time>
      </trkpt>
      <trkpt lat="59.318129" lon="18.071428">
        <ele>33</ele>
        <time>2019-12-10T08:49:03Z</time>
      </trkpt>
      <trkpt lat="59.318102" lon="18.071444">
        <ele>34</ele>
        <time>2019-12-10T08:49:04Z</time>
      </trkpt>
      <trkpt lat="59.318076" lon="18.07146">
        <ele>34</ele>
        <time>2019-12-10T08:49:05Z</time>
      </trkpt>
      <trkpt lat="59.318048" lon="18.071476">
        <ele>34</ele>
        <time>2019-12-10T08:49:06Z</time>
      </trkpt>
      <trkpt lat="59.318019" lon="18.071492">
        <ele>34</ele>
        <time>2019-12-10T08:49:07Z</time>
      </trkpt>
      <trkpt lat="59.31799" lon="18.071512">
        <ele>34</ele>
        <time>2019-12-10T08:49:08Z</time>
      </trkpt>
      <trkpt lat="59.31796" lon="18.071538">
        <ele>35</ele>
        <time>2019-12-10T08:49:09Z</time>
      </trkpt>
      <trkpt lat="59.317927" lon="18.071552">
        <ele>35</ele>
        <time>2019-12-10T08:49:10Z</time>
      </trkpt>
      <trkpt lat="59.317896" lon="18.07157">
        <ele>0</ele>
        <time>2019-12-10T08:49:10Z</time>
      </trkpt>
      <trkpt lat="59.317859" lon="18.071576">
        <ele>35</ele>
        <time>2019-12-10T08:49:11Z</time>
      </trkpt>
      <trkpt lat="59.317821" lon="18.071584">
        <ele>36</ele>
        <time>2019-12-10T08:49:13Z</time>
      </trkpt>
      <trkpt lat="59.317787" lon="18.071602">
        <ele>36</ele>
        <time>2019-12-10T08:49:14Z</time>
      </trkpt>
      <trkpt lat="59.317751" lon="18.071622">
        <ele>36</ele>
        <time>2019-12-10T08:49:15Z</time>
      </trkpt>
      <trkpt lat="59.317717" lon="18.071646">
        <ele>0</ele>
        <time>2019-12-10T08:49:15Z</time>
      </trkpt>
      <trkpt lat="59.317682" lon="18.071674">
        <ele>36</ele>
        <time>2019-12-10T08:49:16Z</time>
      </trkpt>
      <trkpt lat="59.317648" lon="18.071702">
        <ele>37</ele>
        <time>2019-12-10T08:49:18Z</time>
      </trkpt>
      <trkpt lat="59.317612" lon="18.071728">
        <ele>37</ele>
        <time>2019-12-10T08:49:19Z</time>
      </trkpt>
      <trkpt lat="59.317573" lon="18.071742">
        <ele>37</ele>
        <time>2019-12-10T08:49:20Z</time>
      </trkpt>
      <trkpt lat="59.317536" lon="18.071758">
        <ele>38</ele>
        <time>2019-12-10T08:49:21Z</time>
      </trkpt>
      <trkpt lat="59.317498" lon="18.071772">
        <ele>38</ele>
        <time>2019-12-10T08:49:22Z</time>
      </trkpt>
      <trkpt lat="59.317458" lon="18.071786">
        <ele>38</ele>
        <time>2019-12-10T08:49:23Z</time>
      </trkpt>
      <trkpt lat="59.317417" lon="18.071796">
        <ele>38</ele>
        <time>2019-12-10T08:49:24Z</time>
      </trkpt>
      <trkpt lat="59.317378" lon="18.071814">
        <ele>39</ele>
        <time>2019-12-10T08:49:25Z</time>
      </trkpt>
      <trkpt lat="59.317338" lon="18.07183">
        <ele>39</ele>
        <time>2019-12-10T08:49:26Z</time>
      </trkpt>
      <trkpt lat="59.317295" lon="18.07184">
        <ele>39</ele>
        <time>2019-12-10T08:49:27Z</time>
      </trkpt>
      <trkpt lat="59.317255" lon="18.071856">
        <ele>39</ele>
        <time>2019-12-10T08:49:28Z</time>
      </trkpt>
      <trkpt lat="59.31722" lon="18.071882">
        <ele>0</ele>
        <time>2019-12-10T08:49:28Z</time>
      </trkpt>
      <trkpt lat="59.317185" lon="18.071906">
        <ele>39</ele>
        <time>2019-12-10T08:49:29Z</time>
      </trkpt>
      <trkpt lat="59.317147" lon="18.071926">
        <ele>40</ele>
        <time>2019-12-10T08:49:30Z</time>
      </trkpt>
      <trkpt lat="59.317109" lon="18.071946">
        <ele>40</ele>
        <time>2019-12-10T08:49:32Z</time>
      </trkpt>
      <trkpt lat="59.317073" lon="18.071972">
        <ele>40</ele>
        <time>2019-12-10T08:49:33Z</time>
      </trkpt>
      <trkpt lat="59.317034" lon="18.071996">
        <ele>40</ele>
        <time>2019-12-10T08:49:34Z</time>
      </trkpt>
      <trkpt lat="59.316996" lon="18.072026">
        <ele>40</ele>
        <time>2019-12-10T08:49:35Z</time>
      </trkpt>
      <trkpt lat="59.316957" lon="18.072054">
        <ele>40</ele>
        <time>2019-12-10T08:49:36Z</time>
      </trkpt>
      <trkpt lat="59.316916" lon="18.072076">
        <ele>40</ele>
        <time>2019-12-10T08:49:37Z</time>
      </trkpt>
      <trkpt lat="59.316875" lon="18.072098">
        <ele>40</ele>
        <time>2019-12-10T08:49:38Z</time>
      </trkpt>
      <trkpt lat="59.316831" lon="18.072118">
        <ele>40</ele>
        <time>2019-12-10T08:49:39Z</time>
      </trkpt>
      <trkpt lat="59.316789" lon="18.072132">
        <ele>41</ele>
        <time>2019-12-10T08:49:40Z</time>
      </trkpt>
      <trkpt lat="59.316747" lon="18.072146">
        <ele>0</ele>
        <time>2019-12-10T08:49:40Z</time>
      </trkpt>
      <trkpt lat="59.316708" lon="18.07216">
        <ele>41</ele>
        <time>2019-12-10T08:49:41Z</time>
      </trkpt>
      <trkpt lat="59.316675" lon="18.072174">
        <ele>42</ele>
        <time>2019-12-10T08:49:43Z</time>
      </trkpt>
      <trkpt lat="59.316642" lon="18.072196">
        <ele>42</ele>
        <time>2019-12-10T08:49:44Z</time>
      </trkpt>
      <trkpt lat="59.316605" lon="18.072218">
        <ele>42</ele>
        <time>2019-12-10T08:49:45Z</time>
      </trkpt>
      <trkpt lat="59.316562" lon="18.072236">
        <ele>42</ele>
        <time>2019-12-10T08:49:46Z</time>
      </trkpt>
      <trkpt lat="59.316514" lon="18.072248">
        <ele>42</ele>
        <time>2019-12-10T08:49:47Z</time>
      </trkpt>
      <trkpt lat="59.316469" lon="18.072274">
        <ele>42</ele>
        <time>2019-12-10T08:49:48Z</time>
      </trkpt>
      <trkpt lat="59.316422" lon="18.072298">
        <ele>0</ele>
        <time>2019-12-10T08:49:48Z</time>
      </trkpt>
      <trkpt lat="59.316377" lon="18.072324">
        <ele>42</ele>
        <time>2019-12-10T08:49:49Z</time>
      </trkpt>
      <trkpt lat="59.316331" lon="18.072348">
        <ele>42</ele>
        <time>2019-12-10T08:49:51Z</time>
      </trkpt>
      <trkpt lat="59.316291" lon="18.072372">
        <ele>42</ele>
        <time>2019-12-10T08:49:52Z</time>
      </trkpt>
      <trkpt lat="59.316251" lon="18.072396">
        <ele>0</ele>
        <time>2019-12-10T08:49:52Z</time>
      </trkpt>
      <trkpt lat="59.316206" lon="18.07242">
        <ele>42</ele>
        <time>2019-12-10T08:49:53Z</time>
      </trkpt>
      <trkpt lat="59.31616" lon="18.072446">
        <ele>42</ele>
        <time>2019-12-10T08:49:55Z</time>
      </trkpt>
      <trkpt lat="59.316116" lon="18.07247">
        <ele>42</ele>
        <time>2019-12-10T08:49:56Z</time>
      </trkpt>
      <trkpt lat="59.316071" lon="18.072488">
        <ele>42</ele>
        <time>2019-12-10T08:49:57Z</time>
      </trkpt>
      <trkpt lat="59.316033" lon="18.072508">
        <ele>42</ele>
        <time>2019-12-10T08:49:58Z</time>
      </trkpt>
      <trkpt lat="59.315993" lon="18.072522">
        <ele>42</ele>
        <time>2019-12-10T08:49:59Z</time>
      </trkpt>
      <trkpt lat="59.315956" lon="18.072536">
        <ele>42</ele>
        <time>2019-12-10T08:50:00Z</time>
      </trkpt>
      <trkpt lat="59.315926" lon="18.072552">
        <ele>41</ele>
        <time>2019-12-10T08:50:01Z</time>
      </trkpt>
      <trkpt lat="59.315908" lon="18.072565">
        <ele>41</ele>
        <time>2019-12-10T08:50:02Z</time>
      </trkpt>
      <trkpt lat="59.315875" lon="18.072578">
        <ele>40</ele>
        <time>2019-12-10T08:50:04Z</time>
      </trkpt>
      <trkpt lat="59.315854" lon="18.072592">
        <ele>40</ele>
        <time>2019-12-10T08:50:06Z</time>
      </trkpt>
      <trkpt lat="59.315835" lon="18.072591">
        <ele>0</ele>
        <time>2019-12-10T08:50:07Z</time>
      </trkpt>
      <trkpt lat="59.315815" lon="18.072591">
        <ele>40</ele>
        <time>2019-12-10T08:50:11Z</time>
      </trkpt>
      <trkpt lat="59.315814" lon="18.07259">
        <ele>0</ele>
        <time>2019-12-10T08:50:13Z</time>
      </trkpt>
      <trkpt lat="59.315773" lon="18.072614">
        <ele>0</ele>
        <time>2019-12-10T08:50:24Z</time>
      </trkpt>
      <trkpt lat="59.315749" lon="18.072632">
        <ele>40</ele>
        <time>2019-12-10T08:50:25Z</time>
      </trkpt>
      <trkpt lat="59.315721" lon="18.072637">
        <ele>0</ele>
        <time>2019-12-10T08:50:26Z</time>
      </trkpt>
      <trkpt lat="59.315694" lon="18.072634">
        <ele>40</ele>
        <time>2019-12-10T08:50:27Z</time>
      </trkpt>
      <trkpt lat="59.315662" lon="18.072636">
        <ele>40</ele>
        <time>2019-12-10T08:50:29Z</time>
      </trkpt>
      <trkpt lat="59.315625" lon="18.072657">
        <ele>39</ele>
        <time>2019-12-10T08:50:30Z</time>
      </trkpt>
      <trkpt lat="59.315586" lon="18.072683">
        <ele>39</ele>
        <time>2019-12-10T08:50:31Z</time>
      </trkpt>
      <trkpt lat="59.315547" lon="18.072701">
        <ele>39</ele>
        <time>2019-12-10T08:50:32Z</time>
      </trkpt>
      <trkpt lat="59.315506" lon="18.072721">
        <ele>39</ele>
        <time>2019-12-10T08:50:33Z</time>
      </trkpt>
      <trkpt lat="59.315457" lon="18.072741">
        <ele>38</ele>
        <time>2019-12-10T08:50:34Z</time>
      </trkpt>
      <trkpt lat="59.315411" lon="18.072762">
        <ele>38</ele>
        <time>2019-12-10T08:50:35Z</time>
      </trkpt>
      <trkpt lat="59.315363" lon="18.072778">
        <ele>38</ele>
        <time>2019-12-10T08:50:36Z</time>
      </trkpt>
      <trkpt lat="59.315311" lon="18.072795">
        <ele>38</ele>
        <time>2019-12-10T08:50:37Z</time>
      </trkpt>
      <trkpt lat="59.315258" lon="18.072817">
        <ele>37</ele>
        <time>2019-12-10T08:50:38Z</time>
      </trkpt>
      <trkpt lat="59.315205" lon="18.072843">
        <ele>0</ele>
        <time>2019-12-10T08:50:38Z</time>
      </trkpt>
      <trkpt lat="59.31515" lon="18.072869">
        <ele>37</ele>
        <time>2019-12-10T08:50:39Z</time>
      </trkpt>
      <trkpt lat="59.315096" lon="18.072893">
        <ele>36</ele>
        <time>2019-12-10T08:50:41Z</time>
      </trkpt>
      <trkpt lat="59.31504" lon="18.072917">
        <ele>36</ele>
        <time>2019-12-10T08:50:42Z</time>
      </trkpt>
      <trkpt lat="59.314985" lon="18.072945">
        <ele>36</ele>
        <time>2019-12-10T08:50:43Z</time>
      </trkpt>
      <trkpt lat="59.314931" lon="18.072976">
        <ele>0</ele>
        <time>2019-12-10T08:50:43Z</time>
      </trkpt>
      <trkpt lat="59.314879" lon="18.07301">
        <ele>35</ele>
        <time>2019-12-10T08:50:44Z</time>
      </trkpt>
      <trkpt lat="59.314829" lon="18.073047">
        <ele>35</ele>
        <time>2019-12-10T08:50:46Z</time>
      </trkpt>
      <trkpt lat="59.314782" lon="18.073078">
        <ele>35</ele>
        <time>2019-12-10T08:50:47Z</time>
      </trkpt>
      <trkpt lat="59.314737" lon="18.073097">
        <ele>0</ele>
        <time>2019-12-10T08:50:47Z</time>
      </trkpt>
      <trkpt lat="59.314693" lon="18.073111">
        <ele>35</ele>
        <time>2019-12-10T08:50:48Z</time>
      </trkpt>
      <trkpt lat="59.314652" lon="18.073123">
        <ele>35</ele>
        <time>2019-12-10T08:50:50Z</time>
      </trkpt>
      <trkpt lat="59.314614" lon="18.073133">
        <ele>35</ele>
        <time>2019-12-10T08:50:51Z</time>
      </trkpt>
      <trkpt lat="59.31458" lon="18.073142">
        <ele>35</ele>
        <time>2019-12-10T08:50:52Z</time>
      </trkpt>
      <trkpt lat="59.314551" lon="18.073158">
        <ele>36</ele>
        <time>2019-12-10T08:50:53Z</time>
      </trkpt>
      <trkpt lat="59.314526" lon="18.07317">
        <ele>36</ele>
        <time>2019-12-10T08:50:54Z</time>
      </trkpt>
      <trkpt lat="59.314503" lon="18.073177">
        <ele>36</ele>
        <time>2019-12-10T08:50:55Z</time>
      </trkpt>
      <trkpt lat="59.314483" lon="18.073189">
        <ele>36</ele>
        <time>2019-12-10T08:50:56Z</time>
      </trkpt>
      <trkpt lat="59.314455" lon="18.073199">
        <ele>37</ele>
        <time>2019-12-10T08:50:58Z</time>
      </trkpt>
      <trkpt lat="59.314444" lon="18.073207">
        <ele>37</ele>
        <time>2019-12-10T08:51:04Z</time>
      </trkpt>
      <trkpt lat="59.314384" lon="18.073246">
        <ele>0</ele>
        <time>2019-12-10T08:51:38Z</time>
      </trkpt>
      <trkpt lat="59.314353" lon="18.073269">
        <ele>37</ele>
        <time>2019-12-10T08:51:39Z</time>
      </trkpt>
      <trkpt lat="59.314319" lon="18.073293">
        <ele>37</ele>
        <time>2019-12-10T08:51:41Z</time>
      </trkpt>
      <trkpt lat="59.314282" lon="18.073321">
        <ele>37</ele>
        <time>2019-12-10T08:51:42Z</time>
      </trkpt>
      <trkpt lat="59.314236" lon="18.073344">
        <ele>36</ele>
        <time>2019-12-10T08:51:43Z</time>
      </trkpt>
      <trkpt lat="59.314188" lon="18.07337">
        <ele>36</ele>
        <time>2019-12-10T08:51:44Z</time>
      </trkpt>
      <trkpt lat="59.314138" lon="18.0734">
        <ele>0</ele>
        <time>2019-12-10T08:51:44Z</time>
      </trkpt>
      <trkpt lat="59.314091" lon="18.07343">
        <ele>37</ele>
        <time>2019-12-10T08:51:45Z</time>
      </trkpt>
      <trkpt lat="59.314044" lon="18.073455">
        <ele>37</ele>
        <time>2019-12-10T08:51:47Z</time>
      </trkpt>
      <trkpt lat="59.313993" lon="18.073484">
        <ele>37</ele>
        <time>2019-12-10T08:51:48Z</time>
      </trkpt>
      <trkpt lat="59.31395" lon="18.073515">
        <ele>37</ele>
        <time>2019-12-10T08:51:49Z</time>
      </trkpt>
      <trkpt lat="59.313907" lon="18.073548">
        <ele>38</ele>
        <time>2019-12-10T08:51:50Z</time>
      </trkpt>
      <trkpt lat="59.313865" lon="18.073581">
        <ele>38</ele>
        <time>2019-12-10T08:51:51Z</time>
      </trkpt>
      <trkpt lat="59.313825" lon="18.073615">
        <ele>38</ele>
        <time>2019-12-10T08:51:52Z</time>
      </trkpt>
      <trkpt lat="59.313787" lon="18.073654">
        <ele>39</ele>
        <time>2019-12-10T08:51:53Z</time>
      </trkpt>
      <trkpt lat="59.313752" lon="18.073695">
        <ele>39</ele>
        <time>2019-12-10T08:51:54Z</time>
      </trkpt>
      <trkpt lat="59.313714" lon="18.073736">
        <ele>39</ele>
        <time>2019-12-10T08:51:55Z</time>
      </trkpt>
      <trkpt lat="59.31368" lon="18.073773">
        <ele>0</ele>
        <time>2019-12-10T08:51:55Z</time>
      </trkpt>
      <trkpt lat="59.313643" lon="18.073806">
        <ele>40</ele>
        <time>2019-12-10T08:51:56Z</time>
      </trkpt>
      <trkpt lat="59.313606" lon="18.073823">
        <ele>0</ele>
        <time>2019-12-10T08:51:57Z</time>
      </trkpt>
      <trkpt lat="59.313576" lon="18.07385">
        <ele>40</ele>
        <time>2019-12-10T08:51:58Z</time>
      </trkpt>
      <trkpt lat="59.313543" lon="18.073873">
        <ele>41</ele>
        <time>2019-12-10T08:52:00Z</time>
      </trkpt>
      <trkpt lat="59.31351" lon="18.07389">
        <ele>41</ele>
        <time>2019-12-10T08:52:01Z</time>
      </trkpt>
      <trkpt lat="59.313479" lon="18.073908">
        <ele>41</ele>
        <time>2019-12-10T08:52:02Z</time>
      </trkpt>
      <trkpt lat="59.313448" lon="18.07393">
        <ele>41</ele>
        <time>2019-12-10T08:52:03Z</time>
      </trkpt>
      <trkpt lat="59.313414" lon="18.073952">
        <ele>41</ele>
        <time>2019-12-10T08:52:04Z</time>
      </trkpt>
      <trkpt lat="59.313384" lon="18.073974">
        <ele>41</ele>
        <time>2019-12-10T08:52:05Z</time>
      </trkpt>
      <trkpt lat="59.313358" lon="18.073996">
        <ele>41</ele>
        <time>2019-12-10T08:52:06Z</time>
      </trkpt>
      <trkpt lat="59.313334" lon="18.07402">
        <ele>42</ele>
        <time>2019-12-10T08:52:07Z</time>
      </trkpt>
      <trkpt lat="59.313312" lon="18.074044">
        <ele>42</ele>
        <time>2019-12-10T08:52:08Z</time>
      </trkpt>
      <trkpt lat="59.313292" lon="18.074074">
        <ele>42</ele>
        <time>2019-12-10T08:52:09Z</time>
      </trkpt>
      <trkpt lat="59.313276" lon="18.074098">
        <ele>42</ele>
        <time>2019-12-10T08:52:10Z</time>
      </trkpt>
      <trkpt lat="59.31325" lon="18.074134">
        <ele>41</ele>
        <time>2019-12-10T08:52:12Z</time>
      </trkpt>
      <trkpt lat="59.31323" lon="18.07416">
        <ele>41</ele>
        <time>2019-12-10T08:52:14Z</time>
      </trkpt>
      <trkpt lat="59.31321" lon="18.074178">
        <ele>41</ele>
        <time>2019-12-10T08:52:15Z</time>
      </trkpt>
      <trkpt lat="59.313188" lon="18.074194">
        <ele>40</ele>
        <time>2019-12-10T08:52:17Z</time>
      </trkpt>
      <trkpt lat="59.313166" lon="18.074204">
        <ele>38</ele>
        <time>2019-12-10T08:52:20Z</time>
      </trkpt>
      <trkpt lat="59.313142" lon="18.074206">
        <ele>36</ele>
        <time>2019-12-10T08:52:23Z</time>
      </trkpt>
      <trkpt lat="59.313132" lon="18.0742">
        <ele>0</ele>
        <time>2019-12-10T08:52:27Z</time>
      </trkpt>
      <trkpt lat="59.313098" lon="18.074206">
        <ele>0</ele>
        <time>2019-12-10T08:52:32Z</time>
      </trkpt>
      <trkpt lat="59.31307" lon="18.074208">
        <ele>36</ele>
        <time>2019-12-10T08:52:33Z</time>
      </trkpt>
      <trkpt lat="59.313028" lon="18.074172">
        <ele>37</ele>
        <time>2019-12-10T08:52:35Z</time>
      </trkpt>
      <trkpt lat="59.312988" lon="18.07414">
        <ele>37</ele>
        <time>2019-12-10T08:52:36Z</time>
      </trkpt>
      <trkpt lat="59.31295" lon="18.074122">
        <ele>38</ele>
        <time>2019-12-10T08:52:37Z</time>
      </trkpt>
      <trkpt lat="59.3129" lon="18.074112">
        <ele>38</ele>
        <time>2019-12-10T08:52:38Z</time>
      </trkpt>
      <trkpt lat="59.312845" lon="18.074122">
        <ele>37</ele>
        <time>2019-12-10T08:52:39Z</time>
      </trkpt>
      <trkpt lat="59.312789" lon="18.074139">
        <ele>38</ele>
        <time>2019-12-10T08:52:40Z</time>
      </trkpt>
      <trkpt lat="59.312738" lon="18.074166">
        <ele>38</ele>
        <time>2019-12-10T08:52:41Z</time>
      </trkpt>
      <trkpt lat="59.312688" lon="18.074186">
        <ele>0</ele>
        <time>2019-12-10T08:52:41Z</time>
      </trkpt>
      <trkpt lat="59.312636" lon="18.074202">
        <ele>38</ele>
        <time>2019-12-10T08:52:42Z</time>
      </trkpt>
      <trkpt lat="59.312584" lon="18.07422">
        <ele>39</ele>
        <time>2019-12-10T08:52:44Z</time>
      </trkpt>
      <trkpt lat="59.312529" lon="18.074238">
        <ele>39</ele>
        <time>2019-12-10T08:52:45Z</time>
      </trkpt>
      <trkpt lat="59.312476" lon="18.074256">
        <ele>39</ele>
        <time>2019-12-10T08:52:46Z</time>
      </trkpt>
      <trkpt lat="59.312419" lon="18.074266">
        <ele>39</ele>
        <time>2019-12-10T08:52:47Z</time>
      </trkpt>
      <trkpt lat="59.312364" lon="18.07429">
        <ele>39</ele>
        <time>2019-12-10T08:52:48Z</time>
      </trkpt>
      <trkpt lat="59.312308" lon="18.074316">
        <ele>39</ele>
        <time>2019-12-10T08:52:49Z</time>
      </trkpt>
      <trkpt lat="59.312256" lon="18.074342">
        <ele>39</ele>
        <time>2019-12-10T08:52:50Z</time>
      </trkpt>
      <trkpt lat="59.312198" lon="18.074364">
        <ele>0</ele>
        <time>2019-12-10T08:52:50Z</time>
      </trkpt>
      <trkpt lat="59.312142" lon="18.074386">
        <ele>39</ele>
        <time>2019-12-10T08:52:51Z</time>
      </trkpt>
      <trkpt lat="59.312088" lon="18.07441">
        <ele>39</ele>
        <time>2019-12-10T08:52:52Z</time>
      </trkpt>
      <trkpt lat="59.312032" lon="18.074434">
        <ele>39</ele>
        <time>2019-12-10T08:52:54Z</time>
      </trkpt>
      <trkpt lat="59.311974" lon="18.074452">
        <ele>38</ele>
        <time>2019-12-10T08:52:55Z</time>
      </trkpt>
      <trkpt lat="59.311918" lon="18.074468">
        <ele>38</ele>
        <time>2019-12-10T08:52:56Z</time>
      </trkpt>
      <trkpt lat="59.311866" lon="18.074488">
        <ele>38</ele>
        <time>2019-12-10T08:52:57Z</time>
      </trkpt>
      <trkpt lat="59.311812" lon="18.074506">
        <ele>37</ele>
        <time>2019-12-10T08:52:58Z</time>
      </trkpt>
      <trkpt lat="59.311756" lon="18.074522">
        <ele>37</ele>
        <time>2019-12-10T08:52:59Z</time>
      </trkpt>
      <trkpt lat="59.31171" lon="18.074548">
        <ele>0</ele>
        <time>2019-12-10T08:52:59Z</time>
      </trkpt>
      <trkpt lat="59.311664" lon="18.074574">
        <ele>37</ele>
        <time>2019-12-10T08:53:00Z</time>
      </trkpt>
      <trkpt lat="59.311611" lon="18.074597">
        <ele>37</ele>
        <time>2019-12-10T08:53:02Z</time>
      </trkpt>
      <trkpt lat="59.311561" lon="18.074623">
        <ele>38</ele>
        <time>2019-12-10T08:53:03Z</time>
      </trkpt>
      <trkpt lat="59.311514" lon="18.074656">
        <ele>39</ele>
        <time>2019-12-10T08:53:04Z</time>
      </trkpt>
      <trkpt lat="59.311461" lon="18.074686">
        <ele>39</ele>
        <time>2019-12-10T08:53:05Z</time>
      </trkpt>
      <trkpt lat="59.311406" lon="18.074712">
        <ele>39</ele>
        <time>2019-12-10T08:53:06Z</time>
      </trkpt>
      <trkpt lat="59.311349" lon="18.074738">
        <ele>39</ele>
        <time>2019-12-10T08:53:07Z</time>
      </trkpt>
      <trkpt lat="59.311295" lon="18.074755">
        <ele>39</ele>
        <time>2019-12-10T08:53:08Z</time>
      </trkpt>
      <trkpt lat="59.311243" lon="18.074777">
        <ele>0</ele>
        <time>2019-12-10T08:53:08Z</time>
      </trkpt>
      <trkpt lat="59.311195" lon="18.074797">
        <ele>39</ele>
        <time>2019-12-10T08:53:09Z</time>
      </trkpt>
      <trkpt lat="59.31115" lon="18.074816">
        <ele>0</ele>
        <time>2019-12-10T08:53:10Z</time>
      </trkpt>
      <trkpt lat="59.311109" lon="18.074832">
        <ele>40</ele>
        <time>2019-12-10T08:53:11Z</time>
      </trkpt>
      <trkpt lat="59.311069" lon="18.074848">
        <ele>40</ele>
        <time>2019-12-10T08:53:13Z</time>
      </trkpt>
      <trkpt lat="59.311032" lon="18.074867">
        <ele>40</ele>
        <time>2019-12-10T08:53:14Z</time>
      </trkpt>
      <trkpt lat="59.311" lon="18.074882">
        <ele>41</ele>
        <time>2019-12-10T08:53:15Z</time>
      </trkpt>
      <trkpt lat="59.310971" lon="18.074891">
        <ele>41</ele>
        <time>2019-12-10T08:53:16Z</time>
      </trkpt>
      <trkpt lat="59.310944" lon="18.074899">
        <ele>41</ele>
        <time>2019-12-10T08:53:17Z</time>
      </trkpt>
      <trkpt lat="59.310919" lon="18.074903">
        <ele>41</ele>
        <time>2019-12-10T08:53:18Z</time>
      </trkpt>
      <trkpt lat="59.3109" lon="18.074911">
        <ele>41</ele>
        <time>2019-12-10T08:53:19Z</time>
      </trkpt>
      <trkpt lat="59.310881" lon="18.074916">
        <ele>42</ele>
        <time>2019-12-10T08:53:20Z</time>
      </trkpt>
      <trkpt lat="59.310862" lon="18.074921">
        <ele>42</ele>
        <time>2019-12-10T08:53:21Z</time>
      </trkpt>
      <trkpt lat="59.310844" lon="18.074928">
        <ele>42</ele>
        <time>2019-12-10T08:53:22Z</time>
      </trkpt>
      <trkpt lat="59.310809" lon="18.074936">
        <ele>42</ele>
        <time>2019-12-10T08:53:24Z</time>
      </trkpt>
      <trkpt lat="59.310787" lon="18.074945">
        <ele>41</ele>
        <time>2019-12-10T08:53:25Z</time>
      </trkpt>
      <trkpt lat="59.310754" lon="18.074965">
        <ele>41</ele>
        <time>2019-12-10T08:53:26Z</time>
      </trkpt>
      <trkpt lat="59.310714" lon="18.074994">
        <ele>0</ele>
        <time>2019-12-10T08:53:26Z</time>
      </trkpt>
      <trkpt lat="59.310672" lon="18.075021">
        <ele>40</ele>
        <time>2019-12-10T08:53:27Z</time>
      </trkpt>
      <trkpt lat="59.310628" lon="18.075049">
        <ele>40</ele>
        <time>2019-12-10T08:53:29Z</time>
      </trkpt>
      <trkpt lat="59.310585" lon="18.075075">
        <ele>0</ele>
        <time>2019-12-10T08:53:29Z</time>
      </trkpt>
      <trkpt lat="59.310534" lon="18.075101">
        <ele>39</ele>
        <time>2019-12-10T08:53:30Z</time>
      </trkpt>
      <trkpt lat="59.310485" lon="18.075127">
        <ele>39</ele>
        <time>2019-12-10T08:53:32Z</time>
      </trkpt>
      <trkpt lat="59.310438" lon="18.075159">
        <ele>39</ele>
        <time>2019-12-10T08:53:33Z</time>
      </trkpt>
      <trkpt lat="59.310384" lon="18.075183">
        <ele>39</ele>
        <time>2019-12-10T08:53:34Z</time>
      </trkpt>
      <trkpt lat="59.310332" lon="18.075204">
        <ele>39</ele>
        <time>2019-12-10T08:53:35Z</time>
      </trkpt>
      <trkpt lat="59.310279" lon="18.075227">
        <ele>0</ele>
        <time>2019-12-10T08:53:35Z</time>
      </trkpt>
      <trkpt lat="59.310226" lon="18.075249">
        <ele>39</ele>
        <time>2019-12-10T08:53:36Z</time>
      </trkpt>
      <trkpt lat="59.310173" lon="18.07527">
        <ele>40</ele>
        <time>2019-12-10T08:53:38Z</time>
      </trkpt>
      <trkpt lat="59.310121" lon="18.075295">
        <ele>40</ele>
        <time>2019-12-10T08:53:39Z</time>
      </trkpt>
      <trkpt lat="59.310069" lon="18.075314">
        <ele>40</ele>
        <time>2019-12-10T08:53:40Z</time>
      </trkpt>
      <trkpt lat="59.310017" lon="18.07533">
        <ele>40</ele>
        <time>2019-12-10T08:53:41Z</time>
      </trkpt>
      <trkpt lat="59.309964" lon="18.075359">
        <ele>40</ele>
        <time>2019-12-10T08:53:42Z</time>
      </trkpt>
      <trkpt lat="59.309915" lon="18.0754">
        <ele>40</ele>
        <time>2019-12-10T08:53:43Z</time>
      </trkpt>
      <trkpt lat="59.309864" lon="18.075443">
        <ele>40</ele>
        <time>2019-12-10T08:53:44Z</time>
      </trkpt>
      <trkpt lat="59.309806" lon="18.075481">
        <ele>0</ele>
        <time>2019-12-10T08:53:44Z</time>
      </trkpt>
      <trkpt lat="59.309751" lon="18.075502">
        <ele>40</ele>
        <time>2019-12-10T08:53:45Z</time>
      </trkpt>
      <trkpt lat="59.309695" lon="18.075522">
        <ele>40</ele>
        <time>2019-12-10T08:53:47Z</time>
      </trkpt>
      <trkpt lat="59.309643" lon="18.075555">
        <ele>40</ele>
        <time>2019-12-10T08:53:48Z</time>
      </trkpt>
      <trkpt lat="59.309591" lon="18.075593">
        <ele>0</ele>
        <time>2019-12-10T08:53:48Z</time>
      </trkpt>
      <trkpt lat="59.309538" lon="18.075625">
        <ele>40</ele>
        <time>2019-12-10T08:53:49Z</time>
      </trkpt>
      <trkpt lat="59.309484" lon="18.075647">
        <ele>40</ele>
        <time>2019-12-10T08:53:51Z</time>
      </trkpt>
      <trkpt lat="59.30943" lon="18.075671">
        <ele>39</ele>
        <time>2019-12-10T08:53:52Z</time>
      </trkpt>
      <trkpt lat="59.309369" lon="18.075688">
        <ele>39</ele>
        <time>2019-12-10T08:53:53Z</time>
      </trkpt>
      <trkpt lat="59.309311" lon="18.075711">
        <ele>0</ele>
        <time>2019-12-10T08:53:53Z</time>
      </trkpt>
      <trkpt lat="59.309259" lon="18.075742">
        <ele>39</ele>
        <time>2019-12-10T08:53:54Z</time>
      </trkpt>
      <trkpt lat="59.309209" lon="18.075786">
        <ele>40</ele>
        <time>2019-12-10T08:53:56Z</time>
      </trkpt>
      <trkpt lat="59.309155" lon="18.075811">
        <ele>40</ele>
        <time>2019-12-10T08:53:57Z</time>
      </trkpt>
      <trkpt lat="59.309103" lon="18.075837">
        <ele>40</ele>
        <time>2019-12-10T08:53:58Z</time>
      </trkpt>
      <trkpt lat="59.309048" lon="18.075853">
        <ele>40</ele>
        <time>2019-12-10T08:53:59Z</time>
      </trkpt>
      <trkpt lat="59.308993" lon="18.075875">
        <ele>40</ele>
        <time>2019-12-10T08:54:00Z</time>
      </trkpt>
      <trkpt lat="59.308933" lon="18.0759">
        <ele>40</ele>
        <time>2019-12-10T08:54:01Z</time>
      </trkpt>
      <trkpt lat="59.308872" lon="18.075914">
        <ele>40</ele>
        <time>2019-12-10T08:54:02Z</time>
      </trkpt>
      <trkpt lat="59.308818" lon="18.075937">
        <ele>0</ele>
        <time>2019-12-10T08:54:02Z</time>
      </trkpt>
      <trkpt lat="59.308768" lon="18.075953">
        <ele>40</ele>
        <time>2019-12-10T08:54:03Z</time>
      </trkpt>
      <trkpt lat="59.308715" lon="18.075968">
        <ele>41</ele>
        <time>2019-12-10T08:54:05Z</time>
      </trkpt>
      <trkpt lat="59.308665" lon="18.076001">
        <ele>41</ele>
        <time>2019-12-10T08:54:06Z</time>
      </trkpt>
      <trkpt lat="59.308612" lon="18.07603">
        <ele>41</ele>
        <time>2019-12-10T08:54:07Z</time>
      </trkpt>
      <trkpt lat="59.308563" lon="18.076044">
        <ele>0</ele>
        <time>2019-12-10T08:54:07Z</time>
      </trkpt>
      <trkpt lat="59.30851" lon="18.076061">
        <ele>41</ele>
        <time>2019-12-10T08:54:08Z</time>
      </trkpt>
      <trkpt lat="59.308458" lon="18.076076">
        <ele>42</ele>
        <time>2019-12-10T08:54:10Z</time>
      </trkpt>
      <trkpt lat="59.308412" lon="18.076097">
        <ele>42</ele>
        <time>2019-12-10T08:54:11Z</time>
      </trkpt>
      <trkpt lat="59.308367" lon="18.076116">
        <ele>42</ele>
        <time>2019-12-10T08:54:12Z</time>
      </trkpt>
      <trkpt lat="59.30832" lon="18.076136">
        <ele>0</ele>
        <time>2019-12-10T08:54:12Z</time>
      </trkpt>
      <trkpt lat="59.308272" lon="18.076154">
        <ele>42</ele>
        <time>2019-12-10T08:54:13Z</time>
      </trkpt>
      <trkpt lat="59.308226" lon="18.076164">
        <ele>41</ele>
        <time>2019-12-10T08:54:15Z</time>
      </trkpt>
      <trkpt lat="59.308183" lon="18.07617">
        <ele>41</ele>
        <time>2019-12-10T08:54:16Z</time>
      </trkpt>
      <trkpt lat="59.308146" lon="18.076169">
        <ele>41</ele>
        <time>2019-12-10T08:54:17Z</time>
      </trkpt>
      <trkpt lat="59.308116" lon="18.076172">
        <ele>41</ele>
        <time>2019-12-10T08:54:18Z</time>
      </trkpt>
      <trkpt lat="59.308097" lon="18.076183">
        <ele>42</ele>
        <time>2019-12-10T08:54:19Z</time>
      </trkpt>
      <trkpt lat="59.308082" lon="18.076204">
        <ele>42</ele>
        <time>2019-12-10T08:54:21Z</time>
      </trkpt>
      <trkpt lat="59.308076" lon="18.076214">
        <ele>0</ele>
        <time>2019-12-10T08:54:25Z</time>
      </trkpt>
      <trkpt lat="59.308044" lon="18.076237">
        <ele>0</ele>
        <time>2019-12-10T08:54:40Z</time>
      </trkpt>
      <trkpt lat="59.308044" lon="18.076238">
        <ele>0</ele>
        <time>2019-12-10T08:54:45Z</time>
      </trkpt>
      <trkpt lat="59.308006" lon="18.076282">
        <ele>0</ele>
        <time>2019-12-10T08:54:50Z</time>
      </trkpt>
      <trkpt lat="59.307984" lon="18.076306">
        <ele>39</ele>
        <time>2019-12-10T08:54:51Z</time>
      </trkpt>
      <trkpt lat="59.307958" lon="18.076332">
        <ele>39</ele>
        <time>2019-12-10T08:54:53Z</time>
      </trkpt>
      <trkpt lat="59.307918" lon="18.076361">
        <ele>38</ele>
        <time>2019-12-10T08:54:54Z</time>
      </trkpt>
      <trkpt lat="59.307873" lon="18.076393">
        <ele>38</ele>
        <time>2019-12-10T08:54:55Z</time>
      </trkpt>
      <trkpt lat="59.307826" lon="18.076426">
        <ele>38</ele>
        <time>2019-12-10T08:54:56Z</time>
      </trkpt>
      <trkpt lat="59.307776" lon="18.076458">
        <ele>38</ele>
        <time>2019-12-10T08:54:57Z</time>
      </trkpt>
      <trkpt lat="59.307726" lon="18.076489">
        <ele>0</ele>
        <time>2019-12-10T08:54:57Z</time>
      </trkpt>
      <trkpt lat="59.307672" lon="18.076522">
        <ele>38</ele>
        <time>2019-12-10T08:54:58Z</time>
      </trkpt>
      <trkpt lat="59.307622" lon="18.076551">
        <ele>39</ele>
        <time>2019-12-10T08:55:00Z</time>
      </trkpt>
      <trkpt lat="59.307569" lon="18.076573">
        <ele>39</ele>
        <time>2019-12-10T08:55:01Z</time>
      </trkpt>
      <trkpt lat="59.307511" lon="18.0766">
        <ele>39</ele>
        <time>2019-12-10T08:55:02Z</time>
      </trkpt>
      <trkpt lat="59.307456" lon="18.076633">
        <ele>39</ele>
        <time>2019-12-10T08:55:03Z</time>
      </trkpt>
      <trkpt lat="59.307403" lon="18.076667">
        <ele>39</ele>
        <time>2019-12-10T08:55:04Z</time>
      </trkpt>
      <trkpt lat="59.307348" lon="18.0767">
        <ele>39</ele>
        <time>2019-12-10T08:55:05Z</time>
      </trkpt>
      <trkpt lat="59.307286" lon="18.076734">
        <ele>0</ele>
        <time>2019-12-10T08:55:05Z</time>
      </trkpt>
      <trkpt lat="59.307228" lon="18.076768">
        <ele>39</ele>
        <time>2019-12-10T08:55:06Z</time>
      </trkpt>
      <trkpt lat="59.307169" lon="18.076797">
        <ele>39</ele>
        <time>2019-12-10T08:55:08Z</time>
      </trkpt>
      <trkpt lat="59.307105" lon="18.076829">
        <ele>38</ele>
        <time>2019-12-10T08:55:09Z</time>
      </trkpt>
      <trkpt lat="59.30704" lon="18.076854">
        <ele>0</ele>
        <time>2019-12-10T08:55:09Z</time>
      </trkpt>
      <trkpt lat="59.306975" lon="18.076877">
        <ele>38</ele>
        <time>2019-12-10T08:55:10Z</time>
      </trkpt>
      <trkpt lat="59.306912" lon="18.076901">
        <ele>38</ele>
        <time>2019-12-10T08:55:12Z</time>
      </trkpt>
      <trkpt lat="59.306851" lon="18.076935">
        <ele>38</ele>
        <time>2019-12-10T08:55:13Z</time>
      </trkpt>
      <trkpt lat="59.306787" lon="18.076974">
        <ele>0</ele>
        <time>2019-12-10T08:55:13Z</time>
      </trkpt>
      <trkpt lat="59.306731" lon="18.077028">
        <ele>39</ele>
        <time>2019-12-10T08:55:14Z</time>
      </trkpt>
      <trkpt lat="59.306664" lon="18.077067">
        <ele>38</ele>
        <time>2019-12-10T08:55:16Z</time>
      </trkpt>
      <trkpt lat="59.306596" lon="18.077112">
        <ele>37</ele>
        <time>2019-12-10T08:55:17Z</time>
      </trkpt>
      <trkpt lat="59.30653" lon="18.077149">
        <ele>37</ele>
        <time>2019-12-10T08:55:18Z</time>
      </trkpt>
      <trkpt lat="59.306469" lon="18.077189">
        <ele>37</ele>
        <time>2019-12-10T08:55:19Z</time>
      </trkpt>
      <trkpt lat="59.306407" lon="18.077226">
        <ele>37</ele>
        <time>2019-12-10T08:55:20Z</time>
      </trkpt>
      <trkpt lat="59.306346" lon="18.07726">
        <ele>37</ele>
        <time>2019-12-10T08:55:21Z</time>
      </trkpt>
      <trkpt lat="59.306285" lon="18.077294">
        <ele>0</ele>
        <time>2019-12-10T08:55:21Z</time>
      </trkpt>
      <trkpt lat="59.306225" lon="18.077326">
        <ele>37</ele>
        <time>2019-12-10T08:55:22Z</time>
      </trkpt>
      <trkpt lat="59.306165" lon="18.077357">
        <ele>37</ele>
        <time>2019-12-10T08:55:24Z</time>
      </trkpt>
      <trkpt lat="59.306105" lon="18.077388">
        <ele>37</ele>
        <time>2019-12-10T08:55:25Z</time>
      </trkpt>
      <trkpt lat="59.306045" lon="18.077422">
        <ele>36</ele>
        <time>2019-12-10T08:55:26Z</time>
      </trkpt>
      <trkpt lat="59.305988" lon="18.077462">
        <ele>36</ele>
        <time>2019-12-10T08:55:27Z</time>
      </trkpt>
      <trkpt lat="59.305931" lon="18.077499">
        <ele>36</ele>
        <time>2019-12-10T08:55:28Z</time>
      </trkpt>
      <trkpt lat="59.305874" lon="18.077536">
        <ele>0</ele>
        <time>2019-12-10T08:55:28Z</time>
      </trkpt>
      <trkpt lat="59.305817" lon="18.077571">
        <ele>36</ele>
        <time>2019-12-10T08:55:29Z</time>
      </trkpt>
      <trkpt lat="59.305762" lon="18.077604">
        <ele>36</ele>
        <time>2019-12-10T08:55:30Z</time>
      </trkpt>
      <trkpt lat="59.305707" lon="18.077635">
        <ele>36</ele>
        <time>2019-12-10T08:55:32Z</time>
      </trkpt>
      <trkpt lat="59.305653" lon="18.077666">
        <ele>35</ele>
        <time>2019-12-10T08:55:33Z</time>
      </trkpt>
      <trkpt lat="59.3056" lon="18.077696">
        <ele>35</ele>
        <time>2019-12-10T08:55:34Z</time>
      </trkpt>
      <trkpt lat="59.305548" lon="18.077727">
        <ele>35</ele>
        <time>2019-12-10T08:55:35Z</time>
      </trkpt>
      <trkpt lat="59.305496" lon="18.077758">
        <ele>35</ele>
        <time>2019-12-10T08:55:36Z</time>
      </trkpt>
      <trkpt lat="59.305445" lon="18.077789">
        <ele>35</ele>
        <time>2019-12-10T08:55:37Z</time>
      </trkpt>
      <trkpt lat="59.305396" lon="18.07782">
        <ele>35</ele>
        <time>2019-12-10T08:55:38Z</time>
      </trkpt>
      <trkpt lat="59.305348" lon="18.07785">
        <ele>0</ele>
        <time>2019-12-10T08:55:38Z</time>
      </trkpt>
      <trkpt lat="59.3053" lon="18.077879">
        <ele>35</ele>
        <time>2019-12-10T08:55:39Z</time>
      </trkpt>
      <trkpt lat="59.305252" lon="18.077907">
        <ele>35</ele>
        <time>2019-12-10T08:55:41Z</time>
      </trkpt>
      <trkpt lat="59.305203" lon="18.077936">
        <ele>35</ele>
        <time>2019-12-10T08:55:42Z</time>
      </trkpt>
      <trkpt lat="59.305155" lon="18.077965">
        <ele>35</ele>
        <time>2019-12-10T08:55:43Z</time>
      </trkpt>
      <trkpt lat="59.305108" lon="18.077994">
        <ele>34</ele>
        <time>2019-12-10T08:55:44Z</time>
      </trkpt>
      <trkpt lat="59.305062" lon="18.078022">
        <ele>34</ele>
        <time>2019-12-10T08:55:45Z</time>
      </trkpt>
      <trkpt lat="59.305015" lon="18.078049">
        <ele>34</ele>
        <time>2019-12-10T08:55:46Z</time>
      </trkpt>
      <trkpt lat="59.30497" lon="18.078075">
        <ele>34</ele>
        <time>2019-12-10T08:55:47Z</time>
      </trkpt>
      <trkpt lat="59.304926" lon="18.078101">
        <ele>0</ele>
        <time>2019-12-10T08:55:47Z</time>
      </trkpt>
      <trkpt lat="59.304883" lon="18.078126">
        <ele>33</ele>
        <time>2019-12-10T08:55:48Z</time>
      </trkpt>
      <trkpt lat="59.30484" lon="18.078151">
        <ele>33</ele>
        <time>2019-12-10T08:55:49Z</time>
      </trkpt>
      <trkpt lat="59.304798" lon="18.078176">
        <ele>33</ele>
        <time>2019-12-10T08:55:51Z</time>
      </trkpt>
      <trkpt lat="59.304756" lon="18.078202">
        <ele>33</ele>
        <time>2019-12-10T08:55:52Z</time>
      </trkpt>
      <trkpt lat="59.304715" lon="18.078228">
        <ele>33</ele>
        <time>2019-12-10T08:55:53Z</time>
      </trkpt>
      <trkpt lat="59.304673" lon="18.078253">
        <ele>33</ele>
        <time>2019-12-10T08:55:54Z</time>
      </trkpt>
      <trkpt lat="59.304631" lon="18.078278">
        <ele>33</ele>
        <time>2019-12-10T08:55:55Z</time>
      </trkpt>
      <trkpt lat="59.304589" lon="18.078304">
        <ele>0</ele>
        <time>2019-12-10T08:55:55Z</time>
      </trkpt>
      <trkpt lat="59.304547" lon="18.078328">
        <ele>33</ele>
        <time>2019-12-10T08:55:56Z</time>
      </trkpt>
      <trkpt lat="59.304506" lon="18.078352">
        <ele>32</ele>
        <time>2019-12-10T08:55:58Z</time>
      </trkpt>
      <trkpt lat="59.304464" lon="18.078377">
        <ele>32</ele>
        <time>2019-12-10T08:55:59Z</time>
      </trkpt>
      <trkpt lat="59.304422" lon="18.078402">
        <ele>32</ele>
        <time>2019-12-10T08:56:00Z</time>
      </trkpt>
      <trkpt lat="59.304381" lon="18.078428">
        <ele>0</ele>
        <time>2019-12-10T08:56:00Z</time>
      </trkpt>
      <trkpt lat="59.304339" lon="18.078454">
        <ele>32</ele>
        <time>2019-12-10T08:56:01Z</time>
      </trkpt>
      <trkpt lat="59.304298" lon="18.078479">
        <ele>32</ele>
        <time>2019-12-10T08:56:03Z</time>
      </trkpt>
      <trkpt lat="59.304256" lon="18.078503">
        <ele>32</ele>
        <time>2019-12-10T08:56:04Z</time>
      </trkpt>
      <trkpt lat="59.304214" lon="18.078528">
        <ele>32</ele>
        <time>2019-12-10T08:56:05Z</time>
      </trkpt>
      <trkpt lat="59.304173" lon="18.078555">
        <ele>32</ele>
        <time>2019-12-10T08:56:06Z</time>
      </trkpt>
      <trkpt lat="59.304132" lon="18.07858">
        <ele>0</ele>
        <time>2019-12-10T08:56:06Z</time>
      </trkpt>
      <trkpt lat="59.304092" lon="18.078605">
        <ele>32</ele>
        <time>2019-12-10T08:56:07Z</time>
      </trkpt>
      <trkpt lat="59.304052" lon="18.07863">
        <ele>32</ele>
        <time>2019-12-10T08:56:09Z</time>
      </trkpt>
      <trkpt lat="59.304012" lon="18.078657">
        <ele>32</ele>
        <time>2019-12-10T08:56:10Z</time>
      </trkpt>
      <trkpt lat="59.303972" lon="18.078683">
        <ele>32</ele>
        <time>2019-12-10T08:56:11Z</time>
      </trkpt>
      <trkpt lat="59.303932" lon="18.078708">
        <ele>32</ele>
        <time>2019-12-10T08:56:12Z</time>
      </trkpt>
      <trkpt lat="59.303891" lon="18.078732">
        <ele>0</ele>
        <time>2019-12-10T08:56:12Z</time>
      </trkpt>
      <trkpt lat="59.303851" lon="18.078756">
        <ele>33</ele>
        <time>2019-12-10T08:56:13Z</time>
      </trkpt>
      <trkpt lat="59.303813" lon="18.078779">
        <ele>33</ele>
        <time>2019-12-10T08:56:15Z</time>
      </trkpt>
      <trkpt lat="59.303774" lon="18.078802">
        <ele>33</ele>
        <time>2019-12-10T08:56:16Z</time>
      </trkpt>
      <trkpt lat="59.303737" lon="18.078824">
        <ele>33</ele>
        <time>2019-12-10T08:56:17Z</time>
      </trkpt>
      <trkpt lat="59.303699" lon="18.078846">
        <ele>33</ele>
        <time>2019-12-10T08:56:18Z</time>
      </trkpt>
      <trkpt lat="59.303663" lon="18.078867">
        <ele>33</ele>
        <time>2019-12-10T08:56:19Z</time>
      </trkpt>
      <trkpt lat="59.303626" lon="18.078889">
        <ele>33</ele>
        <time>2019-12-10T08:56:20Z</time>
      </trkpt>
      <trkpt lat="59.303588" lon="18.078914">
        <ele>33</ele>
        <time>2019-12-10T08:56:21Z</time>
      </trkpt>
      <trkpt lat="59.303551" lon="18.078939">
        <ele>33</ele>
        <time>2019-12-10T08:56:22Z</time>
      </trkpt>
      <trkpt lat="59.303513" lon="18.078963">
        <ele>33</ele>
        <time>2019-12-10T08:56:23Z</time>
      </trkpt>
      <trkpt lat="59.303473" lon="18.078987">
        <ele>33</ele>
        <time>2019-12-10T08:56:24Z</time>
      </trkpt>
      <trkpt lat="59.303433" lon="18.07901">
        <ele>0</ele>
        <time>2019-12-10T08:56:24Z</time>
      </trkpt>
      <trkpt lat="59.303391" lon="18.079034">
        <ele>33</ele>
        <time>2019-12-10T08:56:25Z</time>
      </trkpt>
      <trkpt lat="59.303348" lon="18.079061">
        <ele>33</ele>
        <time>2019-12-10T08:56:26Z</time>
      </trkpt>
      <trkpt lat="59.303305" lon="18.079088">
        <ele>34</ele>
        <time>2019-12-10T08:56:28Z</time>
      </trkpt>
      <trkpt lat="59.303262" lon="18.079115">
        <ele>34</ele>
        <time>2019-12-10T08:56:29Z</time>
      </trkpt>
      <trkpt lat="59.303219" lon="18.079143">
        <ele>34</ele>
        <time>2019-12-10T08:56:30Z</time>
      </trkpt>
      <trkpt lat="59.303175" lon="18.079171">
        <ele>34</ele>
        <time>2019-12-10T08:56:31Z</time>
      </trkpt>
      <trkpt lat="59.30313" lon="18.079198">
        <ele>34</ele>
        <time>2019-12-10T08:56:32Z</time>
      </trkpt>
      <trkpt lat="59.303084" lon="18.079226">
        <ele>34</ele>
        <time>2019-12-10T08:56:33Z</time>
      </trkpt>
      <trkpt lat="59.303037" lon="18.079255">
        <ele>34</ele>
        <time>2019-12-10T08:56:34Z</time>
      </trkpt>
      <trkpt lat="59.302989" lon="18.079285">
        <ele>34</ele>
        <time>2019-12-10T08:56:35Z</time>
      </trkpt>
      <trkpt lat="59.302941" lon="18.079315">
        <ele>0</ele>
        <time>2019-12-10T08:56:35Z</time>
      </trkpt>
      <trkpt lat="59.302892" lon="18.079347">
        <ele>34</ele>
        <time>2019-12-10T08:56:36Z</time>
      </trkpt>
      <trkpt lat="59.302843" lon="18.079378">
        <ele>34</ele>
        <time>2019-12-10T08:56:38Z</time>
      </trkpt>
      <trkpt lat="59.302793" lon="18.07941">
        <ele>34</ele>
        <time>2019-12-10T08:56:39Z</time>
      </trkpt>
      <trkpt lat="59.302743" lon="18.07944">
        <ele>34</ele>
        <time>2019-12-10T08:56:40Z</time>
      </trkpt>
      <trkpt lat="59.302693" lon="18.079473">
        <ele>34</ele>
        <time>2019-12-10T08:56:41Z</time>
      </trkpt>
      <trkpt lat="59.302643" lon="18.079505">
        <ele>34</ele>
        <time>2019-12-10T08:56:42Z</time>
      </trkpt>
      <trkpt lat="59.302591" lon="18.079536">
        <ele>34</ele>
        <time>2019-12-10T08:56:43Z</time>
      </trkpt>
      <trkpt lat="59.302539" lon="18.079569">
        <ele>34</ele>
        <time>2019-12-10T08:56:44Z</time>
      </trkpt>
      <trkpt lat="59.302487" lon="18.079602">
        <ele>0</ele>
        <time>2019-12-10T08:56:44Z</time>
      </trkpt>
      <trkpt lat="59.302435" lon="18.079635">
        <ele>34</ele>
        <time>2019-12-10T08:56:45Z</time>
      </trkpt>
      <trkpt lat="59.302382" lon="18.079669">
        <ele>34</ele>
        <time>2019-12-10T08:56:47Z</time>
      </trkpt>
      <trkpt lat="59.302329" lon="18.079704">
        <ele>34</ele>
        <time>2019-12-10T08:56:48Z</time>
      </trkpt>
      <trkpt lat="59.302276" lon="18.079739">
        <ele>34</ele>
        <time>2019-12-10T08:56:49Z</time>
      </trkpt>
      <trkpt lat="59.302221" lon="18.079772">
        <ele>34</ele>
        <time>2019-12-10T08:56:50Z</time>
      </trkpt>
      <trkpt lat="59.302166" lon="18.079806">
        <ele>34</ele>
        <time>2019-12-10T08:56:51Z</time>
      </trkpt>
      <trkpt lat="59.30211" lon="18.079839">
        <ele>34</ele>
        <time>2019-12-10T08:56:52Z</time>
      </trkpt>
      <trkpt lat="59.302055" lon="18.079873">
        <ele>34</ele>
        <time>2019-12-10T08:56:53Z</time>
      </trkpt>
      <trkpt lat="59.301998" lon="18.079907">
        <ele>0</ele>
        <time>2019-12-10T08:56:53Z</time>
      </trkpt>
      <trkpt lat="59.301941" lon="18.07994">
        <ele>34</ele>
        <time>2019-12-10T08:56:54Z</time>
      </trkpt>
      <trkpt lat="59.301883" lon="18.079972">
        <ele>34</ele>
        <time>2019-12-10T08:56:56Z</time>
      </trkpt>
      <trkpt lat="59.301826" lon="18.080004">
        <ele>34</ele>
        <time>2019-12-10T08:56:57Z</time>
      </trkpt>
      <trkpt lat="59.301768" lon="18.080038">
        <ele>34</ele>
        <time>2019-12-10T08:56:58Z</time>
      </trkpt>
      <trkpt lat="59.301711" lon="18.080071">
        <ele>34</ele>
        <time>2019-12-10T08:56:59Z</time>
      </trkpt>
      <trkpt lat="59.301653" lon="18.080102">
        <ele>34</ele>
        <time>2019-12-10T08:57:00Z</time>
      </trkpt>
      <trkpt lat="59.301596" lon="18.080133">
        <ele>34</ele>
        <time>2019-12-10T08:57:01Z</time>
      </trkpt>
      <trkpt lat="59.301537" lon="18.080164">
        <ele>34</ele>
        <time>2019-12-10T08:57:01Z</time>
      </trkpt>
      <trkpt lat="59.30148" lon="18.080196">
        <ele>34</ele>
        <time>2019-12-10T08:57:02Z</time>
      </trkpt>
      <trkpt lat="59.301424" lon="18.080228">
        <ele>0</ele>
        <time>2019-12-10T08:57:03Z</time>
      </trkpt>
      <trkpt lat="59.30137" lon="18.080256">
        <ele>34</ele>
        <time>2019-12-10T08:57:04Z</time>
      </trkpt>
      <trkpt lat="59.301316" lon="18.080284">
        <ele>34</ele>
        <time>2019-12-10T08:57:06Z</time>
      </trkpt>
      <trkpt lat="59.301262" lon="18.080311">
        <ele>34</ele>
        <time>2019-12-10T08:57:07Z</time>
      </trkpt>
      <trkpt lat="59.301207" lon="18.080335">
        <ele>34</ele>
        <time>2019-12-10T08:57:08Z</time>
      </trkpt>
      <trkpt lat="59.301154" lon="18.080346">
        <ele>34</ele>
        <time>2019-12-10T08:57:09Z</time>
      </trkpt>
      <trkpt lat="59.301099" lon="18.080344">
        <ele>34</ele>
        <time>2019-12-10T08:57:10Z</time>
      </trkpt>
      <trkpt lat="59.301046" lon="18.080347">
        <ele>0</ele>
        <time>2019-12-10T08:57:10Z</time>
      </trkpt>
      <trkpt lat="59.30099" lon="18.080359">
        <ele>34</ele>
        <time>2019-12-10T08:57:11Z</time>
      </trkpt>
      <trkpt lat="59.300936" lon="18.080378">
        <ele>35</ele>
        <time>2019-12-10T08:57:13Z</time>
      </trkpt>
      <trkpt lat="59.300878" lon="18.080396">
        <ele>36</ele>
        <time>2019-12-10T08:57:14Z</time>
      </trkpt>
      <trkpt lat="59.300816" lon="18.08042">
        <ele>36</ele>
        <time>2019-12-10T08:57:15Z</time>
      </trkpt>
      <trkpt lat="59.30076" lon="18.080446">
        <ele>36</ele>
        <time>2019-12-10T08:57:16Z</time>
      </trkpt>
      <trkpt lat="59.300704" lon="18.080479">
        <ele>36</ele>
        <time>2019-12-10T08:57:17Z</time>
      </trkpt>
      <trkpt lat="59.300644" lon="18.080514">
        <ele>36</ele>
        <time>2019-12-10T08:57:18Z</time>
      </trkpt>
      <trkpt lat="59.300588" lon="18.080549">
        <ele>0</ele>
        <time>2019-12-10T08:57:18Z</time>
      </trkpt>
      <trkpt lat="59.30053" lon="18.08058">
        <ele>37</ele>
        <time>2019-12-10T08:57:19Z</time>
      </trkpt>
      <trkpt lat="59.300473" lon="18.080612">
        <ele>37</ele>
        <time>2019-12-10T08:57:21Z</time>
      </trkpt>
      <trkpt lat="59.300416" lon="18.080647">
        <ele>37</ele>
        <time>2019-12-10T08:57:22Z</time>
      </trkpt>
      <trkpt lat="59.300358" lon="18.08068">
        <ele>0</ele>
        <time>2019-12-10T08:57:22Z</time>
      </trkpt>
      <trkpt lat="59.300301" lon="18.080714">
        <ele>37</ele>
        <time>2019-12-10T08:57:23Z</time>
      </trkpt>
      <trkpt lat="59.30024" lon="18.080748">
        <ele>38</ele>
        <time>2019-12-10T08:57:25Z</time>
      </trkpt>
      <trkpt lat="59.300182" lon="18.080782">
        <ele>38</ele>
        <time>2019-12-10T08:57:26Z</time>
      </trkpt>
      <trkpt lat="59.300126" lon="18.080818">
        <ele>38</ele>
        <time>2019-12-10T08:57:27Z</time>
      </trkpt>
      <trkpt lat="59.300069" lon="18.080853">
        <ele>0</ele>
        <time>2019-12-10T08:57:27Z</time>
      </trkpt>
      <trkpt lat="59.30001" lon="18.080885">
        <ele>38</ele>
        <time>2019-12-10T08:57:28Z</time>
      </trkpt>
      <trkpt lat="59.299952" lon="18.080915">
        <ele>38</ele>
        <time>2019-12-10T08:57:30Z</time>
      </trkpt>
      <trkpt lat="59.299891" lon="18.080944">
        <ele>38</ele>
        <time>2019-12-10T08:57:31Z</time>
      </trkpt>
      <trkpt lat="59.299832" lon="18.080978">
        <ele>38</ele>
        <time>2019-12-10T08:57:32Z</time>
      </trkpt>
      <trkpt lat="59.299773" lon="18.081013">
        <ele>38</ele>
        <time>2019-12-10T08:57:33Z</time>
      </trkpt>
      <trkpt lat="59.299713" lon="18.081048">
        <ele>38</ele>
        <time>2019-12-10T08:57:34Z</time>
      </trkpt>
      <trkpt lat="59.299654" lon="18.081086">
        <ele>38</ele>
        <time>2019-12-10T08:57:35Z</time>
      </trkpt>
      <trkpt lat="59.299593" lon="18.081125">
        <ele>0</ele>
        <time>2019-12-10T08:57:35Z</time>
      </trkpt>
      <trkpt lat="59.299535" lon="18.081166">
        <ele>38</ele>
        <time>2019-12-10T08:57:36Z</time>
      </trkpt>
      <trkpt lat="59.299476" lon="18.081198">
        <ele>39</ele>
        <time>2019-12-10T08:57:38Z</time>
      </trkpt>
      <trkpt lat="59.299421" lon="18.081236">
        <ele>39</ele>
        <time>2019-12-10T08:57:39Z</time>
      </trkpt>
      <trkpt lat="59.29937" lon="18.081277">
        <ele>39</ele>
        <time>2019-12-10T08:57:40Z</time>
      </trkpt>
      <trkpt lat="59.29932" lon="18.081322">
        <ele>39</ele>
        <time>2019-12-10T08:57:41Z</time>
      </trkpt>
      <trkpt lat="59.299272" lon="18.081365">
        <ele>0</ele>
        <time>2019-12-10T08:57:41Z</time>
      </trkpt>
      <trkpt lat="59.299226" lon="18.081411">
        <ele>39</ele>
        <time>2019-12-10T08:57:42Z</time>
      </trkpt>
      <trkpt lat="59.299174" lon="18.081457">
        <ele>39</ele>
        <time>2019-12-10T08:57:44Z</time>
      </trkpt>
      <trkpt lat="59.299122" lon="18.081511">
        <ele>0</ele>
        <time>2019-12-10T08:57:44Z</time>
      </trkpt>
      <trkpt lat="59.299068" lon="18.081572">
        <ele>39</ele>
        <time>2019-12-10T08:57:45Z</time>
      </trkpt>
      <trkpt lat="59.299018" lon="18.081618">
        <ele>39</ele>
        <time>2019-12-10T08:57:47Z</time>
      </trkpt>
      <trkpt lat="59.298977" lon="18.081661">
        <ele>39</ele>
        <time>2019-12-10T08:57:48Z</time>
      </trkpt>
      <trkpt lat="59.298934" lon="18.08171">
        <ele>39</ele>
        <time>2019-12-10T08:57:49Z</time>
      </trkpt>
      <trkpt lat="59.298886" lon="18.081757">
        <ele>39</ele>
        <time>2019-12-10T08:57:50Z</time>
      </trkpt>
      <trkpt lat="59.29884" lon="18.081811">
        <ele>39</ele>
        <time>2019-12-10T08:57:51Z</time>
      </trkpt>
      <trkpt lat="59.298784" lon="18.081859">
        <ele>40</ele>
        <time>2019-12-10T08:57:52Z</time>
      </trkpt>
      <trkpt lat="59.298728" lon="18.081899">
        <ele>40</ele>
        <time>2019-12-10T08:57:53Z</time>
      </trkpt>
      <trkpt lat="59.298672" lon="18.081935">
        <ele>0</ele>
        <time>2019-12-10T08:57:53Z</time>
      </trkpt>
      <trkpt lat="59.298619" lon="18.081975">
        <ele>40</ele>
        <time>2019-12-10T08:57:54Z</time>
      </trkpt>
      <trkpt lat="59.298564" lon="18.082011">
        <ele>40</ele>
        <time>2019-12-10T08:57:56Z</time>
      </trkpt>
      <trkpt lat="59.298511" lon="18.082048">
        <ele>40</ele>
        <time>2019-12-10T08:57:57Z</time>
      </trkpt>
      <trkpt lat="59.298452" lon="18.082076">
        <ele>40</ele>
        <time>2019-12-10T08:57:58Z</time>
      </trkpt>
      <trkpt lat="59.298399" lon="18.082106">
        <ele>41</ele>
        <time>2019-12-10T08:57:59Z</time>
      </trkpt>
      <trkpt lat="59.29835" lon="18.082137">
        <ele>41</ele>
        <time>2019-12-10T08:58:00Z</time>
      </trkpt>
      <trkpt lat="59.298301" lon="18.082167">
        <ele>0</ele>
        <time>2019-12-10T08:58:00Z</time>
      </trkpt>
      <trkpt lat="59.298256" lon="18.082197">
        <ele>41</ele>
        <time>2019-12-10T08:58:01Z</time>
      </trkpt>
      <trkpt lat="59.298212" lon="18.082231">
        <ele>0</ele>
        <time>2019-12-10T08:58:02Z</time>
      </trkpt>
      <trkpt lat="59.298167" lon="18.082268">
        <ele>41</ele>
        <time>2019-12-10T08:58:03Z</time>
      </trkpt>
      <trkpt lat="59.298123" lon="18.082301">
        <ele>41</ele>
        <time>2019-12-10T08:58:05Z</time>
      </trkpt>
      <trkpt lat="59.29808" lon="18.082331">
        <ele>41</ele>
        <time>2019-12-10T08:58:06Z</time>
      </trkpt>
      <trkpt lat="59.298036" lon="18.08236">
        <ele>41</ele>
        <time>2019-12-10T08:58:07Z</time>
      </trkpt>
      <trkpt lat="59.297991" lon="18.082387">
        <ele>41</ele>
        <time>2019-12-10T08:58:08Z</time>
      </trkpt>
      <trkpt lat="59.297946" lon="18.082413">
        <ele>41</ele>
        <time>2019-12-10T08:58:09Z</time>
      </trkpt>
      <trkpt lat="59.297902" lon="18.082439">
        <ele>41</ele>
        <time>2019-12-10T08:58:10Z</time>
      </trkpt>
      <trkpt lat="59.297856" lon="18.082462">
        <ele>41</ele>
        <time>2019-12-10T08:58:11Z</time>
      </trkpt>
      <trkpt lat="59.29781" lon="18.082484">
        <ele>41</ele>
        <time>2019-12-10T08:58:12Z</time>
      </trkpt>
      <trkpt lat="59.297766" lon="18.082508">
        <ele>41</ele>
        <time>2019-12-10T08:58:13Z</time>
      </trkpt>
      <trkpt lat="59.297721" lon="18.082536">
        <ele>0</ele>
        <time>2019-12-10T08:58:13Z</time>
      </trkpt>
      <trkpt lat="59.297678" lon="18.08256">
        <ele>40</ele>
        <time>2019-12-10T08:58:14Z</time>
      </trkpt>
      <trkpt lat="59.297631" lon="18.082581">
        <ele>40</ele>
        <time>2019-12-10T08:58:16Z</time>
      </trkpt>
      <trkpt lat="59.297586" lon="18.082602">
        <ele>40</ele>
        <time>2019-12-10T08:58:17Z</time>
      </trkpt>
      <trkpt lat="59.29754" lon="18.082624">
        <ele>40</ele>
        <time>2019-12-10T08:58:18Z</time>
      </trkpt>
      <trkpt lat="59.297494" lon="18.082649">
        <ele>40</ele>
        <time>2019-12-10T08:58:19Z</time>
      </trkpt>
      <trkpt lat="59.297448" lon="18.082675">
        <ele>0</ele>
        <time>2019-12-10T08:58:19Z</time>
      </trkpt>
      <trkpt lat="59.297403" lon="18.082699">
        <ele>41</ele>
        <time>2019-12-10T08:58:20Z</time>
      </trkpt>
      <trkpt lat="59.297358" lon="18.082721">
        <ele>41</ele>
        <time>2019-12-10T08:58:22Z</time>
      </trkpt>
      <trkpt lat="59.297312" lon="18.082737">
        <ele>41</ele>
        <time>2019-12-10T08:58:23Z</time>
      </trkpt>
      <trkpt lat="59.297266" lon="18.082752">
        <ele>0</ele>
        <time>2019-12-10T08:58:23Z</time>
      </trkpt>
      <trkpt lat="59.297218" lon="18.082763">
        <ele>41</ele>
        <time>2019-12-10T08:58:24Z</time>
      </trkpt>
      <trkpt lat="59.297172" lon="18.08277">
        <ele>41</ele>
        <time>2019-12-10T08:58:26Z</time>
      </trkpt>
      <trkpt lat="59.297126" lon="18.082782">
        <ele>41</ele>
        <time>2019-12-10T08:58:27Z</time>
      </trkpt>
      <trkpt lat="59.297083" lon="18.082801">
        <ele>41</ele>
        <time>2019-12-10T08:58:28Z</time>
      </trkpt>
      <trkpt lat="59.29704" lon="18.082821">
        <ele>41</ele>
        <time>2019-12-10T08:58:29Z</time>
      </trkpt>
      <trkpt lat="59.296998" lon="18.08284">
        <ele>41</ele>
        <time>2019-12-10T08:58:30Z</time>
      </trkpt>
      <trkpt lat="59.296956" lon="18.082862">
        <ele>41</ele>
        <time>2019-12-10T08:58:31Z</time>
      </trkpt>
      <trkpt lat="59.296913" lon="18.082893">
        <ele>41</ele>
        <time>2019-12-10T08:58:32Z</time>
      </trkpt>
      <trkpt lat="59.29687" lon="18.082931">
        <ele>41</ele>
        <time>2019-12-10T08:58:33Z</time>
      </trkpt>
      <trkpt lat="59.296832" lon="18.082973">
        <ele>41</ele>
        <time>2019-12-10T08:58:34Z</time>
      </trkpt>
      <trkpt lat="59.296794" lon="18.083014">
        <ele>0</ele>
        <time>2019-12-10T08:58:34Z</time>
      </trkpt>
      <trkpt lat="59.296754" lon="18.083053">
        <ele>41</ele>
        <time>2019-12-10T08:58:35Z</time>
      </trkpt>
      <trkpt lat="59.296714" lon="18.083091">
        <ele>41</ele>
        <time>2019-12-10T08:58:37Z</time>
      </trkpt>
      <trkpt lat="59.296674" lon="18.083129">
        <ele>42</ele>
        <time>2019-12-10T08:58:38Z</time>
      </trkpt>
      <trkpt lat="59.296634" lon="18.083167">
        <ele>0</ele>
        <time>2019-12-10T08:58:38Z</time>
      </trkpt>
      <trkpt lat="59.296594" lon="18.083203">
        <ele>42</ele>
        <time>2019-12-10T08:58:39Z</time>
      </trkpt>
      <trkpt lat="59.296554" lon="18.083243">
        <ele>42</ele>
        <time>2019-12-10T08:58:41Z</time>
      </trkpt>
      <trkpt lat="59.296513" lon="18.08328">
        <ele>42</ele>
        <time>2019-12-10T08:58:42Z</time>
      </trkpt>
      <trkpt lat="59.296472" lon="18.083315">
        <ele>42</ele>
        <time>2019-12-10T08:58:43Z</time>
      </trkpt>
      <trkpt lat="59.296432" lon="18.083345">
        <ele>42</ele>
        <time>2019-12-10T08:58:44Z</time>
      </trkpt>
      <trkpt lat="59.296388" lon="18.08337">
        <ele>42</ele>
        <time>2019-12-10T08:58:45Z</time>
      </trkpt>
      <trkpt lat="59.296345" lon="18.083396">
        <ele>42</ele>
        <time>2019-12-10T08:58:46Z</time>
      </trkpt>
      <trkpt lat="59.296302" lon="18.083422">
        <ele>0</ele>
        <time>2019-12-10T08:58:46Z</time>
      </trkpt>
      <trkpt lat="59.296256" lon="18.08345">
        <ele>42</ele>
        <time>2019-12-10T08:58:47Z</time>
      </trkpt>
      <trkpt lat="59.296211" lon="18.083478">
        <ele>42</ele>
        <time>2019-12-10T08:58:49Z</time>
      </trkpt>
      <trkpt lat="59.296164" lon="18.083506">
        <ele>42</ele>
        <time>2019-12-10T08:58:50Z</time>
      </trkpt>
      <trkpt lat="59.296119" lon="18.083534">
        <ele>42</ele>
        <time>2019-12-10T08:58:51Z</time>
      </trkpt>
      <trkpt lat="59.296071" lon="18.083563">
        <ele>42</ele>
        <time>2019-12-10T08:58:52Z</time>
      </trkpt>
      <trkpt lat="59.296026" lon="18.083594">
        <ele>43</ele>
        <time>2019-12-10T08:58:53Z</time>
      </trkpt>
      <trkpt lat="59.295979" lon="18.083624">
        <ele>43</ele>
        <time>2019-12-10T08:58:54Z</time>
      </trkpt>
      <trkpt lat="59.295932" lon="18.083655">
        <ele>43</ele>
        <time>2019-12-10T08:58:55Z</time>
      </trkpt>
      <trkpt lat="59.295886" lon="18.083686">
        <ele>43</ele>
        <time>2019-12-10T08:58:56Z</time>
      </trkpt>
      <trkpt lat="59.295838" lon="18.083717">
        <ele>0</ele>
        <time>2019-12-10T08:58:56Z</time>
      </trkpt>
      <trkpt lat="59.29579" lon="18.083746">
        <ele>43</ele>
        <time>2019-12-10T08:58:57Z</time>
      </trkpt>
      <trkpt lat="59.295742" lon="18.083776">
        <ele>43</ele>
        <time>2019-12-10T08:58:58Z</time>
      </trkpt>
      <trkpt lat="59.295693" lon="18.083805">
        <ele>43</ele>
        <time>2019-12-10T08:59:00Z</time>
      </trkpt>
      <trkpt lat="59.295644" lon="18.083834">
        <ele>43</ele>
        <time>2019-12-10T08:59:01Z</time>
      </trkpt>
      <trkpt lat="59.295593" lon="18.083866">
        <ele>43</ele>
        <time>2019-12-10T08:59:02Z</time>
      </trkpt>
      <trkpt lat="59.295541" lon="18.083898">
        <ele>43</ele>
        <time>2019-12-10T08:59:03Z</time>
      </trkpt>
      <trkpt lat="59.295488" lon="18.083931">
        <ele>43</ele>
        <time>2019-12-10T08:59:04Z</time>
      </trkpt>
      <trkpt lat="59.295435" lon="18.083965">
        <ele>43</ele>
        <time>2019-12-10T08:59:05Z</time>
      </trkpt>
      <trkpt lat="59.29538" lon="18.083998">
        <ele>0</ele>
        <time>2019-12-10T08:59:05Z</time>
      </trkpt>
      <trkpt lat="59.295324" lon="18.08403">
        <ele>43</ele>
        <time>2019-12-10T08:59:06Z</time>
      </trkpt>
      <trkpt lat="59.295267" lon="18.084064">
        <ele>43</ele>
        <time>2019-12-10T08:59:08Z</time>
      </trkpt>
      <trkpt lat="59.29521" lon="18.084099">
        <ele>43</ele>
        <time>2019-12-10T08:59:09Z</time>
      </trkpt>
      <trkpt lat="59.295152" lon="18.084132">
        <ele>43</ele>
        <time>2019-12-10T08:59:10Z</time>
      </trkpt>
      <trkpt lat="59.295094" lon="18.084165">
        <ele>43</ele>
        <time>2019-12-10T08:59:11Z</time>
      </trkpt>
      <trkpt lat="59.295034" lon="18.084197">
        <ele>43</ele>
        <time>2019-12-10T08:59:12Z</time>
      </trkpt>
      <trkpt lat="59.294975" lon="18.08423">
        <ele>43</ele>
        <time>2019-12-10T08:59:13Z</time>
      </trkpt>
      <trkpt lat="59.294917" lon="18.084263">
        <ele>0</ele>
        <time>2019-12-10T08:59:13Z</time>
      </trkpt>
      <trkpt lat="59.294857" lon="18.084295">
        <ele>43</ele>
        <time>2019-12-10T08:59:14Z</time>
      </trkpt>
      <trkpt lat="59.2948" lon="18.084328">
        <ele>43</ele>
        <time>2019-12-10T08:59:16Z</time>
      </trkpt>
      <trkpt lat="59.294738" lon="18.084362">
        <ele>0</ele>
        <time>2019-12-10T08:59:16Z</time>
      </trkpt>
      <trkpt lat="59.294678" lon="18.084394">
        <ele>43</ele>
        <time>2019-12-10T08:59:17Z</time>
      </trkpt>
      <trkpt lat="59.294616" lon="18.084425">
        <ele>43</ele>
        <time>2019-12-10T08:59:19Z</time>
      </trkpt>
      <trkpt lat="59.294556" lon="18.084456">
        <ele>44</ele>
        <time>2019-12-10T08:59:20Z</time>
      </trkpt>
      <trkpt lat="59.294496" lon="18.084486">
        <ele>44</ele>
        <time>2019-12-10T08:59:21Z</time>
      </trkpt>
      <trkpt lat="59.294441" lon="18.084516">
        <ele>0</ele>
        <time>2019-12-10T08:59:21Z</time>
      </trkpt>
      <trkpt lat="59.29438" lon="18.084547">
        <ele>44</ele>
        <time>2019-12-10T08:59:22Z</time>
      </trkpt>
      <trkpt lat="59.29432" lon="18.084584">
        <ele>44</ele>
        <time>2019-12-10T08:59:24Z</time>
      </trkpt>
      <trkpt lat="59.294255" lon="18.084629">
        <ele>43</ele>
        <time>2019-12-10T08:59:25Z</time>
      </trkpt>
      <trkpt lat="59.294189" lon="18.084682">
        <ele>44</ele>
        <time>2019-12-10T08:59:26Z</time>
      </trkpt>
      <trkpt lat="59.294124" lon="18.084735">
        <ele>44</ele>
        <time>2019-12-10T08:59:27Z</time>
      </trkpt>
      <trkpt lat="59.294054" lon="18.084779">
        <ele>43</ele>
        <time>2019-12-10T08:59:28Z</time>
      </trkpt>
      <trkpt lat="59.293992" lon="18.084817">
        <ele>44</ele>
        <time>2019-12-10T08:59:29Z</time>
      </trkpt>
      <trkpt lat="59.293933" lon="18.084854">
        <ele>0</ele>
        <time>2019-12-10T08:59:29Z</time>
      </trkpt>
      <trkpt lat="59.293872" lon="18.084898">
        <ele>44</ele>
        <time>2019-12-10T08:59:30Z</time>
      </trkpt>
      <trkpt lat="59.293812" lon="18.084941">
        <ele>46</ele>
        <time>2019-12-10T08:59:32Z</time>
      </trkpt>
      <trkpt lat="59.293746" lon="18.084977">
        <ele>46</ele>
        <time>2019-12-10T08:59:33Z</time>
      </trkpt>
      <trkpt lat="59.293676" lon="18.085012">
        <ele>46</ele>
        <time>2019-12-10T08:59:34Z</time>
      </trkpt>
      <trkpt lat="59.293606" lon="18.085047">
        <ele>46</ele>
        <time>2019-12-10T08:59:35Z</time>
      </trkpt>
      <trkpt lat="59.293534" lon="18.085076">
        <ele>0</ele>
        <time>2019-12-10T08:59:35Z</time>
      </trkpt>
      <trkpt lat="59.293462" lon="18.085099">
        <ele>46</ele>
        <time>2019-12-10T08:59:36Z</time>
      </trkpt>
      <trkpt lat="59.29339" lon="18.085123">
        <ele>47</ele>
        <time>2019-12-10T08:59:37Z</time>
      </trkpt>
      <trkpt lat="59.293324" lon="18.085146">
        <ele>48</ele>
        <time>2019-12-10T08:59:39Z</time>
      </trkpt>
      <trkpt lat="59.293258" lon="18.085168">
        <ele>49</ele>
        <time>2019-12-10T08:59:40Z</time>
      </trkpt>
      <trkpt lat="59.293194" lon="18.085195">
        <ele>49</ele>
        <time>2019-12-10T08:59:41Z</time>
      </trkpt>
      <trkpt lat="59.29313" lon="18.085216">
        <ele>49</ele>
        <time>2019-12-10T08:59:42Z</time>
      </trkpt>
      <trkpt lat="59.293068" lon="18.085233">
        <ele>50</ele>
        <time>2019-12-10T08:59:43Z</time>
      </trkpt>
      <trkpt lat="59.293008" lon="18.085248">
        <ele>50</ele>
        <time>2019-12-10T08:59:44Z</time>
      </trkpt>
      <trkpt lat="59.29295" lon="18.085256">
        <ele>0</ele>
        <time>2019-12-10T08:59:44Z</time>
      </trkpt>
      <trkpt lat="59.29289" lon="18.085253">
        <ele>50</ele>
        <time>2019-12-10T08:59:45Z</time>
      </trkpt>
      <trkpt lat="59.292832" lon="18.085233">
        <ele>50</ele>
        <time>2019-12-10T08:59:47Z</time>
      </trkpt>
      <trkpt lat="59.292774" lon="18.085194">
        <ele>50</ele>
        <time>2019-12-10T08:59:48Z</time>
      </trkpt>
      <trkpt lat="59.29272" lon="18.08514">
        <ele>50</ele>
        <time>2019-12-10T08:59:49Z</time>
      </trkpt>
      <trkpt lat="59.29267" lon="18.085087">
        <ele>51</ele>
        <time>2019-12-10T08:59:50Z</time>
      </trkpt>
      <trkpt lat="59.292622" lon="18.085058">
        <ele>51</ele>
        <time>2019-12-10T08:59:51Z</time>
      </trkpt>
      <trkpt lat="59.292568" lon="18.085061">
        <ele>50</ele>
        <time>2019-12-10T08:59:52Z</time>
      </trkpt>
      <trkpt lat="59.292512" lon="18.085084">
        <ele>0</ele>
        <time>2019-12-10T08:59:52Z</time>
      </trkpt>
      <trkpt lat="59.292454" lon="18.085122">
        <ele>50</ele>
        <time>2019-12-10T08:59:53Z</time>
      </trkpt>
      <trkpt lat="59.292398" lon="18.085166">
        <ele>0</ele>
        <time>2019-12-10T08:59:54Z</time>
      </trkpt>
      <trkpt lat="59.292344" lon="18.085205">
        <ele>50</ele>
        <time>2019-12-10T08:59:55Z</time>
      </trkpt>
      <trkpt lat="59.29229" lon="18.085242">
        <ele>50</ele>
        <time>2019-12-10T08:59:57Z</time>
      </trkpt>
      <trkpt lat="59.292232" lon="18.085282">
        <ele>50</ele>
        <time>2019-12-10T08:59:58Z</time>
      </trkpt>
      <trkpt lat="59.292176" lon="18.08532">
        <ele>50</ele>
        <time>2019-12-10T08:59:59Z</time>
      </trkpt>
      <trkpt lat="59.292122" lon="18.08536">
        <ele>50</ele>
        <time>2019-12-10T09:00:00Z</time>
      </trkpt>
      <trkpt lat="59.292068" lon="18.085404">
        <ele>50</ele>
        <time>2019-12-10T09:00:01Z</time>
      </trkpt>
      <trkpt lat="59.292016" lon="18.085456">
        <ele>50</ele>
        <time>2019-12-10T09:00:01Z</time>
      </trkpt>
      <trkpt lat="59.291972" lon="18.085524">
        <ele>50</ele>
        <time>2019-12-10T09:00:02Z</time>
      </trkpt>
      <trkpt lat="59.291933" lon="18.085627">
        <ele>51</ele>
        <time>2019-12-10T09:00:04Z</time>
      </trkpt>
      <trkpt lat="59.291877" lon="18.085707">
        <ele>51</ele>
        <time>2019-12-10T09:00:05Z</time>
      </trkpt>
      <trkpt lat="59.291819" lon="18.085786">
        <ele>51</ele>
        <time>2019-12-10T09:00:06Z</time>
      </trkpt>
      <trkpt lat="59.291762" lon="18.085867">
        <ele>50</ele>
        <time>2019-12-10T09:00:07Z</time>
      </trkpt>
      <trkpt lat="59.291703" lon="18.085942">
        <ele>50</ele>
        <time>2019-12-10T09:00:08Z</time>
      </trkpt>
      <trkpt lat="59.291644" lon="18.086014">
        <ele>0</ele>
        <time>2019-12-10T09:00:08Z</time>
      </trkpt>
      <trkpt lat="59.291586" lon="18.086084">
        <ele>50</ele>
        <time>2019-12-10T09:00:09Z</time>
      </trkpt>
      <trkpt lat="59.291532" lon="18.086154">
        <ele>50</ele>
        <time>2019-12-10T09:00:11Z</time>
      </trkpt>
      <trkpt lat="59.291476" lon="18.086232">
        <ele>50</ele>
        <time>2019-12-10T09:00:12Z</time>
      </trkpt>
      <trkpt lat="59.291428" lon="18.086322">
        <ele>50</ele>
        <time>2019-12-10T09:00:13Z</time>
      </trkpt>
      <trkpt lat="59.291377" lon="18.0864">
        <ele>0</ele>
        <time>2019-12-10T09:00:13Z</time>
      </trkpt>
      <trkpt lat="59.291322" lon="18.086473">
        <ele>50</ele>
        <time>2019-12-10T09:00:14Z</time>
      </trkpt>
      <trkpt lat="59.291265" lon="18.08654">
        <ele>50</ele>
        <time>2019-12-10T09:00:16Z</time>
      </trkpt>
      <trkpt lat="59.291208" lon="18.086608">
        <ele>0</ele>
        <time>2019-12-10T09:00:16Z</time>
      </trkpt>
      <trkpt lat="59.291146" lon="18.086657">
        <ele>49</ele>
        <time>2019-12-10T09:00:17Z</time>
      </trkpt>
      <trkpt lat="59.291074" lon="18.086702">
        <ele>49</ele>
        <time>2019-12-10T09:00:19Z</time>
      </trkpt>
      <trkpt lat="59.291" lon="18.086741">
        <ele>48</ele>
        <time>2019-12-10T09:00:20Z</time>
      </trkpt>
      <trkpt lat="59.290926" lon="18.08677">
        <ele>48</ele>
        <time>2019-12-10T09:00:21Z</time>
      </trkpt>
      <trkpt lat="59.290832" lon="18.086776">
        <ele>46</ele>
        <time>2019-12-10T09:00:22Z</time>
      </trkpt>
      <trkpt lat="59.290714" lon="18.086755">
        <ele>0</ele>
        <time>2019-12-10T09:00:22Z</time>
      </trkpt>
      <trkpt lat="59.290618" lon="18.086737">
        <ele>46</ele>
        <time>2019-12-10T09:00:23Z</time>
      </trkpt>
      <trkpt lat="59.29053" lon="18.086686">
        <ele>48</ele>
        <time>2019-12-10T09:00:25Z</time>
      </trkpt>
      <trkpt lat="59.290455" lon="18.086657">
        <ele>49</ele>
        <time>2019-12-10T09:00:26Z</time>
      </trkpt>
      <trkpt lat="59.290386" lon="18.08664">
        <ele>49</ele>
        <time>2019-12-10T09:00:27Z</time>
      </trkpt>
      <trkpt lat="59.290321" lon="18.086639">
        <ele>49</ele>
        <time>2019-12-10T09:00:28Z</time>
      </trkpt>
      <trkpt lat="59.290261" lon="18.086641">
        <ele>0</ele>
        <time>2019-12-10T09:00:28Z</time>
      </trkpt>
      <trkpt lat="59.2902" lon="18.086643">
        <ele>49</ele>
        <time>2019-12-10T09:00:29Z</time>
      </trkpt>
      <trkpt lat="59.290137" lon="18.086656">
        <ele>49</ele>
        <time>2019-12-10T09:00:31Z</time>
      </trkpt>
      <trkpt lat="59.290069" lon="18.086666">
        <ele>47</ele>
        <time>2019-12-10T09:00:32Z</time>
      </trkpt>
      <trkpt lat="59.289988" lon="18.086666">
        <ele>0</ele>
        <time>2019-12-10T09:00:32Z</time>
      </trkpt>
      <trkpt lat="59.289913" lon="18.08669">
        <ele>46</ele>
        <time>2019-12-10T09:00:33Z</time>
      </trkpt>
      <trkpt lat="59.289825" lon="18.086737">
        <ele>43</ele>
        <time>2019-12-10T09:00:35Z</time>
      </trkpt>
      <trkpt lat="59.289743" lon="18.08676">
        <ele>0</ele>
        <time>2019-12-10T09:00:35Z</time>
      </trkpt>
      <trkpt lat="59.289665" lon="18.086771">
        <ele>42</ele>
        <time>2019-12-10T09:00:36Z</time>
      </trkpt>
      <trkpt lat="59.289588" lon="18.086789">
        <ele>40</ele>
        <time>2019-12-10T09:00:38Z</time>
      </trkpt>
      <trkpt lat="59.289508" lon="18.08681">
        <ele>39</ele>
        <time>2019-12-10T09:00:39Z</time>
      </trkpt>
      <trkpt lat="59.289428" lon="18.086837">
        <ele>38</ele>
        <time>2019-12-10T09:00:40Z</time>
      </trkpt>
      <trkpt lat="59.289349" lon="18.086867">
        <ele>37</ele>
        <time>2019-12-10T09:00:41Z</time>
      </trkpt>
      <trkpt lat="59.289269" lon="18.086905">
        <ele>0</ele>
        <time>2019-12-10T09:00:41Z</time>
      </trkpt>
      <trkpt lat="59.289189" lon="18.086947">
        <ele>36</ele>
        <time>2019-12-10T09:00:42Z</time>
      </trkpt>
      <trkpt lat="59.289109" lon="18.086992">
        <ele>35</ele>
        <time>2019-12-10T09:00:44Z</time>
      </trkpt>
      <trkpt lat="59.289028" lon="18.087039">
        <ele>34</ele>
        <time>2019-12-10T09:00:45Z</time>
      </trkpt>
      <trkpt lat="59.288946" lon="18.087085">
        <ele>34</ele>
        <time>2019-12-10T09:00:46Z</time>
      </trkpt>
      <trkpt lat="59.288864" lon="18.087126">
        <ele>33</ele>
        <time>2019-12-10T09:00:47Z</time>
      </trkpt>
      <trkpt lat="59.288783" lon="18.087163">
        <ele>0</ele>
        <time>2019-12-10T09:00:47Z</time>
      </trkpt>
      <trkpt lat="59.288701" lon="18.087194">
        <ele>33</ele>
        <time>2019-12-10T09:00:48Z</time>
      </trkpt>
      <trkpt lat="59.288619" lon="18.087217">
        <ele>32</ele>
        <time>2019-12-10T09:00:50Z</time>
      </trkpt>
      <trkpt lat="59.288538" lon="18.087228">
        <ele>32</ele>
        <time>2019-12-10T09:00:51Z</time>
      </trkpt>
      <trkpt lat="59.288458" lon="18.087236">
        <ele>0</ele>
        <time>2019-12-10T09:00:51Z</time>
      </trkpt>
      <trkpt lat="59.288381" lon="18.087282">
        <ele>32</ele>
        <time>2019-12-10T09:00:52Z</time>
      </trkpt>
      <trkpt lat="59.288216" lon="18.087375">
        <ele>32</ele>
        <time>2019-12-10T09:00:54Z</time>
      </trkpt>
      <trkpt lat="59.288141" lon="18.08741">
        <ele>32</ele>
        <time>2019-12-10T09:00:56Z</time>
      </trkpt>
      <trkpt lat="59.288065" lon="18.087449">
        <ele>32</ele>
        <time>2019-12-10T09:00:57Z</time>
      </trkpt>
      <trkpt lat="59.288" lon="18.087482">
        <ele>32</ele>
        <time>2019-12-10T09:00:58Z</time>
      </trkpt>
      <trkpt lat="59.287937" lon="18.087515">
        <ele>32</ele>
        <time>2019-12-10T09:00:59Z</time>
      </trkpt>
      <trkpt lat="59.287874" lon="18.087552">
        <ele>32</ele>
        <time>2019-12-10T09:01:00Z</time>
      </trkpt>
      <trkpt lat="59.287814" lon="18.087593">
        <ele>0</ele>
        <time>2019-12-10T09:01:00Z</time>
      </trkpt>
      <trkpt lat="59.287753" lon="18.087636">
        <ele>32</ele>
        <time>2019-12-10T09:01:01Z</time>
      </trkpt>
      <trkpt lat="59.287696" lon="18.087678">
        <ele>32</ele>
        <time>2019-12-10T09:01:03Z</time>
      </trkpt>
      <trkpt lat="59.287637" lon="18.08772">
        <ele>33</ele>
        <time>2019-12-10T09:01:04Z</time>
      </trkpt>
      <trkpt lat="59.287581" lon="18.08776">
        <ele>33</ele>
        <time>2019-12-10T09:01:05Z</time>
      </trkpt>
      <trkpt lat="59.287528" lon="18.0878">
        <ele>33</ele>
        <time>2019-12-10T09:01:06Z</time>
      </trkpt>
      <trkpt lat="59.287474" lon="18.087842">
        <ele>33</ele>
        <time>2019-12-10T09:01:07Z</time>
      </trkpt>
      <trkpt lat="59.287423" lon="18.087886">
        <ele>33</ele>
        <time>2019-12-10T09:01:08Z</time>
      </trkpt>
      <trkpt lat="59.287373" lon="18.087931">
        <ele>33</ele>
        <time>2019-12-10T09:01:09Z</time>
      </trkpt>
      <trkpt lat="59.287322" lon="18.087971">
        <ele>0</ele>
        <time>2019-12-10T09:01:09Z</time>
      </trkpt>
      <trkpt lat="59.28727" lon="18.08801">
        <ele>33</ele>
        <time>2019-12-10T09:01:10Z</time>
      </trkpt>
      <trkpt lat="59.287217" lon="18.088044">
        <ele>34</ele>
        <time>2019-12-10T09:01:11Z</time>
      </trkpt>
      <trkpt lat="59.287164" lon="18.088074">
        <ele>34</ele>
        <time>2019-12-10T09:01:13Z</time>
      </trkpt>
      <trkpt lat="59.28711" lon="18.0881">
        <ele>34</ele>
        <time>2019-12-10T09:01:14Z</time>
      </trkpt>
      <trkpt lat="59.287054" lon="18.088127">
        <ele>34</ele>
        <time>2019-12-10T09:01:15Z</time>
      </trkpt>
      <trkpt lat="59.286997" lon="18.088156">
        <ele>34</ele>
        <time>2019-12-10T09:01:16Z</time>
      </trkpt>
      <trkpt lat="59.28694" lon="18.088187">
        <ele>34</ele>
        <time>2019-12-10T09:01:17Z</time>
      </trkpt>
      <trkpt lat="59.286883" lon="18.088218">
        <ele>0</ele>
        <time>2019-12-10T09:01:17Z</time>
      </trkpt>
      <trkpt lat="59.286825" lon="18.088247">
        <ele>34</ele>
        <time>2019-12-10T09:01:18Z</time>
      </trkpt>
      <trkpt lat="59.286766" lon="18.088275">
        <ele>34</ele>
        <time>2019-12-10T09:01:20Z</time>
      </trkpt>
      <trkpt lat="59.286707" lon="18.088304">
        <ele>34</ele>
        <time>2019-12-10T09:01:21Z</time>
      </trkpt>
      <trkpt lat="59.286649" lon="18.088333">
        <ele>35</ele>
        <time>2019-12-10T09:01:22Z</time>
      </trkpt>
      <trkpt lat="59.286594" lon="18.088362">
        <ele>35</ele>
        <time>2019-12-10T09:01:23Z</time>
      </trkpt>
      <trkpt lat="59.286536" lon="18.088395">
        <ele>35</ele>
        <time>2019-12-10T09:01:24Z</time>
      </trkpt>
      <trkpt lat="59.286474" lon="18.088438">
        <ele>35</ele>
        <time>2019-12-10T09:01:25Z</time>
      </trkpt>
      <trkpt lat="59.286413" lon="18.088472">
        <ele>0</ele>
        <time>2019-12-10T09:01:25Z</time>
      </trkpt>
      <trkpt lat="59.286353" lon="18.088499">
        <ele>35</ele>
        <time>2019-12-10T09:01:26Z</time>
      </trkpt>
      <trkpt lat="59.286293" lon="18.088528">
        <ele>35</ele>
        <time>2019-12-10T09:01:28Z</time>
      </trkpt>
      <trkpt lat="59.286233" lon="18.08856">
        <ele>35</ele>
        <time>2019-12-10T09:01:29Z</time>
      </trkpt>
      <trkpt lat="59.286172" lon="18.08859">
        <ele>0</ele>
        <time>2019-12-10T09:01:29Z</time>
      </trkpt>
      <trkpt lat="59.28611" lon="18.088619">
        <ele>35</ele>
        <time>2019-12-10T09:01:30Z</time>
      </trkpt>
      <trkpt lat="59.286048" lon="18.088648">
        <ele>35</ele>
        <time>2019-12-10T09:01:32Z</time>
      </trkpt>
      <trkpt lat="59.285986" lon="18.088679">
        <ele>35</ele>
        <time>2019-12-10T09:01:33Z</time>
      </trkpt>
      <trkpt lat="59.285924" lon="18.088708">
        <ele>0</ele>
        <time>2019-12-10T09:01:33Z</time>
      </trkpt>
      <trkpt lat="59.285862" lon="18.088737">
        <ele>35</ele>
        <time>2019-12-10T09:01:34Z</time>
      </trkpt>
      <trkpt lat="59.2858" lon="18.088767">
        <ele>35</ele>
        <time>2019-12-10T09:01:36Z</time>
      </trkpt>
      <trkpt lat="59.285738" lon="18.088796">
        <ele>35</ele>
        <time>2019-12-10T09:01:37Z</time>
      </trkpt>
      <trkpt lat="59.285676" lon="18.088824">
        <ele>35</ele>
        <time>2019-12-10T09:01:38Z</time>
      </trkpt>
      <trkpt lat="59.285615" lon="18.088861">
        <ele>35</ele>
        <time>2019-12-10T09:01:39Z</time>
      </trkpt>
      <trkpt lat="59.285552" lon="18.088893">
        <ele>35</ele>
        <time>2019-12-10T09:01:40Z</time>
      </trkpt>
      <trkpt lat="59.285492" lon="18.088923">
        <ele>35</ele>
        <time>2019-12-10T09:01:41Z</time>
      </trkpt>
      <trkpt lat="59.285431" lon="18.088955">
        <ele>0</ele>
        <time>2019-12-10T09:01:41Z</time>
      </trkpt>
      <trkpt lat="59.285368" lon="18.088988">
        <ele>35</ele>
        <time>2019-12-10T09:01:42Z</time>
      </trkpt>
      <trkpt lat="59.285307" lon="18.08902">
        <ele>35</ele>
        <time>2019-12-10T09:01:44Z</time>
      </trkpt>
      <trkpt lat="59.285245" lon="18.089052">
        <ele>35</ele>
        <time>2019-12-10T09:01:45Z</time>
      </trkpt>
      <trkpt lat="59.285182" lon="18.089081">
        <ele>35</ele>
        <time>2019-12-10T09:01:46Z</time>
      </trkpt>
      <trkpt lat="59.285119" lon="18.089109">
        <ele>35</ele>
        <time>2019-12-10T09:01:47Z</time>
      </trkpt>
      <trkpt lat="59.285056" lon="18.089142">
        <ele>35</ele>
        <time>2019-12-10T09:01:48Z</time>
      </trkpt>
      <trkpt lat="59.284992" lon="18.089176">
        <ele>0</ele>
        <time>2019-12-10T09:01:48Z</time>
      </trkpt>
      <trkpt lat="59.284928" lon="18.089208">
        <ele>35</ele>
        <time>2019-12-10T09:01:49Z</time>
      </trkpt>
      <trkpt lat="59.284865" lon="18.089235">
        <ele>35</ele>
        <time>2019-12-10T09:01:50Z</time>
      </trkpt>
      <trkpt lat="59.284805" lon="18.089267">
        <ele>35</ele>
        <time>2019-12-10T09:01:52Z</time>
      </trkpt>
      <trkpt lat="59.284743" lon="18.089303">
        <ele>35</ele>
        <time>2019-12-10T09:01:53Z</time>
      </trkpt>
      <trkpt lat="59.284683" lon="18.089341">
        <ele>35</ele>
        <time>2019-12-10T09:01:54Z</time>
      </trkpt>
      <trkpt lat="59.284622" lon="18.089377">
        <ele>35</ele>
        <time>2019-12-10T09:01:55Z</time>
      </trkpt>
      <trkpt lat="59.28456" lon="18.089404">
        <ele>35</ele>
        <time>2019-12-10T09:01:56Z</time>
      </trkpt>
      <trkpt lat="59.284497" lon="18.089428">
        <ele>35</ele>
        <time>2019-12-10T09:01:57Z</time>
      </trkpt>
      <trkpt lat="59.284433" lon="18.089454">
        <ele>0</ele>
        <time>2019-12-10T09:01:57Z</time>
      </trkpt>
      <trkpt lat="59.28437" lon="18.089482">
        <ele>35</ele>
        <time>2019-12-10T09:01:58Z</time>
      </trkpt>
      <trkpt lat="59.284308" lon="18.089512">
        <ele>35</ele>
        <time>2019-12-10T09:02:00Z</time>
      </trkpt>
      <trkpt lat="59.284246" lon="18.089547">
        <ele>35</ele>
        <time>2019-12-10T09:02:01Z</time>
      </trkpt>
      <trkpt lat="59.284183" lon="18.089579">
        <ele>35</ele>
        <time>2019-12-10T09:02:02Z</time>
      </trkpt>
      <trkpt lat="59.284119" lon="18.089605">
        <ele>35</ele>
        <time>2019-12-10T09:02:03Z</time>
      </trkpt>
      <trkpt lat="59.284056" lon="18.089631">
        <ele>35</ele>
        <time>2019-12-10T09:02:04Z</time>
      </trkpt>
      <trkpt lat="59.283995" lon="18.089663">
        <ele>35</ele>
        <time>2019-12-10T09:02:05Z</time>
      </trkpt>
      <trkpt lat="59.283933" lon="18.089696">
        <ele>0</ele>
        <time>2019-12-10T09:02:05Z</time>
      </trkpt>
      <trkpt lat="59.283871" lon="18.089726">
        <ele>35</ele>
        <time>2019-12-10T09:02:06Z</time>
      </trkpt>
      <trkpt lat="59.283809" lon="18.089752">
        <ele>0</ele>
        <time>2019-12-10T09:02:07Z</time>
      </trkpt>
      <trkpt lat="59.283747" lon="18.089777">
        <ele>35</ele>
        <time>2019-12-10T09:02:08Z</time>
      </trkpt>
      <trkpt lat="59.283686" lon="18.089804">
        <ele>35</ele>
        <time>2019-12-10T09:02:10Z</time>
      </trkpt>
      <trkpt lat="59.283623" lon="18.089834">
        <ele>35</ele>
        <time>2019-12-10T09:02:11Z</time>
      </trkpt>
      <trkpt lat="59.28356" lon="18.089864">
        <ele>35</ele>
        <time>2019-12-10T09:02:12Z</time>
      </trkpt>
      <trkpt lat="59.283499" lon="18.089892">
        <ele>0</ele>
        <time>2019-12-10T09:02:12Z</time>
      </trkpt>
      <trkpt lat="59.283435" lon="18.089919">
        <ele>35</ele>
        <time>2019-12-10T09:02:13Z</time>
      </trkpt>
      <trkpt lat="59.283372" lon="18.089944">
        <ele>35</ele>
        <time>2019-12-10T09:02:15Z</time>
      </trkpt>
      <trkpt lat="59.283308" lon="18.089968">
        <ele>35</ele>
        <time>2019-12-10T09:02:16Z</time>
      </trkpt>
      <trkpt lat="59.283244" lon="18.089994">
        <ele>35</ele>
        <time>2019-12-10T09:02:17Z</time>
      </trkpt>
      <trkpt lat="59.283182" lon="18.090012">
        <ele>35</ele>
        <time>2019-12-10T09:02:18Z</time>
      </trkpt>
      <trkpt lat="59.283118" lon="18.090033">
        <ele>35</ele>
        <time>2019-12-10T09:02:19Z</time>
      </trkpt>
      <trkpt lat="59.283054" lon="18.090055">
        <ele>35</ele>
        <time>2019-12-10T09:02:20Z</time>
      </trkpt>
      <trkpt lat="59.28299" lon="18.090079">
        <ele>0</ele>
        <time>2019-12-10T09:02:20Z</time>
      </trkpt>
      <trkpt lat="59.282925" lon="18.090103">
        <ele>35</ele>
        <time>2019-12-10T09:02:21Z</time>
      </trkpt>
      <trkpt lat="59.282861" lon="18.090127">
        <ele>35</ele>
        <time>2019-12-10T09:02:23Z</time>
      </trkpt>
      <trkpt lat="59.282797" lon="18.090148">
        <ele>35</ele>
        <time>2019-12-10T09:02:24Z</time>
      </trkpt>
      <trkpt lat="59.282732" lon="18.090174">
        <ele>35</ele>
        <time>2019-12-10T09:02:25Z</time>
      </trkpt>
      <trkpt lat="59.282667" lon="18.090203">
        <ele>35</ele>
        <time>2019-12-10T09:02:26Z</time>
      </trkpt>
      <trkpt lat="59.282605" lon="18.090231">
        <ele>0</ele>
        <time>2019-12-10T09:02:26Z</time>
      </trkpt>
      <trkpt lat="59.282542" lon="18.09026">
        <ele>35</ele>
        <time>2019-12-10T09:02:27Z</time>
      </trkpt>
      <trkpt lat="59.282478" lon="18.090286">
        <ele>0</ele>
        <time>2019-12-10T09:02:28Z</time>
      </trkpt>
      <trkpt lat="59.282414" lon="18.090311">
        <ele>34</ele>
        <time>2019-12-10T09:02:29Z</time>
      </trkpt>
      <trkpt lat="59.282352" lon="18.090334">
        <ele>34</ele>
        <time>2019-12-10T09:02:31Z</time>
      </trkpt>
      <trkpt lat="59.28229" lon="18.090357">
        <ele>34</ele>
        <time>2019-12-10T09:02:32Z</time>
      </trkpt>
      <trkpt lat="59.282227" lon="18.09038">
        <ele>34</ele>
        <time>2019-12-10T09:02:33Z</time>
      </trkpt>
      <trkpt lat="59.282165" lon="18.090403">
        <ele>35</ele>
        <time>2019-12-10T09:02:34Z</time>
      </trkpt>
      <trkpt lat="59.282105" lon="18.090419">
        <ele>35</ele>
        <time>2019-12-10T09:02:35Z</time>
      </trkpt>
      <trkpt lat="59.282044" lon="18.090436">
        <ele>35</ele>
        <time>2019-12-10T09:02:36Z</time>
      </trkpt>
      <trkpt lat="59.281985" lon="18.090457">
        <ele>0</ele>
        <time>2019-12-10T09:02:36Z</time>
      </trkpt>
      <trkpt lat="59.281926" lon="18.090482">
        <ele>35</ele>
        <time>2019-12-10T09:02:37Z</time>
      </trkpt>
      <trkpt lat="59.281868" lon="18.090502">
        <ele>35</ele>
        <time>2019-12-10T09:02:39Z</time>
      </trkpt>
      <trkpt lat="59.28181" lon="18.090524">
        <ele>35</ele>
        <time>2019-12-10T09:02:40Z</time>
      </trkpt>
      <trkpt lat="59.281752" lon="18.090545">
        <ele>35</ele>
        <time>2019-12-10T09:02:41Z</time>
      </trkpt>
      <trkpt lat="59.281693" lon="18.090571">
        <ele>35</ele>
        <time>2019-12-10T09:02:42Z</time>
      </trkpt>
      <trkpt lat="59.281633" lon="18.090591">
        <ele>35</ele>
        <time>2019-12-10T09:02:43Z</time>
      </trkpt>
      <trkpt lat="59.281573" lon="18.090613">
        <ele>35</ele>
        <time>2019-12-10T09:02:44Z</time>
      </trkpt>
      <trkpt lat="59.28151" lon="18.090635">
        <ele>0</ele>
        <time>2019-12-10T09:02:44Z</time>
      </trkpt>
      <trkpt lat="59.281448" lon="18.090661">
        <ele>35</ele>
        <time>2019-12-10T09:02:45Z</time>
      </trkpt>
      <trkpt lat="59.281388" lon="18.090683">
        <ele>35</ele>
        <time>2019-12-10T09:02:46Z</time>
      </trkpt>
      <trkpt lat="59.281328" lon="18.090705">
        <ele>35</ele>
        <time>2019-12-10T09:02:48Z</time>
      </trkpt>
      <trkpt lat="59.281269" lon="18.090726">
        <ele>35</ele>
        <time>2019-12-10T09:02:49Z</time>
      </trkpt>
      <trkpt lat="59.28121" lon="18.090746">
        <ele>35</ele>
        <time>2019-12-10T09:02:50Z</time>
      </trkpt>
      <trkpt lat="59.28115" lon="18.090767">
        <ele>35</ele>
        <time>2019-12-10T09:02:51Z</time>
      </trkpt>
      <trkpt lat="59.281092" lon="18.090788">
        <ele>35</ele>
        <time>2019-12-10T09:02:52Z</time>
      </trkpt>
      <trkpt lat="59.281033" lon="18.090809">
        <ele>0</ele>
        <time>2019-12-10T09:02:52Z</time>
      </trkpt>
      <trkpt lat="59.280977" lon="18.090829">
        <ele>35</ele>
        <time>2019-12-10T09:02:53Z</time>
      </trkpt>
      <trkpt lat="59.280919" lon="18.090846">
        <ele>35</ele>
        <time>2019-12-10T09:02:55Z</time>
      </trkpt>
      <trkpt lat="59.28086" lon="18.090867">
        <ele>35</ele>
        <time>2019-12-10T09:02:56Z</time>
      </trkpt>
      <trkpt lat="59.280805" lon="18.09089">
        <ele>35</ele>
        <time>2019-12-10T09:02:57Z</time>
      </trkpt>
      <trkpt lat="59.280749" lon="18.090909">
        <ele>35</ele>
        <time>2019-12-10T09:02:58Z</time>
      </trkpt>
      <trkpt lat="59.280692" lon="18.090926">
        <ele>35</ele>
        <time>2019-12-10T09:02:59Z</time>
      </trkpt>
      <trkpt lat="59.280637" lon="18.090949">
        <ele>35</ele>
        <time>2019-12-10T09:03:00Z</time>
      </trkpt>
      <trkpt lat="59.280583" lon="18.090972">
        <ele>35</ele>
        <time>2019-12-10T09:03:01Z</time>
      </trkpt>
      <trkpt lat="59.280529" lon="18.090991">
        <ele>35</ele>
        <time>2019-12-10T09:03:01Z</time>
      </trkpt>
      <trkpt lat="59.280474" lon="18.091007">
        <ele>35</ele>
        <time>2019-12-10T09:03:02Z</time>
      </trkpt>
      <trkpt lat="59.28042" lon="18.091025">
        <ele>35</ele>
        <time>2019-12-10T09:03:04Z</time>
      </trkpt>
      <trkpt lat="59.280366" lon="18.091046">
        <ele>0</ele>
        <time>2019-12-10T09:03:04Z</time>
      </trkpt>
      <trkpt lat="59.280313" lon="18.091067">
        <ele>35</ele>
        <time>2019-12-10T09:03:05Z</time>
      </trkpt>
      <trkpt lat="59.280259" lon="18.091088">
        <ele>36</ele>
        <time>2019-12-10T09:03:07Z</time>
      </trkpt>
      <trkpt lat="59.280204" lon="18.091107">
        <ele>36</ele>
        <time>2019-12-10T09:03:08Z</time>
      </trkpt>
      <trkpt lat="59.280151" lon="18.091126">
        <ele>36</ele>
        <time>2019-12-10T09:03:09Z</time>
      </trkpt>
      <trkpt lat="59.280095" lon="18.091145">
        <ele>36</ele>
        <time>2019-12-10T09:03:10Z</time>
      </trkpt>
      <trkpt lat="59.28004" lon="18.091166">
        <ele>0</ele>
        <time>2019-12-10T09:03:10Z</time>
      </trkpt>
      <trkpt lat="59.279984" lon="18.091187">
        <ele>36</ele>
        <time>2019-12-10T09:03:11Z</time>
      </trkpt>
      <trkpt lat="59.279928" lon="18.091206">
        <ele>36</ele>
        <time>2019-12-10T09:03:13Z</time>
      </trkpt>
      <trkpt lat="59.279873" lon="18.091227">
        <ele>36</ele>
        <time>2019-12-10T09:03:14Z</time>
      </trkpt>
      <trkpt lat="59.279818" lon="18.09125">
        <ele>36</ele>
        <time>2019-12-10T09:03:15Z</time>
      </trkpt>
      <trkpt lat="59.279762" lon="18.091269">
        <ele>36</ele>
        <time>2019-12-10T09:03:16Z</time>
      </trkpt>
      <trkpt lat="59.279704" lon="18.091284">
        <ele>36</ele>
        <time>2019-12-10T09:03:17Z</time>
      </trkpt>
      <trkpt lat="59.279648" lon="18.091299">
        <ele>36</ele>
        <time>2019-12-10T09:03:18Z</time>
      </trkpt>
      <trkpt lat="59.279592" lon="18.091313">
        <ele>36</ele>
        <time>2019-12-10T09:03:19Z</time>
      </trkpt>
      <trkpt lat="59.279537" lon="18.091325">
        <ele>0</ele>
        <time>2019-12-10T09:03:19Z</time>
      </trkpt>
      <trkpt lat="59.279482" lon="18.091336">
        <ele>35</ele>
        <time>2019-12-10T09:03:20Z</time>
      </trkpt>
      <trkpt lat="59.27943" lon="18.091348">
        <ele>36</ele>
        <time>2019-12-10T09:03:22Z</time>
      </trkpt>
      <trkpt lat="59.279379" lon="18.09136">
        <ele>35</ele>
        <time>2019-12-10T09:03:23Z</time>
      </trkpt>
      <trkpt lat="59.279326" lon="18.091372">
        <ele>0</ele>
        <time>2019-12-10T09:03:23Z</time>
      </trkpt>
      <trkpt lat="59.279277" lon="18.091385">
        <ele>36</ele>
        <time>2019-12-10T09:03:24Z</time>
      </trkpt>
      <trkpt lat="59.279225" lon="18.091403">
        <ele>0</ele>
        <time>2019-12-10T09:03:25Z</time>
      </trkpt>
      <trkpt lat="59.279173" lon="18.091436">
        <ele>36</ele>
        <time>2019-12-10T09:03:26Z</time>
      </trkpt>
      <trkpt lat="59.279127" lon="18.09148">
        <ele>35</ele>
        <time>2019-12-10T09:03:28Z</time>
      </trkpt>
      <trkpt lat="59.279078" lon="18.091522">
        <ele>0</ele>
        <time>2019-12-10T09:03:28Z</time>
      </trkpt>
      <trkpt lat="59.279025" lon="18.091555">
        <ele>35</ele>
        <time>2019-12-10T09:03:29Z</time>
      </trkpt>
      <trkpt lat="59.278971" lon="18.091582">
        <ele>35</ele>
        <time>2019-12-10T09:03:31Z</time>
      </trkpt>
      <trkpt lat="59.278912" lon="18.091608">
        <ele>35</ele>
        <time>2019-12-10T09:03:32Z</time>
      </trkpt>
      <trkpt lat="59.278853" lon="18.091631">
        <ele>35</ele>
        <time>2019-12-10T09:03:33Z</time>
      </trkpt>
      <trkpt lat="59.278796" lon="18.091653">
        <ele>35</ele>
        <time>2019-12-10T09:03:34Z</time>
      </trkpt>
      <trkpt lat="59.278739" lon="18.091675">
        <ele>35</ele>
        <time>2019-12-10T09:03:35Z</time>
      </trkpt>
      <trkpt lat="59.278683" lon="18.091693">
        <ele>35</ele>
        <time>2019-12-10T09:03:36Z</time>
      </trkpt>
      <trkpt lat="59.278626" lon="18.091709">
        <ele>35</ele>
        <time>2019-12-10T09:03:37Z</time>
      </trkpt>
      <trkpt lat="59.278569" lon="18.091717">
        <ele>0</ele>
        <time>2019-12-10T09:03:37Z</time>
      </trkpt>
      <trkpt lat="59.278511" lon="18.091719">
        <ele>35</ele>
        <time>2019-12-10T09:03:38Z</time>
      </trkpt>
      <trkpt lat="59.278454" lon="18.091713">
        <ele>35</ele>
        <time>2019-12-10T09:03:40Z</time>
      </trkpt>
      <trkpt lat="59.278398" lon="18.091705">
        <ele>35</ele>
        <time>2019-12-10T09:03:41Z</time>
      </trkpt>
      <trkpt lat="59.278345" lon="18.091706">
        <ele>35</ele>
        <time>2019-12-10T09:03:42Z</time>
      </trkpt>
      <trkpt lat="59.278296" lon="18.091724">
        <ele>0</ele>
        <time>2019-12-10T09:03:42Z</time>
      </trkpt>
      <trkpt lat="59.278249" lon="18.09176">
        <ele>35</ele>
        <time>2019-12-10T09:03:43Z</time>
      </trkpt>
      <trkpt lat="59.278201" lon="18.091798">
        <ele>35</ele>
        <time>2019-12-10T09:03:45Z</time>
      </trkpt>
      <trkpt lat="59.278154" lon="18.09182">
        <ele>35</ele>
        <time>2019-12-10T09:03:46Z</time>
      </trkpt>
      <trkpt lat="59.278107" lon="18.091828">
        <ele>35</ele>
        <time>2019-12-10T09:03:47Z</time>
      </trkpt>
      <trkpt lat="59.278058" lon="18.091831">
        <ele>0</ele>
        <time>2019-12-10T09:03:47Z</time>
      </trkpt>
      <trkpt lat="59.278009" lon="18.091832">
        <ele>35</ele>
        <time>2019-12-10T09:03:48Z</time>
      </trkpt>
      <trkpt lat="59.27796" lon="18.091833">
        <ele>35</ele>
        <time>2019-12-10T09:03:50Z</time>
      </trkpt>
      <trkpt lat="59.277909" lon="18.091834">
        <ele>35</ele>
        <time>2019-12-10T09:03:51Z</time>
      </trkpt>
      <trkpt lat="59.27786" lon="18.091834">
        <ele>35</ele>
        <time>2019-12-10T09:03:52Z</time>
      </trkpt>
      <trkpt lat="59.277812" lon="18.091838">
        <ele>35</ele>
        <time>2019-12-10T09:03:53Z</time>
      </trkpt>
      <trkpt lat="59.277763" lon="18.091847">
        <ele>35</ele>
        <time>2019-12-10T09:03:54Z</time>
      </trkpt>
      <trkpt lat="59.277715" lon="18.091856">
        <ele>35</ele>
        <time>2019-12-10T09:03:55Z</time>
      </trkpt>
      <trkpt lat="59.277667" lon="18.091864">
        <ele>35</ele>
        <time>2019-12-10T09:03:56Z</time>
      </trkpt>
      <trkpt lat="59.277619" lon="18.091875">
        <ele>36</ele>
        <time>2019-12-10T09:03:57Z</time>
      </trkpt>
      <trkpt lat="59.277573" lon="18.091887">
        <ele>0</ele>
        <time>2019-12-10T09:03:57Z</time>
      </trkpt>
      <trkpt lat="59.277524" lon="18.091898">
        <ele>36</ele>
        <time>2019-12-10T09:03:58Z</time>
      </trkpt>
      <trkpt lat="59.277474" lon="18.09191">
        <ele>36</ele>
        <time>2019-12-10T09:04:00Z</time>
      </trkpt>
      <trkpt lat="59.277425" lon="18.091921">
        <ele>36</ele>
        <time>2019-12-10T09:04:01Z</time>
      </trkpt>
      <trkpt lat="59.277376" lon="18.091931">
        <ele>35</ele>
        <time>2019-12-10T09:04:01Z</time>
      </trkpt>
      <trkpt lat="59.277326" lon="18.091941">
        <ele>35</ele>
        <time>2019-12-10T09:04:02Z</time>
      </trkpt>
      <trkpt lat="59.277276" lon="18.091953">
        <ele>36</ele>
        <time>2019-12-10T09:04:04Z</time>
      </trkpt>
      <trkpt lat="59.277227" lon="18.091965">
        <ele>36</ele>
        <time>2019-12-10T09:04:05Z</time>
      </trkpt>
      <trkpt lat="59.277177" lon="18.091978">
        <ele>36</ele>
        <time>2019-12-10T09:04:06Z</time>
      </trkpt>
      <trkpt lat="59.277126" lon="18.091992">
        <ele>36</ele>
        <time>2019-12-10T09:04:07Z</time>
      </trkpt>
      <trkpt lat="59.277078" lon="18.092006">
        <ele>0</ele>
        <time>2019-12-10T09:04:07Z</time>
      </trkpt>
      <trkpt lat="59.277028" lon="18.092021">
        <ele>36</ele>
        <time>2019-12-10T09:04:08Z</time>
      </trkpt>
      <trkpt lat="59.27698" lon="18.092036">
        <ele>36</ele>
        <time>2019-12-10T09:04:10Z</time>
      </trkpt>
      <trkpt lat="59.276932" lon="18.092051">
        <ele>36</ele>
        <time>2019-12-10T09:04:11Z</time>
      </trkpt>
      <trkpt lat="59.276883" lon="18.092066">
        <ele>36</ele>
        <time>2019-12-10T09:04:12Z</time>
      </trkpt>
      <trkpt lat="59.276834" lon="18.092081">
        <ele>36</ele>
        <time>2019-12-10T09:04:13Z</time>
      </trkpt>
      <trkpt lat="59.276784" lon="18.092097">
        <ele>36</ele>
        <time>2019-12-10T09:04:14Z</time>
      </trkpt>
      <trkpt lat="59.276736" lon="18.092116">
        <ele>36</ele>
        <time>2019-12-10T09:04:15Z</time>
      </trkpt>
      <trkpt lat="59.276688" lon="18.092135">
        <ele>36</ele>
        <time>2019-12-10T09:04:16Z</time>
      </trkpt>
      <trkpt lat="59.276641" lon="18.092153">
        <ele>36</ele>
        <time>2019-12-10T09:04:17Z</time>
      </trkpt>
      <trkpt lat="59.276592" lon="18.092171">
        <ele>0</ele>
        <time>2019-12-10T09:04:17Z</time>
      </trkpt>
      <trkpt lat="59.276543" lon="18.092189">
        <ele>37</ele>
        <time>2019-12-10T09:04:18Z</time>
      </trkpt>
      <trkpt lat="59.276496" lon="18.092209">
        <ele>37</ele>
        <time>2019-12-10T09:04:20Z</time>
      </trkpt>
      <trkpt lat="59.276446" lon="18.092229">
        <ele>0</ele>
        <time>2019-12-10T09:04:20Z</time>
      </trkpt>
      <trkpt lat="59.276398" lon="18.092248">
        <ele>37</ele>
        <time>2019-12-10T09:04:21Z</time>
      </trkpt>
      <trkpt lat="59.276349" lon="18.092267">
        <ele>37</ele>
        <time>2019-12-10T09:04:23Z</time>
      </trkpt>
      <trkpt lat="59.2763" lon="18.092284">
        <ele>37</ele>
        <time>2019-12-10T09:04:24Z</time>
      </trkpt>
      <trkpt lat="59.276252" lon="18.092297">
        <ele>37</ele>
        <time>2019-12-10T09:04:25Z</time>
      </trkpt>
      <trkpt lat="59.276202" lon="18.092312">
        <ele>37</ele>
        <time>2019-12-10T09:04:26Z</time>
      </trkpt>
      <trkpt lat="59.276153" lon="18.092327">
        <ele>37</ele>
        <time>2019-12-10T09:04:27Z</time>
      </trkpt>
      <trkpt lat="59.276101" lon="18.092342">
        <ele>0</ele>
        <time>2019-12-10T09:04:27Z</time>
      </trkpt>
      <trkpt lat="59.276047" lon="18.092356">
        <ele>37</ele>
        <time>2019-12-10T09:04:28Z</time>
      </trkpt>
      <trkpt lat="59.275993" lon="18.092372">
        <ele>37</ele>
        <time>2019-12-10T09:04:30Z</time>
      </trkpt>
      <trkpt lat="59.275938" lon="18.092389">
        <ele>37</ele>
        <time>2019-12-10T09:04:31Z</time>
      </trkpt>
      <trkpt lat="59.275883" lon="18.092408">
        <ele>37</ele>
        <time>2019-12-10T09:04:32Z</time>
      </trkpt>
      <trkpt lat="59.275829" lon="18.092424">
        <ele>37</ele>
        <time>2019-12-10T09:04:33Z</time>
      </trkpt>
      <trkpt lat="59.275774" lon="18.092439">
        <ele>37</ele>
        <time>2019-12-10T09:04:34Z</time>
      </trkpt>
      <trkpt lat="59.275721" lon="18.092455">
        <ele>37</ele>
        <time>2019-12-10T09:04:35Z</time>
      </trkpt>
      <trkpt lat="59.275668" lon="18.092469">
        <ele>38</ele>
        <time>2019-12-10T09:04:36Z</time>
      </trkpt>
      <trkpt lat="59.275615" lon="18.092484">
        <ele>0</ele>
        <time>2019-12-10T09:04:36Z</time>
      </trkpt>
      <trkpt lat="59.275561" lon="18.092499">
        <ele>38</ele>
        <time>2019-12-10T09:04:37Z</time>
      </trkpt>
      <trkpt lat="59.275508" lon="18.092508">
        <ele>38</ele>
        <time>2019-12-10T09:04:39Z</time>
      </trkpt>
      <trkpt lat="59.275453" lon="18.092515">
        <ele>0</ele>
        <time>2019-12-10T09:04:39Z</time>
      </trkpt>
      <trkpt lat="59.275399" lon="18.092524">
        <ele>38</ele>
        <time>2019-12-10T09:04:40Z</time>
      </trkpt>
      <trkpt lat="59.275345" lon="18.092533">
        <ele>38</ele>
        <time>2019-12-10T09:04:42Z</time>
      </trkpt>
      <trkpt lat="59.275289" lon="18.092542">
        <ele>38</ele>
        <time>2019-12-10T09:04:43Z</time>
      </trkpt>
      <trkpt lat="59.275235" lon="18.09255">
        <ele>38</ele>
        <time>2019-12-10T09:04:44Z</time>
      </trkpt>
      <trkpt lat="59.27518" lon="18.092556">
        <ele>38</ele>
        <time>2019-12-10T09:04:45Z</time>
      </trkpt>
      <trkpt lat="59.275125" lon="18.09256">
        <ele>0</ele>
        <time>2019-12-10T09:04:45Z</time>
      </trkpt>
      <trkpt lat="59.275071" lon="18.092561">
        <ele>38</ele>
        <time>2019-12-10T09:04:46Z</time>
      </trkpt>
      <trkpt lat="59.275014" lon="18.092562">
        <ele>38</ele>
        <time>2019-12-10T09:04:48Z</time>
      </trkpt>
      <trkpt lat="59.274959" lon="18.092556">
        <ele>38</ele>
        <time>2019-12-10T09:04:49Z</time>
      </trkpt>
      <trkpt lat="59.274905" lon="18.092538">
        <ele>37</ele>
        <time>2019-12-10T09:04:50Z</time>
      </trkpt>
      <trkpt lat="59.274854" lon="18.092504">
        <ele>37</ele>
        <time>2019-12-10T09:04:51Z</time>
      </trkpt>
      <trkpt lat="59.274805" lon="18.092457">
        <ele>37</ele>
        <time>2019-12-10T09:04:52Z</time>
      </trkpt>
      <trkpt lat="59.274761" lon="18.092399">
        <ele>37</ele>
        <time>2019-12-10T09:04:53Z</time>
      </trkpt>
      <trkpt lat="59.274719" lon="18.092337">
        <ele>37</ele>
        <time>2019-12-10T09:04:54Z</time>
      </trkpt>
      <trkpt lat="59.274678" lon="18.092273">
        <ele>37</ele>
        <time>2019-12-10T09:04:55Z</time>
      </trkpt>
      <trkpt lat="59.274636" lon="18.09221">
        <ele>0</ele>
        <time>2019-12-10T09:04:55Z</time>
      </trkpt>
      <trkpt lat="59.274595" lon="18.09215">
        <ele>37</ele>
        <time>2019-12-10T09:04:56Z</time>
      </trkpt>
      <trkpt lat="59.274552" lon="18.092097">
        <ele>37</ele>
        <time>2019-12-10T09:04:58Z</time>
      </trkpt>
      <trkpt lat="59.274507" lon="18.092053">
        <ele>0</ele>
        <time>2019-12-10T09:04:58Z</time>
      </trkpt>
      <trkpt lat="59.274459" lon="18.092017">
        <ele>37</ele>
        <time>2019-12-10T09:04:59Z</time>
      </trkpt>
      <trkpt lat="59.274412" lon="18.091988">
        <ele>37</ele>
        <time>2019-12-10T09:05:01Z</time>
      </trkpt>
      <trkpt lat="59.274362" lon="18.091967">
        <ele>37</ele>
        <time>2019-12-10T09:05:02Z</time>
      </trkpt>
      <trkpt lat="59.274312" lon="18.091944">
        <ele>37</ele>
        <time>2019-12-10T09:05:03Z</time>
      </trkpt>
      <trkpt lat="59.274263" lon="18.091914">
        <ele>37</ele>
        <time>2019-12-10T09:05:04Z</time>
      </trkpt>
      <trkpt lat="59.274214" lon="18.091873">
        <ele>0</ele>
        <time>2019-12-10T09:05:04Z</time>
      </trkpt>
      <trkpt lat="59.274168" lon="18.091819">
        <ele>37</ele>
        <time>2019-12-10T09:05:05Z</time>
      </trkpt>
      <trkpt lat="59.274128" lon="18.091758">
        <ele>37</ele>
        <time>2019-12-10T09:05:07Z</time>
      </trkpt>
      <trkpt lat="59.274093" lon="18.091688">
        <ele>37</ele>
        <time>2019-12-10T09:05:08Z</time>
      </trkpt>
      <trkpt lat="59.274061" lon="18.091614">
        <ele>37</ele>
        <time>2019-12-10T09:05:09Z</time>
      </trkpt>
      <trkpt lat="59.274031" lon="18.091537">
        <ele>37</ele>
        <time>2019-12-10T09:05:10Z</time>
      </trkpt>
      <trkpt lat="59.274002" lon="18.091462">
        <ele>37</ele>
        <time>2019-12-10T09:05:11Z</time>
      </trkpt>
      <trkpt lat="59.273973" lon="18.091388">
        <ele>37</ele>
        <time>2019-12-10T09:05:12Z</time>
      </trkpt>
      <trkpt lat="59.273946" lon="18.091314">
        <ele>37</ele>
        <time>2019-12-10T09:05:13Z</time>
      </trkpt>
      <trkpt lat="59.273917" lon="18.091241">
        <ele>37</ele>
        <time>2019-12-10T09:05:14Z</time>
      </trkpt>
      <trkpt lat="59.273888" lon="18.091169">
        <ele>37</ele>
        <time>2019-12-10T09:05:15Z</time>
      </trkpt>
      <trkpt lat="59.273859" lon="18.091098">
        <ele>0</ele>
        <time>2019-12-10T09:05:15Z</time>
      </trkpt>
      <trkpt lat="59.27383" lon="18.09103">
        <ele>37</ele>
        <time>2019-12-10T09:05:16Z</time>
      </trkpt>
      <trkpt lat="59.273805" lon="18.090964">
        <ele>0</ele>
        <time>2019-12-10T09:05:17Z</time>
      </trkpt>
      <trkpt lat="59.273777" lon="18.090911">
        <ele>37</ele>
        <time>2019-12-10T09:05:18Z</time>
      </trkpt>
      <trkpt lat="59.273742" lon="18.090879">
        <ele>37</ele>
        <time>2019-12-10T09:05:20Z</time>
      </trkpt>
      <trkpt lat="59.273702" lon="18.090869">
        <ele>37</ele>
        <time>2019-12-10T09:05:21Z</time>
      </trkpt>
      <trkpt lat="59.273662" lon="18.090879">
        <ele>38</ele>
        <time>2019-12-10T09:05:22Z</time>
      </trkpt>
      <trkpt lat="59.273622" lon="18.090897">
        <ele>38</ele>
        <time>2019-12-10T09:05:23Z</time>
      </trkpt>
      <trkpt lat="59.273582" lon="18.090918">
        <ele>38</ele>
        <time>2019-12-10T09:05:24Z</time>
      </trkpt>
      <trkpt lat="59.273538" lon="18.090942">
        <ele>38</ele>
        <time>2019-12-10T09:05:25Z</time>
      </trkpt>
      <trkpt lat="59.273496" lon="18.090969">
        <ele>38</ele>
        <time>2019-12-10T09:05:26Z</time>
      </trkpt>
      <trkpt lat="59.273454" lon="18.090993">
        <ele>0</ele>
        <time>2019-12-10T09:05:26Z</time>
      </trkpt>
      <trkpt lat="59.273412" lon="18.091016">
        <ele>38</ele>
        <time>2019-12-10T09:05:27Z</time>
      </trkpt>
      <trkpt lat="59.273368" lon="18.091038">
        <ele>38</ele>
        <time>2019-12-10T09:05:29Z</time>
      </trkpt>
      <trkpt lat="59.273322" lon="18.091065">
        <ele>38</ele>
        <time>2019-12-10T09:05:30Z</time>
      </trkpt>
      <trkpt lat="59.273278" lon="18.091092">
        <ele>38</ele>
        <time>2019-12-10T09:05:31Z</time>
      </trkpt>
      <trkpt lat="59.273236" lon="18.091114">
        <ele>39</ele>
        <time>2019-12-10T09:05:32Z</time>
      </trkpt>
      <trkpt lat="59.273193" lon="18.091138">
        <ele>39</ele>
        <time>2019-12-10T09:05:33Z</time>
      </trkpt>
      <trkpt lat="59.273152" lon="18.091166">
        <ele>39</ele>
        <time>2019-12-10T09:05:34Z</time>
      </trkpt>
      <trkpt lat="59.273108" lon="18.091198">
        <ele>39</ele>
        <time>2019-12-10T09:05:35Z</time>
      </trkpt>
      <trkpt lat="59.273064" lon="18.091226">
        <ele>39</ele>
        <time>2019-12-10T09:05:36Z</time>
      </trkpt>
      <trkpt lat="59.273014" lon="18.091243">
        <ele>0</ele>
        <time>2019-12-10T09:05:36Z</time>
      </trkpt>
      <trkpt lat="59.272964" lon="18.09127">
        <ele>39</ele>
        <time>2019-12-10T09:05:37Z</time>
      </trkpt>
      <trkpt lat="59.272914" lon="18.091304">
        <ele>39</ele>
        <time>2019-12-10T09:05:38Z</time>
      </trkpt>
      <trkpt lat="59.272867" lon="18.091341">
        <ele>40</ele>
        <time>2019-12-10T09:05:40Z</time>
      </trkpt>
      <trkpt lat="59.272818" lon="18.091395">
        <ele>40</ele>
        <time>2019-12-10T09:05:41Z</time>
      </trkpt>
      <trkpt lat="59.272777" lon="18.091466">
        <ele>40</ele>
        <time>2019-12-10T09:05:42Z</time>
      </trkpt>
      <trkpt lat="59.27275" lon="18.091556">
        <ele>40</ele>
        <time>2019-12-10T09:05:43Z</time>
      </trkpt>
      <trkpt lat="59.272732" lon="18.091655">
        <ele>40</ele>
        <time>2019-12-10T09:05:44Z</time>
      </trkpt>
      <trkpt lat="59.272719" lon="18.091752">
        <ele>40</ele>
        <time>2019-12-10T09:05:45Z</time>
      </trkpt>
      <trkpt lat="59.272708" lon="18.091855">
        <ele>40</ele>
        <time>2019-12-10T09:05:46Z</time>
      </trkpt>
      <trkpt lat="59.2727" lon="18.091955">
        <ele>0</ele>
        <time>2019-12-10T09:05:46Z</time>
      </trkpt>
      <trkpt lat="59.272694" lon="18.092057">
        <ele>40</ele>
        <time>2019-12-10T09:05:47Z</time>
      </trkpt>
      <trkpt lat="59.272682" lon="18.092162">
        <ele>39</ele>
        <time>2019-12-10T09:05:49Z</time>
      </trkpt>
      <trkpt lat="59.27267" lon="18.092267">
        <ele>39</ele>
        <time>2019-12-10T09:05:50Z</time>
      </trkpt>
      <trkpt lat="59.272658" lon="18.092374">
        <ele>39</ele>
        <time>2019-12-10T09:05:51Z</time>
      </trkpt>
      <trkpt lat="59.272646" lon="18.092487">
        <ele>39</ele>
        <time>2019-12-10T09:05:52Z</time>
      </trkpt>
      <trkpt lat="59.272632" lon="18.0926">
        <ele>39</ele>
        <time>2019-12-10T09:05:53Z</time>
      </trkpt>
      <trkpt lat="59.272614" lon="18.09271">
        <ele>39</ele>
        <time>2019-12-10T09:05:54Z</time>
      </trkpt>
      <trkpt lat="59.272595" lon="18.09282">
        <ele>39</ele>
        <time>2019-12-10T09:05:55Z</time>
      </trkpt>
      <trkpt lat="59.272578" lon="18.09293">
        <ele>0</ele>
        <time>2019-12-10T09:05:55Z</time>
      </trkpt>
      <trkpt lat="59.272558" lon="18.093036">
        <ele>39</ele>
        <time>2019-12-10T09:05:56Z</time>
      </trkpt>
      <trkpt lat="59.272544" lon="18.093139">
        <ele>39</ele>
        <time>2019-12-10T09:05:58Z</time>
      </trkpt>
      <trkpt lat="59.272528" lon="18.093239">
        <ele>39</ele>
        <time>2019-12-10T09:05:59Z</time>
      </trkpt>
      <trkpt lat="59.272512" lon="18.093334">
        <ele>39</ele>
        <time>2019-12-10T09:06:00Z</time>
      </trkpt>
      <trkpt lat="59.27248" lon="18.093416">
        <ele>39</ele>
        <time>2019-12-10T09:06:01Z</time>
      </trkpt>
      <trkpt lat="59.272435" lon="18.093478">
        <ele>39</ele>
        <time>2019-12-10T09:06:02Z</time>
      </trkpt>
      <trkpt lat="59.272383" lon="18.09351">
        <ele>39</ele>
        <time>2019-12-10T09:06:03Z</time>
      </trkpt>
      <trkpt lat="59.272333" lon="18.093528">
        <ele>39</ele>
        <time>2019-12-10T09:06:04Z</time>
      </trkpt>
      <trkpt lat="59.272282" lon="18.093542">
        <ele>0</ele>
        <time>2019-12-10T09:06:04Z</time>
      </trkpt>
      <trkpt lat="59.272232" lon="18.093555">
        <ele>39</ele>
        <time>2019-12-10T09:06:05Z</time>
      </trkpt>
      <trkpt lat="59.272178" lon="18.09357">
        <ele>39</ele>
        <time>2019-12-10T09:06:07Z</time>
      </trkpt>
      <trkpt lat="59.272125" lon="18.093586">
        <ele>39</ele>
        <time>2019-12-10T09:06:08Z</time>
      </trkpt>
      <trkpt lat="59.272071" lon="18.093608">
        <ele>39</ele>
        <time>2019-12-10T09:06:09Z</time>
      </trkpt>
      <trkpt lat="59.272014" lon="18.093633">
        <ele>39</ele>
        <time>2019-12-10T09:06:10Z</time>
      </trkpt>
      <trkpt lat="59.271956" lon="18.09366">
        <ele>39</ele>
        <time>2019-12-10T09:06:11Z</time>
      </trkpt>
      <trkpt lat="59.271896" lon="18.093685">
        <ele>39</ele>
        <time>2019-12-10T09:06:12Z</time>
      </trkpt>
      <trkpt lat="59.271833" lon="18.093712">
        <ele>39</ele>
        <time>2019-12-10T09:06:13Z</time>
      </trkpt>
      <trkpt lat="59.27177" lon="18.093742">
        <ele>0</ele>
        <time>2019-12-10T09:06:13Z</time>
      </trkpt>
      <trkpt lat="59.271707" lon="18.093776">
        <ele>38</ele>
        <time>2019-12-10T09:06:14Z</time>
      </trkpt>
      <trkpt lat="59.271644" lon="18.09381">
        <ele>38</ele>
        <time>2019-12-10T09:06:15Z</time>
      </trkpt>
      <trkpt lat="59.271581" lon="18.093842">
        <ele>38</ele>
        <time>2019-12-10T09:06:17Z</time>
      </trkpt>
      <trkpt lat="59.271515" lon="18.093869">
        <ele>38</ele>
        <time>2019-12-10T09:06:18Z</time>
      </trkpt>
      <trkpt lat="59.271447" lon="18.093893">
        <ele>38</ele>
        <time>2019-12-10T09:06:19Z</time>
      </trkpt>
      <trkpt lat="59.271382" lon="18.093911">
        <ele>38</ele>
        <time>2019-12-10T09:06:20Z</time>
      </trkpt>
      <trkpt lat="59.271314" lon="18.093925">
        <ele>0</ele>
        <time>2019-12-10T09:06:20Z</time>
      </trkpt>
      <trkpt lat="59.271245" lon="18.093946">
        <ele>37</ele>
        <time>2019-12-10T09:06:21Z</time>
      </trkpt>
      <trkpt lat="59.271177" lon="18.093974">
        <ele>37</ele>
        <time>2019-12-10T09:06:23Z</time>
      </trkpt>
      <trkpt lat="59.271109" lon="18.094005">
        <ele>37</ele>
        <time>2019-12-10T09:06:24Z</time>
      </trkpt>
      <trkpt lat="59.271039" lon="18.094041">
        <ele>37</ele>
        <time>2019-12-10T09:06:25Z</time>
      </trkpt>
      <trkpt lat="59.270971" lon="18.09408">
        <ele>37</ele>
        <time>2019-12-10T09:06:26Z</time>
      </trkpt>
      <trkpt lat="59.270902" lon="18.094119">
        <ele>37</ele>
        <time>2019-12-10T09:06:27Z</time>
      </trkpt>
      <trkpt lat="59.270831" lon="18.094156">
        <ele>0</ele>
        <time>2019-12-10T09:06:27Z</time>
      </trkpt>
      <trkpt lat="59.270761" lon="18.09419">
        <ele>37</ele>
        <time>2019-12-10T09:06:28Z</time>
      </trkpt>
      <trkpt lat="59.270691" lon="18.094222">
        <ele>36</ele>
        <time>2019-12-10T09:06:30Z</time>
      </trkpt>
      <trkpt lat="59.270621" lon="18.094251">
        <ele>36</ele>
        <time>2019-12-10T09:06:31Z</time>
      </trkpt>
      <trkpt lat="59.270549" lon="18.094277">
        <ele>36</ele>
        <time>2019-12-10T09:06:32Z</time>
      </trkpt>
      <trkpt lat="59.270479" lon="18.094302">
        <ele>36</ele>
        <time>2019-12-10T09:06:33Z</time>
      </trkpt>
      <trkpt lat="59.270409" lon="18.094326">
        <ele>0</ele>
        <time>2019-12-10T09:06:33Z</time>
      </trkpt>
      <trkpt lat="59.270339" lon="18.094353">
        <ele>36</ele>
        <time>2019-12-10T09:06:34Z</time>
      </trkpt>
      <trkpt lat="59.27027" lon="18.094378">
        <ele>36</ele>
        <time>2019-12-10T09:06:35Z</time>
      </trkpt>
      <trkpt lat="59.270204" lon="18.094402">
        <ele>35</ele>
        <time>2019-12-10T09:06:37Z</time>
      </trkpt>
      <trkpt lat="59.270138" lon="18.094424">
        <ele>36</ele>
        <time>2019-12-10T09:06:38Z</time>
      </trkpt>
      <trkpt lat="59.270073" lon="18.094445">
        <ele>36</ele>
        <time>2019-12-10T09:06:39Z</time>
      </trkpt>
      <trkpt lat="59.270011" lon="18.094474">
        <ele>36</ele>
        <time>2019-12-10T09:06:40Z</time>
      </trkpt>
      <trkpt lat="59.269947" lon="18.094512">
        <ele>36</ele>
        <time>2019-12-10T09:06:41Z</time>
      </trkpt>
      <trkpt lat="59.269883" lon="18.094552">
        <ele>36</ele>
        <time>2019-12-10T09:06:42Z</time>
      </trkpt>
      <trkpt lat="59.269823" lon="18.094597">
        <ele>0</ele>
        <time>2019-12-10T09:06:42Z</time>
      </trkpt>
      <trkpt lat="59.269763" lon="18.094646">
        <ele>36</ele>
        <time>2019-12-10T09:06:43Z</time>
      </trkpt>
      <trkpt lat="59.269703" lon="18.094697">
        <ele>36</ele>
        <time>2019-12-10T09:06:45Z</time>
      </trkpt>
      <trkpt lat="59.269642" lon="18.094744">
        <ele>36</ele>
        <time>2019-12-10T09:06:46Z</time>
      </trkpt>
      <trkpt lat="59.269579" lon="18.094783">
        <ele>36</ele>
        <time>2019-12-10T09:06:47Z</time>
      </trkpt>
      <trkpt lat="59.269516" lon="18.094809">
        <ele>36</ele>
        <time>2019-12-10T09:06:48Z</time>
      </trkpt>
      <trkpt lat="59.269453" lon="18.094831">
        <ele>36</ele>
        <time>2019-12-10T09:06:49Z</time>
      </trkpt>
      <trkpt lat="59.269389" lon="18.094855">
        <ele>36</ele>
        <time>2019-12-10T09:06:50Z</time>
      </trkpt>
      <trkpt lat="59.269327" lon="18.094878">
        <ele>0</ele>
        <time>2019-12-10T09:06:50Z</time>
      </trkpt>
      <trkpt lat="59.269266" lon="18.094904">
        <ele>36</ele>
        <time>2019-12-10T09:06:51Z</time>
      </trkpt>
      <trkpt lat="59.269206" lon="18.094937">
        <ele>0</ele>
        <time>2019-12-10T09:06:52Z</time>
      </trkpt>
      <trkpt lat="59.269143" lon="18.094973">
        <ele>36</ele>
        <time>2019-12-10T09:06:53Z</time>
      </trkpt>
      <trkpt lat="59.269078" lon="18.095008">
        <ele>37</ele>
        <time>2019-12-10T09:06:55Z</time>
      </trkpt>
      <trkpt lat="59.269016" lon="18.09504">
        <ele>37</ele>
        <time>2019-12-10T09:06:56Z</time>
      </trkpt>
      <trkpt lat="59.268954" lon="18.095071">
        <ele>37</ele>
        <time>2019-12-10T09:06:57Z</time>
      </trkpt>
      <trkpt lat="59.268895" lon="18.095104">
        <ele>0</ele>
        <time>2019-12-10T09:06:57Z</time>
      </trkpt>
      <trkpt lat="59.268833" lon="18.095141">
        <ele>37</ele>
        <time>2019-12-10T09:06:58Z</time>
      </trkpt>
      <trkpt lat="59.26877" lon="18.095175">
        <ele>37</ele>
        <time>2019-12-10T09:07:00Z</time>
      </trkpt>
      <trkpt lat="59.268707" lon="18.095202">
        <ele>37</ele>
        <time>2019-12-10T09:07:01Z</time>
      </trkpt>
      <trkpt lat="59.268646" lon="18.095238">
        <ele>37</ele>
        <time>2019-12-10T09:07:02Z</time>
      </trkpt>
      <trkpt lat="59.268582" lon="18.095281">
        <ele>37</ele>
        <time>2019-12-10T09:07:03Z</time>
      </trkpt>
      <trkpt lat="59.268518" lon="18.095323">
        <ele>37</ele>
        <time>2019-12-10T09:07:04Z</time>
      </trkpt>
      <trkpt lat="59.268455" lon="18.095363">
        <ele>37</ele>
        <time>2019-12-10T09:07:05Z</time>
      </trkpt>
      <trkpt lat="59.268393" lon="18.095401">
        <ele>0</ele>
        <time>2019-12-10T09:07:05Z</time>
      </trkpt>
      <trkpt lat="59.268332" lon="18.09544">
        <ele>37</ele>
        <time>2019-12-10T09:07:06Z</time>
      </trkpt>
      <trkpt lat="59.26827" lon="18.095487">
        <ele>37</ele>
        <time>2019-12-10T09:07:08Z</time>
      </trkpt>
      <trkpt lat="59.268206" lon="18.095532">
        <ele>37</ele>
        <time>2019-12-10T09:07:09Z</time>
      </trkpt>
      <trkpt lat="59.268141" lon="18.095578">
        <ele>37</ele>
        <time>2019-12-10T09:07:10Z</time>
      </trkpt>
      <trkpt lat="59.268078" lon="18.095625">
        <ele>37</ele>
        <time>2019-12-10T09:07:11Z</time>
      </trkpt>
      <trkpt lat="59.268016" lon="18.09567">
        <ele>0</ele>
        <time>2019-12-10T09:07:11Z</time>
      </trkpt>
      <trkpt lat="59.267952" lon="18.095712">
        <ele>37</ele>
        <time>2019-12-10T09:07:12Z</time>
      </trkpt>
      <trkpt lat="59.267887" lon="18.09575">
        <ele>37</ele>
        <time>2019-12-10T09:07:13Z</time>
      </trkpt>
      <trkpt lat="59.267824" lon="18.095781">
        <ele>37</ele>
        <time>2019-12-10T09:07:15Z</time>
      </trkpt>
      <trkpt lat="59.267756" lon="18.09581">
        <ele>37</ele>
        <time>2019-12-10T09:07:16Z</time>
      </trkpt>
      <trkpt lat="59.267692" lon="18.095837">
        <ele>37</ele>
        <time>2019-12-10T09:07:17Z</time>
      </trkpt>
      <trkpt lat="59.267632" lon="18.095863">
        <ele>37</ele>
        <time>2019-12-10T09:07:18Z</time>
      </trkpt>
      <trkpt lat="59.267572" lon="18.095887">
        <ele>37</ele>
        <time>2019-12-10T09:07:19Z</time>
      </trkpt>
      <trkpt lat="59.267514" lon="18.095907">
        <ele>37</ele>
        <time>2019-12-10T09:07:20Z</time>
      </trkpt>
      <trkpt lat="59.26745" lon="18.09592">
        <ele>0</ele>
        <time>2019-12-10T09:07:20Z</time>
      </trkpt>
      <trkpt lat="59.267388" lon="18.095931">
        <ele>37</ele>
        <time>2019-12-10T09:07:21Z</time>
      </trkpt>
      <trkpt lat="59.267324" lon="18.09594">
        <ele>37</ele>
        <time>2019-12-10T09:07:23Z</time>
      </trkpt>
      <trkpt lat="59.267265" lon="18.095954">
        <ele>37</ele>
        <time>2019-12-10T09:07:24Z</time>
      </trkpt>
      <trkpt lat="59.267207" lon="18.09597">
        <ele>37</ele>
        <time>2019-12-10T09:07:25Z</time>
      </trkpt>
      <trkpt lat="59.267146" lon="18.095989">
        <ele>37</ele>
        <time>2019-12-10T09:07:26Z</time>
      </trkpt>
      <trkpt lat="59.267086" lon="18.09601">
        <ele>37</ele>
        <time>2019-12-10T09:07:27Z</time>
      </trkpt>
      <trkpt lat="59.267027" lon="18.096031">
        <ele>37</ele>
        <time>2019-12-10T09:07:28Z</time>
      </trkpt>
      <trkpt lat="59.266968" lon="18.096058">
        <ele>37</ele>
        <time>2019-12-10T09:07:29Z</time>
      </trkpt>
      <trkpt lat="59.266905" lon="18.096098">
        <ele>0</ele>
        <time>2019-12-10T09:07:29Z</time>
      </trkpt>
      <trkpt lat="59.266846" lon="18.096152">
        <ele>37</ele>
        <time>2019-12-10T09:07:30Z</time>
      </trkpt>
      <trkpt lat="59.266792" lon="18.096218">
        <ele>38</ele>
        <time>2019-12-10T09:07:31Z</time>
      </trkpt>
      <trkpt lat="59.266736" lon="18.096291">
        <ele>37</ele>
        <time>2019-12-10T09:07:33Z</time>
      </trkpt>
      <trkpt lat="59.266678" lon="18.096364">
        <ele>37</ele>
        <time>2019-12-10T09:07:34Z</time>
      </trkpt>
      <trkpt lat="59.266623" lon="18.096437">
        <ele>37</ele>
        <time>2019-12-10T09:07:35Z</time>
      </trkpt>
      <trkpt lat="59.266566" lon="18.096511">
        <ele>37</ele>
        <time>2019-12-10T09:07:36Z</time>
      </trkpt>
      <trkpt lat="59.266509" lon="18.096589">
        <ele>0</ele>
        <time>2019-12-10T09:07:36Z</time>
      </trkpt>
      <trkpt lat="59.266456" lon="18.096664">
        <ele>37</ele>
        <time>2019-12-10T09:07:37Z</time>
      </trkpt>
      <trkpt lat="59.2664" lon="18.096736">
        <ele>37</ele>
        <time>2019-12-10T09:07:39Z</time>
      </trkpt>
      <trkpt lat="59.266346" lon="18.096804">
        <ele>37</ele>
        <time>2019-12-10T09:07:40Z</time>
      </trkpt>
      <trkpt lat="59.26629" lon="18.096864">
        <ele>37</ele>
        <time>2019-12-10T09:07:41Z</time>
      </trkpt>
      <trkpt lat="59.266229" lon="18.096913">
        <ele>37</ele>
        <time>2019-12-10T09:07:42Z</time>
      </trkpt>
      <trkpt lat="59.266167" lon="18.096956">
        <ele>37</ele>
        <time>2019-12-10T09:07:43Z</time>
      </trkpt>
      <trkpt lat="59.266104" lon="18.096997">
        <ele>36</ele>
        <time>2019-12-10T09:07:44Z</time>
      </trkpt>
      <trkpt lat="59.26604" lon="18.097037">
        <ele>0</ele>
        <time>2019-12-10T09:07:44Z</time>
      </trkpt>
      <trkpt lat="59.26598" lon="18.097073">
        <ele>36</ele>
        <time>2019-12-10T09:07:45Z</time>
      </trkpt>
      <trkpt lat="59.26592" lon="18.097107">
        <ele>37</ele>
        <time>2019-12-10T09:07:47Z</time>
      </trkpt>
      <trkpt lat="59.265861" lon="18.09714">
        <ele>37</ele>
        <time>2019-12-10T09:07:48Z</time>
      </trkpt>
      <trkpt lat="59.265801" lon="18.097172">
        <ele>37</ele>
        <time>2019-12-10T09:07:49Z</time>
      </trkpt>
      <trkpt lat="59.265736" lon="18.0972">
        <ele>0</ele>
        <time>2019-12-10T09:07:49Z</time>
      </trkpt>
      <trkpt lat="59.265668" lon="18.097225">
        <ele>37</ele>
        <time>2019-12-10T09:07:50Z</time>
      </trkpt>
      <trkpt lat="59.265594" lon="18.097249">
        <ele>0</ele>
        <time>2019-12-10T09:07:51Z</time>
      </trkpt>
      <trkpt lat="59.26552" lon="18.097276">
        <ele>36</ele>
        <time>2019-12-10T09:07:52Z</time>
      </trkpt>
      <trkpt lat="59.265441" lon="18.097303">
        <ele>36</ele>
        <time>2019-12-10T09:07:54Z</time>
      </trkpt>
      <trkpt lat="59.265365" lon="18.097324">
        <ele>36</ele>
        <time>2019-12-10T09:07:55Z</time>
      </trkpt>
      <trkpt lat="59.265292" lon="18.097339">
        <ele>36</ele>
        <time>2019-12-10T09:07:56Z</time>
      </trkpt>
      <trkpt lat="59.265222" lon="18.097358">
        <ele>36</ele>
        <time>2019-12-10T09:07:57Z</time>
      </trkpt>
      <trkpt lat="59.265152" lon="18.097385">
        <ele>36</ele>
        <time>2019-12-10T09:07:58Z</time>
      </trkpt>
      <trkpt lat="59.265086" lon="18.097415">
        <ele>0</ele>
        <time>2019-12-10T09:07:58Z</time>
      </trkpt>
      <trkpt lat="59.265022" lon="18.097443">
        <ele>36</ele>
        <time>2019-12-10T09:07:59Z</time>
      </trkpt>
      <trkpt lat="59.264962" lon="18.09747">
        <ele>36</ele>
        <time>2019-12-10T09:08:01Z</time>
      </trkpt>
      <trkpt lat="59.264906" lon="18.097496">
        <ele>36</ele>
        <time>2019-12-10T09:08:02Z</time>
      </trkpt>
      <trkpt lat="59.264853" lon="18.097522">
        <ele>37</ele>
        <time>2019-12-10T09:08:03Z</time>
      </trkpt>
      <trkpt lat="59.264802" lon="18.097544">
        <ele>37</ele>
        <time>2019-12-10T09:08:04Z</time>
      </trkpt>
      <trkpt lat="59.264753" lon="18.097564">
        <ele>37</ele>
        <time>2019-12-10T09:08:05Z</time>
      </trkpt>
      <trkpt lat="59.2647" lon="18.097586">
        <ele>37</ele>
        <time>2019-12-10T09:08:06Z</time>
      </trkpt>
      <trkpt lat="59.264646" lon="18.097606">
        <ele>37</ele>
        <time>2019-12-10T09:08:07Z</time>
      </trkpt>
      <trkpt lat="59.264593" lon="18.097626">
        <ele>0</ele>
        <time>2019-12-10T09:08:07Z</time>
      </trkpt>
      <trkpt lat="59.264542" lon="18.097652">
        <ele>37</ele>
        <time>2019-12-10T09:08:08Z</time>
      </trkpt>
      <trkpt lat="59.264493" lon="18.097674">
        <ele>37</ele>
        <time>2019-12-10T09:08:09Z</time>
      </trkpt>
      <trkpt lat="59.264444" lon="18.097694">
        <ele>37</ele>
        <time>2019-12-10T09:08:11Z</time>
      </trkpt>
      <trkpt lat="59.264395" lon="18.097714">
        <ele>38</ele>
        <time>2019-12-10T09:08:12Z</time>
      </trkpt>
      <trkpt lat="59.264346" lon="18.097734">
        <ele>38</ele>
        <time>2019-12-10T09:08:13Z</time>
      </trkpt>
      <trkpt lat="59.264296" lon="18.097756">
        <ele>38</ele>
        <time>2019-12-10T09:08:14Z</time>
      </trkpt>
      <trkpt lat="59.264243" lon="18.097778">
        <ele>38</ele>
        <time>2019-12-10T09:08:15Z</time>
      </trkpt>
      <trkpt lat="59.264192" lon="18.0978">
        <ele>38</ele>
        <time>2019-12-10T09:08:16Z</time>
      </trkpt>
      <trkpt lat="59.264138" lon="18.097818">
        <ele>38</ele>
        <time>2019-12-10T09:08:17Z</time>
      </trkpt>
      <trkpt lat="59.264088" lon="18.09784">
        <ele>0</ele>
        <time>2019-12-10T09:08:17Z</time>
      </trkpt>
      <trkpt lat="59.264036" lon="18.09786">
        <ele>38</ele>
        <time>2019-12-10T09:08:18Z</time>
      </trkpt>
      <trkpt lat="59.263978" lon="18.097874">
        <ele>38</ele>
        <time>2019-12-10T09:08:20Z</time>
      </trkpt>
      <trkpt lat="59.263915" lon="18.09789">
        <ele>37</ele>
        <time>2019-12-10T09:08:21Z</time>
      </trkpt>
      <trkpt lat="59.26385" lon="18.097912">
        <ele>37</ele>
        <time>2019-12-10T09:08:22Z</time>
      </trkpt>
      <trkpt lat="59.263784" lon="18.097934">
        <ele>37</ele>
        <time>2019-12-10T09:08:23Z</time>
      </trkpt>
      <trkpt lat="59.263717" lon="18.097954">
        <ele>37</ele>
        <time>2019-12-10T09:08:24Z</time>
      </trkpt>
      <trkpt lat="59.263647" lon="18.097974">
        <ele>0</ele>
        <time>2019-12-10T09:08:24Z</time>
      </trkpt>
      <trkpt lat="59.263578" lon="18.097996">
        <ele>37</ele>
        <time>2019-12-10T09:08:25Z</time>
      </trkpt>
      <trkpt lat="59.263509" lon="18.098016">
        <ele>37</ele>
        <time>2019-12-10T09:08:27Z</time>
      </trkpt>
      <trkpt lat="59.263439" lon="18.098036">
        <ele>0</ele>
        <time>2019-12-10T09:08:27Z</time>
      </trkpt>
      <trkpt lat="59.263367" lon="18.098056">
        <ele>37</ele>
        <time>2019-12-10T09:08:28Z</time>
      </trkpt>
      <trkpt lat="59.263294" lon="18.098074">
        <ele>37</ele>
        <time>2019-12-10T09:08:30Z</time>
      </trkpt>
      <trkpt lat="59.263218" lon="18.09809">
        <ele>37</ele>
        <time>2019-12-10T09:08:31Z</time>
      </trkpt>
      <trkpt lat="59.263141" lon="18.098102">
        <ele>0</ele>
        <time>2019-12-10T09:08:31Z</time>
      </trkpt>
      <trkpt lat="59.263064" lon="18.098108">
        <ele>37</ele>
        <time>2019-12-10T09:08:32Z</time>
      </trkpt>
      <trkpt lat="59.26298" lon="18.098116">
        <ele>36</ele>
        <time>2019-12-10T09:08:34Z</time>
      </trkpt>
      <trkpt lat="59.262897" lon="18.098124">
        <ele>35</ele>
        <time>2019-12-10T09:08:35Z</time>
      </trkpt>
      <trkpt lat="59.262815" lon="18.098126">
        <ele>35</ele>
        <time>2019-12-10T09:08:36Z</time>
      </trkpt>
      <trkpt lat="59.262737" lon="18.098124">
        <ele>34</ele>
        <time>2019-12-10T09:08:37Z</time>
      </trkpt>
      <trkpt lat="59.262657" lon="18.098124">
        <ele>0</ele>
        <time>2019-12-10T09:08:37Z</time>
      </trkpt>
      <trkpt lat="59.262577" lon="18.098122">
        <ele>34</ele>
        <time>2019-12-10T09:08:38Z</time>
      </trkpt>
      <trkpt lat="59.262496" lon="18.098114">
        <ele>33</ele>
        <time>2019-12-10T09:08:40Z</time>
      </trkpt>
      <trkpt lat="59.262416" lon="18.098098">
        <ele>32</ele>
        <time>2019-12-10T09:08:41Z</time>
      </trkpt>
      <trkpt lat="59.262338" lon="18.098064">
        <ele>32</ele>
        <time>2019-12-10T09:08:42Z</time>
      </trkpt>
      <trkpt lat="59.262263" lon="18.09801">
        <ele>32</ele>
        <time>2019-12-10T09:08:43Z</time>
      </trkpt>
      <trkpt lat="59.262193" lon="18.097938">
        <ele>32</ele>
        <time>2019-12-10T09:08:44Z</time>
      </trkpt>
      <trkpt lat="59.262129" lon="18.097852">
        <ele>0</ele>
        <time>2019-12-10T09:08:44Z</time>
      </trkpt>
      <trkpt lat="59.262068" lon="18.097762">
        <ele>31</ele>
        <time>2019-12-10T09:08:45Z</time>
      </trkpt>
      <trkpt lat="59.262008" lon="18.097672">
        <ele>0</ele>
        <time>2019-12-10T09:08:46Z</time>
      </trkpt>
      <trkpt lat="59.26195" lon="18.097584">
        <ele>31</ele>
        <time>2019-12-10T09:08:47Z</time>
      </trkpt>
      <trkpt lat="59.261893" lon="18.097496">
        <ele>31</ele>
        <time>2019-12-10T09:08:49Z</time>
      </trkpt>
      <trkpt lat="59.261838" lon="18.097406">
        <ele>31</ele>
        <time>2019-12-10T09:08:50Z</time>
      </trkpt>
      <trkpt lat="59.261784" lon="18.097318">
        <ele>0</ele>
        <time>2019-12-10T09:08:50Z</time>
      </trkpt>
      <trkpt lat="59.26173" lon="18.09723">
        <ele>30</ele>
        <time>2019-12-10T09:08:51Z</time>
      </trkpt>
      <trkpt lat="59.261678" lon="18.097142">
        <ele>30</ele>
        <time>2019-12-10T09:08:53Z</time>
      </trkpt>
      <trkpt lat="59.261626" lon="18.097054">
        <ele>30</ele>
        <time>2019-12-10T09:08:54Z</time>
      </trkpt>
      <trkpt lat="59.261575" lon="18.09697">
        <ele>30</ele>
        <time>2019-12-10T09:08:55Z</time>
      </trkpt>
      <trkpt lat="59.261523" lon="18.096888">
        <ele>30</ele>
        <time>2019-12-10T09:08:56Z</time>
      </trkpt>
      <trkpt lat="59.261471" lon="18.096808">
        <ele>30</ele>
        <time>2019-12-10T09:08:57Z</time>
      </trkpt>
      <trkpt lat="59.261416" lon="18.096735">
        <ele>30</ele>
        <time>2019-12-10T09:08:58Z</time>
      </trkpt>
      <trkpt lat="59.261358" lon="18.096672">
        <ele>0</ele>
        <time>2019-12-10T09:08:58Z</time>
      </trkpt>
      <trkpt lat="59.261299" lon="18.096618">
        <ele>30</ele>
        <time>2019-12-10T09:08:59Z</time>
      </trkpt>
      <trkpt lat="59.26124" lon="18.096566">
        <ele>30</ele>
        <time>2019-12-10T09:09:01Z</time>
      </trkpt>
      <trkpt lat="59.261182" lon="18.096518">
        <ele>30</ele>
        <time>2019-12-10T09:09:02Z</time>
      </trkpt>
      <trkpt lat="59.261125" lon="18.096477">
        <ele>30</ele>
        <time>2019-12-10T09:09:03Z</time>
      </trkpt>
      <trkpt lat="59.261069" lon="18.096447">
        <ele>30</ele>
        <time>2019-12-10T09:09:04Z</time>
      </trkpt>
      <trkpt lat="59.261014" lon="18.09643">
        <ele>30</ele>
        <time>2019-12-10T09:09:05Z</time>
      </trkpt>
      <trkpt lat="59.260959" lon="18.096421">
        <ele>0</ele>
        <time>2019-12-10T09:09:05Z</time>
      </trkpt>
      <trkpt lat="59.260904" lon="18.09642">
        <ele>30</ele>
        <time>2019-12-10T09:09:06Z</time>
      </trkpt>
      <trkpt lat="59.260848" lon="18.096428">
        <ele>30</ele>
        <time>2019-12-10T09:09:07Z</time>
      </trkpt>
      <trkpt lat="59.260791" lon="18.096441">
        <ele>29</ele>
        <time>2019-12-10T09:09:09Z</time>
      </trkpt>
      <trkpt lat="59.26073" lon="18.096456">
        <ele>29</ele>
        <time>2019-12-10T09:09:10Z</time>
      </trkpt>
      <trkpt lat="59.260668" lon="18.096471">
        <ele>29</ele>
        <time>2019-12-10T09:09:11Z</time>
      </trkpt>
      <trkpt lat="59.260605" lon="18.09649">
        <ele>28</ele>
        <time>2019-12-10T09:09:12Z</time>
      </trkpt>
      <trkpt lat="59.260541" lon="18.096513">
        <ele>28</ele>
        <time>2019-12-10T09:09:13Z</time>
      </trkpt>
      <trkpt lat="59.260478" lon="18.096539">
        <ele>28</ele>
        <time>2019-12-10T09:09:14Z</time>
      </trkpt>
      <trkpt lat="59.260418" lon="18.096566">
        <ele>0</ele>
        <time>2019-12-10T09:09:14Z</time>
      </trkpt>
      <trkpt lat="59.260362" lon="18.096598">
        <ele>28</ele>
        <time>2019-12-10T09:09:15Z</time>
      </trkpt>
      <trkpt lat="59.260302" lon="18.096625">
        <ele>28</ele>
        <time>2019-12-10T09:09:17Z</time>
      </trkpt>
      <trkpt lat="59.260239" lon="18.096642">
        <ele>28</ele>
        <time>2019-12-10T09:09:18Z</time>
      </trkpt>
      <trkpt lat="59.260176" lon="18.096654">
        <ele>28</ele>
        <time>2019-12-10T09:09:19Z</time>
      </trkpt>
      <trkpt lat="59.260117" lon="18.096711">
        <ele>28</ele>
        <time>2019-12-10T09:09:20Z</time>
      </trkpt>
      <trkpt lat="59.26006" lon="18.096766">
        <ele>28</ele>
        <time>2019-12-10T09:09:21Z</time>
      </trkpt>
      <trkpt lat="59.26001" lon="18.096823">
        <ele>28</ele>
        <time>2019-12-10T09:09:22Z</time>
      </trkpt>
      <trkpt lat="59.259966" lon="18.096873">
        <ele>28</ele>
        <time>2019-12-10T09:09:23Z</time>
      </trkpt>
      <trkpt lat="59.259927" lon="18.096923">
        <ele>0</ele>
        <time>2019-12-10T09:09:23Z</time>
      </trkpt>
      <trkpt lat="59.259895" lon="18.096969">
        <ele>28</ele>
        <time>2019-12-10T09:09:24Z</time>
      </trkpt>
      <trkpt lat="59.259868" lon="18.097016">
        <ele>28</ele>
        <time>2019-12-10T09:09:25Z</time>
      </trkpt>
      <trkpt lat="59.259844" lon="18.097063">
        <ele>28</ele>
        <time>2019-12-10T09:09:27Z</time>
      </trkpt>
      <trkpt lat="59.259822" lon="18.097108">
        <ele>28</ele>
        <time>2019-12-10T09:09:28Z</time>
      </trkpt>
      <trkpt lat="59.259801" lon="18.097155">
        <ele>29</ele>
        <time>2019-12-10T09:09:29Z</time>
      </trkpt>
      <trkpt lat="59.259782" lon="18.097206">
        <ele>29</ele>
        <time>2019-12-10T09:09:30Z</time>
      </trkpt>
      <trkpt lat="59.259766" lon="18.097259">
        <ele>29</ele>
        <time>2019-12-10T09:09:31Z</time>
      </trkpt>
      <trkpt lat="59.259751" lon="18.097315">
        <ele>29</ele>
        <time>2019-12-10T09:09:32Z</time>
      </trkpt>
      <trkpt lat="59.259736" lon="18.097374">
        <ele>29</ele>
        <time>2019-12-10T09:09:33Z</time>
      </trkpt>
      <trkpt lat="59.259725" lon="18.09744">
        <ele>29</ele>
        <time>2019-12-10T09:09:34Z</time>
      </trkpt>
      <trkpt lat="59.259715" lon="18.097514">
        <ele>29</ele>
        <time>2019-12-10T09:09:35Z</time>
      </trkpt>
      <trkpt lat="59.259707" lon="18.097594">
        <ele>29</ele>
        <time>2019-12-10T09:09:36Z</time>
      </trkpt>
      <trkpt lat="59.259697" lon="18.097679">
        <ele>29</ele>
        <time>2019-12-10T09:09:37Z</time>
      </trkpt>
      <trkpt lat="59.259688" lon="18.097768">
        <ele>0</ele>
        <time>2019-12-10T09:09:37Z</time>
      </trkpt>
      <trkpt lat="59.25968" lon="18.097864">
        <ele>29</ele>
        <time>2019-12-10T09:09:38Z</time>
      </trkpt>
      <trkpt lat="59.259672" lon="18.097962">
        <ele>29</ele>
        <time>2019-12-10T09:09:40Z</time>
      </trkpt>
      <trkpt lat="59.259664" lon="18.09806">
        <ele>29</ele>
        <time>2019-12-10T09:09:41Z</time>
      </trkpt>
      <trkpt lat="59.259656" lon="18.09816">
        <ele>29</ele>
        <time>2019-12-10T09:09:42Z</time>
      </trkpt>
      <trkpt lat="59.259647" lon="18.098262">
        <ele>29</ele>
        <time>2019-12-10T09:09:43Z</time>
      </trkpt>
      <trkpt lat="59.259638" lon="18.098366">
        <ele>0</ele>
        <time>2019-12-10T09:09:43Z</time>
      </trkpt>
      <trkpt lat="59.259629" lon="18.098468">
        <ele>29</ele>
        <time>2019-12-10T09:09:44Z</time>
      </trkpt>
      <trkpt lat="59.259619" lon="18.098571">
        <ele>28</ele>
        <time>2019-12-10T09:09:46Z</time>
      </trkpt>
      <trkpt lat="59.259605" lon="18.09867">
        <ele>0</ele>
        <time>2019-12-10T09:09:46Z</time>
      </trkpt>
      <trkpt lat="59.259584" lon="18.098767">
        <ele>28</ele>
        <time>2019-12-10T09:09:47Z</time>
      </trkpt>
      <trkpt lat="59.259557" lon="18.098857">
        <ele>28</ele>
        <time>2019-12-10T09:09:49Z</time>
      </trkpt>
      <trkpt lat="59.259523" lon="18.098941">
        <ele>28</ele>
        <time>2019-12-10T09:09:50Z</time>
      </trkpt>
      <trkpt lat="59.259485" lon="18.099017">
        <ele>28</ele>
        <time>2019-12-10T09:09:51Z</time>
      </trkpt>
      <trkpt lat="59.259442" lon="18.099083">
        <ele>28</ele>
        <time>2019-12-10T09:09:52Z</time>
      </trkpt>
      <trkpt lat="59.259397" lon="18.099137">
        <ele>28</ele>
        <time>2019-12-10T09:09:53Z</time>
      </trkpt>
      <trkpt lat="59.25935" lon="18.099182">
        <ele>28</ele>
        <time>2019-12-10T09:09:54Z</time>
      </trkpt>
      <trkpt lat="59.259301" lon="18.099218">
        <ele>28</ele>
        <time>2019-12-10T09:09:55Z</time>
      </trkpt>
      <trkpt lat="59.259251" lon="18.099243">
        <ele>28</ele>
        <time>2019-12-10T09:09:56Z</time>
      </trkpt>
      <trkpt lat="59.259201" lon="18.099257">
        <ele>0</ele>
        <time>2019-12-10T09:09:56Z</time>
      </trkpt>
      <trkpt lat="59.25915" lon="18.099261">
        <ele>28</ele>
        <time>2019-12-10T09:09:57Z</time>
      </trkpt>
      <trkpt lat="59.259101" lon="18.099263">
        <ele>28</ele>
        <time>2019-12-10T09:09:59Z</time>
      </trkpt>
      <trkpt lat="59.259053" lon="18.099267">
        <ele>28</ele>
        <time>2019-12-10T09:10:00Z</time>
      </trkpt>
      <trkpt lat="59.259006" lon="18.09927">
        <ele>28</ele>
        <time>2019-12-10T09:10:01Z</time>
      </trkpt>
      <trkpt lat="59.258958" lon="18.099271">
        <ele>28</ele>
        <time>2019-12-10T09:10:02Z</time>
      </trkpt>
      <trkpt lat="59.25891" lon="18.099272">
        <ele>0</ele>
        <time>2019-12-10T09:10:02Z</time>
      </trkpt>
      <trkpt lat="59.258861" lon="18.099271">
        <ele>28</ele>
        <time>2019-12-10T09:10:03Z</time>
      </trkpt>
      <trkpt lat="59.258811" lon="18.099273">
        <ele>29</ele>
        <time>2019-12-10T09:10:05Z</time>
      </trkpt>
      <trkpt lat="59.258759" lon="18.099276">
        <ele>29</ele>
        <time>2019-12-10T09:10:06Z</time>
      </trkpt>
      <trkpt lat="59.258707" lon="18.099276">
        <ele>0</ele>
        <time>2019-12-10T09:10:06Z</time>
      </trkpt>
      <trkpt lat="59.258655" lon="18.099276">
        <ele>29</ele>
        <time>2019-12-10T09:10:07Z</time>
      </trkpt>
      <trkpt lat="59.258603" lon="18.099274">
        <ele>29</ele>
        <time>2019-12-10T09:10:09Z</time>
      </trkpt>
      <trkpt lat="59.258552" lon="18.099272">
        <ele>29</ele>
        <time>2019-12-10T09:10:10Z</time>
      </trkpt>
      <trkpt lat="59.258502" lon="18.099269">
        <ele>29</ele>
        <time>2019-12-10T09:10:11Z</time>
      </trkpt>
      <trkpt lat="59.258451" lon="18.099263">
        <ele>29</ele>
        <time>2019-12-10T09:10:12Z</time>
      </trkpt>
      <trkpt lat="59.258401" lon="18.099259">
        <ele>30</ele>
        <time>2019-12-10T09:10:13Z</time>
      </trkpt>
      <trkpt lat="59.258352" lon="18.099256">
        <ele>30</ele>
        <time>2019-12-10T09:10:14Z</time>
      </trkpt>
      <trkpt lat="59.258302" lon="18.099255">
        <ele>30</ele>
        <time>2019-12-10T09:10:15Z</time>
      </trkpt>
      <trkpt lat="59.258252" lon="18.099254">
        <ele>30</ele>
        <time>2019-12-10T09:10:16Z</time>
      </trkpt>
      <trkpt lat="59.258202" lon="18.099251">
        <ele>0</ele>
        <time>2019-12-10T09:10:16Z</time>
      </trkpt>
      <trkpt lat="59.25815" lon="18.099247">
        <ele>30</ele>
        <time>2019-12-10T09:10:17Z</time>
      </trkpt>
      <trkpt lat="59.258097" lon="18.099241">
        <ele>30</ele>
        <time>2019-12-10T09:10:19Z</time>
      </trkpt>
      <trkpt lat="59.258043" lon="18.099233">
        <ele>30</ele>
        <time>2019-12-10T09:10:20Z</time>
      </trkpt>
      <trkpt lat="59.25799" lon="18.099222">
        <ele>30</ele>
        <time>2019-12-10T09:10:21Z</time>
      </trkpt>
      <trkpt lat="59.257938" lon="18.09921">
        <ele>0</ele>
        <time>2019-12-10T09:10:21Z</time>
      </trkpt>
      <trkpt lat="59.257885" lon="18.099197">
        <ele>30</ele>
        <time>2019-12-10T09:10:22Z</time>
      </trkpt>
      <trkpt lat="59.257833" lon="18.099185">
        <ele>30</ele>
        <time>2019-12-10T09:10:24Z</time>
      </trkpt>
      <trkpt lat="59.25778" lon="18.099178">
        <ele>30</ele>
        <time>2019-12-10T09:10:25Z</time>
      </trkpt>
      <trkpt lat="59.257731" lon="18.099177">
        <ele>0</ele>
        <time>2019-12-10T09:10:25Z</time>
      </trkpt>
      <trkpt lat="59.25768" lon="18.099189">
        <ele>30</ele>
        <time>2019-12-10T09:10:26Z</time>
      </trkpt>
      <trkpt lat="59.257629" lon="18.099217">
        <ele>29</ele>
        <time>2019-12-10T09:10:28Z</time>
      </trkpt>
      <trkpt lat="59.25758" lon="18.099257">
        <ele>29</ele>
        <time>2019-12-10T09:10:29Z</time>
      </trkpt>
      <trkpt lat="59.257533" lon="18.099309">
        <ele>29</ele>
        <time>2019-12-10T09:10:30Z</time>
      </trkpt>
      <trkpt lat="59.257488" lon="18.099375">
        <ele>29</ele>
        <time>2019-12-10T09:10:31Z</time>
      </trkpt>
      <trkpt lat="59.257445" lon="18.099455">
        <ele>29</ele>
        <time>2019-12-10T09:10:32Z</time>
      </trkpt>
      <trkpt lat="59.257405" lon="18.099547">
        <ele>29</ele>
        <time>2019-12-10T09:10:33Z</time>
      </trkpt>
      <trkpt lat="59.257366" lon="18.099647">
        <ele>28</ele>
        <time>2019-12-10T09:10:34Z</time>
      </trkpt>
      <trkpt lat="59.257328" lon="18.099752">
        <ele>0</ele>
        <time>2019-12-10T09:10:34Z</time>
      </trkpt>
      <trkpt lat="59.257293" lon="18.099859">
        <ele>28</ele>
        <time>2019-12-10T09:10:35Z</time>
      </trkpt>
      <trkpt lat="59.257261" lon="18.099965">
        <ele>28</ele>
        <time>2019-12-10T09:10:37Z</time>
      </trkpt>
      <trkpt lat="59.257233" lon="18.100067">
        <ele>28</ele>
        <time>2019-12-10T09:10:38Z</time>
      </trkpt>
      <trkpt lat="59.257204" lon="18.100164">
        <ele>28</ele>
        <time>2019-12-10T09:10:39Z</time>
      </trkpt>
      <trkpt lat="59.257175" lon="18.100255">
        <ele>28</ele>
        <time>2019-12-10T09:10:40Z</time>
      </trkpt>
      <trkpt lat="59.257068" lon="18.100565">
        <ele>28</ele>
        <time>2019-12-10T09:10:44Z</time>
      </trkpt>
      <trkpt lat="59.257043" lon="18.100847">
        <ele>29</ele>
        <time>2019-12-10T09:10:45Z</time>
      </trkpt>
      <trkpt lat="59.257006" lon="18.100992">
        <ele>28</ele>
        <time>2019-12-10T09:10:48Z</time>
      </trkpt>
      <trkpt lat="59.256983" lon="18.101053">
        <ele>28</ele>
        <time>2019-12-10T09:10:49Z</time>
      </trkpt>
      <trkpt lat="59.256959" lon="18.101084">
        <ele>28</ele>
        <time>2019-12-10T09:10:50Z</time>
      </trkpt>
      <trkpt lat="59.256929" lon="18.101097">
        <ele>28</ele>
        <time>2019-12-10T09:10:51Z</time>
      </trkpt>
      <trkpt lat="59.256892" lon="18.1011">
        <ele>28</ele>
        <time>2019-12-10T09:10:52Z</time>
      </trkpt>
      <trkpt lat="59.256848" lon="18.101101">
        <ele>28</ele>
        <time>2019-12-10T09:10:53Z</time>
      </trkpt>
      <trkpt lat="59.256804" lon="18.101097">
        <ele>28</ele>
        <time>2019-12-10T09:10:54Z</time>
      </trkpt>
      <trkpt lat="59.25676" lon="18.10109">
        <ele>0</ele>
        <time>2019-12-10T09:10:54Z</time>
      </trkpt>
      <trkpt lat="59.256715" lon="18.101084">
        <ele>28</ele>
        <time>2019-12-10T09:10:55Z</time>
      </trkpt>
      <trkpt lat="59.256665" lon="18.101078">
        <ele>28</ele>
        <time>2019-12-10T09:10:56Z</time>
      </trkpt>
      <trkpt lat="59.256615" lon="18.101073">
        <ele>28</ele>
        <time>2019-12-10T09:10:58Z</time>
      </trkpt>
      <trkpt lat="59.256562" lon="18.101071">
        <ele>28</ele>
        <time>2019-12-10T09:10:59Z</time>
      </trkpt>
      <trkpt lat="59.256509" lon="18.101068">
        <ele>0</ele>
        <time>2019-12-10T09:10:59Z</time>
      </trkpt>
      <trkpt lat="59.256454" lon="18.101067">
        <ele>28</ele>
        <time>2019-12-10T09:11:00Z</time>
      </trkpt>
      <trkpt lat="59.2564" lon="18.101064">
        <ele>28</ele>
        <time>2019-12-10T09:11:02Z</time>
      </trkpt>
      <trkpt lat="59.256345" lon="18.10106">
        <ele>28</ele>
        <time>2019-12-10T09:11:03Z</time>
      </trkpt>
      <trkpt lat="59.256289" lon="18.101054">
        <ele>0</ele>
        <time>2019-12-10T09:11:03Z</time>
      </trkpt>
      <trkpt lat="59.256234" lon="18.10105">
        <ele>28</ele>
        <time>2019-12-10T09:11:04Z</time>
      </trkpt>
      <trkpt lat="59.25618" lon="18.101046">
        <ele>28</ele>
        <time>2019-12-10T09:11:06Z</time>
      </trkpt>
      <trkpt lat="59.256125" lon="18.101042">
        <ele>28</ele>
        <time>2019-12-10T09:11:07Z</time>
      </trkpt>
      <trkpt lat="59.256072" lon="18.101038">
        <ele>28</ele>
        <time>2019-12-10T09:11:08Z</time>
      </trkpt>
      <trkpt lat="59.256023" lon="18.101035">
        <ele>28</ele>
        <time>2019-12-10T09:11:09Z</time>
      </trkpt>
      <trkpt lat="59.255973" lon="18.101032">
        <ele>28</ele>
        <time>2019-12-10T09:11:10Z</time>
      </trkpt>
      <trkpt lat="59.25592" lon="18.101029">
        <ele>29</ele>
        <time>2019-12-10T09:11:11Z</time>
      </trkpt>
      <trkpt lat="59.25587" lon="18.101023">
        <ele>28</ele>
        <time>2019-12-10T09:11:12Z</time>
      </trkpt>
      <trkpt lat="59.255818" lon="18.101013">
        <ele>28</ele>
        <time>2019-12-10T09:11:13Z</time>
      </trkpt>
      <trkpt lat="59.255762" lon="18.101007">
        <ele>0</ele>
        <time>2019-12-10T09:11:13Z</time>
      </trkpt>
      <trkpt lat="59.255707" lon="18.101">
        <ele>28</ele>
        <time>2019-12-10T09:11:14Z</time>
      </trkpt>
      <trkpt lat="59.255653" lon="18.100991">
        <ele>28</ele>
        <time>2019-12-10T09:11:16Z</time>
      </trkpt>
      <trkpt lat="59.2556" lon="18.10098">
        <ele>28</ele>
        <time>2019-12-10T09:11:17Z</time>
      </trkpt>
      <trkpt lat="59.255544" lon="18.100967">
        <ele>28</ele>
        <time>2019-12-10T09:11:18Z</time>
      </trkpt>
      <trkpt lat="59.255483" lon="18.100953">
        <ele>0</ele>
        <time>2019-12-10T09:11:18Z</time>
      </trkpt>
      <trkpt lat="59.255423" lon="18.100939">
        <ele>28</ele>
        <time>2019-12-10T09:11:19Z</time>
      </trkpt>
      <trkpt lat="59.255361" lon="18.100925">
        <ele>27</ele>
        <time>2019-12-10T09:11:21Z</time>
      </trkpt>
      <trkpt lat="59.255299" lon="18.100913">
        <ele>28</ele>
        <time>2019-12-10T09:11:22Z</time>
      </trkpt>
      <trkpt lat="59.255241" lon="18.1009">
        <ele>0</ele>
        <time>2019-12-10T09:11:22Z</time>
      </trkpt>
      <trkpt lat="59.25518" lon="18.100886">
        <ele>28</ele>
        <time>2019-12-10T09:11:23Z</time>
      </trkpt>
      <trkpt lat="59.25512" lon="18.100874">
        <ele>28</ele>
        <time>2019-12-10T09:11:25Z</time>
      </trkpt>
      <trkpt lat="59.255059" lon="18.100864">
        <ele>28</ele>
        <time>2019-12-10T09:11:26Z</time>
      </trkpt>
      <trkpt lat="59.254998" lon="18.100851">
        <ele>28</ele>
        <time>2019-12-10T09:11:27Z</time>
      </trkpt>
      <trkpt lat="59.254937" lon="18.100838">
        <ele>28</ele>
        <time>2019-12-10T09:11:28Z</time>
      </trkpt>
      <trkpt lat="59.254875" lon="18.100825">
        <ele>28</ele>
        <time>2019-12-10T09:11:29Z</time>
      </trkpt>
      <trkpt lat="59.254813" lon="18.10081">
        <ele>28</ele>
        <time>2019-12-10T09:11:30Z</time>
      </trkpt>
      <trkpt lat="59.254751" lon="18.100793">
        <ele>0</ele>
        <time>2019-12-10T09:11:30Z</time>
      </trkpt>
      <trkpt lat="59.254689" lon="18.100773">
        <ele>28</ele>
        <time>2019-12-10T09:11:31Z</time>
      </trkpt>
      <trkpt lat="59.254627" lon="18.100752">
        <ele>28</ele>
        <time>2019-12-10T09:11:33Z</time>
      </trkpt>
      <trkpt lat="59.254563" lon="18.100726">
        <ele>28</ele>
        <time>2019-12-10T09:11:34Z</time>
      </trkpt>
      <trkpt lat="59.254501" lon="18.100698">
        <ele>28</ele>
        <time>2019-12-10T09:11:35Z</time>
      </trkpt>
      <trkpt lat="59.254438" lon="18.10067">
        <ele>28</ele>
        <time>2019-12-10T09:11:36Z</time>
      </trkpt>
      <trkpt lat="59.254376" lon="18.100644">
        <ele>27</ele>
        <time>2019-12-10T09:11:37Z</time>
      </trkpt>
      <trkpt lat="59.254313" lon="18.100624">
        <ele>0</ele>
        <time>2019-12-10T09:11:37Z</time>
      </trkpt>
      <trkpt lat="59.254252" lon="18.10061">
        <ele>27</ele>
        <time>2019-12-10T09:11:38Z</time>
      </trkpt>
      <trkpt lat="59.254194" lon="18.100601">
        <ele>27</ele>
        <time>2019-12-10T09:11:39Z</time>
      </trkpt>
      <trkpt lat="59.254137" lon="18.100601">
        <ele>27</ele>
        <time>2019-12-10T09:11:41Z</time>
      </trkpt>
      <trkpt lat="59.254081" lon="18.100604">
        <ele>27</ele>
        <time>2019-12-10T09:11:42Z</time>
      </trkpt>
      <trkpt lat="59.254026" lon="18.100603">
        <ele>27</ele>
        <time>2019-12-10T09:11:43Z</time>
      </trkpt>
      <trkpt lat="59.25397" lon="18.100598">
        <ele>27</ele>
        <time>2019-12-10T09:11:44Z</time>
      </trkpt>
      <trkpt lat="59.253913" lon="18.100586">
        <ele>27</ele>
        <time>2019-12-10T09:11:45Z</time>
      </trkpt>
      <trkpt lat="59.253855" lon="18.100568">
        <ele>27</ele>
        <time>2019-12-10T09:11:46Z</time>
      </trkpt>
      <trkpt lat="59.253796" lon="18.100546">
        <ele>0</ele>
        <time>2019-12-10T09:11:46Z</time>
      </trkpt>
      <trkpt lat="59.253735" lon="18.100518">
        <ele>27</ele>
        <time>2019-12-10T09:11:47Z</time>
      </trkpt>
      <trkpt lat="59.253673" lon="18.100487">
        <ele>26</ele>
        <time>2019-12-10T09:11:49Z</time>
      </trkpt>
      <trkpt lat="59.253611" lon="18.100455">
        <ele>26</ele>
        <time>2019-12-10T09:11:50Z</time>
      </trkpt>
      <trkpt lat="59.25355" lon="18.10042">
        <ele>26</ele>
        <time>2019-12-10T09:11:51Z</time>
      </trkpt>
      <trkpt lat="59.25349" lon="18.100383">
        <ele>25</ele>
        <time>2019-12-10T09:11:52Z</time>
      </trkpt>
      <trkpt lat="59.253431" lon="18.100344">
        <ele>25</ele>
        <time>2019-12-10T09:11:53Z</time>
      </trkpt>
      <trkpt lat="59.253374" lon="18.100303">
        <ele>25</ele>
        <time>2019-12-10T09:11:54Z</time>
      </trkpt>
      <trkpt lat="59.253318" lon="18.100257">
        <ele>0</ele>
        <time>2019-12-10T09:11:54Z</time>
      </trkpt>
      <trkpt lat="59.253262" lon="18.100213">
        <ele>25</ele>
        <time>2019-12-10T09:11:55Z</time>
      </trkpt>
      <trkpt lat="59.253205" lon="18.100177">
        <ele>0</ele>
        <time>2019-12-10T09:11:56Z</time>
      </trkpt>
      <trkpt lat="59.253145" lon="18.100152">
        <ele>25</ele>
        <time>2019-12-10T09:11:57Z</time>
      </trkpt>
      <trkpt lat="59.253083" lon="18.100139">
        <ele>25</ele>
        <time>2019-12-10T09:11:59Z</time>
      </trkpt>
      <trkpt lat="59.253019" lon="18.100138">
        <ele>25</ele>
        <time>2019-12-10T09:12:00Z</time>
      </trkpt>
      <trkpt lat="59.252954" lon="18.100143">
        <ele>25</ele>
        <time>2019-12-10T09:12:01Z</time>
      </trkpt>
      <trkpt lat="59.25289" lon="18.100151">
        <ele>25</ele>
        <time>2019-12-10T09:12:02Z</time>
      </trkpt>
      <trkpt lat="59.252826" lon="18.100163">
        <ele>0</ele>
        <time>2019-12-10T09:12:02Z</time>
      </trkpt>
      <trkpt lat="59.252763" lon="18.10018">
        <ele>25</ele>
        <time>2019-12-10T09:12:03Z</time>
      </trkpt>
      <trkpt lat="59.252701" lon="18.100201">
        <ele>25</ele>
        <time>2019-12-10T09:12:05Z</time>
      </trkpt>
      <trkpt lat="59.252639" lon="18.100228">
        <ele>25</ele>
        <time>2019-12-10T09:12:06Z</time>
      </trkpt>
      <trkpt lat="59.252577" lon="18.100256">
        <ele>25</ele>
        <time>2019-12-10T09:12:07Z</time>
      </trkpt>
      <trkpt lat="59.252517" lon="18.100285">
        <ele>25</ele>
        <time>2019-12-10T09:12:08Z</time>
      </trkpt>
      <trkpt lat="59.252458" lon="18.100315">
        <ele>25</ele>
        <time>2019-12-10T09:12:09Z</time>
      </trkpt>
      <trkpt lat="59.252401" lon="18.100345">
        <ele>25</ele>
        <time>2019-12-10T09:12:10Z</time>
      </trkpt>
      <trkpt lat="59.252346" lon="18.100377">
        <ele>0</ele>
        <time>2019-12-10T09:12:10Z</time>
      </trkpt>
      <trkpt lat="59.252293" lon="18.100407">
        <ele>25</ele>
        <time>2019-12-10T09:12:11Z</time>
      </trkpt>
      <trkpt lat="59.252242" lon="18.10044">
        <ele>25</ele>
        <time>2019-12-10T09:12:13Z</time>
      </trkpt>
      <trkpt lat="59.252194" lon="18.100474">
        <ele>25</ele>
        <time>2019-12-10T09:12:14Z</time>
      </trkpt>
      <trkpt lat="59.252147" lon="18.100505">
        <ele>25</ele>
        <time>2019-12-10T09:12:15Z</time>
      </trkpt>
      <trkpt lat="59.252102" lon="18.100533">
        <ele>0</ele>
        <time>2019-12-10T09:12:15Z</time>
      </trkpt>
      <trkpt lat="59.252057" lon="18.100561">
        <ele>25</ele>
        <time>2019-12-10T09:12:16Z</time>
      </trkpt>
      <trkpt lat="59.252012" lon="18.100588">
        <ele>25</ele>
        <time>2019-12-10T09:12:18Z</time>
      </trkpt>
      <trkpt lat="59.251967" lon="18.100618">
        <ele>25</ele>
        <time>2019-12-10T09:12:19Z</time>
      </trkpt>
      <trkpt lat="59.251923" lon="18.100645">
        <ele>25</ele>
        <time>2019-12-10T09:12:20Z</time>
      </trkpt>
      <trkpt lat="59.251879" lon="18.100671">
        <ele>0</ele>
        <time>2019-12-10T09:12:20Z</time>
      </trkpt>
      <trkpt lat="59.251835" lon="18.100698">
        <ele>26</ele>
        <time>2019-12-10T09:12:21Z</time>
      </trkpt>
      <trkpt lat="59.251791" lon="18.100728">
        <ele>26</ele>
        <time>2019-12-10T09:12:23Z</time>
      </trkpt>
      <trkpt lat="59.251746" lon="18.100758">
        <ele>26</ele>
        <time>2019-12-10T09:12:24Z</time>
      </trkpt>
      <trkpt lat="59.251702" lon="18.100786">
        <ele>26</ele>
        <time>2019-12-10T09:12:25Z</time>
      </trkpt>
      <trkpt lat="59.251657" lon="18.100813">
        <ele>26</ele>
        <time>2019-12-10T09:12:26Z</time>
      </trkpt>
      <trkpt lat="59.251611" lon="18.10084">
        <ele>26</ele>
        <time>2019-12-10T09:12:27Z</time>
      </trkpt>
      <trkpt lat="59.251568" lon="18.100868">
        <ele>26</ele>
        <time>2019-12-10T09:12:28Z</time>
      </trkpt>
      <trkpt lat="59.251524" lon="18.100894">
        <ele>26</ele>
        <time>2019-12-10T09:12:29Z</time>
      </trkpt>
      <trkpt lat="59.25148" lon="18.100918">
        <ele>27</ele>
        <time>2019-12-10T09:12:30Z</time>
      </trkpt>
      <trkpt lat="59.251435" lon="18.100937">
        <ele>27</ele>
        <time>2019-12-10T09:12:31Z</time>
      </trkpt>
      <trkpt lat="59.251389" lon="18.100947">
        <ele>0</ele>
        <time>2019-12-10T09:12:31Z</time>
      </trkpt>
      <trkpt lat="59.251344" lon="18.100947">
        <ele>27</ele>
        <time>2019-12-10T09:12:32Z</time>
      </trkpt>
      <trkpt lat="59.251298" lon="18.100939">
        <ele>27</ele>
        <time>2019-12-10T09:12:34Z</time>
      </trkpt>
      <trkpt lat="59.251253" lon="18.100921">
        <ele>0</ele>
        <time>2019-12-10T09:12:34Z</time>
      </trkpt>
      <trkpt lat="59.251211" lon="18.100897">
        <ele>27</ele>
        <time>2019-12-10T09:12:35Z</time>
      </trkpt>
      <trkpt lat="59.251169" lon="18.100867">
        <ele>28</ele>
        <time>2019-12-10T09:12:37Z</time>
      </trkpt>
      <trkpt lat="59.25113" lon="18.100832">
        <ele>28</ele>
        <time>2019-12-10T09:12:38Z</time>
      </trkpt>
      <trkpt lat="59.251091" lon="18.100797">
        <ele>28</ele>
        <time>2019-12-10T09:12:39Z</time>
      </trkpt>
      <trkpt lat="59.251053" lon="18.100761">
        <ele>28</ele>
        <time>2019-12-10T09:12:40Z</time>
      </trkpt>
      <trkpt lat="59.251016" lon="18.100725">
        <ele>29</ele>
        <time>2019-12-10T09:12:41Z</time>
      </trkpt>
      <trkpt lat="59.25098" lon="18.100688">
        <ele>29</ele>
        <time>2019-12-10T09:12:42Z</time>
      </trkpt>
      <trkpt lat="59.250944" lon="18.10065">
        <ele>29</ele>
        <time>2019-12-10T09:12:43Z</time>
      </trkpt>
      <trkpt lat="59.25091" lon="18.100608">
        <ele>0</ele>
        <time>2019-12-10T09:12:43Z</time>
      </trkpt>
      <trkpt lat="59.250877" lon="18.10056">
        <ele>29</ele>
        <time>2019-12-10T09:12:44Z</time>
      </trkpt>
      <trkpt lat="59.250848" lon="18.100507">
        <ele>29</ele>
        <time>2019-12-10T09:12:46Z</time>
      </trkpt>
      <trkpt lat="59.250821" lon="18.100449">
        <ele>29</ele>
        <time>2019-12-10T09:12:47Z</time>
      </trkpt>
      <trkpt lat="59.250795" lon="18.100391">
        <ele>29</ele>
        <time>2019-12-10T09:12:48Z</time>
      </trkpt>
      <trkpt lat="59.250772" lon="18.100332">
        <ele>30</ele>
        <time>2019-12-10T09:12:49Z</time>
      </trkpt>
      <trkpt lat="59.25075" lon="18.10027">
        <ele>30</ele>
        <time>2019-12-10T09:12:50Z</time>
      </trkpt>
      <trkpt lat="59.250726" lon="18.100208">
        <ele>30</ele>
        <time>2019-12-10T09:12:51Z</time>
      </trkpt>
      <trkpt lat="59.250699" lon="18.100149">
        <ele>30</ele>
        <time>2019-12-10T09:12:52Z</time>
      </trkpt>
      <trkpt lat="59.250671" lon="18.100098">
        <ele>30</ele>
        <time>2019-12-10T09:12:53Z</time>
      </trkpt>
      <trkpt lat="59.250641" lon="18.100048">
        <ele>0</ele>
        <time>2019-12-10T09:12:53Z</time>
      </trkpt>
      <trkpt lat="59.250614" lon="18.1">
        <ele>30</ele>
        <time>2019-12-10T09:12:54Z</time>
      </trkpt>
      <trkpt lat="59.250583" lon="18.099951">
        <ele>30</ele>
        <time>2019-12-10T09:12:56Z</time>
      </trkpt>
      <trkpt lat="59.250551" lon="18.099904">
        <ele>0</ele>
        <time>2019-12-10T09:12:56Z</time>
      </trkpt>
      <trkpt lat="59.250516" lon="18.09986">
        <ele>30</ele>
        <time>2019-12-10T09:12:57Z</time>
      </trkpt>
      <trkpt lat="59.25048" lon="18.09982">
        <ele>30</ele>
        <time>2019-12-10T09:12:59Z</time>
      </trkpt>
      <trkpt lat="59.25044" lon="18.099788">
        <ele>30</ele>
        <time>2019-12-10T09:13:00Z</time>
      </trkpt>
      <trkpt lat="59.2504" lon="18.099762">
        <ele>30</ele>
        <time>2019-12-10T09:13:01Z</time>
      </trkpt>
      <trkpt lat="59.250356" lon="18.099738">
        <ele>30</ele>
        <time>2019-12-10T09:13:02Z</time>
      </trkpt>
      <trkpt lat="59.250309" lon="18.099716">
        <ele>30</ele>
        <time>2019-12-10T09:13:03Z</time>
      </trkpt>
      <trkpt lat="59.25026" lon="18.099694">
        <ele>30</ele>
        <time>2019-12-10T09:13:04Z</time>
      </trkpt>
      <trkpt lat="59.250209" lon="18.099672">
        <ele>30</ele>
        <time>2019-12-10T09:13:05Z</time>
      </trkpt>
      <trkpt lat="59.250157" lon="18.099648">
        <ele>29</ele>
        <time>2019-12-10T09:13:06Z</time>
      </trkpt>
      <trkpt lat="59.250104" lon="18.099624">
        <ele>0</ele>
        <time>2019-12-10T09:13:06Z</time>
      </trkpt>
      <trkpt lat="59.25005" lon="18.099599">
        <ele>29</ele>
        <time>2019-12-10T09:13:07Z</time>
      </trkpt>
      <trkpt lat="59.249995" lon="18.099573">
        <ele>29</ele>
        <time>2019-12-10T09:13:09Z</time>
      </trkpt>
      <trkpt lat="59.249939" lon="18.099551">
        <ele>29</ele>
        <time>2019-12-10T09:13:10Z</time>
      </trkpt>
      <trkpt lat="59.249882" lon="18.099532">
        <ele>29</ele>
        <time>2019-12-10T09:13:11Z</time>
      </trkpt>
      <trkpt lat="59.249825" lon="18.099515">
        <ele>28</ele>
        <time>2019-12-10T09:13:12Z</time>
      </trkpt>
      <trkpt lat="59.24977" lon="18.099498">
        <ele>0</ele>
        <time>2019-12-10T09:13:12Z</time>
      </trkpt>
      <trkpt lat="59.249713" lon="18.099485">
        <ele>28</ele>
        <time>2019-12-10T09:13:13Z</time>
      </trkpt>
      <trkpt lat="59.249654" lon="18.09948">
        <ele>28</ele>
        <time>2019-12-10T09:13:15Z</time>
      </trkpt>
      <trkpt lat="59.249595" lon="18.099483">
        <ele>0</ele>
        <time>2019-12-10T09:13:15Z</time>
      </trkpt>
      <trkpt lat="59.249539" lon="18.099494">
        <ele>28</ele>
        <time>2019-12-10T09:13:16Z</time>
      </trkpt>
      <trkpt lat="59.249485" lon="18.099508">
        <ele>28</ele>
        <time>2019-12-10T09:13:18Z</time>
      </trkpt>
      <trkpt lat="59.249432" lon="18.099527">
        <ele>28</ele>
        <time>2019-12-10T09:13:19Z</time>
      </trkpt>
      <trkpt lat="59.249381" lon="18.099549">
        <ele>29</ele>
        <time>2019-12-10T09:13:20Z</time>
      </trkpt>
      <trkpt lat="59.249332" lon="18.099574">
        <ele>28</ele>
        <time>2019-12-10T09:13:21Z</time>
      </trkpt>
      <trkpt lat="59.249283" lon="18.099599">
        <ele>28</ele>
        <time>2019-12-10T09:13:22Z</time>
      </trkpt>
      <trkpt lat="59.249233" lon="18.099625">
        <ele>28</ele>
        <time>2019-12-10T09:13:23Z</time>
      </trkpt>
      <trkpt lat="59.249182" lon="18.099653">
        <ele>28</ele>
        <time>2019-12-10T09:13:24Z</time>
      </trkpt>
      <trkpt lat="59.249133" lon="18.099682">
        <ele>0</ele>
        <time>2019-12-10T09:13:24Z</time>
      </trkpt>
      <trkpt lat="59.249083" lon="18.099712">
        <ele>28</ele>
        <time>2019-12-10T09:13:25Z</time>
      </trkpt>
      <trkpt lat="59.249035" lon="18.099743">
        <ele>29</ele>
        <time>2019-12-10T09:13:27Z</time>
      </trkpt>
      <trkpt lat="59.248989" lon="18.099776">
        <ele>29</ele>
        <time>2019-12-10T09:13:28Z</time>
      </trkpt>
      <trkpt lat="59.248944" lon="18.099813">
        <ele>29</ele>
        <time>2019-12-10T09:13:29Z</time>
      </trkpt>
      <trkpt lat="59.2489" lon="18.099855">
        <ele>29</ele>
        <time>2019-12-10T09:13:30Z</time>
      </trkpt>
      <trkpt lat="59.248859" lon="18.099903">
        <ele>29</ele>
        <time>2019-12-10T09:13:31Z</time>
      </trkpt>
      <trkpt lat="59.248819" lon="18.099953">
        <ele>0</ele>
        <time>2019-12-10T09:13:31Z</time>
      </trkpt>
      <trkpt lat="59.248779" lon="18.100005">
        <ele>30</ele>
        <time>2019-12-10T09:13:32Z</time>
      </trkpt>
      <trkpt lat="59.24874" lon="18.100058">
        <ele>30</ele>
        <time>2019-12-10T09:13:34Z</time>
      </trkpt>
      <trkpt lat="59.248701" lon="18.100113">
        <ele>30</ele>
        <time>2019-12-10T09:13:35Z</time>
      </trkpt>
      <trkpt lat="59.248662" lon="18.10017">
        <ele>0</ele>
        <time>2019-12-10T09:13:35Z</time>
      </trkpt>
      <trkpt lat="59.248622" lon="18.100224">
        <ele>30</ele>
        <time>2019-12-10T09:13:36Z</time>
      </trkpt>
      <trkpt lat="59.248581" lon="18.100277">
        <ele>31</ele>
        <time>2019-12-10T09:13:38Z</time>
      </trkpt>
      <trkpt lat="59.24854" lon="18.10033">
        <ele>31</ele>
        <time>2019-12-10T09:13:39Z</time>
      </trkpt>
      <trkpt lat="59.248498" lon="18.100383">
        <ele>31</ele>
        <time>2019-12-10T09:13:40Z</time>
      </trkpt>
      <trkpt lat="59.248454" lon="18.100434">
        <ele>31</ele>
        <time>2019-12-10T09:13:41Z</time>
      </trkpt>
      <trkpt lat="59.248409" lon="18.100482">
        <ele>31</ele>
        <time>2019-12-10T09:13:42Z</time>
      </trkpt>
      <trkpt lat="59.248365" lon="18.100522">
        <ele>31</ele>
        <time>2019-12-10T09:13:43Z</time>
      </trkpt>
      <trkpt lat="59.248322" lon="18.100554">
        <ele>31</ele>
        <time>2019-12-10T09:13:44Z</time>
      </trkpt>
      <trkpt lat="59.248284" lon="18.100584">
        <ele>31</ele>
        <time>2019-12-10T09:13:45Z</time>
      </trkpt>
      <trkpt lat="59.248246" lon="18.100619">
        <ele>0</ele>
        <time>2019-12-10T09:13:45Z</time>
      </trkpt>
      <trkpt lat="59.24821" lon="18.100661">
        <ele>31</ele>
        <time>2019-12-10T09:13:46Z</time>
      </trkpt>
      <trkpt lat="59.248177" lon="18.100708">
        <ele>31</ele>
        <time>2019-12-10T09:13:48Z</time>
      </trkpt>
      <trkpt lat="59.248145" lon="18.100758">
        <ele>31</ele>
        <time>2019-12-10T09:13:49Z</time>
      </trkpt>
      <trkpt lat="59.248113" lon="18.100816">
        <ele>31</ele>
        <time>2019-12-10T09:13:50Z</time>
      </trkpt>
      <trkpt lat="59.248083" lon="18.100879">
        <ele>0</ele>
        <time>2019-12-10T09:13:50Z</time>
      </trkpt>
      <trkpt lat="59.248054" lon="18.100948">
        <ele>31</ele>
        <time>2019-12-10T09:13:51Z</time>
      </trkpt>
      <trkpt lat="59.248025" lon="18.101017">
        <ele>32</ele>
        <time>2019-12-10T09:13:53Z</time>
      </trkpt>
      <trkpt lat="59.247997" lon="18.101087">
        <ele>32</ele>
        <time>2019-12-10T09:13:54Z</time>
      </trkpt>
      <trkpt lat="59.247971" lon="18.101159">
        <ele>32</ele>
        <time>2019-12-10T09:13:55Z</time>
      </trkpt>
      <trkpt lat="59.247945" lon="18.101231">
        <ele>32</ele>
        <time>2019-12-10T09:13:56Z</time>
      </trkpt>
      <trkpt lat="59.247919" lon="18.101304">
        <ele>0</ele>
        <time>2019-12-10T09:13:56Z</time>
      </trkpt>
      <trkpt lat="59.247893" lon="18.101377">
        <ele>32</ele>
        <time>2019-12-10T09:13:57Z</time>
      </trkpt>
      <trkpt lat="59.247866" lon="18.101451">
        <ele>33</ele>
        <time>2019-12-10T09:13:59Z</time>
      </trkpt>
      <trkpt lat="59.247843" lon="18.101526">
        <ele>33</ele>
        <time>2019-12-10T09:14:00Z</time>
      </trkpt>
      <trkpt lat="59.247819" lon="18.101602">
        <ele>33</ele>
        <time>2019-12-10T09:14:01Z</time>
      </trkpt>
      <trkpt lat="59.247798" lon="18.101682">
        <ele>33</ele>
        <time>2019-12-10T09:14:02Z</time>
      </trkpt>
      <trkpt lat="59.247777" lon="18.101762">
        <ele>33</ele>
        <time>2019-12-10T09:14:03Z</time>
      </trkpt>
      <trkpt lat="59.247757" lon="18.101842">
        <ele>33</ele>
        <time>2019-12-10T09:14:04Z</time>
      </trkpt>
      <trkpt lat="59.247737" lon="18.101924">
        <ele>33</ele>
        <time>2019-12-10T09:14:05Z</time>
      </trkpt>
      <trkpt lat="59.247716" lon="18.102007">
        <ele>33</ele>
        <time>2019-12-10T09:14:06Z</time>
      </trkpt>
      <trkpt lat="59.247695" lon="18.102089">
        <ele>33</ele>
        <time>2019-12-10T09:14:07Z</time>
      </trkpt>
      <trkpt lat="59.247675" lon="18.102173">
        <ele>0</ele>
        <time>2019-12-10T09:14:07Z</time>
      </trkpt>
      <trkpt lat="59.247654" lon="18.102258">
        <ele>33</ele>
        <time>2019-12-10T09:14:08Z</time>
      </trkpt>
      <trkpt lat="59.247633" lon="18.102341">
        <ele>0</ele>
        <time>2019-12-10T09:14:09Z</time>
      </trkpt>
      <trkpt lat="59.247612" lon="18.102425">
        <ele>33</ele>
        <time>2019-12-10T09:14:10Z</time>
      </trkpt>
      <trkpt lat="59.24759" lon="18.102509">
        <ele>33</ele>
        <time>2019-12-10T09:14:12Z</time>
      </trkpt>
      <trkpt lat="59.24757" lon="18.102595">
        <ele>33</ele>
        <time>2019-12-10T09:14:13Z</time>
      </trkpt>
      <trkpt lat="59.247548" lon="18.102682">
        <ele>33</ele>
        <time>2019-12-10T09:14:14Z</time>
      </trkpt>
      <trkpt lat="59.247524" lon="18.102765">
        <ele>33</ele>
        <time>2019-12-10T09:14:15Z</time>
      </trkpt>
      <trkpt lat="59.247498" lon="18.102847">
        <ele>33</ele>
        <time>2019-12-10T09:14:16Z</time>
      </trkpt>
      <trkpt lat="59.24747" lon="18.102928">
        <ele>33</ele>
        <time>2019-12-10T09:14:17Z</time>
      </trkpt>
      <trkpt lat="59.24744" lon="18.103008">
        <ele>33</ele>
        <time>2019-12-10T09:14:18Z</time>
      </trkpt>
      <trkpt lat="59.247409" lon="18.103083">
        <ele>0</ele>
        <time>2019-12-10T09:14:18Z</time>
      </trkpt>
      <trkpt lat="59.247372" lon="18.103155">
        <ele>33</ele>
        <time>2019-12-10T09:14:19Z</time>
      </trkpt>
      <trkpt lat="59.247329" lon="18.103229">
        <ele>33</ele>
        <time>2019-12-10T09:14:21Z</time>
      </trkpt>
      <trkpt lat="59.247283" lon="18.103303">
        <ele>33</ele>
        <time>2019-12-10T09:14:22Z</time>
      </trkpt>
      <trkpt lat="59.247234" lon="18.103375">
        <ele>33</ele>
        <time>2019-12-10T09:14:23Z</time>
      </trkpt>
      <trkpt lat="59.247185" lon="18.103446">
        <ele>33</ele>
        <time>2019-12-10T09:14:24Z</time>
      </trkpt>
      <trkpt lat="59.247139" lon="18.103523">
        <ele>32</ele>
        <time>2019-12-10T09:14:25Z</time>
      </trkpt>
      <trkpt lat="59.247099" lon="18.103611">
        <ele>32</ele>
        <time>2019-12-10T09:14:26Z</time>
      </trkpt>
      <trkpt lat="59.247061" lon="18.10371">
        <ele>0</ele>
        <time>2019-12-10T09:14:26Z</time>
      </trkpt>
      <trkpt lat="59.247029" lon="18.10382">
        <ele>32</ele>
        <time>2019-12-10T09:14:27Z</time>
      </trkpt>
      <trkpt lat="59.247001" lon="18.103935">
        <ele>0</ele>
        <time>2019-12-10T09:14:28Z</time>
      </trkpt>
      <trkpt lat="59.246979" lon="18.104052">
        <ele>31</ele>
        <time>2019-12-10T09:14:29Z</time>
      </trkpt>
      <trkpt lat="59.246966" lon="18.104166">
        <ele>31</ele>
        <time>2019-12-10T09:14:31Z</time>
      </trkpt>
      <trkpt lat="59.24696" lon="18.104271">
        <ele>31</ele>
        <time>2019-12-10T09:14:32Z</time>
      </trkpt>
      <trkpt lat="59.246961" lon="18.104373">
        <ele>31</ele>
        <time>2019-12-10T09:14:33Z</time>
      </trkpt>
      <trkpt lat="59.246964" lon="18.104468">
        <ele>31</ele>
        <time>2019-12-10T09:14:34Z</time>
      </trkpt>
      <trkpt lat="59.246972" lon="18.10456">
        <ele>31</ele>
        <time>2019-12-10T09:14:35Z</time>
      </trkpt>
      <trkpt lat="59.246976" lon="18.104645">
        <ele>0</ele>
        <time>2019-12-10T09:14:35Z</time>
      </trkpt>
      <trkpt lat="59.246969" lon="18.104714">
        <ele>30</ele>
        <time>2019-12-10T09:14:36Z</time>
      </trkpt>
      <trkpt lat="59.246952" lon="18.104778">
        <ele>30</ele>
        <time>2019-12-10T09:14:38Z</time>
      </trkpt>
      <trkpt lat="59.246929" lon="18.104829">
        <ele>30</ele>
        <time>2019-12-10T09:14:39Z</time>
      </trkpt>
      <trkpt lat="59.246901" lon="18.10488">
        <ele>29</ele>
        <time>2019-12-10T09:14:40Z</time>
      </trkpt>
      <trkpt lat="59.246868" lon="18.10493">
        <ele>29</ele>
        <time>2019-12-10T09:14:41Z</time>
      </trkpt>
      <trkpt lat="59.246832" lon="18.10498">
        <ele>29</ele>
        <time>2019-12-10T09:14:42Z</time>
      </trkpt>
      <trkpt lat="59.246794" lon="18.10503">
        <ele>29</ele>
        <time>2019-12-10T09:14:43Z</time>
      </trkpt>
      <trkpt lat="59.246756" lon="18.105079">
        <ele>29</ele>
        <time>2019-12-10T09:14:44Z</time>
      </trkpt>
      <trkpt lat="59.246718" lon="18.10513">
        <ele>29</ele>
        <time>2019-12-10T09:14:45Z</time>
      </trkpt>
      <trkpt lat="59.24668" lon="18.105182">
        <ele>29</ele>
        <time>2019-12-10T09:14:46Z</time>
      </trkpt>
      <trkpt lat="59.246642" lon="18.105234">
        <ele>29</ele>
        <time>2019-12-10T09:14:47Z</time>
      </trkpt>
      <trkpt lat="59.246605" lon="18.105282">
        <ele>0</ele>
        <time>2019-12-10T09:14:47Z</time>
      </trkpt>
      <trkpt lat="59.246567" lon="18.10532">
        <ele>29</ele>
        <time>2019-12-10T09:14:48Z</time>
      </trkpt>
      <trkpt lat="59.24653" lon="18.105344">
        <ele>29</ele>
        <time>2019-12-10T09:14:50Z</time>
      </trkpt>
      <trkpt lat="59.246495" lon="18.105359">
        <ele>29</ele>
        <time>2019-12-10T09:14:51Z</time>
      </trkpt>
      <trkpt lat="59.246457" lon="18.105371">
        <ele>29</ele>
        <time>2019-12-10T09:14:52Z</time>
      </trkpt>
      <trkpt lat="59.246416" lon="18.105379">
        <ele>29</ele>
        <time>2019-12-10T09:14:53Z</time>
      </trkpt>
      <trkpt lat="59.246374" lon="18.105387">
        <ele>29</ele>
        <time>2019-12-10T09:14:54Z</time>
      </trkpt>
      <trkpt lat="59.246331" lon="18.105394">
        <ele>29</ele>
        <time>2019-12-10T09:14:55Z</time>
      </trkpt>
      <trkpt lat="59.246289" lon="18.105404">
        <ele>29</ele>
        <time>2019-12-10T09:14:56Z</time>
      </trkpt>
      <trkpt lat="59.246245" lon="18.105424">
        <ele>29</ele>
        <time>2019-12-10T09:14:57Z</time>
      </trkpt>
      <trkpt lat="59.246205" lon="18.105456">
        <ele>29</ele>
        <time>2019-12-10T09:14:58Z</time>
      </trkpt>
      <trkpt lat="59.246169" lon="18.105496">
        <ele>30</ele>
        <time>2019-12-10T09:14:59Z</time>
      </trkpt>
      <trkpt lat="59.246138" lon="18.10554">
        <ele>0</ele>
        <time>2019-12-10T09:14:59Z</time>
      </trkpt>
      <trkpt lat="59.246107" lon="18.105582">
        <ele>30</ele>
        <time>2019-12-10T09:15:00Z</time>
      </trkpt>
      <trkpt lat="59.246076" lon="18.105624">
        <ele>31</ele>
        <time>2019-12-10T09:15:02Z</time>
      </trkpt>
      <trkpt lat="59.246045" lon="18.105669">
        <ele>32</ele>
        <time>2019-12-10T09:15:03Z</time>
      </trkpt>
      <trkpt lat="59.246014" lon="18.105716">
        <ele>32</ele>
        <time>2019-12-10T09:15:04Z</time>
      </trkpt>
      <trkpt lat="59.245982" lon="18.105767">
        <ele>32</ele>
        <time>2019-12-10T09:15:05Z</time>
      </trkpt>
      <trkpt lat="59.245948" lon="18.105819">
        <ele>32</ele>
        <time>2019-12-10T09:15:06Z</time>
      </trkpt>
      <trkpt lat="59.245915" lon="18.105872">
        <ele>0</ele>
        <time>2019-12-10T09:15:06Z</time>
      </trkpt>
      <trkpt lat="59.245879" lon="18.105923">
        <ele>32</ele>
        <time>2019-12-10T09:15:07Z</time>
      </trkpt>
      <trkpt lat="59.245843" lon="18.105972">
        <ele>33</ele>
        <time>2019-12-10T09:15:09Z</time>
      </trkpt>
      <trkpt lat="59.245807" lon="18.106022">
        <ele>33</ele>
        <time>2019-12-10T09:15:10Z</time>
      </trkpt>
      <trkpt lat="59.245773" lon="18.10607">
        <ele>33</ele>
        <time>2019-12-10T09:15:11Z</time>
      </trkpt>
      <trkpt lat="59.24574" lon="18.106119">
        <ele>0</ele>
        <time>2019-12-10T09:15:11Z</time>
      </trkpt>
      <trkpt lat="59.245708" lon="18.106171">
        <ele>33</ele>
        <time>2019-12-10T09:15:12Z</time>
      </trkpt>
      <trkpt lat="59.245675" lon="18.10622">
        <ele>33</ele>
        <time>2019-12-10T09:15:14Z</time>
      </trkpt>
      <trkpt lat="59.245641" lon="18.106269">
        <ele>33</ele>
        <time>2019-12-10T09:15:15Z</time>
      </trkpt>
      <trkpt lat="59.245609" lon="18.106321">
        <ele>33</ele>
        <time>2019-12-10T09:15:16Z</time>
      </trkpt>
      <trkpt lat="59.245578" lon="18.106373">
        <ele>33</ele>
        <time>2019-12-10T09:15:17Z</time>
      </trkpt>
      <trkpt lat="59.245548" lon="18.106426">
        <ele>34</ele>
        <time>2019-12-10T09:15:18Z</time>
      </trkpt>
      <trkpt lat="59.245516" lon="18.106478">
        <ele>34</ele>
        <time>2019-12-10T09:15:19Z</time>
      </trkpt>
      <trkpt lat="59.245487" lon="18.106532">
        <ele>34</ele>
        <time>2019-12-10T09:15:20Z</time>
      </trkpt>
      <trkpt lat="59.245458" lon="18.106587">
        <ele>34</ele>
        <time>2019-12-10T09:15:21Z</time>
      </trkpt>
      <trkpt lat="59.245428" lon="18.106642">
        <ele>34</ele>
        <time>2019-12-10T09:15:22Z</time>
      </trkpt>
      <trkpt lat="59.245398" lon="18.106696">
        <ele>34</ele>
        <time>2019-12-10T09:15:23Z</time>
      </trkpt>
      <trkpt lat="59.245369" lon="18.106749">
        <ele>0</ele>
        <time>2019-12-10T09:15:23Z</time>
      </trkpt>
      <trkpt lat="59.24534" lon="18.1068">
        <ele>34</ele>
        <time>2019-12-10T09:15:24Z</time>
      </trkpt>
      <trkpt lat="59.24531" lon="18.10685">
        <ele>0</ele>
        <time>2019-12-10T09:15:25Z</time>
      </trkpt>
      <trkpt lat="59.245279" lon="18.106904">
        <ele>34</ele>
        <time>2019-12-10T09:15:26Z</time>
      </trkpt>
      <trkpt lat="59.24525" lon="18.106959">
        <ele>34</ele>
        <time>2019-12-10T09:15:28Z</time>
      </trkpt>
      <trkpt lat="59.245219" lon="18.107016">
        <ele>34</ele>
        <time>2019-12-10T09:15:29Z</time>
      </trkpt>
      <trkpt lat="59.24519" lon="18.10707">
        <ele>34</ele>
        <time>2019-12-10T09:15:30Z</time>
      </trkpt>
      <trkpt lat="59.245159" lon="18.107123">
        <ele>34</ele>
        <time>2019-12-10T09:15:31Z</time>
      </trkpt>
      <trkpt lat="59.245128" lon="18.107176">
        <ele>34</ele>
        <time>2019-12-10T09:15:32Z</time>
      </trkpt>
      <trkpt lat="59.245098" lon="18.107229">
        <ele>34</ele>
        <time>2019-12-10T09:15:33Z</time>
      </trkpt>
      <trkpt lat="59.245067" lon="18.107281">
        <ele>34</ele>
        <time>2019-12-10T09:15:34Z</time>
      </trkpt>
      <trkpt lat="59.245036" lon="18.107335">
        <ele>34</ele>
        <time>2019-12-10T09:15:35Z</time>
      </trkpt>
      <trkpt lat="59.245005" lon="18.107388">
        <ele>35</ele>
        <time>2019-12-10T09:15:36Z</time>
      </trkpt>
      <trkpt lat="59.244975" lon="18.107441">
        <ele>0</ele>
        <time>2019-12-10T09:15:36Z</time>
      </trkpt>
      <trkpt lat="59.244945" lon="18.107489">
        <ele>35</ele>
        <time>2019-12-10T09:15:37Z</time>
      </trkpt>
      <trkpt lat="59.244913" lon="18.107537">
        <ele>35</ele>
        <time>2019-12-10T09:15:39Z</time>
      </trkpt>
      <trkpt lat="59.244883" lon="18.107585">
        <ele>36</ele>
        <time>2019-12-10T09:15:40Z</time>
      </trkpt>
      <trkpt lat="59.244855" lon="18.107637">
        <ele>36</ele>
        <time>2019-12-10T09:15:41Z</time>
      </trkpt>
      <trkpt lat="59.244824" lon="18.107692">
        <ele>36</ele>
        <time>2019-12-10T09:15:42Z</time>
      </trkpt>
      <trkpt lat="59.244793" lon="18.107749">
        <ele>36</ele>
        <time>2019-12-10T09:15:43Z</time>
      </trkpt>
      <trkpt lat="59.244762" lon="18.107804">
        <ele>36</ele>
        <time>2019-12-10T09:15:44Z</time>
      </trkpt>
      <trkpt lat="59.24473" lon="18.107862">
        <ele>0</ele>
        <time>2019-12-10T09:15:44Z</time>
      </trkpt>
      <trkpt lat="59.244697" lon="18.107919">
        <ele>36</ele>
        <time>2019-12-10T09:15:45Z</time>
      </trkpt>
      <trkpt lat="59.244662" lon="18.107978">
        <ele>37</ele>
        <time>2019-12-10T09:15:47Z</time>
      </trkpt>
      <trkpt lat="59.244627" lon="18.108038">
        <ele>0</ele>
        <time>2019-12-10T09:15:47Z</time>
      </trkpt>
      <trkpt lat="59.244593" lon="18.1081">
        <ele>37</ele>
        <time>2019-12-10T09:15:48Z</time>
      </trkpt>
      <trkpt lat="59.244558" lon="18.108166">
        <ele>37</ele>
        <time>2019-12-10T09:15:50Z</time>
      </trkpt>
      <trkpt lat="59.244522" lon="18.108235">
        <ele>37</ele>
        <time>2019-12-10T09:15:51Z</time>
      </trkpt>
      <trkpt lat="59.244487" lon="18.108302">
        <ele>37</ele>
        <time>2019-12-10T09:15:52Z</time>
      </trkpt>
      <trkpt lat="59.24445" lon="18.108371">
        <ele>37</ele>
        <time>2019-12-10T09:15:53Z</time>
      </trkpt>
      <trkpt lat="59.244413" lon="18.108442">
        <ele>37</ele>
        <time>2019-12-10T09:15:54Z</time>
      </trkpt>
      <trkpt lat="59.244376" lon="18.10851">
        <ele>37</ele>
        <time>2019-12-10T09:15:55Z</time>
      </trkpt>
      <trkpt lat="59.244338" lon="18.108583">
        <ele>37</ele>
        <time>2019-12-10T09:15:56Z</time>
      </trkpt>
      <trkpt lat="59.244301" lon="18.108658">
        <ele>37</ele>
        <time>2019-12-10T09:15:57Z</time>
      </trkpt>
      <trkpt lat="59.244266" lon="18.108739">
        <ele>0</ele>
        <time>2019-12-10T09:15:57Z</time>
      </trkpt>
      <trkpt lat="59.244229" lon="18.108819">
        <ele>36</ele>
        <time>2019-12-10T09:15:58Z</time>
      </trkpt>
      <trkpt lat="59.24419" lon="18.108898">
        <ele>36</ele>
        <time>2019-12-10T09:16:00Z</time>
      </trkpt>
      <trkpt lat="59.244152" lon="18.108981">
        <ele>36</ele>
        <time>2019-12-10T09:16:01Z</time>
      </trkpt>
      <trkpt lat="59.244116" lon="18.109069">
        <ele>35</ele>
        <time>2019-12-10T09:16:02Z</time>
      </trkpt>
      <trkpt lat="59.244084" lon="18.10916">
        <ele>35</ele>
        <time>2019-12-10T09:16:03Z</time>
      </trkpt>
      <trkpt lat="59.244055" lon="18.109254">
        <ele>0</ele>
        <time>2019-12-10T09:16:03Z</time>
      </trkpt>
      <trkpt lat="59.244029" lon="18.109353">
        <ele>35</ele>
        <time>2019-12-10T09:16:04Z</time>
      </trkpt>
      <trkpt lat="59.244006" lon="18.109456">
        <ele>35</ele>
        <time>2019-12-10T09:16:06Z</time>
      </trkpt>
      <trkpt lat="59.243984" lon="18.109564">
        <ele>0</ele>
        <time>2019-12-10T09:16:06Z</time>
      </trkpt>
      <trkpt lat="59.243966" lon="18.109677">
        <ele>35</ele>
        <time>2019-12-10T09:16:07Z</time>
      </trkpt>
      <trkpt lat="59.24395" lon="18.109792">
        <ele>34</ele>
        <time>2019-12-10T09:16:09Z</time>
      </trkpt>
      <trkpt lat="59.243938" lon="18.109906">
        <ele>34</ele>
        <time>2019-12-10T09:16:10Z</time>
      </trkpt>
      <trkpt lat="59.243928" lon="18.110021">
        <ele>34</ele>
        <time>2019-12-10T09:16:11Z</time>
      </trkpt>
      <trkpt lat="59.24392" lon="18.110138">
        <ele>34</ele>
        <time>2019-12-10T09:16:12Z</time>
      </trkpt>
      <trkpt lat="59.243914" lon="18.110256">
        <ele>34</ele>
        <time>2019-12-10T09:16:13Z</time>
      </trkpt>
      <trkpt lat="59.243913" lon="18.110376">
        <ele>34</ele>
        <time>2019-12-10T09:16:14Z</time>
      </trkpt>
      <trkpt lat="59.243914" lon="18.110497">
        <ele>0</ele>
        <time>2019-12-10T09:16:14Z</time>
      </trkpt>
      <trkpt lat="59.243914" lon="18.110619">
        <ele>34</ele>
        <time>2019-12-10T09:16:15Z</time>
      </trkpt>
      <trkpt lat="59.243912" lon="18.110744">
        <ele>34</ele>
        <time>2019-12-10T09:16:17Z</time>
      </trkpt>
      <trkpt lat="59.243909" lon="18.110873">
        <ele>33</ele>
        <time>2019-12-10T09:16:18Z</time>
      </trkpt>
      <trkpt lat="59.243909" lon="18.111008">
        <ele>33</ele>
        <time>2019-12-10T09:16:19Z</time>
      </trkpt>
      <trkpt lat="59.243908" lon="18.11114">
        <ele>33</ele>
        <time>2019-12-10T09:16:20Z</time>
      </trkpt>
      <trkpt lat="59.243907" lon="18.111273">
        <ele>32</ele>
        <time>2019-12-10T09:16:21Z</time>
      </trkpt>
      <trkpt lat="59.243907" lon="18.111408">
        <ele>0</ele>
        <time>2019-12-10T09:16:21Z</time>
      </trkpt>
      <trkpt lat="59.243906" lon="18.111543">
        <ele>32</ele>
        <time>2019-12-10T09:16:22Z</time>
      </trkpt>
      <trkpt lat="59.243907" lon="18.111678">
        <ele>31</ele>
        <time>2019-12-10T09:16:23Z</time>
      </trkpt>
      <trkpt lat="59.243907" lon="18.111812">
        <ele>31</ele>
        <time>2019-12-10T09:16:25Z</time>
      </trkpt>
      <trkpt lat="59.243906" lon="18.111944">
        <ele>30</ele>
        <time>2019-12-10T09:16:26Z</time>
      </trkpt>
      <trkpt lat="59.243904" lon="18.112076">
        <ele>30</ele>
        <time>2019-12-10T09:16:27Z</time>
      </trkpt>
      <trkpt lat="59.243903" lon="18.112207">
        <ele>30</ele>
        <time>2019-12-10T09:16:28Z</time>
      </trkpt>
      <trkpt lat="59.2439" lon="18.112338">
        <ele>30</ele>
        <time>2019-12-10T09:16:29Z</time>
      </trkpt>
      <trkpt lat="59.243896" lon="18.112467">
        <ele>0</ele>
        <time>2019-12-10T09:16:29Z</time>
      </trkpt>
      <trkpt lat="59.243892" lon="18.112595">
        <ele>30</ele>
        <time>2019-12-10T09:16:30Z</time>
      </trkpt>
      <trkpt lat="59.243888" lon="18.112722">
        <ele>30</ele>
        <time>2019-12-10T09:16:32Z</time>
      </trkpt>
      <trkpt lat="59.243883" lon="18.112848">
        <ele>30</ele>
        <time>2019-12-10T09:16:33Z</time>
      </trkpt>
      <trkpt lat="59.243877" lon="18.112972">
        <ele>30</ele>
        <time>2019-12-10T09:16:34Z</time>
      </trkpt>
      <trkpt lat="59.243869" lon="18.113094">
        <ele>30</ele>
        <time>2019-12-10T09:16:35Z</time>
      </trkpt>
      <trkpt lat="59.243861" lon="18.113214">
        <ele>29</ele>
        <time>2019-12-10T09:16:36Z</time>
      </trkpt>
      <trkpt lat="59.243851" lon="18.113331">
        <ele>29</ele>
        <time>2019-12-10T09:16:37Z</time>
      </trkpt>
      <trkpt lat="59.243841" lon="18.113448">
        <ele>0</ele>
        <time>2019-12-10T09:16:37Z</time>
      </trkpt>
      <trkpt lat="59.243831" lon="18.113564">
        <ele>29</ele>
        <time>2019-12-10T09:16:38Z</time>
      </trkpt>
      <trkpt lat="59.24382" lon="18.113676">
        <ele>30</ele>
        <time>2019-12-10T09:16:40Z</time>
      </trkpt>
      <trkpt lat="59.243808" lon="18.11379">
        <ele>30</ele>
        <time>2019-12-10T09:16:41Z</time>
      </trkpt>
      <trkpt lat="59.243795" lon="18.113903">
        <ele>0</ele>
        <time>2019-12-10T09:16:41Z</time>
      </trkpt>
      <trkpt lat="59.24378" lon="18.114016">
        <ele>30</ele>
        <time>2019-12-10T09:16:42Z</time>
      </trkpt>
      <trkpt lat="59.243764" lon="18.114127">
        <ele>30</ele>
        <time>2019-12-10T09:16:44Z</time>
      </trkpt>
      <trkpt lat="59.243748" lon="18.11424">
        <ele>30</ele>
        <time>2019-12-10T09:16:45Z</time>
      </trkpt>
      <trkpt lat="59.243732" lon="18.114353">
        <ele>0</ele>
        <time>2019-12-10T09:16:45Z</time>
      </trkpt>
      <trkpt lat="59.243716" lon="18.114465">
        <ele>30</ele>
        <time>2019-12-10T09:16:46Z</time>
      </trkpt>
      <trkpt lat="59.243699" lon="18.114577">
        <ele>30</ele>
        <time>2019-12-10T09:16:48Z</time>
      </trkpt>
      <trkpt lat="59.243681" lon="18.114688">
        <ele>30</ele>
        <time>2019-12-10T09:16:49Z</time>
      </trkpt>
      <trkpt lat="59.243663" lon="18.114796">
        <ele>30</ele>
        <time>2019-12-10T09:16:50Z</time>
      </trkpt>
      <trkpt lat="59.243645" lon="18.114905">
        <ele>30</ele>
        <time>2019-12-10T09:16:51Z</time>
      </trkpt>
      <trkpt lat="59.243627" lon="18.115013">
        <ele>29</ele>
        <time>2019-12-10T09:16:52Z</time>
      </trkpt>
      <trkpt lat="59.243611" lon="18.115123">
        <ele>29</ele>
        <time>2019-12-10T09:16:53Z</time>
      </trkpt>
      <trkpt lat="59.2436" lon="18.115235">
        <ele>29</ele>
        <time>2019-12-10T09:16:54Z</time>
      </trkpt>
      <trkpt lat="59.243589" lon="18.115348">
        <ele>0</ele>
        <time>2019-12-10T09:16:54Z</time>
      </trkpt>
      <trkpt lat="59.243578" lon="18.11546">
        <ele>29</ele>
        <time>2019-12-10T09:16:55Z</time>
      </trkpt>
      <trkpt lat="59.243564" lon="18.115568">
        <ele>28</ele>
        <time>2019-12-10T09:16:57Z</time>
      </trkpt>
      <trkpt lat="59.243546" lon="18.115672">
        <ele>28</ele>
        <time>2019-12-10T09:16:58Z</time>
      </trkpt>
      <trkpt lat="59.243522" lon="18.115774">
        <ele>28</ele>
        <time>2019-12-10T09:16:59Z</time>
      </trkpt>
      <trkpt lat="59.243494" lon="18.115874">
        <ele>28</ele>
        <time>2019-12-10T09:17:00Z</time>
      </trkpt>
      <trkpt lat="59.243464" lon="18.115973">
        <ele>0</ele>
        <time>2019-12-10T09:17:00Z</time>
      </trkpt>
      <trkpt lat="59.243431" lon="18.116071">
        <ele>28</ele>
        <time>2019-12-10T09:17:01Z</time>
      </trkpt>
      <trkpt lat="59.243397" lon="18.116169">
        <ele>0</ele>
        <time>2019-12-10T09:17:02Z</time>
      </trkpt>
      <trkpt lat="59.243364" lon="18.116268">
        <ele>28</ele>
        <time>2019-12-10T09:17:03Z</time>
      </trkpt>
      <trkpt lat="59.243332" lon="18.11637">
        <ele>27</ele>
        <time>2019-12-10T09:17:05Z</time>
      </trkpt>
      <trkpt lat="59.243299" lon="18.116471">
        <ele>27</ele>
        <time>2019-12-10T09:17:06Z</time>
      </trkpt>
      <trkpt lat="59.243268" lon="18.116572">
        <ele>27</ele>
        <time>2019-12-10T09:17:07Z</time>
      </trkpt>
      <trkpt lat="59.243237" lon="18.116674">
        <ele>27</ele>
        <time>2019-12-10T09:17:08Z</time>
      </trkpt>
      <trkpt lat="59.243206" lon="18.116775">
        <ele>27</ele>
        <time>2019-12-10T09:17:09Z</time>
      </trkpt>
      <trkpt lat="59.243174" lon="18.116877">
        <ele>27</ele>
        <time>2019-12-10T09:17:10Z</time>
      </trkpt>
      <trkpt lat="59.243142" lon="18.116979">
        <ele>27</ele>
        <time>2019-12-10T09:17:11Z</time>
      </trkpt>
      <trkpt lat="59.24311" lon="18.117083">
        <ele>0</ele>
        <time>2019-12-10T09:17:11Z</time>
      </trkpt>
      <trkpt lat="59.243078" lon="18.117186">
        <ele>27</ele>
        <time>2019-12-10T09:17:12Z</time>
      </trkpt>
      <trkpt lat="59.243046" lon="18.117289">
        <ele>26</ele>
        <time>2019-12-10T09:17:14Z</time>
      </trkpt>
      <trkpt lat="59.243012" lon="18.117392">
        <ele>26</ele>
        <time>2019-12-10T09:17:15Z</time>
      </trkpt>
      <trkpt lat="59.24298" lon="18.117496">
        <ele>26</ele>
        <time>2019-12-10T09:17:16Z</time>
      </trkpt>
      <trkpt lat="59.242947" lon="18.117599">
        <ele>26</ele>
        <time>2019-12-10T09:17:17Z</time>
      </trkpt>
      <trkpt lat="59.242915" lon="18.117701">
        <ele>26</ele>
        <time>2019-12-10T09:17:18Z</time>
      </trkpt>
      <trkpt lat="59.242882" lon="18.117804">
        <ele>26</ele>
        <time>2019-12-10T09:17:19Z</time>
      </trkpt>
      <trkpt lat="59.242851" lon="18.117907">
        <ele>0</ele>
        <time>2019-12-10T09:17:19Z</time>
      </trkpt>
      <trkpt lat="59.24282" lon="18.118009">
        <ele>26</ele>
        <time>2019-12-10T09:17:20Z</time>
      </trkpt>
      <trkpt lat="59.24279" lon="18.118109">
        <ele>26</ele>
        <time>2019-12-10T09:17:22Z</time>
      </trkpt>
      <trkpt lat="59.242759" lon="18.118208">
        <ele>26</ele>
        <time>2019-12-10T09:17:23Z</time>
      </trkpt>
      <trkpt lat="59.242729" lon="18.118307">
        <ele>26</ele>
        <time>2019-12-10T09:17:24Z</time>
      </trkpt>
      <trkpt lat="59.2427" lon="18.118404">
        <ele>26</ele>
        <time>2019-12-10T09:17:25Z</time>
      </trkpt>
      <trkpt lat="59.242671" lon="18.118502">
        <ele>26</ele>
        <time>2019-12-10T09:17:26Z</time>
      </trkpt>
      <trkpt lat="59.24264" lon="18.118598">
        <ele>26</ele>
        <time>2019-12-10T09:17:27Z</time>
      </trkpt>
      <trkpt lat="59.242608" lon="18.118693">
        <ele>0</ele>
        <time>2019-12-10T09:17:27Z</time>
      </trkpt>
      <trkpt lat="59.242573" lon="18.118782">
        <ele>26</ele>
        <time>2019-12-10T09:17:28Z</time>
      </trkpt>
      <trkpt lat="59.242536" lon="18.118865">
        <ele>26</ele>
        <time>2019-12-10T09:17:30Z</time>
      </trkpt>
      <trkpt lat="59.242497" lon="18.118942">
        <ele>26</ele>
        <time>2019-12-10T09:17:31Z</time>
      </trkpt>
      <trkpt lat="59.242453" lon="18.119011">
        <ele>26</ele>
        <time>2019-12-10T09:17:32Z</time>
      </trkpt>
      <trkpt lat="59.242407" lon="18.119072">
        <ele>26</ele>
        <time>2019-12-10T09:17:33Z</time>
      </trkpt>
      <trkpt lat="59.242357" lon="18.119122">
        <ele>26</ele>
        <time>2019-12-10T09:17:34Z</time>
      </trkpt>
      <trkpt lat="59.242305" lon="18.119166">
        <ele>26</ele>
        <time>2019-12-10T09:17:35Z</time>
      </trkpt>
      <trkpt lat="59.242251" lon="18.119206">
        <ele>27</ele>
        <time>2019-12-10T09:17:36Z</time>
      </trkpt>
      <trkpt lat="59.242199" lon="18.119239">
        <ele>0</ele>
        <time>2019-12-10T09:17:36Z</time>
      </trkpt>
      <trkpt lat="59.242147" lon="18.119268">
        <ele>27</ele>
        <time>2019-12-10T09:17:37Z</time>
      </trkpt>
      <trkpt lat="59.242095" lon="18.119294">
        <ele>0</ele>
        <time>2019-12-10T09:17:38Z</time>
      </trkpt>
      <trkpt lat="59.242043" lon="18.119318">
        <ele>26</ele>
        <time>2019-12-10T09:17:39Z</time>
      </trkpt>
      <trkpt lat="59.241991" lon="18.119341">
        <ele>26</ele>
        <time>2019-12-10T09:17:41Z</time>
      </trkpt>
      <trkpt lat="59.241943" lon="18.119365">
        <ele>26</ele>
        <time>2019-12-10T09:17:42Z</time>
      </trkpt>
      <trkpt lat="59.241897" lon="18.11939">
        <ele>26</ele>
        <time>2019-12-10T09:17:43Z</time>
      </trkpt>
      <trkpt lat="59.241854" lon="18.119407">
        <ele>26</ele>
        <time>2019-12-10T09:17:44Z</time>
      </trkpt>
      <trkpt lat="59.24181" lon="18.11941">
        <ele>26</ele>
        <time>2019-12-10T09:17:45Z</time>
      </trkpt>
      <trkpt lat="59.241764" lon="18.119396">
        <ele>26</ele>
        <time>2019-12-10T09:17:46Z</time>
      </trkpt>
      <trkpt lat="59.241717" lon="18.119371">
        <ele>0</ele>
        <time>2019-12-10T09:17:46Z</time>
      </trkpt>
      <trkpt lat="59.241669" lon="18.119339">
        <ele>26</ele>
        <time>2019-12-10T09:17:47Z</time>
      </trkpt>
      <trkpt lat="59.241622" lon="18.11931">
        <ele>26</ele>
        <time>2019-12-10T09:17:49Z</time>
      </trkpt>
      <trkpt lat="59.241574" lon="18.119291">
        <ele>26</ele>
        <time>2019-12-10T09:17:50Z</time>
      </trkpt>
      <trkpt lat="59.241534" lon="18.11927">
        <ele>25</ele>
        <time>2019-12-10T09:17:51Z</time>
      </trkpt>
      <trkpt lat="59.241496" lon="18.119245">
        <ele>25</ele>
        <time>2019-12-10T09:17:52Z</time>
      </trkpt>
      <trkpt lat="59.241447" lon="18.119226">
        <ele>25</ele>
        <time>2019-12-10T09:17:53Z</time>
      </trkpt>
      <trkpt lat="59.241387" lon="18.119207">
        <ele>25</ele>
        <time>2019-12-10T09:17:54Z</time>
      </trkpt>
      <trkpt lat="59.241331" lon="18.119191">
        <ele>25</ele>
        <time>2019-12-10T09:17:55Z</time>
      </trkpt>
      <trkpt lat="59.241276" lon="18.119196">
        <ele>25</ele>
        <time>2019-12-10T09:17:56Z</time>
      </trkpt>
      <trkpt lat="59.241225" lon="18.119215">
        <ele>0</ele>
        <time>2019-12-10T09:17:56Z</time>
      </trkpt>
      <trkpt lat="59.241184" lon="18.119254">
        <ele>25</ele>
        <time>2019-12-10T09:17:57Z</time>
      </trkpt>
      <trkpt lat="59.241161" lon="18.119301">
        <ele>25</ele>
        <time>2019-12-10T09:17:58Z</time>
      </trkpt>
      <trkpt lat="59.241153" lon="18.119355">
        <ele>25</ele>
        <time>2019-12-10T09:18:00Z</time>
      </trkpt>
      <trkpt lat="59.241157" lon="18.119414">
        <ele>25</ele>
        <time>2019-12-10T09:18:01Z</time>
      </trkpt>
      <trkpt lat="59.241164" lon="18.11948">
        <ele>24</ele>
        <time>2019-12-10T09:18:02Z</time>
      </trkpt>
      <trkpt lat="59.241166" lon="18.119544">
        <ele>24</ele>
        <time>2019-12-10T09:18:03Z</time>
      </trkpt>
      <trkpt lat="59.241168" lon="18.119606">
        <ele>24</ele>
        <time>2019-12-10T09:18:04Z</time>
      </trkpt>
      <trkpt lat="59.24117" lon="18.11967">
        <ele>24</ele>
        <time>2019-12-10T09:18:05Z</time>
      </trkpt>
      <trkpt lat="59.241164" lon="18.119732">
        <ele>24</ele>
        <time>2019-12-10T09:18:06Z</time>
      </trkpt>
      <trkpt lat="59.241153" lon="18.119786">
        <ele>24</ele>
        <time>2019-12-10T09:18:07Z</time>
      </trkpt>
      <trkpt lat="59.241137" lon="18.119806">
        <ele>24</ele>
        <time>2019-12-10T09:18:08Z</time>
      </trkpt>
      <trkpt lat="59.24112" lon="18.11979">
        <ele>24</ele>
        <time>2019-12-10T09:18:09Z</time>
      </trkpt>
      <trkpt lat="59.24109" lon="18.11975">
        <ele>24</ele>
        <time>2019-12-10T09:18:10Z</time>
      </trkpt>
      <trkpt lat="59.241054" lon="18.119686">
        <ele>24</ele>
        <time>2019-12-10T09:18:11Z</time>
      </trkpt>
      <trkpt lat="59.241005" lon="18.119634">
        <ele>0</ele>
        <time>2019-12-10T09:18:11Z</time>
      </trkpt>
      <trkpt lat="59.240951" lon="18.119608">
        <ele>24</ele>
        <time>2019-12-10T09:18:12Z</time>
      </trkpt>
      <trkpt lat="59.240894" lon="18.119584">
        <ele>24</ele>
        <time>2019-12-10T09:18:14Z</time>
      </trkpt>
      <trkpt lat="59.240838" lon="18.11956">
        <ele>24</ele>
        <time>2019-12-10T09:18:15Z</time>
      </trkpt>
      <trkpt lat="59.240786" lon="18.11954">
        <ele>24</ele>
        <time>2019-12-10T09:18:16Z</time>
      </trkpt>
      <trkpt lat="59.24073" lon="18.119526">
        <ele>0</ele>
        <time>2019-12-10T09:18:16Z</time>
      </trkpt>
      <trkpt lat="59.240676" lon="18.119528">
        <ele>24</ele>
        <time>2019-12-10T09:18:17Z</time>
      </trkpt>
      <trkpt lat="59.240622" lon="18.119542">
        <ele>24</ele>
        <time>2019-12-10T09:18:19Z</time>
      </trkpt>
      <trkpt lat="59.240574" lon="18.11955">
        <ele>24</ele>
        <time>2019-12-10T09:18:20Z</time>
      </trkpt>
      <trkpt lat="59.240532" lon="18.119538">
        <ele>0</ele>
        <time>2019-12-10T09:18:20Z</time>
      </trkpt>
      <trkpt lat="59.240492" lon="18.119504">
        <ele>24</ele>
        <time>2019-12-10T09:18:21Z</time>
      </trkpt>
      <trkpt lat="59.24046" lon="18.11946">
        <ele>24</ele>
        <time>2019-12-10T09:18:23Z</time>
      </trkpt>
      <trkpt lat="59.240428" lon="18.119421">
        <ele>24</ele>
        <time>2019-12-10T09:18:24Z</time>
      </trkpt>
      <trkpt lat="59.240394" lon="18.119398">
        <ele>24</ele>
        <time>2019-12-10T09:18:25Z</time>
      </trkpt>
      <trkpt lat="59.240356" lon="18.119394">
        <ele>0</ele>
        <time>2019-12-10T09:18:25Z</time>
      </trkpt>
      <trkpt lat="59.240316" lon="18.119402">
        <ele>24</ele>
        <time>2019-12-10T09:18:26Z</time>
      </trkpt>
      <trkpt lat="59.240274" lon="18.119412">
        <ele>24</ele>
        <time>2019-12-10T09:18:28Z</time>
      </trkpt>
      <trkpt lat="59.24023" lon="18.11943">
        <ele>24</ele>
        <time>2019-12-10T09:18:29Z</time>
      </trkpt>
      <trkpt lat="59.240186" lon="18.119452">
        <ele>24</ele>
        <time>2019-12-10T09:18:30Z</time>
      </trkpt>
      <trkpt lat="59.24014" lon="18.119472">
        <ele>24</ele>
        <time>2019-12-10T09:18:31Z</time>
      </trkpt>
      <trkpt lat="59.240093" lon="18.119494">
        <ele>24</ele>
        <time>2019-12-10T09:18:32Z</time>
      </trkpt>
      <trkpt lat="59.240046" lon="18.119516">
        <ele>0</ele>
        <time>2019-12-10T09:18:32Z</time>
      </trkpt>
      <trkpt lat="59.239997" lon="18.119536">
        <ele>24</ele>
        <time>2019-12-10T09:18:33Z</time>
      </trkpt>
      <trkpt lat="59.239948" lon="18.119556">
        <ele>24</ele>
        <time>2019-12-10T09:18:35Z</time>
      </trkpt>
      <trkpt lat="59.2399" lon="18.119574">
        <ele>0</ele>
        <time>2019-12-10T09:18:35Z</time>
      </trkpt>
      <trkpt lat="59.23985" lon="18.119592">
        <ele>24</ele>
        <time>2019-12-10T09:18:36Z</time>
      </trkpt>
      <trkpt lat="59.2398" lon="18.119614">
        <ele>24</ele>
        <time>2019-12-10T09:18:38Z</time>
      </trkpt>
      <trkpt lat="59.23975" lon="18.119638">
        <ele>25</ele>
        <time>2019-12-10T09:18:39Z</time>
      </trkpt>
      <trkpt lat="59.239702" lon="18.11966">
        <ele>25</ele>
        <time>2019-12-10T09:18:40Z</time>
      </trkpt>
      <trkpt lat="59.239653" lon="18.119678">
        <ele>25</ele>
        <time>2019-12-10T09:18:41Z</time>
      </trkpt>
      <trkpt lat="59.239604" lon="18.119698">
        <ele>25</ele>
        <time>2019-12-10T09:18:42Z</time>
      </trkpt>
      <trkpt lat="59.239554" lon="18.11972">
        <ele>0</ele>
        <time>2019-12-10T09:18:42Z</time>
      </trkpt>
      <trkpt lat="59.239505" lon="18.11974">
        <ele>25</ele>
        <time>2019-12-10T09:18:43Z</time>
      </trkpt>
      <trkpt lat="59.239456" lon="18.11976">
        <ele>25</ele>
        <time>2019-12-10T09:18:45Z</time>
      </trkpt>
      <trkpt lat="59.239406" lon="18.11978">
        <ele>25</ele>
        <time>2019-12-10T09:18:46Z</time>
      </trkpt>
      <trkpt lat="59.239354" lon="18.119794">
        <ele>25</ele>
        <time>2019-12-10T09:18:47Z</time>
      </trkpt>
      <trkpt lat="59.239302" lon="18.11981">
        <ele>25</ele>
        <time>2019-12-10T09:18:48Z</time>
      </trkpt>
      <trkpt lat="59.239252" lon="18.119824">
        <ele>25</ele>
        <time>2019-12-10T09:18:49Z</time>
      </trkpt>
      <trkpt lat="59.239199" lon="18.119836">
        <ele>25</ele>
        <time>2019-12-10T09:18:50Z</time>
      </trkpt>
      <trkpt lat="59.239145" lon="18.119844">
        <ele>25</ele>
        <time>2019-12-10T09:18:51Z</time>
      </trkpt>
      <trkpt lat="59.239094" lon="18.119852">
        <ele>0</ele>
        <time>2019-12-10T09:18:51Z</time>
      </trkpt>
      <trkpt lat="59.239042" lon="18.119856">
        <ele>25</ele>
        <time>2019-12-10T09:18:52Z</time>
      </trkpt>
      <trkpt lat="59.238989" lon="18.119858">
        <ele>25</ele>
        <time>2019-12-10T09:18:54Z</time>
      </trkpt>
      <trkpt lat="59.238938" lon="18.11986">
        <ele>0</ele>
        <time>2019-12-10T09:18:54Z</time>
      </trkpt>
      <trkpt lat="59.238887" lon="18.11986">
        <ele>25</ele>
        <time>2019-12-10T09:18:55Z</time>
      </trkpt>
      <trkpt lat="59.238836" lon="18.119856">
        <ele>25</ele>
        <time>2019-12-10T09:18:57Z</time>
      </trkpt>
      <trkpt lat="59.238785" lon="18.119852">
        <ele>25</ele>
        <time>2019-12-10T09:18:58Z</time>
      </trkpt>
      <trkpt lat="59.238734" lon="18.119846">
        <ele>26</ele>
        <time>2019-12-10T09:18:59Z</time>
      </trkpt>
      <trkpt lat="59.238682" lon="18.119838">
        <ele>26</ele>
        <time>2019-12-10T09:19:00Z</time>
      </trkpt>
      <trkpt lat="59.238631" lon="18.119828">
        <ele>26</ele>
        <time>2019-12-10T09:19:01Z</time>
      </trkpt>
      <trkpt lat="59.238583" lon="18.11982">
        <ele>25</ele>
        <time>2019-12-10T09:19:01Z</time>
      </trkpt>
      <trkpt lat="59.238535" lon="18.119812">
        <ele>26</ele>
        <time>2019-12-10T09:19:02Z</time>
      </trkpt>
      <trkpt lat="59.238487" lon="18.119805">
        <ele>26</ele>
        <time>2019-12-10T09:19:04Z</time>
      </trkpt>
      <trkpt lat="59.238439" lon="18.119799">
        <ele>26</ele>
        <time>2019-12-10T09:19:05Z</time>
      </trkpt>
      <trkpt lat="59.23839" lon="18.119794">
        <ele>26</ele>
        <time>2019-12-10T09:19:06Z</time>
      </trkpt>
      <trkpt lat="59.238341" lon="18.119791">
        <ele>27</ele>
        <time>2019-12-10T09:19:07Z</time>
      </trkpt>
      <trkpt lat="59.238293" lon="18.119785">
        <ele>27</ele>
        <time>2019-12-10T09:19:08Z</time>
      </trkpt>
      <trkpt lat="59.238248" lon="18.119777">
        <ele>27</ele>
        <time>2019-12-10T09:19:09Z</time>
      </trkpt>
      <trkpt lat="59.238203" lon="18.119765">
        <ele>27</ele>
        <time>2019-12-10T09:19:10Z</time>
      </trkpt>
      <trkpt lat="59.238159" lon="18.119755">
        <ele>27</ele>
        <time>2019-12-10T09:19:11Z</time>
      </trkpt>
      <trkpt lat="59.238113" lon="18.119744">
        <ele>27</ele>
        <time>2019-12-10T09:19:12Z</time>
      </trkpt>
      <trkpt lat="59.238067" lon="18.119734">
        <ele>0</ele>
        <time>2019-12-10T09:19:12Z</time>
      </trkpt>
      <trkpt lat="59.238021" lon="18.119723">
        <ele>27</ele>
        <time>2019-12-10T09:19:13Z</time>
      </trkpt>
      <trkpt lat="59.237974" lon="18.119714">
        <ele>27</ele>
        <time>2019-12-10T09:19:14Z</time>
      </trkpt>
      <trkpt lat="59.237929" lon="18.119707">
        <ele>27</ele>
        <time>2019-12-10T09:19:16Z</time>
      </trkpt>
      <trkpt lat="59.237883" lon="18.1197">
        <ele>27</ele>
        <time>2019-12-10T09:19:17Z</time>
      </trkpt>
      <trkpt lat="59.237836" lon="18.119694">
        <ele>27</ele>
        <time>2019-12-10T09:19:18Z</time>
      </trkpt>
      <trkpt lat="59.237789" lon="18.119686">
        <ele>27</ele>
        <time>2019-12-10T09:19:19Z</time>
      </trkpt>
      <trkpt lat="59.237742" lon="18.119677">
        <ele>27</ele>
        <time>2019-12-10T09:19:20Z</time>
      </trkpt>
      <trkpt lat="59.237696" lon="18.11967">
        <ele>27</ele>
        <time>2019-12-10T09:19:21Z</time>
      </trkpt>
      <trkpt lat="59.237649" lon="18.119663">
        <ele>27</ele>
        <time>2019-12-10T09:19:22Z</time>
      </trkpt>
      <trkpt lat="59.237603" lon="18.119655">
        <ele>27</ele>
        <time>2019-12-10T09:19:23Z</time>
      </trkpt>
      <trkpt lat="59.237556" lon="18.119647">
        <ele>0</ele>
        <time>2019-12-10T09:19:23Z</time>
      </trkpt>
      <trkpt lat="59.23751" lon="18.119641">
        <ele>27</ele>
        <time>2019-12-10T09:19:24Z</time>
      </trkpt>
      <trkpt lat="59.237463" lon="18.119636">
        <ele>27</ele>
        <time>2019-12-10T09:19:26Z</time>
      </trkpt>
      <trkpt lat="59.237415" lon="18.119629">
        <ele>27</ele>
        <time>2019-12-10T09:19:27Z</time>
      </trkpt>
      <trkpt lat="59.237367" lon="18.119621">
        <ele>27</ele>
        <time>2019-12-10T09:19:28Z</time>
      </trkpt>
      <trkpt lat="59.237318" lon="18.119614">
        <ele>27</ele>
        <time>2019-12-10T09:19:29Z</time>
      </trkpt>
      <trkpt lat="59.237269" lon="18.119606">
        <ele>27</ele>
        <time>2019-12-10T09:19:30Z</time>
      </trkpt>
      <trkpt lat="59.23722" lon="18.119599">
        <ele>27</ele>
        <time>2019-12-10T09:19:31Z</time>
      </trkpt>
      <trkpt lat="59.23717" lon="18.119591">
        <ele>27</ele>
        <time>2019-12-10T09:19:32Z</time>
      </trkpt>
      <trkpt lat="59.23712" lon="18.119583">
        <ele>0</ele>
        <time>2019-12-10T09:19:32Z</time>
      </trkpt>
      <trkpt lat="59.237071" lon="18.119575">
        <ele>27</ele>
        <time>2019-12-10T09:19:33Z</time>
      </trkpt>
      <trkpt lat="59.237021" lon="18.119569">
        <ele>27</ele>
        <time>2019-12-10T09:19:34Z</time>
      </trkpt>
      <trkpt lat="59.236971" lon="18.119562">
        <ele>26</ele>
        <time>2019-12-10T09:19:36Z</time>
      </trkpt>
      <trkpt lat="59.23692" lon="18.119556">
        <ele>26</ele>
        <time>2019-12-10T09:19:37Z</time>
      </trkpt>
      <trkpt lat="59.236869" lon="18.11955">
        <ele>26</ele>
        <time>2019-12-10T09:19:38Z</time>
      </trkpt>
      <trkpt lat="59.236818" lon="18.119547">
        <ele>26</ele>
        <time>2019-12-10T09:19:39Z</time>
      </trkpt>
      <trkpt lat="59.236767" lon="18.119545">
        <ele>26</ele>
        <time>2019-12-10T09:19:40Z</time>
      </trkpt>
      <trkpt lat="59.236716" lon="18.119544">
        <ele>26</ele>
        <time>2019-12-10T09:19:41Z</time>
      </trkpt>
      <trkpt lat="59.236663" lon="18.119545">
        <ele>26</ele>
        <time>2019-12-10T09:19:42Z</time>
      </trkpt>
      <trkpt lat="59.236611" lon="18.119549">
        <ele>26</ele>
        <time>2019-12-10T09:19:43Z</time>
      </trkpt>
      <trkpt lat="59.236558" lon="18.119555">
        <ele>0</ele>
        <time>2019-12-10T09:19:43Z</time>
      </trkpt>
      <trkpt lat="59.236505" lon="18.11956">
        <ele>26</ele>
        <time>2019-12-10T09:19:44Z</time>
      </trkpt>
      <trkpt lat="59.236451" lon="18.119565">
        <ele>26</ele>
        <time>2019-12-10T09:19:46Z</time>
      </trkpt>
      <trkpt lat="59.236398" lon="18.119571">
        <ele>26</ele>
        <time>2019-12-10T09:19:47Z</time>
      </trkpt>
      <trkpt lat="59.236344" lon="18.119579">
        <ele>26</ele>
        <time>2019-12-10T09:19:48Z</time>
      </trkpt>
      <trkpt lat="59.23629" lon="18.119585">
        <ele>26</ele>
        <time>2019-12-10T09:19:49Z</time>
      </trkpt>
      <trkpt lat="59.236236" lon="18.119591">
        <ele>26</ele>
        <time>2019-12-10T09:19:50Z</time>
      </trkpt>
      <trkpt lat="59.236182" lon="18.119598">
        <ele>26</ele>
        <time>2019-12-10T09:19:51Z</time>
      </trkpt>
      <trkpt lat="59.236129" lon="18.11961">
        <ele>0</ele>
        <time>2019-12-10T09:19:51Z</time>
      </trkpt>
      <trkpt lat="59.236076" lon="18.119622">
        <ele>27</ele>
        <time>2019-12-10T09:19:52Z</time>
      </trkpt>
      <trkpt lat="59.236023" lon="18.119635">
        <ele>27</ele>
        <time>2019-12-10T09:19:53Z</time>
      </trkpt>
      <trkpt lat="59.23597" lon="18.119651">
        <ele>27</ele>
        <time>2019-12-10T09:19:55Z</time>
      </trkpt>
      <trkpt lat="59.235917" lon="18.119669">
        <ele>27</ele>
        <time>2019-12-10T09:19:56Z</time>
      </trkpt>
      <trkpt lat="59.235865" lon="18.119687">
        <ele>27</ele>
        <time>2019-12-10T09:19:57Z</time>
      </trkpt>
      <trkpt lat="59.235812" lon="18.119709">
        <ele>27</ele>
        <time>2019-12-10T09:19:58Z</time>
      </trkpt>
      <trkpt lat="59.235761" lon="18.119737">
        <ele>27</ele>
        <time>2019-12-10T09:19:59Z</time>
      </trkpt>
      <trkpt lat="59.23571" lon="18.119768">
        <ele>27</ele>
        <time>2019-12-10T09:20:00Z</time>
      </trkpt>
      <trkpt lat="59.23566" lon="18.119801">
        <ele>27</ele>
        <time>2019-12-10T09:20:01Z</time>
      </trkpt>
      <trkpt lat="59.235608" lon="18.119836">
        <ele>26</ele>
        <time>2019-12-10T09:20:01Z</time>
      </trkpt>
      <trkpt lat="59.235556" lon="18.11987">
        <ele>27</ele>
        <time>2019-12-10T09:20:02Z</time>
      </trkpt>
      <trkpt lat="59.235504" lon="18.119907">
        <ele>27</ele>
        <time>2019-12-10T09:20:04Z</time>
      </trkpt>
      <trkpt lat="59.235452" lon="18.119943">
        <ele>27</ele>
        <time>2019-12-10T09:20:05Z</time>
      </trkpt>
      <trkpt lat="59.235398" lon="18.119975">
        <ele>27</ele>
        <time>2019-12-10T09:20:06Z</time>
      </trkpt>
      <trkpt lat="59.235343" lon="18.120003">
        <ele>27</ele>
        <time>2019-12-10T09:20:07Z</time>
      </trkpt>
      <trkpt lat="59.235287" lon="18.120027">
        <ele>27</ele>
        <time>2019-12-10T09:20:08Z</time>
      </trkpt>
      <trkpt lat="59.235234" lon="18.120051">
        <ele>27</ele>
        <time>2019-12-10T09:20:09Z</time>
      </trkpt>
      <trkpt lat="59.235181" lon="18.12007">
        <ele>27</ele>
        <time>2019-12-10T09:20:10Z</time>
      </trkpt>
      <trkpt lat="59.235128" lon="18.120081">
        <ele>0</ele>
        <time>2019-12-10T09:20:10Z</time>
      </trkpt>
      <trkpt lat="59.235077" lon="18.12009">
        <ele>27</ele>
        <time>2019-12-10T09:20:11Z</time>
      </trkpt>
      <trkpt lat="59.235026" lon="18.120102">
        <ele>27</ele>
        <time>2019-12-10T09:20:13Z</time>
      </trkpt>
      <trkpt lat="59.234978" lon="18.12012">
        <ele>27</ele>
        <time>2019-12-10T09:20:14Z</time>
      </trkpt>
      <trkpt lat="59.234931" lon="18.120144">
        <ele>27</ele>
        <time>2019-12-10T09:20:15Z</time>
      </trkpt>
      <trkpt lat="59.234885" lon="18.120172">
        <ele>27</ele>
        <time>2019-12-10T09:20:16Z</time>
      </trkpt>
      <trkpt lat="59.23484" lon="18.120202">
        <ele>27</ele>
        <time>2019-12-10T09:20:17Z</time>
      </trkpt>
      <trkpt lat="59.234795" lon="18.120231">
        <ele>28</ele>
        <time>2019-12-10T09:20:18Z</time>
      </trkpt>
      <trkpt lat="59.23475" lon="18.120261">
        <ele>28</ele>
        <time>2019-12-10T09:20:19Z</time>
      </trkpt>
      <trkpt lat="59.234706" lon="18.120291">
        <ele>28</ele>
        <time>2019-12-10T09:20:20Z</time>
      </trkpt>
      <trkpt lat="59.234665" lon="18.120319">
        <ele>28</ele>
        <time>2019-12-10T09:20:21Z</time>
      </trkpt>
      <trkpt lat="59.234626" lon="18.120347">
        <ele>0</ele>
        <time>2019-12-10T09:20:21Z</time>
      </trkpt>
      <trkpt lat="59.234587" lon="18.120375">
        <ele>28</ele>
        <time>2019-12-10T09:20:22Z</time>
      </trkpt>
      <trkpt lat="59.234548" lon="18.120401">
        <ele>28</ele>
        <time>2019-12-10T09:20:24Z</time>
      </trkpt>
      <trkpt lat="59.234509" lon="18.120426">
        <ele>28</ele>
        <time>2019-12-10T09:20:25Z</time>
      </trkpt>
      <trkpt lat="59.234472" lon="18.120453">
        <ele>29</ele>
        <time>2019-12-10T09:20:26Z</time>
      </trkpt>
      <trkpt lat="59.234435" lon="18.120479">
        <ele>29</ele>
        <time>2019-12-10T09:20:27Z</time>
      </trkpt>
      <trkpt lat="59.2344" lon="18.120504">
        <ele>29</ele>
        <time>2019-12-10T09:20:28Z</time>
      </trkpt>
      <trkpt lat="59.234364" lon="18.120529">
        <ele>29</ele>
        <time>2019-12-10T09:20:29Z</time>
      </trkpt>
      <trkpt lat="59.234328" lon="18.120554">
        <ele>0</ele>
        <time>2019-12-10T09:20:29Z</time>
      </trkpt>
      <trkpt lat="59.234293" lon="18.120577">
        <ele>29</ele>
        <time>2019-12-10T09:20:30Z</time>
      </trkpt>
      <trkpt lat="59.234259" lon="18.1206">
        <ele>30</ele>
        <time>2019-12-10T09:20:32Z</time>
      </trkpt>
      <trkpt lat="59.234225" lon="18.120623">
        <ele>30</ele>
        <time>2019-12-10T09:20:33Z</time>
      </trkpt>
      <trkpt lat="59.234192" lon="18.120646">
        <ele>30</ele>
        <time>2019-12-10T09:20:34Z</time>
      </trkpt>
      <trkpt lat="59.23416" lon="18.120669">
        <ele>0</ele>
        <time>2019-12-10T09:20:34Z</time>
      </trkpt>
      <trkpt lat="59.234128" lon="18.120693">
        <ele>30</ele>
        <time>2019-12-10T09:20:35Z</time>
      </trkpt>
      <trkpt lat="59.234096" lon="18.120714">
        <ele>31</ele>
        <time>2019-12-10T09:20:37Z</time>
      </trkpt>
      <trkpt lat="59.234064" lon="18.120735">
        <ele>31</ele>
        <time>2019-12-10T09:20:38Z</time>
      </trkpt>
      <trkpt lat="59.234033" lon="18.120754">
        <ele>31</ele>
        <time>2019-12-10T09:20:39Z</time>
      </trkpt>
      <trkpt lat="59.234002" lon="18.120773">
        <ele>31</ele>
        <time>2019-12-10T09:20:40Z</time>
      </trkpt>
      <trkpt lat="59.233972" lon="18.120793">
        <ele>31</ele>
        <time>2019-12-10T09:20:41Z</time>
      </trkpt>
      <trkpt lat="59.233944" lon="18.120812">
        <ele>31</ele>
        <time>2019-12-10T09:20:42Z</time>
      </trkpt>
      <trkpt lat="59.233917" lon="18.120831">
        <ele>32</ele>
        <time>2019-12-10T09:20:43Z</time>
      </trkpt>
      <trkpt lat="59.23389" lon="18.12085">
        <ele>32</ele>
        <time>2019-12-10T09:20:44Z</time>
      </trkpt>
      <trkpt lat="59.233864" lon="18.120869">
        <ele>32</ele>
        <time>2019-12-10T09:20:45Z</time>
      </trkpt>
      <trkpt lat="59.233836" lon="18.12089">
        <ele>32</ele>
        <time>2019-12-10T09:20:46Z</time>
      </trkpt>
      <trkpt lat="59.233808" lon="18.120911">
        <ele>33</ele>
        <time>2019-12-10T09:20:47Z</time>
      </trkpt>
      <trkpt lat="59.23378" lon="18.120932">
        <ele>33</ele>
        <time>2019-12-10T09:20:48Z</time>
      </trkpt>
      <trkpt lat="59.233752" lon="18.120955">
        <ele>0</ele>
        <time>2019-12-10T09:20:48Z</time>
      </trkpt>
      <trkpt lat="59.233724" lon="18.120975">
        <ele>33</ele>
        <time>2019-12-10T09:20:49Z</time>
      </trkpt>
      <trkpt lat="59.233696" lon="18.120995">
        <ele>34</ele>
        <time>2019-12-10T09:20:51Z</time>
      </trkpt>
      <trkpt lat="59.23367" lon="18.121011">
        <ele>0</ele>
        <time>2019-12-10T09:20:51Z</time>
      </trkpt>
      <trkpt lat="59.233644" lon="18.121027">
        <ele>34</ele>
        <time>2019-12-10T09:20:52Z</time>
      </trkpt>
      <trkpt lat="59.233617" lon="18.121044">
        <ele>34</ele>
        <time>2019-12-10T09:20:54Z</time>
      </trkpt>
      <trkpt lat="59.23359" lon="18.121062">
        <ele>34</ele>
        <time>2019-12-10T09:20:55Z</time>
      </trkpt>
      <trkpt lat="59.233562" lon="18.121082">
        <ele>34</ele>
        <time>2019-12-10T09:20:56Z</time>
      </trkpt>
      <trkpt lat="59.233534" lon="18.1211">
        <ele>35</ele>
        <time>2019-12-10T09:20:57Z</time>
      </trkpt>
      <trkpt lat="59.233506" lon="18.121118">
        <ele>35</ele>
        <time>2019-12-10T09:20:58Z</time>
      </trkpt>
      <trkpt lat="59.233479" lon="18.121136">
        <ele>35</ele>
        <time>2019-12-10T09:20:59Z</time>
      </trkpt>
      <trkpt lat="59.233449" lon="18.121156">
        <ele>35</ele>
        <time>2019-12-10T09:21:00Z</time>
      </trkpt>
      <trkpt lat="59.23342" lon="18.121179">
        <ele>35</ele>
        <time>2019-12-10T09:21:01Z</time>
      </trkpt>
      <trkpt lat="59.23339" lon="18.121201">
        <ele>36</ele>
        <time>2019-12-10T09:21:02Z</time>
      </trkpt>
      <trkpt lat="59.23336" lon="18.12122">
        <ele>36</ele>
        <time>2019-12-10T09:21:03Z</time>
      </trkpt>
      <trkpt lat="59.233331" lon="18.12124">
        <ele>36</ele>
        <time>2019-12-10T09:21:04Z</time>
      </trkpt>
      <trkpt lat="59.233302" lon="18.121262">
        <ele>36</ele>
        <time>2019-12-10T09:21:05Z</time>
      </trkpt>
      <trkpt lat="59.233274" lon="18.121283">
        <ele>37</ele>
        <time>2019-12-10T09:21:06Z</time>
      </trkpt>
      <trkpt lat="59.233247" lon="18.121304">
        <ele>37</ele>
        <time>2019-12-10T09:21:07Z</time>
      </trkpt>
      <trkpt lat="59.233221" lon="18.121325">
        <ele>0</ele>
        <time>2019-12-10T09:21:07Z</time>
      </trkpt>
      <trkpt lat="59.233194" lon="18.121347">
        <ele>37</ele>
        <time>2019-12-10T09:21:08Z</time>
      </trkpt>
      <trkpt lat="59.233164" lon="18.121365">
        <ele>37</ele>
        <time>2019-12-10T09:21:10Z</time>
      </trkpt>
      <trkpt lat="59.233135" lon="18.121378">
        <ele>38</ele>
        <time>2019-12-10T09:21:11Z</time>
      </trkpt>
      <trkpt lat="59.233105" lon="18.121388">
        <ele>38</ele>
        <time>2019-12-10T09:21:12Z</time>
      </trkpt>
      <trkpt lat="59.233074" lon="18.121393">
        <ele>38</ele>
        <time>2019-12-10T09:21:13Z</time>
      </trkpt>
      <trkpt lat="59.233041" lon="18.121394">
        <ele>38</ele>
        <time>2019-12-10T09:21:14Z</time>
      </trkpt>
      <trkpt lat="59.233009" lon="18.12139">
        <ele>38</ele>
        <time>2019-12-10T09:21:15Z</time>
      </trkpt>
      <trkpt lat="59.232978" lon="18.121385">
        <ele>38</ele>
        <time>2019-12-10T09:21:16Z</time>
      </trkpt>
      <trkpt lat="59.232946" lon="18.121376">
        <ele>38</ele>
        <time>2019-12-10T09:21:17Z</time>
      </trkpt>
      <trkpt lat="59.232914" lon="18.12136">
        <ele>38</ele>
        <time>2019-12-10T09:21:18Z</time>
      </trkpt>
      <trkpt lat="59.232884" lon="18.121336">
        <ele>39</ele>
        <time>2019-12-10T09:21:19Z</time>
      </trkpt>
      <trkpt lat="59.232855" lon="18.121307">
        <ele>38</ele>
        <time>2019-12-10T09:21:20Z</time>
      </trkpt>
      <trkpt lat="59.232826" lon="18.121274">
        <ele>38</ele>
        <time>2019-12-10T09:21:21Z</time>
      </trkpt>
      <trkpt lat="59.232798" lon="18.121237">
        <ele>38</ele>
        <time>2019-12-10T09:21:22Z</time>
      </trkpt>
      <trkpt lat="59.232772" lon="18.121199">
        <ele>38</ele>
        <time>2019-12-10T09:21:23Z</time>
      </trkpt>
      <trkpt lat="59.232747" lon="18.121162">
        <ele>0</ele>
        <time>2019-12-10T09:21:23Z</time>
      </trkpt>
      <trkpt lat="59.232722" lon="18.121129">
        <ele>38</ele>
        <time>2019-12-10T09:21:24Z</time>
      </trkpt>
      <trkpt lat="59.232697" lon="18.1211">
        <ele>38</ele>
        <time>2019-12-10T09:21:26Z</time>
      </trkpt>
      <trkpt lat="59.232675" lon="18.121078">
        <ele>0</ele>
        <time>2019-12-10T09:21:26Z</time>
      </trkpt>
      <trkpt lat="59.232655" lon="18.121063">
        <ele>38</ele>
        <time>2019-12-10T09:21:27Z</time>
      </trkpt>
      <trkpt lat="59.232627" lon="18.121044">
        <ele>38</ele>
        <time>2019-12-10T09:21:30Z</time>
      </trkpt>
      <trkpt lat="59.232621" lon="18.121039">
        <ele>0</ele>
        <time>2019-12-10T09:21:33Z</time>
      </trkpt>
      <trkpt lat="59.232582" lon="18.120963">
        <ele>38</ele>
        <time>2019-12-10T09:22:18Z</time>
      </trkpt>
      <trkpt lat="59.232563" lon="18.120913">
        <ele>38</ele>
        <time>2019-12-10T09:22:19Z</time>
      </trkpt>
      <trkpt lat="59.232543" lon="18.120853">
        <ele>38</ele>
        <time>2019-12-10T09:22:21Z</time>
      </trkpt>
      <trkpt lat="59.232523" lon="18.120787">
        <ele>38</ele>
        <time>2019-12-10T09:22:22Z</time>
      </trkpt>
      <trkpt lat="59.232505" lon="18.120715">
        <ele>38</ele>
        <time>2019-12-10T09:22:23Z</time>
      </trkpt>
      <trkpt lat="59.232488" lon="18.120641">
        <ele>38</ele>
        <time>2019-12-10T09:22:24Z</time>
      </trkpt>
      <trkpt lat="59.23247" lon="18.120567">
        <ele>38</ele>
        <time>2019-12-10T09:22:25Z</time>
      </trkpt>
      <trkpt lat="59.232448" lon="18.120499">
        <ele>38</ele>
        <time>2019-12-10T09:22:26Z</time>
      </trkpt>
      <trkpt lat="59.23242" lon="18.120439">
        <ele>38</ele>
        <time>2019-12-10T09:22:27Z</time>
      </trkpt>
      <trkpt lat="59.232384" lon="18.120387">
        <ele>38</ele>
        <time>2019-12-10T09:22:28Z</time>
      </trkpt>
      <trkpt lat="59.232343" lon="18.120348">
        <ele>0</ele>
        <time>2019-12-10T09:22:28Z</time>
      </trkpt>
      <trkpt lat="59.232299" lon="18.120319">
        <ele>39</ele>
        <time>2019-12-10T09:22:29Z</time>
      </trkpt>
      <trkpt lat="59.23225" lon="18.120304">
        <ele>39</ele>
        <time>2019-12-10T09:22:31Z</time>
      </trkpt>
      <trkpt lat="59.232199" lon="18.120295">
        <ele>39</ele>
        <time>2019-12-10T09:22:32Z</time>
      </trkpt>
      <trkpt lat="59.232147" lon="18.120293">
        <ele>39</ele>
        <time>2019-12-10T09:22:33Z</time>
      </trkpt>
      <trkpt lat="59.232096" lon="18.120293">
        <ele>39</ele>
        <time>2019-12-10T09:22:34Z</time>
      </trkpt>
      <trkpt lat="59.232044" lon="18.120295">
        <ele>40</ele>
        <time>2019-12-10T09:22:35Z</time>
      </trkpt>
      <trkpt lat="59.231994" lon="18.120304">
        <ele>40</ele>
        <time>2019-12-10T09:22:36Z</time>
      </trkpt>
      <trkpt lat="59.231943" lon="18.120318">
        <ele>40</ele>
        <time>2019-12-10T09:22:37Z</time>
      </trkpt>
      <trkpt lat="59.231892" lon="18.120337">
        <ele>0</ele>
        <time>2019-12-10T09:22:37Z</time>
      </trkpt>
      <trkpt lat="59.23184" lon="18.120358">
        <ele>40</ele>
        <time>2019-12-10T09:22:38Z</time>
      </trkpt>
      <trkpt lat="59.231794" lon="18.120381">
        <ele>41</ele>
        <time>2019-12-10T09:22:40Z</time>
      </trkpt>
      <trkpt lat="59.231749" lon="18.120403">
        <ele>41</ele>
        <time>2019-12-10T09:22:41Z</time>
      </trkpt>
      <trkpt lat="59.231704" lon="18.120428">
        <ele>41</ele>
        <time>2019-12-10T09:22:42Z</time>
      </trkpt>
      <trkpt lat="59.231656" lon="18.120456">
        <ele>41</ele>
        <time>2019-12-10T09:22:43Z</time>
      </trkpt>
      <trkpt lat="59.231608" lon="18.120487">
        <ele>41</ele>
        <time>2019-12-10T09:22:44Z</time>
      </trkpt>
      <trkpt lat="59.231559" lon="18.120519">
        <ele>41</ele>
        <time>2019-12-10T09:22:45Z</time>
      </trkpt>
      <trkpt lat="59.231511" lon="18.120552">
        <ele>42</ele>
        <time>2019-12-10T09:22:46Z</time>
      </trkpt>
      <trkpt lat="59.231463" lon="18.120585">
        <ele>42</ele>
        <time>2019-12-10T09:22:47Z</time>
      </trkpt>
      <trkpt lat="59.231413" lon="18.120618">
        <ele>0</ele>
        <time>2019-12-10T09:22:47Z</time>
      </trkpt>
      <trkpt lat="59.231363" lon="18.120656">
        <ele>42</ele>
        <time>2019-12-10T09:22:48Z</time>
      </trkpt>
      <trkpt lat="59.231313" lon="18.120689">
        <ele>42</ele>
        <time>2019-12-10T09:22:50Z</time>
      </trkpt>
      <trkpt lat="59.231263" lon="18.120721">
        <ele>42</ele>
        <time>2019-12-10T09:22:51Z</time>
      </trkpt>
      <trkpt lat="59.231212" lon="18.120755">
        <ele>41</ele>
        <time>2019-12-10T09:22:52Z</time>
      </trkpt>
      <trkpt lat="59.23116" lon="18.120791">
        <ele>41</ele>
        <time>2019-12-10T09:22:53Z</time>
      </trkpt>
      <trkpt lat="59.231106" lon="18.120827">
        <ele>41</ele>
        <time>2019-12-10T09:22:54Z</time>
      </trkpt>
      <trkpt lat="59.231053" lon="18.120868">
        <ele>41</ele>
        <time>2019-12-10T09:22:55Z</time>
      </trkpt>
      <trkpt lat="59.231001" lon="18.120906">
        <ele>41</ele>
        <time>2019-12-10T09:22:56Z</time>
      </trkpt>
      <trkpt lat="59.230949" lon="18.120942">
        <ele>0</ele>
        <time>2019-12-10T09:22:56Z</time>
      </trkpt>
      <trkpt lat="59.230891" lon="18.12098">
        <ele>41</ele>
        <time>2019-12-10T09:22:57Z</time>
      </trkpt>
      <trkpt lat="59.23083" lon="18.121019">
        <ele>41</ele>
        <time>2019-12-10T09:22:58Z</time>
      </trkpt>
      <trkpt lat="59.230771" lon="18.121058">
        <ele>41</ele>
        <time>2019-12-10T09:23:00Z</time>
      </trkpt>
      <trkpt lat="59.230711" lon="18.121089">
        <ele>41</ele>
        <time>2019-12-10T09:23:01Z</time>
      </trkpt>
      <trkpt lat="59.230654" lon="18.121114">
        <ele>41</ele>
        <time>2019-12-10T09:23:02Z</time>
      </trkpt>
      <trkpt lat="59.230597" lon="18.121129">
        <ele>41</ele>
        <time>2019-12-10T09:23:03Z</time>
      </trkpt>
      <trkpt lat="59.23054" lon="18.121132">
        <ele>40</ele>
        <time>2019-12-10T09:23:04Z</time>
      </trkpt>
      <trkpt lat="59.230482" lon="18.121131">
        <ele>40</ele>
        <time>2019-12-10T09:23:05Z</time>
      </trkpt>
      <trkpt lat="59.230425" lon="18.121131">
        <ele>0</ele>
        <time>2019-12-10T09:23:05Z</time>
      </trkpt>
      <trkpt lat="59.230367" lon="18.121134">
        <ele>40</ele>
        <time>2019-12-10T09:23:06Z</time>
      </trkpt>
      <trkpt lat="59.230308" lon="18.12115">
        <ele>40</ele>
        <time>2019-12-10T09:23:08Z</time>
      </trkpt>
      <trkpt lat="59.230252" lon="18.12118">
        <ele>40</ele>
        <time>2019-12-10T09:23:09Z</time>
      </trkpt>
      <trkpt lat="59.230196" lon="18.121219">
        <ele>40</ele>
        <time>2019-12-10T09:23:10Z</time>
      </trkpt>
      <trkpt lat="59.230141" lon="18.121264">
        <ele>40</ele>
        <time>2019-12-10T09:23:11Z</time>
      </trkpt>
      <trkpt lat="59.230089" lon="18.121311">
        <ele>40</ele>
        <time>2019-12-10T09:23:12Z</time>
      </trkpt>
      <trkpt lat="59.23004" lon="18.121358">
        <ele>39</ele>
        <time>2019-12-10T09:23:13Z</time>
      </trkpt>
      <trkpt lat="59.229991" lon="18.121406">
        <ele>39</ele>
        <time>2019-12-10T09:23:14Z</time>
      </trkpt>
      <trkpt lat="59.229942" lon="18.121457">
        <ele>0</ele>
        <time>2019-12-10T09:23:14Z</time>
      </trkpt>
      <trkpt lat="59.229896" lon="18.121507">
        <ele>39</ele>
        <time>2019-12-10T09:23:15Z</time>
      </trkpt>
      <trkpt lat="59.229855" lon="18.121557">
        <ele>39</ele>
        <time>2019-12-10T09:23:16Z</time>
      </trkpt>
      <trkpt lat="59.229822" lon="18.121607">
        <ele>39</ele>
        <time>2019-12-10T09:23:18Z</time>
      </trkpt>
      <trkpt lat="59.229796" lon="18.121661">
        <ele>39</ele>
        <time>2019-12-10T09:23:19Z</time>
      </trkpt>
      <trkpt lat="59.229778" lon="18.121725">
        <ele>39</ele>
        <time>2019-12-10T09:23:20Z</time>
      </trkpt>
      <trkpt lat="59.229766" lon="18.1218">
        <ele>39</ele>
        <time>2019-12-10T09:23:21Z</time>
      </trkpt>
      <trkpt lat="59.229765" lon="18.12188">
        <ele>39</ele>
        <time>2019-12-10T09:23:22Z</time>
      </trkpt>
      <trkpt lat="59.229773" lon="18.121957">
        <ele>39</ele>
        <time>2019-12-10T09:23:23Z</time>
      </trkpt>
      <trkpt lat="59.229786" lon="18.122032">
        <ele>39</ele>
        <time>2019-12-10T09:23:24Z</time>
      </trkpt>
      <trkpt lat="59.229804" lon="18.122108">
        <ele>39</ele>
        <time>2019-12-10T09:23:25Z</time>
      </trkpt>
      <trkpt lat="59.229823" lon="18.122181">
        <ele>0</ele>
        <time>2019-12-10T09:23:25Z</time>
      </trkpt>
      <trkpt lat="59.229844" lon="18.122253">
        <ele>39</ele>
        <time>2019-12-10T09:23:26Z</time>
      </trkpt>
      <trkpt lat="59.229867" lon="18.122328">
        <ele>39</ele>
        <time>2019-12-10T09:23:28Z</time>
      </trkpt>
      <trkpt lat="59.229892" lon="18.122405">
        <ele>39</ele>
        <time>2019-12-10T09:23:29Z</time>
      </trkpt>
      <trkpt lat="59.229916" lon="18.122483">
        <ele>39</ele>
        <time>2019-12-10T09:23:30Z</time>
      </trkpt>
      <trkpt lat="59.229939" lon="18.122559">
        <ele>39</ele>
        <time>2019-12-10T09:23:31Z</time>
      </trkpt>
      <trkpt lat="59.22996" lon="18.122635">
        <ele>39</ele>
        <time>2019-12-10T09:23:32Z</time>
      </trkpt>
      <trkpt lat="59.22998" lon="18.122713">
        <ele>39</ele>
        <time>2019-12-10T09:23:33Z</time>
      </trkpt>
      <trkpt lat="59.229998" lon="18.122792">
        <ele>39</ele>
        <time>2019-12-10T09:23:34Z</time>
      </trkpt>
      <trkpt lat="59.230013" lon="18.122873">
        <ele>0</ele>
        <time>2019-12-10T09:23:34Z</time>
      </trkpt>
      <trkpt lat="59.230025" lon="18.122956">
        <ele>39</ele>
        <time>2019-12-10T09:23:35Z</time>
      </trkpt>
      <trkpt lat="59.230033" lon="18.123039">
        <ele>39</ele>
        <time>2019-12-10T09:23:37Z</time>
      </trkpt>
      <trkpt lat="59.230038" lon="18.123121">
        <ele>0</ele>
        <time>2019-12-10T09:23:37Z</time>
      </trkpt>
      <trkpt lat="59.230036" lon="18.123201">
        <ele>40</ele>
        <time>2019-12-10T09:23:38Z</time>
      </trkpt>
      <trkpt lat="59.230029" lon="18.123277">
        <ele>40</ele>
        <time>2019-12-10T09:23:40Z</time>
      </trkpt>
      <trkpt lat="59.230015" lon="18.123349">
        <ele>40</ele>
        <time>2019-12-10T09:23:41Z</time>
      </trkpt>
      <trkpt lat="59.229996" lon="18.123416">
        <ele>40</ele>
        <time>2019-12-10T09:23:42Z</time>
      </trkpt>
      <trkpt lat="59.229972" lon="18.123475">
        <ele>40</ele>
        <time>2019-12-10T09:23:43Z</time>
      </trkpt>
      <trkpt lat="59.22994" lon="18.123525">
        <ele>40</ele>
        <time>2019-12-10T09:23:44Z</time>
      </trkpt>
      <trkpt lat="59.229903" lon="18.123565">
        <ele>40</ele>
        <time>2019-12-10T09:23:45Z</time>
      </trkpt>
      <trkpt lat="59.229864" lon="18.123602">
        <ele>40</ele>
        <time>2019-12-10T09:23:46Z</time>
      </trkpt>
      <trkpt lat="59.229825" lon="18.12364">
        <ele>40</ele>
        <time>2019-12-10T09:23:47Z</time>
      </trkpt>
      <trkpt lat="59.229785" lon="18.123678">
        <ele>40</ele>
        <time>2019-12-10T09:23:48Z</time>
      </trkpt>
      <trkpt lat="59.229745" lon="18.123714">
        <ele>0</ele>
        <time>2019-12-10T09:23:48Z</time>
      </trkpt>
      <trkpt lat="59.229704" lon="18.123754">
        <ele>40</ele>
        <time>2019-12-10T09:23:49Z</time>
      </trkpt>
      <trkpt lat="59.229664" lon="18.123796">
        <ele>41</ele>
        <time>2019-12-10T09:23:51Z</time>
      </trkpt>
      <trkpt lat="59.229622" lon="18.123838">
        <ele>41</ele>
        <time>2019-12-10T09:23:52Z</time>
      </trkpt>
      <trkpt lat="59.229578" lon="18.123882">
        <ele>41</ele>
        <time>2019-12-10T09:23:53Z</time>
      </trkpt>
      <trkpt lat="59.229535" lon="18.123927">
        <ele>0</ele>
        <time>2019-12-10T09:23:53Z</time>
      </trkpt>
      <trkpt lat="59.229489" lon="18.123974">
        <ele>41</ele>
        <time>2019-12-10T09:23:54Z</time>
      </trkpt>
      <trkpt lat="59.229443" lon="18.124019">
        <ele>41</ele>
        <time>2019-12-10T09:23:56Z</time>
      </trkpt>
      <trkpt lat="59.2294" lon="18.124065">
        <ele>41</ele>
        <time>2019-12-10T09:23:57Z</time>
      </trkpt>
      <trkpt lat="59.22936" lon="18.12412">
        <ele>41</ele>
        <time>2019-12-10T09:23:58Z</time>
      </trkpt>
      <trkpt lat="59.229326" lon="18.124188">
        <ele>41</ele>
        <time>2019-12-10T09:23:59Z</time>
      </trkpt>
      <trkpt lat="59.229301" lon="18.124269">
        <ele>0</ele>
        <time>2019-12-10T09:23:59Z</time>
      </trkpt>
      <trkpt lat="59.229287" lon="18.124358">
        <ele>41</ele>
        <time>2019-12-10T09:24:00Z</time>
      </trkpt>
      <trkpt lat="59.22928" lon="18.124454">
        <ele>41</ele>
        <time>2019-12-10T09:24:02Z</time>
      </trkpt>
      <trkpt lat="59.229278" lon="18.124553">
        <ele>41</ele>
        <time>2019-12-10T09:24:03Z</time>
      </trkpt>
      <trkpt lat="59.229275" lon="18.124656">
        <ele>41</ele>
        <time>2019-12-10T09:24:04Z</time>
      </trkpt>
      <trkpt lat="59.229268" lon="18.124752">
        <ele>41</ele>
        <time>2019-12-10T09:24:05Z</time>
      </trkpt>
      <trkpt lat="59.229251" lon="18.124839">
        <ele>41</ele>
        <time>2019-12-10T09:24:06Z</time>
      </trkpt>
      <trkpt lat="59.229225" lon="18.124915">
        <ele>41</ele>
        <time>2019-12-10T09:24:07Z</time>
      </trkpt>
      <trkpt lat="59.229199" lon="18.124995">
        <ele>40</ele>
        <time>2019-12-10T09:24:08Z</time>
      </trkpt>
      <trkpt lat="59.229169" lon="18.12508">
        <ele>40</ele>
        <time>2019-12-10T09:24:09Z</time>
      </trkpt>
      <trkpt lat="59.229138" lon="18.125172">
        <ele>0</ele>
        <time>2019-12-10T09:24:09Z</time>
      </trkpt>
      <trkpt lat="59.229108" lon="18.125275">
        <ele>40</ele>
        <time>2019-12-10T09:24:10Z</time>
      </trkpt>
      <trkpt lat="59.229074" lon="18.125373">
        <ele>40</ele>
        <time>2019-12-10T09:24:12Z</time>
      </trkpt>
      <trkpt lat="59.229036" lon="18.125474">
        <ele>0</ele>
        <time>2019-12-10T09:24:12Z</time>
      </trkpt>
      <trkpt lat="59.228997" lon="18.125583">
        <ele>40</ele>
        <time>2019-12-10T09:24:13Z</time>
      </trkpt>
      <trkpt lat="59.228953" lon="18.12569">
        <ele>41</ele>
        <time>2019-12-10T09:24:15Z</time>
      </trkpt>
      <trkpt lat="59.228912" lon="18.125783">
        <ele>41</ele>
        <time>2019-12-10T09:24:16Z</time>
      </trkpt>
      <trkpt lat="59.228873" lon="18.125871">
        <ele>41</ele>
        <time>2019-12-10T09:24:17Z</time>
      </trkpt>
      <trkpt lat="59.228832" lon="18.125952">
        <ele>0</ele>
        <time>2019-12-10T09:24:17Z</time>
      </trkpt>
      <trkpt lat="59.228795" lon="18.126022">
        <ele>41</ele>
        <time>2019-12-10T09:24:18Z</time>
      </trkpt>
      <trkpt lat="59.228764" lon="18.126089">
        <ele>41</ele>
        <time>2019-12-10T09:24:20Z</time>
      </trkpt>
      <trkpt lat="59.228735" lon="18.126156">
        <ele>41</ele>
        <time>2019-12-10T09:24:21Z</time>
      </trkpt>
      <trkpt lat="59.228708" lon="18.126219">
        <ele>42</ele>
        <time>2019-12-10T09:24:22Z</time>
      </trkpt>
      <trkpt lat="59.228682" lon="18.126275">
        <ele>42</ele>
        <time>2019-12-10T09:24:23Z</time>
      </trkpt>
      <trkpt lat="59.228655" lon="18.126327">
        <ele>42</ele>
        <time>2019-12-10T09:24:24Z</time>
      </trkpt>
      <trkpt lat="59.228622" lon="18.12637">
        <ele>41</ele>
        <time>2019-12-10T09:24:25Z</time>
      </trkpt>
      <trkpt lat="59.228584" lon="18.126401">
        <ele>41</ele>
        <time>2019-12-10T09:24:26Z</time>
      </trkpt>
      <trkpt lat="59.22854" lon="18.126418">
        <ele>41</ele>
        <time>2019-12-10T09:24:27Z</time>
      </trkpt>
      <trkpt lat="59.228499" lon="18.126421">
        <ele>40</ele>
        <time>2019-12-10T09:24:28Z</time>
      </trkpt>
      <trkpt lat="59.228459" lon="18.126415">
        <ele>40</ele>
        <time>2019-12-10T09:24:29Z</time>
      </trkpt>
      <trkpt lat="59.22842" lon="18.126407">
        <ele>0</ele>
        <time>2019-12-10T09:24:29Z</time>
      </trkpt>
      <trkpt lat="59.228381" lon="18.126402">
        <ele>41</ele>
        <time>2019-12-10T09:24:30Z</time>
      </trkpt>
      <trkpt lat="59.228342" lon="18.126402">
        <ele>0</ele>
        <time>2019-12-10T09:24:31Z</time>
      </trkpt>
      <trkpt lat="59.228303" lon="18.126408">
        <ele>41</ele>
        <time>2019-12-10T09:24:32Z</time>
      </trkpt>
      <trkpt lat="59.228265" lon="18.126417">
        <ele>41</ele>
        <time>2019-12-10T09:24:34Z</time>
      </trkpt>
      <trkpt lat="59.228227" lon="18.126425">
        <ele>41</ele>
        <time>2019-12-10T09:24:35Z</time>
      </trkpt>
      <trkpt lat="59.228189" lon="18.126431">
        <ele>42</ele>
        <time>2019-12-10T09:24:36Z</time>
      </trkpt>
      <trkpt lat="59.228151" lon="18.126438">
        <ele>42</ele>
        <time>2019-12-10T09:24:37Z</time>
      </trkpt>
      <trkpt lat="59.228113" lon="18.126446">
        <ele>42</ele>
        <time>2019-12-10T09:24:38Z</time>
      </trkpt>
      <trkpt lat="59.228076" lon="18.126452">
        <ele>42</ele>
        <time>2019-12-10T09:24:39Z</time>
      </trkpt>
      <trkpt lat="59.228039" lon="18.126459">
        <ele>42</ele>
        <time>2019-12-10T09:24:40Z</time>
      </trkpt>
      <trkpt lat="59.228002" lon="18.126468">
        <ele>42</ele>
        <time>2019-12-10T09:24:41Z</time>
      </trkpt>
      <trkpt lat="59.227964" lon="18.126477">
        <ele>42</ele>
        <time>2019-12-10T09:24:42Z</time>
      </trkpt>
      <trkpt lat="59.227926" lon="18.126485">
        <ele>0</ele>
        <time>2019-12-10T09:24:42Z</time>
      </trkpt>
      <trkpt lat="59.227888" lon="18.126492">
        <ele>42</ele>
        <time>2019-12-10T09:24:43Z</time>
      </trkpt>
      <trkpt lat="59.227851" lon="18.126504">
        <ele>42</ele>
        <time>2019-12-10T09:24:45Z</time>
      </trkpt>
      <trkpt lat="59.227819" lon="18.12653">
        <ele>42</ele>
        <time>2019-12-10T09:24:46Z</time>
      </trkpt>
      <trkpt lat="59.227795" lon="18.126575">
        <ele>42</ele>
        <time>2019-12-10T09:24:47Z</time>
      </trkpt>
      <trkpt lat="59.227776" lon="18.126635">
        <ele>42</ele>
        <time>2019-12-10T09:24:48Z</time>
      </trkpt>
      <trkpt lat="59.22776" lon="18.126703">
        <ele>42</ele>
        <time>2019-12-10T09:24:49Z</time>
      </trkpt>
      <trkpt lat="59.227745" lon="18.126774">
        <ele>42</ele>
        <time>2019-12-10T09:24:50Z</time>
      </trkpt>
      <trkpt lat="59.227731" lon="18.126848">
        <ele>0</ele>
        <time>2019-12-10T09:24:50Z</time>
      </trkpt>
      <trkpt lat="59.227718" lon="18.126923">
        <ele>42</ele>
        <time>2019-12-10T09:24:51Z</time>
      </trkpt>
      <trkpt lat="59.227705" lon="18.126999">
        <ele>43</ele>
        <time>2019-12-10T09:24:53Z</time>
      </trkpt>
      <trkpt lat="59.227691" lon="18.127073">
        <ele>43</ele>
        <time>2019-12-10T09:24:54Z</time>
      </trkpt>
      <trkpt lat="59.227671" lon="18.127145">
        <ele>43</ele>
        <time>2019-12-10T09:24:55Z</time>
      </trkpt>
      <trkpt lat="59.227649" lon="18.127214">
        <ele>0</ele>
        <time>2019-12-10T09:24:55Z</time>
      </trkpt>
      <trkpt lat="59.227626" lon="18.127285">
        <ele>43</ele>
        <time>2019-12-10T09:24:56Z</time>
      </trkpt>
      <trkpt lat="59.2276" lon="18.127358">
        <ele>43</ele>
        <time>2019-12-10T09:24:58Z</time>
      </trkpt>
      <trkpt lat="59.227575" lon="18.127431">
        <ele>43</ele>
        <time>2019-12-10T09:24:59Z</time>
      </trkpt>
      <trkpt lat="59.227548" lon="18.127507">
        <ele>43</ele>
        <time>2019-12-10T09:25:00Z</time>
      </trkpt>
      <trkpt lat="59.22752" lon="18.127583">
        <ele>43</ele>
        <time>2019-12-10T09:25:01Z</time>
      </trkpt>
      <trkpt lat="59.227491" lon="18.127662">
        <ele>43</ele>
        <time>2019-12-10T09:25:02Z</time>
      </trkpt>
      <trkpt lat="59.227461" lon="18.127742">
        <ele>43</ele>
        <time>2019-12-10T09:25:03Z</time>
      </trkpt>
      <trkpt lat="59.227432" lon="18.127822">
        <ele>43</ele>
        <time>2019-12-10T09:25:04Z</time>
      </trkpt>
      <trkpt lat="59.227403" lon="18.127902">
        <ele>43</ele>
        <time>2019-12-10T09:25:05Z</time>
      </trkpt>
      <trkpt lat="59.227373" lon="18.127986">
        <ele>0</ele>
        <time>2019-12-10T09:25:05Z</time>
      </trkpt>
      <trkpt lat="59.227344" lon="18.12807">
        <ele>43</ele>
        <time>2019-12-10T09:25:06Z</time>
      </trkpt>
      <trkpt lat="59.227313" lon="18.128154">
        <ele>43</ele>
        <time>2019-12-10T09:25:08Z</time>
      </trkpt>
      <trkpt lat="59.227284" lon="18.128238">
        <ele>43</ele>
        <time>2019-12-10T09:25:09Z</time>
      </trkpt>
      <trkpt lat="59.227254" lon="18.12832">
        <ele>0</ele>
        <time>2019-12-10T09:25:09Z</time>
      </trkpt>
      <trkpt lat="59.227225" lon="18.128402">
        <ele>43</ele>
        <time>2019-12-10T09:25:10Z</time>
      </trkpt>
      <trkpt lat="59.227194" lon="18.128486">
        <ele>43</ele>
        <time>2019-12-10T09:25:12Z</time>
      </trkpt>
      <trkpt lat="59.227164" lon="18.12857">
        <ele>43</ele>
        <time>2019-12-10T09:25:13Z</time>
      </trkpt>
      <trkpt lat="59.227135" lon="18.128654">
        <ele>43</ele>
        <time>2019-12-10T09:25:14Z</time>
      </trkpt>
      <trkpt lat="59.227105" lon="18.128734">
        <ele>0</ele>
        <time>2019-12-10T09:25:14Z</time>
      </trkpt>
      <trkpt lat="59.227075" lon="18.128816">
        <ele>43</ele>
        <time>2019-12-10T09:25:15Z</time>
      </trkpt>
      <trkpt lat="59.227046" lon="18.128898">
        <ele>43</ele>
        <time>2019-12-10T09:25:17Z</time>
      </trkpt>
      <trkpt lat="59.227019" lon="18.128982">
        <ele>43</ele>
        <time>2019-12-10T09:25:18Z</time>
      </trkpt>
      <trkpt lat="59.22699" lon="18.129068">
        <ele>43</ele>
        <time>2019-12-10T09:25:19Z</time>
      </trkpt>
      <trkpt lat="59.226961" lon="18.129158">
        <ele>43</ele>
        <time>2019-12-10T09:25:20Z</time>
      </trkpt>
      <trkpt lat="59.226931" lon="18.129248">
        <ele>43</ele>
        <time>2019-12-10T09:25:21Z</time>
      </trkpt>
      <trkpt lat="59.226899" lon="18.129338">
        <ele>43</ele>
        <time>2019-12-10T09:25:22Z</time>
      </trkpt>
      <trkpt lat="59.226868" lon="18.12943">
        <ele>43</ele>
        <time>2019-12-10T09:25:23Z</time>
      </trkpt>
      <trkpt lat="59.226835" lon="18.12952">
        <ele>43</ele>
        <time>2019-12-10T09:25:24Z</time>
      </trkpt>
      <trkpt lat="59.226801" lon="18.12961">
        <ele>0</ele>
        <time>2019-12-10T09:25:24Z</time>
      </trkpt>
      <trkpt lat="59.226768" lon="18.1297">
        <ele>43</ele>
        <time>2019-12-10T09:25:25Z</time>
      </trkpt>
      <trkpt lat="59.226736" lon="18.129788">
        <ele>43</ele>
        <time>2019-12-10T09:25:27Z</time>
      </trkpt>
      <trkpt lat="59.226704" lon="18.129874">
        <ele>43</ele>
        <time>2019-12-10T09:25:28Z</time>
      </trkpt>
      <trkpt lat="59.226671" lon="18.129962">
        <ele>0</ele>
        <time>2019-12-10T09:25:28Z</time>
      </trkpt>
      <trkpt lat="59.226638" lon="18.13005">
        <ele>43</ele>
        <time>2019-12-10T09:25:29Z</time>
      </trkpt>
      <trkpt lat="59.226607" lon="18.130134">
        <ele>43</ele>
        <time>2019-12-10T09:25:31Z</time>
      </trkpt>
      <trkpt lat="59.226574" lon="18.130214">
        <ele>43</ele>
        <time>2019-12-10T09:25:32Z</time>
      </trkpt>
      <trkpt lat="59.226539" lon="18.13029">
        <ele>43</ele>
        <time>2019-12-10T09:25:33Z</time>
      </trkpt>
      <trkpt lat="59.226504" lon="18.130366">
        <ele>0</ele>
        <time>2019-12-10T09:25:33Z</time>
      </trkpt>
      <trkpt lat="59.226469" lon="18.130434">
        <ele>43</ele>
        <time>2019-12-10T09:25:34Z</time>
      </trkpt>
      <trkpt lat="59.226431" lon="18.130502">
        <ele>43</ele>
        <time>2019-12-10T09:25:36Z</time>
      </trkpt>
      <trkpt lat="59.22639" lon="18.130566">
        <ele>43</ele>
        <time>2019-12-10T09:25:37Z</time>
      </trkpt>
      <trkpt lat="59.226345" lon="18.130626">
        <ele>43</ele>
        <time>2019-12-10T09:25:38Z</time>
      </trkpt>
      <trkpt lat="59.226298" lon="18.130688">
        <ele>43</ele>
        <time>2019-12-10T09:25:39Z</time>
      </trkpt>
      <trkpt lat="59.226252" lon="18.130756">
        <ele>43</ele>
        <time>2019-12-10T09:25:40Z</time>
      </trkpt>
      <trkpt lat="59.226206" lon="18.130824">
        <ele>43</ele>
        <time>2019-12-10T09:25:41Z</time>
      </trkpt>
      <trkpt lat="59.226162" lon="18.13089">
        <ele>43</ele>
        <time>2019-12-10T09:25:42Z</time>
      </trkpt>
      <trkpt lat="59.226119" lon="18.130956">
        <ele>0</ele>
        <time>2019-12-10T09:25:42Z</time>
      </trkpt>
      <trkpt lat="59.226077" lon="18.131026">
        <ele>43</ele>
        <time>2019-12-10T09:25:43Z</time>
      </trkpt>
      <trkpt lat="59.226033" lon="18.13109">
        <ele>43</ele>
        <time>2019-12-10T09:25:45Z</time>
      </trkpt>
      <trkpt lat="59.225989" lon="18.131155">
        <ele>43</ele>
        <time>2019-12-10T09:25:46Z</time>
      </trkpt>
      <trkpt lat="59.225946" lon="18.13122">
        <ele>43</ele>
        <time>2019-12-10T09:25:47Z</time>
      </trkpt>
      <trkpt lat="59.225905" lon="18.131282">
        <ele>0</ele>
        <time>2019-12-10T09:25:47Z</time>
      </trkpt>
      <trkpt lat="59.225868" lon="18.131342">
        <ele>43</ele>
        <time>2019-12-10T09:25:48Z</time>
      </trkpt>
      <trkpt lat="59.225834" lon="18.131406">
        <ele>42</ele>
        <time>2019-12-10T09:25:50Z</time>
      </trkpt>
      <trkpt lat="59.225806" lon="18.131478">
        <ele>42</ele>
        <time>2019-12-10T09:25:51Z</time>
      </trkpt>
      <trkpt lat="59.225786" lon="18.131554">
        <ele>42</ele>
        <time>2019-12-10T09:25:52Z</time>
      </trkpt>
      <trkpt lat="59.225773" lon="18.131634">
        <ele>0</ele>
        <time>2019-12-10T09:25:52Z</time>
      </trkpt>
      <trkpt lat="59.225764" lon="18.131714">
        <ele>42</ele>
        <time>2019-12-10T09:25:53Z</time>
      </trkpt>
      <trkpt lat="59.225755" lon="18.131792">
        <ele>41</ele>
        <time>2019-12-10T09:25:55Z</time>
      </trkpt>
      <trkpt lat="59.225745" lon="18.131862">
        <ele>0</ele>
        <time>2019-12-10T09:25:55Z</time>
      </trkpt>
      <trkpt lat="59.225733" lon="18.131928">
        <ele>41</ele>
        <time>2019-12-10T09:25:56Z</time>
      </trkpt>
      <trkpt lat="59.225718" lon="18.131992">
        <ele>41</ele>
        <time>2019-12-10T09:25:58Z</time>
      </trkpt>
      <trkpt lat="59.225702" lon="18.132052">
        <ele>41</ele>
        <time>2019-12-10T09:25:59Z</time>
      </trkpt>
      <trkpt lat="59.225679" lon="18.13211">
        <ele>41</ele>
        <time>2019-12-10T09:26:00Z</time>
      </trkpt>
      <trkpt lat="59.225648" lon="18.132158">
        <ele>40</ele>
        <time>2019-12-10T09:26:01Z</time>
      </trkpt>
      <trkpt lat="59.225611" lon="18.132201">
        <ele>40</ele>
        <time>2019-12-10T09:26:02Z</time>
      </trkpt>
      <trkpt lat="59.225571" lon="18.132245">
        <ele>40</ele>
        <time>2019-12-10T09:26:03Z</time>
      </trkpt>
      <trkpt lat="59.225528" lon="18.132294">
        <ele>40</ele>
        <time>2019-12-10T09:26:04Z</time>
      </trkpt>
      <trkpt lat="59.225484" lon="18.132346">
        <ele>0</ele>
        <time>2019-12-10T09:26:04Z</time>
      </trkpt>
      <trkpt lat="59.22544" lon="18.132399">
        <ele>40</ele>
        <time>2019-12-10T09:26:05Z</time>
      </trkpt>
      <trkpt lat="59.225395" lon="18.132456">
        <ele>0</ele>
        <time>2019-12-10T09:26:06Z</time>
      </trkpt>
      <trkpt lat="59.225351" lon="18.132514">
        <ele>39</ele>
        <time>2019-12-10T09:26:07Z</time>
      </trkpt>
      <trkpt lat="59.225306" lon="18.132576">
        <ele>39</ele>
        <time>2019-12-10T09:26:09Z</time>
      </trkpt>
      <trkpt lat="59.225259" lon="18.132643">
        <ele>39</ele>
        <time>2019-12-10T09:26:10Z</time>
      </trkpt>
      <trkpt lat="59.225214" lon="18.132715">
        <ele>39</ele>
        <time>2019-12-10T09:26:11Z</time>
      </trkpt>
      <trkpt lat="59.225169" lon="18.132789">
        <ele>39</ele>
        <time>2019-12-10T09:26:12Z</time>
      </trkpt>
      <trkpt lat="59.22512" lon="18.132873">
        <ele>39</ele>
        <time>2019-12-10T09:26:13Z</time>
      </trkpt>
      <trkpt lat="59.22507" lon="18.132961">
        <ele>0</ele>
        <time>2019-12-10T09:26:13Z</time>
      </trkpt>
      <trkpt lat="59.225018" lon="18.133052">
        <ele>39</ele>
        <time>2019-12-10T09:26:14Z</time>
      </trkpt>
      <trkpt lat="59.224963" lon="18.133146">
        <ele>38</ele>
        <time>2019-12-10T09:26:16Z</time>
      </trkpt>
      <trkpt lat="59.224905" lon="18.133251">
        <ele>38</ele>
        <time>2019-12-10T09:26:17Z</time>
      </trkpt>
      <trkpt lat="59.224846" lon="18.133363">
        <ele>38</ele>
        <time>2019-12-10T09:26:18Z</time>
      </trkpt>
      <trkpt lat="59.22479" lon="18.133474">
        <ele>37</ele>
        <time>2019-12-10T09:26:19Z</time>
      </trkpt>
      <trkpt lat="59.224734" lon="18.13359">
        <ele>0</ele>
        <time>2019-12-10T09:26:19Z</time>
      </trkpt>
      <trkpt lat="59.224679" lon="18.133711">
        <ele>37</ele>
        <time>2019-12-10T09:26:20Z</time>
      </trkpt>
      <trkpt lat="59.224626" lon="18.133832">
        <ele>36</ele>
        <time>2019-12-10T09:26:22Z</time>
      </trkpt>
      <trkpt lat="59.224573" lon="18.133955">
        <ele>36</ele>
        <time>2019-12-10T09:26:23Z</time>
      </trkpt>
      <trkpt lat="59.224522" lon="18.134079">
        <ele>36</ele>
        <time>2019-12-10T09:26:24Z</time>
      </trkpt>
      <trkpt lat="59.224473" lon="18.134202">
        <ele>35</ele>
        <time>2019-12-10T09:26:25Z</time>
      </trkpt>
      <trkpt lat="59.224427" lon="18.134323">
        <ele>0</ele>
        <time>2019-12-10T09:26:25Z</time>
      </trkpt>
      <trkpt lat="59.224381" lon="18.134442">
        <ele>35</ele>
        <time>2019-12-10T09:26:26Z</time>
      </trkpt>
      <trkpt lat="59.224338" lon="18.134556">
        <ele>35</ele>
        <time>2019-12-10T09:26:28Z</time>
      </trkpt>
      <trkpt lat="59.224297" lon="18.134667">
        <ele>35</ele>
        <time>2019-12-10T09:26:29Z</time>
      </trkpt>
      <trkpt lat="59.224257" lon="18.134775">
        <ele>35</ele>
        <time>2019-12-10T09:26:30Z</time>
      </trkpt>
      <trkpt lat="59.224217" lon="18.134883">
        <ele>35</ele>
        <time>2019-12-10T09:26:31Z</time>
      </trkpt>
      <trkpt lat="59.224176" lon="18.13499">
        <ele>35</ele>
        <time>2019-12-10T09:26:32Z</time>
      </trkpt>
      <trkpt lat="59.224137" lon="18.135095">
        <ele>35</ele>
        <time>2019-12-10T09:26:33Z</time>
      </trkpt>
      <trkpt lat="59.224099" lon="18.135196">
        <ele>0</ele>
        <time>2019-12-10T09:26:33Z</time>
      </trkpt>
      <trkpt lat="59.224061" lon="18.135297">
        <ele>35</ele>
        <time>2019-12-10T09:26:34Z</time>
      </trkpt>
      <trkpt lat="59.224024" lon="18.135395">
        <ele>35</ele>
        <time>2019-12-10T09:26:36Z</time>
      </trkpt>
      <trkpt lat="59.223987" lon="18.135492">
        <ele>36</ele>
        <time>2019-12-10T09:26:37Z</time>
      </trkpt>
      <trkpt lat="59.22395" lon="18.135586">
        <ele>36</ele>
        <time>2019-12-10T09:26:38Z</time>
      </trkpt>
      <trkpt lat="59.223913" lon="18.135676">
        <ele>36</ele>
        <time>2019-12-10T09:26:39Z</time>
      </trkpt>
      <trkpt lat="59.223877" lon="18.135767">
        <ele>36</ele>
        <time>2019-12-10T09:26:40Z</time>
      </trkpt>
      <trkpt lat="59.223841" lon="18.135859">
        <ele>36</ele>
        <time>2019-12-10T09:26:41Z</time>
      </trkpt>
      <trkpt lat="59.223805" lon="18.135948">
        <ele>0</ele>
        <time>2019-12-10T09:26:41Z</time>
      </trkpt>
      <trkpt lat="59.223768" lon="18.136035">
        <ele>36</ele>
        <time>2019-12-10T09:26:42Z</time>
      </trkpt>
      <trkpt lat="59.223731" lon="18.136124">
        <ele>36</ele>
        <time>2019-12-10T09:26:44Z</time>
      </trkpt>
      <trkpt lat="59.223695" lon="18.13621">
        <ele>0</ele>
        <time>2019-12-10T09:26:44Z</time>
      </trkpt>
      <trkpt lat="59.223658" lon="18.136297">
        <ele>36</ele>
        <time>2019-12-10T09:26:45Z</time>
      </trkpt>
      <trkpt lat="59.223619" lon="18.136385">
        <ele>36</ele>
        <time>2019-12-10T09:26:47Z</time>
      </trkpt>
      <trkpt lat="59.22358" lon="18.13647">
        <ele>36</ele>
        <time>2019-12-10T09:26:48Z</time>
      </trkpt>
      <trkpt lat="59.223538" lon="18.136556">
        <ele>36</ele>
        <time>2019-12-10T09:26:49Z</time>
      </trkpt>
      <trkpt lat="59.223495" lon="18.136638">
        <ele>0</ele>
        <time>2019-12-10T09:26:49Z</time>
      </trkpt>
      <trkpt lat="59.223452" lon="18.136718">
        <ele>36</ele>
        <time>2019-12-10T09:26:50Z</time>
      </trkpt>
      <trkpt lat="59.223408" lon="18.136796">
        <ele>36</ele>
        <time>2019-12-10T09:26:52Z</time>
      </trkpt>
      <trkpt lat="59.223362" lon="18.136873">
        <ele>36</ele>
        <time>2019-12-10T09:26:53Z</time>
      </trkpt>
      <trkpt lat="59.223317" lon="18.136948">
        <ele>36</ele>
        <time>2019-12-10T09:26:54Z</time>
      </trkpt>
      <trkpt lat="59.223272" lon="18.137021">
        <ele>36</ele>
        <time>2019-12-10T09:26:55Z</time>
      </trkpt>
      <trkpt lat="59.223227" lon="18.13709">
        <ele>36</ele>
        <time>2019-12-10T09:26:56Z</time>
      </trkpt>
      <trkpt lat="59.223181" lon="18.137157">
        <ele>36</ele>
        <time>2019-12-10T09:26:57Z</time>
      </trkpt>
      <trkpt lat="59.223133" lon="18.137223">
        <ele>37</ele>
        <time>2019-12-10T09:26:58Z</time>
      </trkpt>
      <trkpt lat="59.223085" lon="18.137285">
        <ele>0</ele>
        <time>2019-12-10T09:26:58Z</time>
      </trkpt>
      <trkpt lat="59.223035" lon="18.137342">
        <ele>37</ele>
        <time>2019-12-10T09:26:59Z</time>
      </trkpt>
      <trkpt lat="59.222985" lon="18.137396">
        <ele>36</ele>
        <time>2019-12-10T09:27:01Z</time>
      </trkpt>
      <trkpt lat="59.222934" lon="18.137447">
        <ele>36</ele>
        <time>2019-12-10T09:27:02Z</time>
      </trkpt>
      <trkpt lat="59.222885" lon="18.137495">
        <ele>36</ele>
        <time>2019-12-10T09:27:03Z</time>
      </trkpt>
      <trkpt lat="59.222834" lon="18.137545">
        <ele>0</ele>
        <time>2019-12-10T09:27:03Z</time>
      </trkpt>
      <trkpt lat="59.222781" lon="18.137593">
        <ele>36</ele>
        <time>2019-12-10T09:27:04Z</time>
      </trkpt>
      <trkpt lat="59.222728" lon="18.137638">
        <ele>36</ele>
        <time>2019-12-10T09:27:06Z</time>
      </trkpt>
      <trkpt lat="59.222675" lon="18.137681">
        <ele>36</ele>
        <time>2019-12-10T09:27:07Z</time>
      </trkpt>
      <trkpt lat="59.22262" lon="18.137723">
        <ele>0</ele>
        <time>2019-12-10T09:27:07Z</time>
      </trkpt>
      <trkpt lat="59.222563" lon="18.137766">
        <ele>36</ele>
        <time>2019-12-10T09:27:08Z</time>
      </trkpt>
      <trkpt lat="59.222507" lon="18.137802">
        <ele>37</ele>
        <time>2019-12-10T09:27:10Z</time>
      </trkpt>
      <trkpt lat="59.222452" lon="18.137836">
        <ele>37</ele>
        <time>2019-12-10T09:27:11Z</time>
      </trkpt>
      <trkpt lat="59.222397" lon="18.137867">
        <ele>37</ele>
        <time>2019-12-10T09:27:12Z</time>
      </trkpt>
      <trkpt lat="59.222342" lon="18.137898">
        <ele>37</ele>
        <time>2019-12-10T09:27:13Z</time>
      </trkpt>
      <trkpt lat="59.222287" lon="18.137928">
        <ele>37</ele>
        <time>2019-12-10T09:27:14Z</time>
      </trkpt>
      <trkpt lat="59.222232" lon="18.137957">
        <ele>37</ele>
        <time>2019-12-10T09:27:15Z</time>
      </trkpt>
      <trkpt lat="59.222177" lon="18.137986">
        <ele>0</ele>
        <time>2019-12-10T09:27:15Z</time>
      </trkpt>
      <trkpt lat="59.222122" lon="18.138013">
        <ele>37</ele>
        <time>2019-12-10T09:27:16Z</time>
      </trkpt>
      <trkpt lat="59.222068" lon="18.13804">
        <ele>37</ele>
        <time>2019-12-10T09:27:18Z</time>
      </trkpt>
      <trkpt lat="59.222014" lon="18.138066">
        <ele>37</ele>
        <time>2019-12-10T09:27:19Z</time>
      </trkpt>
      <trkpt lat="59.221959" lon="18.13809">
        <ele>36</ele>
        <time>2019-12-10T09:27:20Z</time>
      </trkpt>
      <trkpt lat="59.221904" lon="18.138112">
        <ele>36</ele>
        <time>2019-12-10T09:27:21Z</time>
      </trkpt>
      <trkpt lat="59.221849" lon="18.138131">
        <ele>36</ele>
        <time>2019-12-10T09:27:22Z</time>
      </trkpt>
      <trkpt lat="59.221794" lon="18.138152">
        <ele>0</ele>
        <time>2019-12-10T09:27:22Z</time>
      </trkpt>
      <trkpt lat="59.221739" lon="18.138172">
        <ele>36</ele>
        <time>2019-12-10T09:27:23Z</time>
      </trkpt>
      <trkpt lat="59.221683" lon="18.138193">
        <ele>0</ele>
        <time>2019-12-10T09:27:24Z</time>
      </trkpt>
      <trkpt lat="59.221627" lon="18.138215">
        <ele>36</ele>
        <time>2019-12-10T09:27:25Z</time>
      </trkpt>
      <trkpt lat="59.221571" lon="18.138237">
        <ele>35</ele>
        <time>2019-12-10T09:27:27Z</time>
      </trkpt>
      <trkpt lat="59.221516" lon="18.138259">
        <ele>35</ele>
        <time>2019-12-10T09:27:28Z</time>
      </trkpt>
      <trkpt lat="59.221459" lon="18.138282">
        <ele>34</ele>
        <time>2019-12-10T09:27:29Z</time>
      </trkpt>
      <trkpt lat="59.221402" lon="18.138306">
        <ele>34</ele>
        <time>2019-12-10T09:27:30Z</time>
      </trkpt>
      <trkpt lat="59.221345" lon="18.138328">
        <ele>34</ele>
        <time>2019-12-10T09:27:31Z</time>
      </trkpt>
      <trkpt lat="59.221288" lon="18.138352">
        <ele>34</ele>
        <time>2019-12-10T09:27:32Z</time>
      </trkpt>
      <trkpt lat="59.221231" lon="18.138374">
        <ele>33</ele>
        <time>2019-12-10T09:27:33Z</time>
      </trkpt>
      <trkpt lat="59.221174" lon="18.138396">
        <ele>0</ele>
        <time>2019-12-10T09:27:33Z</time>
      </trkpt>
      <trkpt lat="59.221116" lon="18.138417">
        <ele>33</ele>
        <time>2019-12-10T09:27:34Z</time>
      </trkpt>
      <trkpt lat="59.221059" lon="18.138438">
        <ele>33</ele>
        <time>2019-12-10T09:27:36Z</time>
      </trkpt>
      <trkpt lat="59.221002" lon="18.138461">
        <ele>33</ele>
        <time>2019-12-10T09:27:37Z</time>
      </trkpt>
      <trkpt lat="59.220944" lon="18.138484">
        <ele>32</ele>
        <time>2019-12-10T09:27:38Z</time>
      </trkpt>
      <trkpt lat="59.220887" lon="18.138508">
        <ele>32</ele>
        <time>2019-12-10T09:27:39Z</time>
      </trkpt>
      <trkpt lat="59.220827" lon="18.138531">
        <ele>32</ele>
        <time>2019-12-10T09:27:40Z</time>
      </trkpt>
      <trkpt lat="59.220768" lon="18.138556">
        <ele>32</ele>
        <time>2019-12-10T09:27:41Z</time>
      </trkpt>
      <trkpt lat="59.220708" lon="18.138583">
        <ele>0</ele>
        <time>2019-12-10T09:27:41Z</time>
      </trkpt>
      <trkpt lat="59.220649" lon="18.138613">
        <ele>32</ele>
        <time>2019-12-10T09:27:42Z</time>
      </trkpt>
      <trkpt lat="59.220589" lon="18.138646">
        <ele>32</ele>
        <time>2019-12-10T09:27:44Z</time>
      </trkpt>
      <trkpt lat="59.220529" lon="18.138682">
        <ele>32</ele>
        <time>2019-12-10T09:27:45Z</time>
      </trkpt>
      <trkpt lat="59.220468" lon="18.138721">
        <ele>32</ele>
        <time>2019-12-10T09:27:46Z</time>
      </trkpt>
      <trkpt lat="59.220406" lon="18.138763">
        <ele>31</ele>
        <time>2019-12-10T09:27:47Z</time>
      </trkpt>
      <trkpt lat="59.220345" lon="18.138809">
        <ele>31</ele>
        <time>2019-12-10T09:27:48Z</time>
      </trkpt>
      <trkpt lat="59.220283" lon="18.138864">
        <ele>31</ele>
        <time>2019-12-10T09:27:49Z</time>
      </trkpt>
      <trkpt lat="59.220222" lon="18.138927">
        <ele>0</ele>
        <time>2019-12-10T09:27:49Z</time>
      </trkpt>
      <trkpt lat="59.220161" lon="18.138997">
        <ele>31</ele>
        <time>2019-12-10T09:27:50Z</time>
      </trkpt>
      <trkpt lat="59.220099" lon="18.139071">
        <ele>31</ele>
        <time>2019-12-10T09:27:52Z</time>
      </trkpt>
      <trkpt lat="59.220038" lon="18.139147">
        <ele>31</ele>
        <time>2019-12-10T09:27:53Z</time>
      </trkpt>
      <trkpt lat="59.219976" lon="18.139227">
        <ele>31</ele>
        <time>2019-12-10T09:27:54Z</time>
      </trkpt>
      <trkpt lat="59.219912" lon="18.13931">
        <ele>31</ele>
        <time>2019-12-10T09:27:55Z</time>
      </trkpt>
      <trkpt lat="59.219847" lon="18.139392">
        <ele>0</ele>
        <time>2019-12-10T09:27:55Z</time>
      </trkpt>
      <trkpt lat="59.219782" lon="18.13947">
        <ele>31</ele>
        <time>2019-12-10T09:27:56Z</time>
      </trkpt>
      <trkpt lat="59.219714" lon="18.139546">
        <ele>31</ele>
        <time>2019-12-10T09:27:58Z</time>
      </trkpt>
      <trkpt lat="59.219645" lon="18.139622">
        <ele>31</ele>
        <time>2019-12-10T09:27:59Z</time>
      </trkpt>
      <trkpt lat="59.219577" lon="18.139701">
        <ele>31</ele>
        <time>2019-12-10T09:28:00Z</time>
      </trkpt>
      <trkpt lat="59.21951" lon="18.139782">
        <ele>0</ele>
        <time>2019-12-10T09:28:00Z</time>
      </trkpt>
      <trkpt lat="59.219445" lon="18.139862">
        <ele>30</ele>
        <time>2019-12-10T09:28:01Z</time>
      </trkpt>
      <trkpt lat="59.219378" lon="18.139945">
        <ele>0</ele>
        <time>2019-12-10T09:28:02Z</time>
      </trkpt>
      <trkpt lat="59.219312" lon="18.140025">
        <ele>30</ele>
        <time>2019-12-10T09:28:03Z</time>
      </trkpt>
      <trkpt lat="59.219248" lon="18.140103">
        <ele>29</ele>
        <time>2019-12-10T09:28:05Z</time>
      </trkpt>
      <trkpt lat="59.219184" lon="18.14018">
        <ele>29</ele>
        <time>2019-12-10T09:28:06Z</time>
      </trkpt>
      <trkpt lat="59.219123" lon="18.140253">
        <ele>29</ele>
        <time>2019-12-10T09:28:07Z</time>
      </trkpt>
      <trkpt lat="59.21906" lon="18.140326">
        <ele>29</ele>
        <time>2019-12-10T09:28:08Z</time>
      </trkpt>
      <trkpt lat="59.219" lon="18.140396">
        <ele>28</ele>
        <time>2019-12-10T09:28:09Z</time>
      </trkpt>
      <trkpt lat="59.218942" lon="18.140465">
        <ele>0</ele>
        <time>2019-12-10T09:28:09Z</time>
      </trkpt>
      <trkpt lat="59.218884" lon="18.140534">
        <ele>28</ele>
        <time>2019-12-10T09:28:10Z</time>
      </trkpt>
      <trkpt lat="59.218828" lon="18.1406">
        <ele>27</ele>
        <time>2019-12-10T09:28:12Z</time>
      </trkpt>
      <trkpt lat="59.218777" lon="18.140668">
        <ele>27</ele>
        <time>2019-12-10T09:28:13Z</time>
      </trkpt>
      <trkpt lat="59.218731" lon="18.140739">
        <ele>27</ele>
        <time>2019-12-10T09:28:14Z</time>
      </trkpt>
      <trkpt lat="59.218692" lon="18.140817">
        <ele>27</ele>
        <time>2019-12-10T09:28:15Z</time>
      </trkpt>
      <trkpt lat="59.218663" lon="18.140903">
        <ele>26</ele>
        <time>2019-12-10T09:28:16Z</time>
      </trkpt>
      <trkpt lat="59.218644" lon="18.140994">
        <ele>26</ele>
        <time>2019-12-10T09:28:17Z</time>
      </trkpt>
      <trkpt lat="59.218629" lon="18.141089">
        <ele>0</ele>
        <time>2019-12-10T09:28:17Z</time>
      </trkpt>
      <trkpt lat="59.218617" lon="18.141183">
        <ele>26</ele>
        <time>2019-12-10T09:28:18Z</time>
      </trkpt>
      <trkpt lat="59.218607" lon="18.141276">
        <ele>0</ele>
        <time>2019-12-10T09:28:19Z</time>
      </trkpt>
      <trkpt lat="59.218601" lon="18.141365">
        <ele>26</ele>
        <time>2019-12-10T09:28:20Z</time>
      </trkpt>
      <trkpt lat="59.218593" lon="18.141442">
        <ele>25</ele>
        <time>2019-12-10T09:28:22Z</time>
      </trkpt>
      <trkpt lat="59.218577" lon="18.141504">
        <ele>25</ele>
        <time>2019-12-10T09:28:23Z</time>
      </trkpt>
      <trkpt lat="59.218551" lon="18.141547">
        <ele>25</ele>
        <time>2019-12-10T09:28:24Z</time>
      </trkpt>
      <trkpt lat="59.21852" lon="18.141569">
        <ele>25</ele>
        <time>2019-12-10T09:28:25Z</time>
      </trkpt>
      <trkpt lat="59.218487" lon="18.141584">
        <ele>25</ele>
        <time>2019-12-10T09:28:26Z</time>
      </trkpt>
      <trkpt lat="59.218452" lon="18.141603">
        <ele>25</ele>
        <time>2019-12-10T09:28:27Z</time>
      </trkpt>
      <trkpt lat="59.218417" lon="18.141628">
        <ele>25</ele>
        <time>2019-12-10T09:28:28Z</time>
      </trkpt>
      <trkpt lat="59.218383" lon="18.141652">
        <ele>25</ele>
        <time>2019-12-10T09:28:29Z</time>
      </trkpt>
      <trkpt lat="59.218348" lon="18.141665">
        <ele>25</ele>
        <time>2019-12-10T09:28:30Z</time>
      </trkpt>
      <trkpt lat="59.218313" lon="18.141658">
        <ele>25</ele>
        <time>2019-12-10T09:28:31Z</time>
      </trkpt>
      <trkpt lat="59.218282" lon="18.141627">
        <ele>0</ele>
        <time>2019-12-10T09:28:31Z</time>
      </trkpt>
      <trkpt lat="59.218253" lon="18.14158">
        <ele>25</ele>
        <time>2019-12-10T09:28:32Z</time>
      </trkpt>
      <trkpt lat="59.218224" lon="18.141535">
        <ele>25</ele>
        <time>2019-12-10T09:28:34Z</time>
      </trkpt>
      <trkpt lat="59.21819" lon="18.141503">
        <ele>25</ele>
        <time>2019-12-10T09:28:35Z</time>
      </trkpt>
      <trkpt lat="59.218155" lon="18.141492">
        <ele>25</ele>
        <time>2019-12-10T09:28:36Z</time>
      </trkpt>
      <trkpt lat="59.218117" lon="18.141505">
        <ele>25</ele>
        <time>2019-12-10T09:28:37Z</time>
      </trkpt>
      <trkpt lat="59.218077" lon="18.141534">
        <ele>26</ele>
        <time>2019-12-10T09:28:38Z</time>
      </trkpt>
      <trkpt lat="59.218037" lon="18.141572">
        <ele>0</ele>
        <time>2019-12-10T09:28:38Z</time>
      </trkpt>
      <trkpt lat="59.217995" lon="18.141614">
        <ele>26</ele>
        <time>2019-12-10T09:28:39Z</time>
      </trkpt>
      <trkpt lat="59.217953" lon="18.141658">
        <ele>26</ele>
        <time>2019-12-10T09:28:41Z</time>
      </trkpt>
      <trkpt lat="59.21791" lon="18.141705">
        <ele>26</ele>
        <time>2019-12-10T09:28:42Z</time>
      </trkpt>
      <trkpt lat="59.217867" lon="18.141753">
        <ele>0</ele>
        <time>2019-12-10T09:28:42Z</time>
      </trkpt>
      <trkpt lat="59.217823" lon="18.141805">
        <ele>26</ele>
        <time>2019-12-10T09:28:43Z</time>
      </trkpt>
      <trkpt lat="59.217777" lon="18.141857">
        <ele>26</ele>
        <time>2019-12-10T09:28:45Z</time>
      </trkpt>
      <trkpt lat="59.217729" lon="18.141909">
        <ele>26</ele>
        <time>2019-12-10T09:28:46Z</time>
      </trkpt>
      <trkpt lat="59.217681" lon="18.141962">
        <ele>26</ele>
        <time>2019-12-10T09:28:47Z</time>
      </trkpt>
      <trkpt lat="59.217632" lon="18.142016">
        <ele>26</ele>
        <time>2019-12-10T09:28:48Z</time>
      </trkpt>
      <trkpt lat="59.217583" lon="18.142071">
        <ele>26</ele>
        <time>2019-12-10T09:28:49Z</time>
      </trkpt>
      <trkpt lat="59.217534" lon="18.142127">
        <ele>26</ele>
        <time>2019-12-10T09:28:50Z</time>
      </trkpt>
      <trkpt lat="59.217485" lon="18.142183">
        <ele>26</ele>
        <time>2019-12-10T09:28:51Z</time>
      </trkpt>
      <trkpt lat="59.217436" lon="18.142239">
        <ele>0</ele>
        <time>2019-12-10T09:28:51Z</time>
      </trkpt>
      <trkpt lat="59.217386" lon="18.142296">
        <ele>26</ele>
        <time>2019-12-10T09:28:52Z</time>
      </trkpt>
      <trkpt lat="59.217337" lon="18.142353">
        <ele>26</ele>
        <time>2019-12-10T09:28:54Z</time>
      </trkpt>
      <trkpt lat="59.217289" lon="18.142409">
        <ele>26</ele>
        <time>2019-12-10T09:28:55Z</time>
      </trkpt>
      <trkpt lat="59.21724" lon="18.142466">
        <ele>26</ele>
        <time>2019-12-10T09:28:56Z</time>
      </trkpt>
      <trkpt lat="59.217191" lon="18.142523">
        <ele>26</ele>
        <time>2019-12-10T09:28:57Z</time>
      </trkpt>
      <trkpt lat="59.217142" lon="18.142582">
        <ele>0</ele>
        <time>2019-12-10T09:28:57Z</time>
      </trkpt>
      <trkpt lat="59.217093" lon="18.14264">
        <ele>26</ele>
        <time>2019-12-10T09:28:58Z</time>
      </trkpt>
      <trkpt lat="59.217043" lon="18.142698">
        <ele>26</ele>
        <time>2019-12-10T09:29:00Z</time>
      </trkpt>
      <trkpt lat="59.216992" lon="18.142757">
        <ele>0</ele>
        <time>2019-12-10T09:29:00Z</time>
      </trkpt>
      <trkpt lat="59.21694" lon="18.142818">
        <ele>26</ele>
        <time>2019-12-10T09:29:01Z</time>
      </trkpt>
      <trkpt lat="59.216887" lon="18.142879">
        <ele>26</ele>
        <time>2019-12-10T09:29:03Z</time>
      </trkpt>
      <trkpt lat="59.216833" lon="18.142939">
        <ele>26</ele>
        <time>2019-12-10T09:29:04Z</time>
      </trkpt>
      <trkpt lat="59.21678" lon="18.143001">
        <ele>26</ele>
        <time>2019-12-10T09:29:05Z</time>
      </trkpt>
      <trkpt lat="59.216728" lon="18.143065">
        <ele>26</ele>
        <time>2019-12-10T09:29:06Z</time>
      </trkpt>
      <trkpt lat="59.216676" lon="18.143127">
        <ele>26</ele>
        <time>2019-12-10T09:29:07Z</time>
      </trkpt>
      <trkpt lat="59.216622" lon="18.143189">
        <ele>26</ele>
        <time>2019-12-10T09:29:08Z</time>
      </trkpt>
      <trkpt lat="59.216568" lon="18.143252">
        <ele>0</ele>
        <time>2019-12-10T09:29:08Z</time>
      </trkpt>
      <trkpt lat="59.216514" lon="18.143316">
        <ele>26</ele>
        <time>2019-12-10T09:29:09Z</time>
      </trkpt>
      <trkpt lat="59.216462" lon="18.143381">
        <ele>26</ele>
        <time>2019-12-10T09:29:11Z</time>
      </trkpt>
      <trkpt lat="59.216409" lon="18.143443">
        <ele>26</ele>
        <time>2019-12-10T09:29:12Z</time>
      </trkpt>
      <trkpt lat="59.216356" lon="18.143503">
        <ele>26</ele>
        <time>2019-12-10T09:29:13Z</time>
      </trkpt>
      <trkpt lat="59.216303" lon="18.143563">
        <ele>26</ele>
        <time>2019-12-10T09:29:14Z</time>
      </trkpt>
      <trkpt lat="59.216252" lon="18.143625">
        <ele>26</ele>
        <time>2019-12-10T09:29:15Z</time>
      </trkpt>
      <trkpt lat="59.216203" lon="18.143684">
        <ele>26</ele>
        <time>2019-12-10T09:29:16Z</time>
      </trkpt>
      <trkpt lat="59.216155" lon="18.143741">
        <ele>0</ele>
        <time>2019-12-10T09:29:16Z</time>
      </trkpt>
      <trkpt lat="59.216105" lon="18.143798">
        <ele>26</ele>
        <time>2019-12-10T09:29:17Z</time>
      </trkpt>
      <trkpt lat="59.216055" lon="18.143858">
        <ele>27</ele>
        <time>2019-12-10T09:29:19Z</time>
      </trkpt>
      <trkpt lat="59.216007" lon="18.143916">
        <ele>27</ele>
        <time>2019-12-10T09:29:20Z</time>
      </trkpt>
      <trkpt lat="59.215959" lon="18.143972">
        <ele>27</ele>
        <time>2019-12-10T09:29:21Z</time>
      </trkpt>
      <trkpt lat="59.215913" lon="18.144027">
        <ele>27</ele>
        <time>2019-12-10T09:29:22Z</time>
      </trkpt>
      <trkpt lat="59.215868" lon="18.14408">
        <ele>27</ele>
        <time>2019-12-10T09:29:23Z</time>
      </trkpt>
      <trkpt lat="59.215823" lon="18.144133">
        <ele>28</ele>
        <time>2019-12-10T09:29:24Z</time>
      </trkpt>
      <trkpt lat="59.215776" lon="18.144185">
        <ele>28</ele>
        <time>2019-12-10T09:29:25Z</time>
      </trkpt>
      <trkpt lat="59.215729" lon="18.144237">
        <ele>0</ele>
        <time>2019-12-10T09:29:25Z</time>
      </trkpt>
      <trkpt lat="59.215678" lon="18.144287">
        <ele>28</ele>
        <time>2019-12-10T09:29:26Z</time>
      </trkpt>
      <trkpt lat="59.21563" lon="18.144337">
        <ele>28</ele>
        <time>2019-12-10T09:29:28Z</time>
      </trkpt>
      <trkpt lat="59.215584" lon="18.14439">
        <ele>28</ele>
        <time>2019-12-10T09:29:29Z</time>
      </trkpt>
      <trkpt lat="59.215539" lon="18.144443">
        <ele>29</ele>
        <time>2019-12-10T09:29:30Z</time>
      </trkpt>
      <trkpt lat="59.215493" lon="18.144496">
        <ele>29</ele>
        <time>2019-12-10T09:29:31Z</time>
      </trkpt>
      <trkpt lat="59.215448" lon="18.144547">
        <ele>29</ele>
        <time>2019-12-10T09:29:32Z</time>
      </trkpt>
      <trkpt lat="59.2154" lon="18.1446">
        <ele>29</ele>
        <time>2019-12-10T09:29:33Z</time>
      </trkpt>
      <trkpt lat="59.215353" lon="18.144652">
        <ele>29</ele>
        <time>2019-12-10T09:29:34Z</time>
      </trkpt>
      <trkpt lat="59.215306" lon="18.144706">
        <ele>29</ele>
        <time>2019-12-10T09:29:35Z</time>
      </trkpt>
      <trkpt lat="59.215261" lon="18.144759">
        <ele>0</ele>
        <time>2019-12-10T09:29:35Z</time>
      </trkpt>
      <trkpt lat="59.215215" lon="18.144812">
        <ele>30</ele>
        <time>2019-12-10T09:29:36Z</time>
      </trkpt>
      <trkpt lat="59.215172" lon="18.144864">
        <ele>30</ele>
        <time>2019-12-10T09:29:38Z</time>
      </trkpt>
      <trkpt lat="59.21513" lon="18.144917">
        <ele>30</ele>
        <time>2019-12-10T09:29:39Z</time>
      </trkpt>
      <trkpt lat="59.215089" lon="18.144971">
        <ele>30</ele>
        <time>2019-12-10T09:29:40Z</time>
      </trkpt>
      <trkpt lat="59.215047" lon="18.145024">
        <ele>30</ele>
        <time>2019-12-10T09:29:41Z</time>
      </trkpt>
      <trkpt lat="59.215004" lon="18.145077">
        <ele>30</ele>
        <time>2019-12-10T09:29:42Z</time>
      </trkpt>
      <trkpt lat="59.214961" lon="18.145129">
        <ele>30</ele>
        <time>2019-12-10T09:29:43Z</time>
      </trkpt>
      <trkpt lat="59.214918" lon="18.145181">
        <ele>31</ele>
        <time>2019-12-10T09:29:44Z</time>
      </trkpt>
      <trkpt lat="59.214876" lon="18.145234">
        <ele>31</ele>
        <time>2019-12-10T09:29:45Z</time>
      </trkpt>
      <trkpt lat="59.214833" lon="18.145287">
        <ele>0</ele>
        <time>2019-12-10T09:29:45Z</time>
      </trkpt>
      <trkpt lat="59.21479" lon="18.145339">
        <ele>31</ele>
        <time>2019-12-10T09:29:46Z</time>
      </trkpt>
      <trkpt lat="59.214745" lon="18.14539">
        <ele>31</ele>
        <time>2019-12-10T09:29:48Z</time>
      </trkpt>
      <trkpt lat="59.214701" lon="18.145444">
        <ele>31</ele>
        <time>2019-12-10T09:29:49Z</time>
      </trkpt>
      <trkpt lat="59.214656" lon="18.145498">
        <ele>31</ele>
        <time>2019-12-10T09:29:50Z</time>
      </trkpt>
      <trkpt lat="59.21461" lon="18.145551">
        <ele>31</ele>
        <time>2019-12-10T09:29:51Z</time>
      </trkpt>
      <trkpt lat="59.214564" lon="18.145605">
        <ele>31</ele>
        <time>2019-12-10T09:29:52Z</time>
      </trkpt>
      <trkpt lat="59.214519" lon="18.145661">
        <ele>32</ele>
        <time>2019-12-10T09:29:53Z</time>
      </trkpt>
      <trkpt lat="59.214474" lon="18.145715">
        <ele>32</ele>
        <time>2019-12-10T09:29:54Z</time>
      </trkpt>
      <trkpt lat="59.214428" lon="18.145771">
        <ele>0</ele>
        <time>2019-12-10T09:29:54Z</time>
      </trkpt>
      <trkpt lat="59.214382" lon="18.145825">
        <ele>32</ele>
        <time>2019-12-10T09:29:55Z</time>
      </trkpt>
      <trkpt lat="59.214336" lon="18.145877">
        <ele>32</ele>
        <time>2019-12-10T09:29:57Z</time>
      </trkpt>
      <trkpt lat="59.21429" lon="18.145929">
        <ele>32</ele>
        <time>2019-12-10T09:29:58Z</time>
      </trkpt>
      <trkpt lat="59.214244" lon="18.145982">
        <ele>32</ele>
        <time>2019-12-10T09:29:59Z</time>
      </trkpt>
      <trkpt lat="59.214197" lon="18.146036">
        <ele>32</ele>
        <time>2019-12-10T09:30:00Z</time>
      </trkpt>
      <trkpt lat="59.214151" lon="18.146088">
        <ele>32</ele>
        <time>2019-12-10T09:30:01Z</time>
      </trkpt>
      <trkpt lat="59.214105" lon="18.146139">
        <ele>33</ele>
        <time>2019-12-10T09:30:02Z</time>
      </trkpt>
      <trkpt lat="59.214059" lon="18.14619">
        <ele>33</ele>
        <time>2019-12-10T09:30:03Z</time>
      </trkpt>
      <trkpt lat="59.214013" lon="18.146242">
        <ele>0</ele>
        <time>2019-12-10T09:30:03Z</time>
      </trkpt>
      <trkpt lat="59.213968" lon="18.146295">
        <ele>33</ele>
        <time>2019-12-10T09:30:04Z</time>
      </trkpt>
      <trkpt lat="59.213924" lon="18.146347">
        <ele>33</ele>
        <time>2019-12-10T09:30:06Z</time>
      </trkpt>
      <trkpt lat="59.213881" lon="18.1464">
        <ele>33</ele>
        <time>2019-12-10T09:30:07Z</time>
      </trkpt>
      <trkpt lat="59.213838" lon="18.146454">
        <ele>34</ele>
        <time>2019-12-10T09:30:08Z</time>
      </trkpt>
      <trkpt lat="59.213794" lon="18.146502">
        <ele>34</ele>
        <time>2019-12-10T09:30:09Z</time>
      </trkpt>
      <trkpt lat="59.213749" lon="18.146547">
        <ele>34</ele>
        <time>2019-12-10T09:30:10Z</time>
      </trkpt>
      <trkpt lat="59.213704" lon="18.146591">
        <ele>34</ele>
        <time>2019-12-10T09:30:11Z</time>
      </trkpt>
      <trkpt lat="59.213659" lon="18.146634">
        <ele>34</ele>
        <time>2019-12-10T09:30:12Z</time>
      </trkpt>
      <trkpt lat="59.213613" lon="18.146675">
        <ele>34</ele>
        <time>2019-12-10T09:30:13Z</time>
      </trkpt>
      <trkpt lat="59.213568" lon="18.146714">
        <ele>0</ele>
        <time>2019-12-10T09:30:13Z</time>
      </trkpt>
      <trkpt lat="59.213523" lon="18.146752">
        <ele>34</ele>
        <time>2019-12-10T09:30:14Z</time>
      </trkpt>
      <trkpt lat="59.213478" lon="18.146789">
        <ele>34</ele>
        <time>2019-12-10T09:30:16Z</time>
      </trkpt>
      <trkpt lat="59.213432" lon="18.146824">
        <ele>34</ele>
        <time>2019-12-10T09:30:17Z</time>
      </trkpt>
      <trkpt lat="59.213386" lon="18.146857">
        <ele>34</ele>
        <time>2019-12-10T09:30:18Z</time>
      </trkpt>
      <trkpt lat="59.213341" lon="18.146888">
        <ele>34</ele>
        <time>2019-12-10T09:30:19Z</time>
      </trkpt>
      <trkpt lat="59.213295" lon="18.146918">
        <ele>34</ele>
        <time>2019-12-10T09:30:20Z</time>
      </trkpt>
      <trkpt lat="59.213249" lon="18.146946">
        <ele>35</ele>
        <time>2019-12-10T09:30:21Z</time>
      </trkpt>
      <trkpt lat="59.213203" lon="18.146969">
        <ele>35</ele>
        <time>2019-12-10T09:30:22Z</time>
      </trkpt>
      <trkpt lat="59.213158" lon="18.14699">
        <ele>35</ele>
        <time>2019-12-10T09:30:23Z</time>
      </trkpt>
      <trkpt lat="59.213114" lon="18.147009">
        <ele>34</ele>
        <time>2019-12-10T09:30:24Z</time>
      </trkpt>
      <trkpt lat="59.213071" lon="18.147027">
        <ele>0</ele>
        <time>2019-12-10T09:30:24Z</time>
      </trkpt>
      <trkpt lat="59.213029" lon="18.147044">
        <ele>34</ele>
        <time>2019-12-10T09:30:25Z</time>
      </trkpt>
      <trkpt lat="59.212987" lon="18.147061">
        <ele>35</ele>
        <time>2019-12-10T09:30:27Z</time>
      </trkpt>
      <trkpt lat="59.212948" lon="18.147076">
        <ele>35</ele>
        <time>2019-12-10T09:30:28Z</time>
      </trkpt>
      <trkpt lat="59.21291" lon="18.14709">
        <ele>35</ele>
        <time>2019-12-10T09:30:29Z</time>
      </trkpt>
      <trkpt lat="59.212872" lon="18.147102">
        <ele>35</ele>
        <time>2019-12-10T09:30:30Z</time>
      </trkpt>
      <trkpt lat="59.212834" lon="18.147112">
        <ele>35</ele>
        <time>2019-12-10T09:30:31Z</time>
      </trkpt>
      <trkpt lat="59.212797" lon="18.147121">
        <ele>35</ele>
        <time>2019-12-10T09:30:32Z</time>
      </trkpt>
      <trkpt lat="59.212762" lon="18.14713">
        <ele>0</ele>
        <time>2019-12-10T09:30:32Z</time>
      </trkpt>
      <trkpt lat="59.212726" lon="18.147137">
        <ele>35</ele>
        <time>2019-12-10T09:30:33Z</time>
      </trkpt>
      <trkpt lat="59.21269" lon="18.147145">
        <ele>36</ele>
        <time>2019-12-10T09:30:35Z</time>
      </trkpt>
      <trkpt lat="59.212655" lon="18.147152">
        <ele>36</ele>
        <time>2019-12-10T09:30:36Z</time>
      </trkpt>
      <trkpt lat="59.212621" lon="18.147158">
        <ele>36</ele>
        <time>2019-12-10T09:30:37Z</time>
      </trkpt>
      <trkpt lat="59.212589" lon="18.147163">
        <ele>36</ele>
        <time>2019-12-10T09:30:38Z</time>
      </trkpt>
      <trkpt lat="59.212556" lon="18.147171">
        <ele>0</ele>
        <time>2019-12-10T09:30:38Z</time>
      </trkpt>
      <trkpt lat="59.212524" lon="18.147179">
        <ele>36</ele>
        <time>2019-12-10T09:30:39Z</time>
      </trkpt>
      <trkpt lat="59.212491" lon="18.147185">
        <ele>36</ele>
        <time>2019-12-10T09:30:41Z</time>
      </trkpt>
      <trkpt lat="59.212459" lon="18.147189">
        <ele>36</ele>
        <time>2019-12-10T09:30:42Z</time>
      </trkpt>
      <trkpt lat="59.212426" lon="18.147191">
        <ele>36</ele>
        <time>2019-12-10T09:30:43Z</time>
      </trkpt>
      <trkpt lat="59.212393" lon="18.147193">
        <ele>36</ele>
        <time>2019-12-10T09:30:44Z</time>
      </trkpt>
      <trkpt lat="59.212361" lon="18.147195">
        <ele>36</ele>
        <time>2019-12-10T09:30:45Z</time>
      </trkpt>
      <trkpt lat="59.212329" lon="18.147195">
        <ele>36</ele>
        <time>2019-12-10T09:30:46Z</time>
      </trkpt>
      <trkpt lat="59.212297" lon="18.147198">
        <ele>36</ele>
        <time>2019-12-10T09:30:47Z</time>
      </trkpt>
      <trkpt lat="59.212265" lon="18.1472">
        <ele>37</ele>
        <time>2019-12-10T09:30:48Z</time>
      </trkpt>
      <trkpt lat="59.212232" lon="18.147201">
        <ele>37</ele>
        <time>2019-12-10T09:30:49Z</time>
      </trkpt>
      <trkpt lat="59.212201" lon="18.147204">
        <ele>37</ele>
        <time>2019-12-10T09:30:50Z</time>
      </trkpt>
      <trkpt lat="59.21217" lon="18.147204">
        <ele>37</ele>
        <time>2019-12-10T09:30:51Z</time>
      </trkpt>
      <trkpt lat="59.212141" lon="18.147203">
        <ele>0</ele>
        <time>2019-12-10T09:30:51Z</time>
      </trkpt>
      <trkpt lat="59.212112" lon="18.147201">
        <ele>37</ele>
        <time>2019-12-10T09:30:52Z</time>
      </trkpt>
      <trkpt lat="59.212082" lon="18.147195">
        <ele>0</ele>
        <time>2019-12-10T09:30:53Z</time>
      </trkpt>
      <trkpt lat="59.212052" lon="18.147189">
        <ele>38</ele>
        <time>2019-12-10T09:30:54Z</time>
      </trkpt>
      <trkpt lat="59.212021" lon="18.147183">
        <ele>38</ele>
        <time>2019-12-10T09:30:56Z</time>
      </trkpt>
      <trkpt lat="59.211992" lon="18.147183">
        <ele>38</ele>
        <time>2019-12-10T09:30:57Z</time>
      </trkpt>
      <trkpt lat="59.211964" lon="18.147182">
        <ele>38</ele>
        <time>2019-12-10T09:30:58Z</time>
      </trkpt>
      <trkpt lat="59.211935" lon="18.147181">
        <ele>39</ele>
        <time>2019-12-10T09:30:59Z</time>
      </trkpt>
      <trkpt lat="59.211904" lon="18.147181">
        <ele>39</ele>
        <time>2019-12-10T09:31:00Z</time>
      </trkpt>
      <trkpt lat="59.211872" lon="18.147182">
        <ele>39</ele>
        <time>2019-12-10T09:31:01Z</time>
      </trkpt>
      <trkpt lat="59.211843" lon="18.147181">
        <ele>39</ele>
        <time>2019-12-10T09:31:02Z</time>
      </trkpt>
      <trkpt lat="59.211812" lon="18.147172">
        <ele>39</ele>
        <time>2019-12-10T09:31:03Z</time>
      </trkpt>
      <trkpt lat="59.211783" lon="18.147158">
        <ele>40</ele>
        <time>2019-12-10T09:31:04Z</time>
      </trkpt>
      <trkpt lat="59.211758" lon="18.147141">
        <ele>40</ele>
        <time>2019-12-10T09:31:05Z</time>
      </trkpt>
      <trkpt lat="59.211731" lon="18.147129">
        <ele>40</ele>
        <time>2019-12-10T09:31:06Z</time>
      </trkpt>
      <trkpt lat="59.211704" lon="18.147123">
        <ele>40</ele>
        <time>2019-12-10T09:31:07Z</time>
      </trkpt>
      <trkpt lat="59.211674" lon="18.147116">
        <ele>40</ele>
        <time>2019-12-10T09:31:08Z</time>
      </trkpt>
      <trkpt lat="59.211644" lon="18.147102">
        <ele>40</ele>
        <time>2019-12-10T09:31:09Z</time>
      </trkpt>
      <trkpt lat="59.211615" lon="18.14709">
        <ele>40</ele>
        <time>2019-12-10T09:31:10Z</time>
      </trkpt>
      <trkpt lat="59.211582" lon="18.147079">
        <ele>0</ele>
        <time>2019-12-10T09:31:10Z</time>
      </trkpt>
      <trkpt lat="59.211552" lon="18.147072">
        <ele>41</ele>
        <time>2019-12-10T09:31:11Z</time>
      </trkpt>
      <trkpt lat="59.211518" lon="18.147057">
        <ele>41</ele>
        <time>2019-12-10T09:31:13Z</time>
      </trkpt>
      <trkpt lat="59.211485" lon="18.147041">
        <ele>41</ele>
        <time>2019-12-10T09:31:14Z</time>
      </trkpt>
      <trkpt lat="59.211451" lon="18.147023">
        <ele>41</ele>
        <time>2019-12-10T09:31:15Z</time>
      </trkpt>
      <trkpt lat="59.211416" lon="18.147004">
        <ele>41</ele>
        <time>2019-12-10T09:31:16Z</time>
      </trkpt>
      <trkpt lat="59.211384" lon="18.146987">
        <ele>41</ele>
        <time>2019-12-10T09:31:17Z</time>
      </trkpt>
      <trkpt lat="59.211351" lon="18.146971">
        <ele>41</ele>
        <time>2019-12-10T09:31:18Z</time>
      </trkpt>
      <trkpt lat="59.211318" lon="18.14695">
        <ele>41</ele>
        <time>2019-12-10T09:31:19Z</time>
      </trkpt>
      <trkpt lat="59.211286" lon="18.146928">
        <ele>41</ele>
        <time>2019-12-10T09:31:20Z</time>
      </trkpt>
      <trkpt lat="59.211253" lon="18.14691">
        <ele>41</ele>
        <time>2019-12-10T09:31:21Z</time>
      </trkpt>
      <trkpt lat="59.211221" lon="18.146889">
        <ele>42</ele>
        <time>2019-12-10T09:31:22Z</time>
      </trkpt>
      <trkpt lat="59.211189" lon="18.146864">
        <ele>42</ele>
        <time>2019-12-10T09:31:23Z</time>
      </trkpt>
      <trkpt lat="59.211158" lon="18.146842">
        <ele>42</ele>
        <time>2019-12-10T09:31:24Z</time>
      </trkpt>
      <trkpt lat="59.211128" lon="18.146818">
        <ele>42</ele>
        <time>2019-12-10T09:31:25Z</time>
      </trkpt>
      <trkpt lat="59.211097" lon="18.146795">
        <ele>0</ele>
        <time>2019-12-10T09:31:25Z</time>
      </trkpt>
      <trkpt lat="59.211065" lon="18.146772">
        <ele>42</ele>
        <time>2019-12-10T09:31:26Z</time>
      </trkpt>
      <trkpt lat="59.211034" lon="18.146746">
        <ele>43</ele>
        <time>2019-12-10T09:31:28Z</time>
      </trkpt>
      <trkpt lat="59.211004" lon="18.14672">
        <ele>43</ele>
        <time>2019-12-10T09:31:29Z</time>
      </trkpt>
      <trkpt lat="59.210975" lon="18.146692">
        <ele>0</ele>
        <time>2019-12-10T09:31:29Z</time>
      </trkpt>
      <trkpt lat="59.210946" lon="18.146664">
        <ele>43</ele>
        <time>2019-12-10T09:31:30Z</time>
      </trkpt>
      <trkpt lat="59.210917" lon="18.146636">
        <ele>44</ele>
        <time>2019-12-10T09:31:32Z</time>
      </trkpt>
      <trkpt lat="59.21089" lon="18.146606">
        <ele>44</ele>
        <time>2019-12-10T09:31:33Z</time>
      </trkpt>
      <trkpt lat="59.210863" lon="18.146577">
        <ele>44</ele>
        <time>2019-12-10T09:31:34Z</time>
      </trkpt>
      <trkpt lat="59.210835" lon="18.146549">
        <ele>44</ele>
        <time>2019-12-10T09:31:35Z</time>
      </trkpt>
      <trkpt lat="59.210806" lon="18.146521">
        <ele>44</ele>
        <time>2019-12-10T09:31:36Z</time>
      </trkpt>
      <trkpt lat="59.210777" lon="18.146495">
        <ele>44</ele>
        <time>2019-12-10T09:31:37Z</time>
      </trkpt>
      <trkpt lat="59.210748" lon="18.146468">
        <ele>44</ele>
        <time>2019-12-10T09:31:38Z</time>
      </trkpt>
      <trkpt lat="59.210718" lon="18.146439">
        <ele>44</ele>
        <time>2019-12-10T09:31:39Z</time>
      </trkpt>
      <trkpt lat="59.210689" lon="18.14641">
        <ele>44</ele>
        <time>2019-12-10T09:31:40Z</time>
      </trkpt>
      <trkpt lat="59.210661" lon="18.146382">
        <ele>0</ele>
        <time>2019-12-10T09:31:40Z</time>
      </trkpt>
      <trkpt lat="59.210632" lon="18.146354">
        <ele>45</ele>
        <time>2019-12-10T09:31:41Z</time>
      </trkpt>
      <trkpt lat="59.210604" lon="18.146324">
        <ele>45</ele>
        <time>2019-12-10T09:31:43Z</time>
      </trkpt>
      <trkpt lat="59.210577" lon="18.146292">
        <ele>45</ele>
        <time>2019-12-10T09:31:44Z</time>
      </trkpt>
      <trkpt lat="59.210549" lon="18.146261">
        <ele>45</ele>
        <time>2019-12-10T09:31:45Z</time>
      </trkpt>
      <trkpt lat="59.210519" lon="18.146231">
        <ele>45</ele>
        <time>2019-12-10T09:31:46Z</time>
      </trkpt>
      <trkpt lat="59.210491" lon="18.1462">
        <ele>45</ele>
        <time>2019-12-10T09:31:47Z</time>
      </trkpt>
      <trkpt lat="59.210462" lon="18.146169">
        <ele>45</ele>
        <time>2019-12-10T09:31:48Z</time>
      </trkpt>
      <trkpt lat="59.210433" lon="18.146136">
        <ele>0</ele>
        <time>2019-12-10T09:31:48Z</time>
      </trkpt>
      <trkpt lat="59.210405" lon="18.146104">
        <ele>46</ele>
        <time>2019-12-10T09:31:49Z</time>
      </trkpt>
      <trkpt lat="59.210378" lon="18.146072">
        <ele>46</ele>
        <time>2019-12-10T09:31:51Z</time>
      </trkpt>
      <trkpt lat="59.210351" lon="18.14604">
        <ele>46</ele>
        <time>2019-12-10T09:31:52Z</time>
      </trkpt>
      <trkpt lat="59.210323" lon="18.146012">
        <ele>46</ele>
        <time>2019-12-10T09:31:53Z</time>
      </trkpt>
      <trkpt lat="59.210295" lon="18.145985">
        <ele>46</ele>
        <time>2019-12-10T09:31:54Z</time>
      </trkpt>
      <trkpt lat="59.210266" lon="18.145961">
        <ele>47</ele>
        <time>2019-12-10T09:31:55Z</time>
      </trkpt>
      <trkpt lat="59.210236" lon="18.14594">
        <ele>47</ele>
        <time>2019-12-10T09:31:56Z</time>
      </trkpt>
      <trkpt lat="59.210207" lon="18.145918">
        <ele>0</ele>
        <time>2019-12-10T09:31:56Z</time>
      </trkpt>
      <trkpt lat="59.210177" lon="18.145894">
        <ele>47</ele>
        <time>2019-12-10T09:31:57Z</time>
      </trkpt>
      <trkpt lat="59.210147" lon="18.145866">
        <ele>47</ele>
        <time>2019-12-10T09:31:59Z</time>
      </trkpt>
      <trkpt lat="59.21012" lon="18.145834">
        <ele>48</ele>
        <time>2019-12-10T09:32:00Z</time>
      </trkpt>
      <trkpt lat="59.210095" lon="18.145797">
        <ele>48</ele>
        <time>2019-12-10T09:32:01Z</time>
      </trkpt>
      <trkpt lat="59.210071" lon="18.145754">
        <ele>48</ele>
        <time>2019-12-10T09:32:02Z</time>
      </trkpt>
      <trkpt lat="59.210049" lon="18.145706">
        <ele>48</ele>
        <time>2019-12-10T09:32:03Z</time>
      </trkpt>
      <trkpt lat="59.210028" lon="18.145655">
        <ele>48</ele>
        <time>2019-12-10T09:32:04Z</time>
      </trkpt>
      <trkpt lat="59.210008" lon="18.145605">
        <ele>48</ele>
        <time>2019-12-10T09:32:05Z</time>
      </trkpt>
      <trkpt lat="59.209988" lon="18.145552">
        <ele>49</ele>
        <time>2019-12-10T09:32:06Z</time>
      </trkpt>
      <trkpt lat="59.209967" lon="18.145497">
        <ele>49</ele>
        <time>2019-12-10T09:32:07Z</time>
      </trkpt>
      <trkpt lat="59.209947" lon="18.145441">
        <ele>0</ele>
        <time>2019-12-10T09:32:07Z</time>
      </trkpt>
      <trkpt lat="59.209928" lon="18.145384">
        <ele>49</ele>
        <time>2019-12-10T09:32:08Z</time>
      </trkpt>
      <trkpt lat="59.209909" lon="18.145326">
        <ele>49</ele>
        <time>2019-12-10T09:32:10Z</time>
      </trkpt>
      <trkpt lat="59.209886" lon="18.145268">
        <ele>0</ele>
        <time>2019-12-10T09:32:10Z</time>
      </trkpt>
      <trkpt lat="59.20986" lon="18.145211">
        <ele>49</ele>
        <time>2019-12-10T09:32:11Z</time>
      </trkpt>
      <trkpt lat="59.209832" lon="18.145156">
        <ele>50</ele>
        <time>2019-12-10T09:32:13Z</time>
      </trkpt>
      <trkpt lat="59.209804" lon="18.145104">
        <ele>50</ele>
        <time>2019-12-10T09:32:14Z</time>
      </trkpt>
      <trkpt lat="59.209774" lon="18.145055">
        <ele>50</ele>
        <time>2019-12-10T09:32:15Z</time>
      </trkpt>
      <trkpt lat="59.209743" lon="18.145012">
        <ele>50</ele>
        <time>2019-12-10T09:32:16Z</time>
      </trkpt>
      <trkpt lat="59.20971" lon="18.144978">
        <ele>50</ele>
        <time>2019-12-10T09:32:17Z</time>
      </trkpt>
      <trkpt lat="59.209677" lon="18.14495">
        <ele>50</ele>
        <time>2019-12-10T09:32:18Z</time>
      </trkpt>
      <trkpt lat="59.209644" lon="18.144929">
        <ele>50</ele>
        <time>2019-12-10T09:32:19Z</time>
      </trkpt>
      <trkpt lat="59.209612" lon="18.144904">
        <ele>50</ele>
        <time>2019-12-10T09:32:20Z</time>
      </trkpt>
      <trkpt lat="59.20958" lon="18.144867">
        <ele>50</ele>
        <time>2019-12-10T09:32:21Z</time>
      </trkpt>
      <trkpt lat="59.209551" lon="18.144823">
        <ele>50</ele>
        <time>2019-12-10T09:32:22Z</time>
      </trkpt>
      <trkpt lat="59.209527" lon="18.144772">
        <ele>50</ele>
        <time>2019-12-10T09:32:23Z</time>
      </trkpt>
      <trkpt lat="59.209508" lon="18.144712">
        <ele>50</ele>
        <time>2019-12-10T09:32:24Z</time>
      </trkpt>
      <trkpt lat="59.209498" lon="18.144648">
        <ele>0</ele>
        <time>2019-12-10T09:32:24Z</time>
      </trkpt>
      <trkpt lat="59.209493" lon="18.144582">
        <ele>50</ele>
        <time>2019-12-10T09:32:25Z</time>
      </trkpt>
      <trkpt lat="59.209488" lon="18.144512">
        <ele>0</ele>
        <time>2019-12-10T09:32:26Z</time>
      </trkpt>
      <trkpt lat="59.209479" lon="18.144439">
        <ele>50</ele>
        <time>2019-12-10T09:32:27Z</time>
      </trkpt>
      <trkpt lat="59.209468" lon="18.144365">
        <ele>51</ele>
        <time>2019-12-10T09:32:29Z</time>
      </trkpt>
      <trkpt lat="59.209454" lon="18.144292">
        <ele>51</ele>
        <time>2019-12-10T09:32:30Z</time>
      </trkpt>
      <trkpt lat="59.209436" lon="18.144221">
        <ele>51</ele>
        <time>2019-12-10T09:32:31Z</time>
      </trkpt>
      <trkpt lat="59.209414" lon="18.144153">
        <ele>51</ele>
        <time>2019-12-10T09:32:32Z</time>
      </trkpt>
      <trkpt lat="59.20939" lon="18.144088">
        <ele>51</ele>
        <time>2019-12-10T09:32:33Z</time>
      </trkpt>
      <trkpt lat="59.209365" lon="18.144023">
        <ele>51</ele>
        <time>2019-12-10T09:32:34Z</time>
      </trkpt>
      <trkpt lat="59.209341" lon="18.143957">
        <ele>51</ele>
        <time>2019-12-10T09:32:35Z</time>
      </trkpt>
      <trkpt lat="59.209316" lon="18.143892">
        <ele>51</ele>
        <time>2019-12-10T09:32:36Z</time>
      </trkpt>
      <trkpt lat="59.209291" lon="18.143828">
        <ele>51</ele>
        <time>2019-12-10T09:32:37Z</time>
      </trkpt>
      <trkpt lat="59.209265" lon="18.143764">
        <ele>0</ele>
        <time>2019-12-10T09:32:37Z</time>
      </trkpt>
      <trkpt lat="59.209239" lon="18.1437">
        <ele>51</ele>
        <time>2019-12-10T09:32:38Z</time>
      </trkpt>
      <trkpt lat="59.209213" lon="18.143636">
        <ele>51</ele>
        <time>2019-12-10T09:32:40Z</time>
      </trkpt>
      <trkpt lat="59.209187" lon="18.143572">
        <ele>51</ele>
        <time>2019-12-10T09:32:41Z</time>
      </trkpt>
      <trkpt lat="59.209162" lon="18.14351">
        <ele>51</ele>
        <time>2019-12-10T09:32:42Z</time>
      </trkpt>
      <trkpt lat="59.209135" lon="18.143449">
        <ele>51</ele>
        <time>2019-12-10T09:32:43Z</time>
      </trkpt>
      <trkpt lat="59.209107" lon="18.143389">
        <ele>51</ele>
        <time>2019-12-10T09:32:44Z</time>
      </trkpt>
      <trkpt lat="59.20908" lon="18.143327">
        <ele>52</ele>
        <time>2019-12-10T09:32:45Z</time>
      </trkpt>
      <trkpt lat="59.209055" lon="18.143264">
        <ele>0</ele>
        <time>2019-12-10T09:32:45Z</time>
      </trkpt>
      <trkpt lat="59.209029" lon="18.143198">
        <ele>52</ele>
        <time>2019-12-10T09:32:46Z</time>
      </trkpt>
      <trkpt lat="59.209003" lon="18.143131">
        <ele>52</ele>
        <time>2019-12-10T09:32:48Z</time>
      </trkpt>
      <trkpt lat="59.208976" lon="18.143062">
        <ele>0</ele>
        <time>2019-12-10T09:32:48Z</time>
      </trkpt>
      <trkpt lat="59.208947" lon="18.142989">
        <ele>52</ele>
        <time>2019-12-10T09:32:49Z</time>
      </trkpt>
      <trkpt lat="59.208918" lon="18.142915">
        <ele>52</ele>
        <time>2019-12-10T09:32:51Z</time>
      </trkpt>
      <trkpt lat="59.208887" lon="18.142842">
        <ele>52</ele>
        <time>2019-12-10T09:32:52Z</time>
      </trkpt>
      <trkpt lat="59.208857" lon="18.142768">
        <ele>52</ele>
        <time>2019-12-10T09:32:53Z</time>
      </trkpt>
      <trkpt lat="59.208827" lon="18.142692">
        <ele>52</ele>
        <time>2019-12-10T09:32:54Z</time>
      </trkpt>
      <trkpt lat="59.208796" lon="18.142617">
        <ele>52</ele>
        <time>2019-12-10T09:32:55Z</time>
      </trkpt>
      <trkpt lat="59.208765" lon="18.142543">
        <ele>52</ele>
        <time>2019-12-10T09:32:56Z</time>
      </trkpt>
      <trkpt lat="59.208735" lon="18.142469">
        <ele>52</ele>
        <time>2019-12-10T09:32:57Z</time>
      </trkpt>
      <trkpt lat="59.208704" lon="18.142396">
        <ele>52</ele>
        <time>2019-12-10T09:32:58Z</time>
      </trkpt>
      <trkpt lat="59.208673" lon="18.142321">
        <ele>52</ele>
        <time>2019-12-10T09:32:59Z</time>
      </trkpt>
      <trkpt lat="59.208642" lon="18.142246">
        <ele>0</ele>
        <time>2019-12-10T09:32:59Z</time>
      </trkpt>
      <trkpt lat="59.208609" lon="18.142171">
        <ele>52</ele>
        <time>2019-12-10T09:33:00Z</time>
      </trkpt>
      <trkpt lat="59.208574" lon="18.142094">
        <ele>52</ele>
        <time>2019-12-10T09:33:02Z</time>
      </trkpt>
      <trkpt lat="59.208537" lon="18.142016">
        <ele>52</ele>
        <time>2019-12-10T09:33:03Z</time>
      </trkpt>
      <trkpt lat="59.2085" lon="18.141938">
        <ele>52</ele>
        <time>2019-12-10T09:33:04Z</time>
      </trkpt>
      <trkpt lat="59.20846" lon="18.14186">
        <ele>0</ele>
        <time>2019-12-10T09:33:04Z</time>
      </trkpt>
      <trkpt lat="59.208418" lon="18.141783">
        <ele>52</ele>
        <time>2019-12-10T09:33:05Z</time>
      </trkpt>
      <trkpt lat="59.208376" lon="18.141705">
        <ele>51</ele>
        <time>2019-12-10T09:33:07Z</time>
      </trkpt>
      <trkpt lat="59.208331" lon="18.141628">
        <ele>51</ele>
        <time>2019-12-10T09:33:08Z</time>
      </trkpt>
      <trkpt lat="59.208286" lon="18.141553">
        <ele>0</ele>
        <time>2019-12-10T09:33:08Z</time>
      </trkpt>
      <trkpt lat="59.208239" lon="18.141477">
        <ele>51</ele>
        <time>2019-12-10T09:33:09Z</time>
      </trkpt>
      <trkpt lat="59.208191" lon="18.141402">
        <ele>50</ele>
        <time>2019-12-10T09:33:11Z</time>
      </trkpt>
      <trkpt lat="59.208142" lon="18.141332">
        <ele>50</ele>
        <time>2019-12-10T09:33:12Z</time>
      </trkpt>
      <trkpt lat="59.208091" lon="18.141263">
        <ele>50</ele>
        <time>2019-12-10T09:33:13Z</time>
      </trkpt>
      <trkpt lat="59.208041" lon="18.141193">
        <ele>50</ele>
        <time>2019-12-10T09:33:14Z</time>
      </trkpt>
      <trkpt lat="59.20799" lon="18.141125">
        <ele>50</ele>
        <time>2019-12-10T09:33:15Z</time>
      </trkpt>
      <trkpt lat="59.207938" lon="18.141059">
        <ele>50</ele>
        <time>2019-12-10T09:33:16Z</time>
      </trkpt>
      <trkpt lat="59.207883" lon="18.140998">
        <ele>0</ele>
        <time>2019-12-10T09:33:16Z</time>
      </trkpt>
      <trkpt lat="59.207827" lon="18.14094">
        <ele>49</ele>
        <time>2019-12-10T09:33:17Z</time>
      </trkpt>
      <trkpt lat="59.207772" lon="18.140882">
        <ele>49</ele>
        <time>2019-12-10T09:33:19Z</time>
      </trkpt>
      <trkpt lat="59.207715" lon="18.140827">
        <ele>49</ele>
        <time>2019-12-10T09:33:20Z</time>
      </trkpt>
      <trkpt lat="59.207655" lon="18.140774">
        <ele>49</ele>
        <time>2019-12-10T09:33:21Z</time>
      </trkpt>
      <trkpt lat="59.207594" lon="18.140721">
        <ele>49</ele>
        <time>2019-12-10T09:33:22Z</time>
      </trkpt>
      <trkpt lat="59.207532" lon="18.140671">
        <ele>49</ele>
        <time>2019-12-10T09:33:23Z</time>
      </trkpt>
      <trkpt lat="59.20747" lon="18.140625">
        <ele>0</ele>
        <time>2019-12-10T09:33:23Z</time>
      </trkpt>
      <trkpt lat="59.207407" lon="18.140582">
        <ele>49</ele>
        <time>2019-12-10T09:33:24Z</time>
      </trkpt>
      <trkpt lat="59.207344" lon="18.140543">
        <ele>0</ele>
        <time>2019-12-10T09:33:25Z</time>
      </trkpt>
      <trkpt lat="59.207281" lon="18.140509">
        <ele>48</ele>
        <time>2019-12-10T09:33:26Z</time>
      </trkpt>
      <trkpt lat="59.207216" lon="18.140479">
        <ele>48</ele>
        <time>2019-12-10T09:33:28Z</time>
      </trkpt>
      <trkpt lat="59.207155" lon="18.140451">
        <ele>48</ele>
        <time>2019-12-10T09:33:29Z</time>
      </trkpt>
      <trkpt lat="59.207093" lon="18.140426">
        <ele>48</ele>
        <time>2019-12-10T09:33:30Z</time>
      </trkpt>
      <trkpt lat="59.20703" lon="18.140404">
        <ele>48</ele>
        <time>2019-12-10T09:33:31Z</time>
      </trkpt>
      <trkpt lat="59.206965" lon="18.140385">
        <ele>0</ele>
        <time>2019-12-10T09:33:31Z</time>
      </trkpt>
      <trkpt lat="59.206899" lon="18.140368">
        <ele>47</ele>
        <time>2019-12-10T09:33:32Z</time>
      </trkpt>
      <trkpt lat="59.206834" lon="18.140356">
        <ele>47</ele>
        <time>2019-12-10T09:33:34Z</time>
      </trkpt>
      <trkpt lat="59.20677" lon="18.140344">
        <ele>46</ele>
        <time>2019-12-10T09:33:35Z</time>
      </trkpt>
      <trkpt lat="59.206705" lon="18.140337">
        <ele>46</ele>
        <time>2019-12-10T09:33:36Z</time>
      </trkpt>
      <trkpt lat="59.206639" lon="18.140337">
        <ele>45</ele>
        <time>2019-12-10T09:33:37Z</time>
      </trkpt>
      <trkpt lat="59.206575" lon="18.140339">
        <ele>45</ele>
        <time>2019-12-10T09:33:38Z</time>
      </trkpt>
      <trkpt lat="59.206512" lon="18.140346">
        <ele>45</ele>
        <time>2019-12-10T09:33:39Z</time>
      </trkpt>
      <trkpt lat="59.206454" lon="18.140362">
        <ele>0</ele>
        <time>2019-12-10T09:33:39Z</time>
      </trkpt>
      <trkpt lat="59.206402" lon="18.140388">
        <ele>45</ele>
        <time>2019-12-10T09:33:40Z</time>
      </trkpt>
      <trkpt lat="59.206357" lon="18.14043">
        <ele>45</ele>
        <time>2019-12-10T09:33:42Z</time>
      </trkpt>
      <trkpt lat="59.206319" lon="18.14049">
        <ele>0</ele>
        <time>2019-12-10T09:33:42Z</time>
      </trkpt>
      <trkpt lat="59.206284" lon="18.14056">
        <ele>44</ele>
        <time>2019-12-10T09:33:43Z</time>
      </trkpt>
      <trkpt lat="59.20625" lon="18.140634">
        <ele>44</ele>
        <time>2019-12-10T09:33:45Z</time>
      </trkpt>
      <trkpt lat="59.206214" lon="18.140706">
        <ele>44</ele>
        <time>2019-12-10T09:33:46Z</time>
      </trkpt>
      <trkpt lat="59.206173" lon="18.140768">
        <ele>44</ele>
        <time>2019-12-10T09:33:47Z</time>
      </trkpt>
      <trkpt lat="59.206125" lon="18.140816">
        <ele>44</ele>
        <time>2019-12-10T09:33:48Z</time>
      </trkpt>
      <trkpt lat="59.206073" lon="18.14085">
        <ele>43</ele>
        <time>2019-12-10T09:33:49Z</time>
      </trkpt>
      <trkpt lat="59.206021" lon="18.140875">
        <ele>0</ele>
        <time>2019-12-10T09:33:49Z</time>
      </trkpt>
      <trkpt lat="59.205968" lon="18.140901">
        <ele>43</ele>
        <time>2019-12-10T09:33:50Z</time>
      </trkpt>
      <trkpt lat="59.205914" lon="18.140932">
        <ele>43</ele>
        <time>2019-12-10T09:33:52Z</time>
      </trkpt>
      <trkpt lat="59.20586" lon="18.140969">
        <ele>43</ele>
        <time>2019-12-10T09:33:53Z</time>
      </trkpt>
      <trkpt lat="59.205807" lon="18.141009">
        <ele>43</ele>
        <time>2019-12-10T09:33:54Z</time>
      </trkpt>
      <trkpt lat="59.205755" lon="18.141051">
        <ele>43</ele>
        <time>2019-12-10T09:33:55Z</time>
      </trkpt>
      <trkpt lat="59.205704" lon="18.141094">
        <ele>43</ele>
        <time>2019-12-10T09:33:56Z</time>
      </trkpt>
      <trkpt lat="59.205651" lon="18.14114">
        <ele>43</ele>
        <time>2019-12-10T09:33:57Z</time>
      </trkpt>
      <trkpt lat="59.205599" lon="18.141184">
        <ele>0</ele>
        <time>2019-12-10T09:33:57Z</time>
      </trkpt>
      <trkpt lat="59.205547" lon="18.14123">
        <ele>43</ele>
        <time>2019-12-10T09:33:58Z</time>
      </trkpt>
      <trkpt lat="59.205495" lon="18.141274">
        <ele>43</ele>
        <time>2019-12-10T09:34:00Z</time>
      </trkpt>
      <trkpt lat="59.205444" lon="18.141313">
        <ele>43</ele>
        <time>2019-12-10T09:34:01Z</time>
      </trkpt>
      <trkpt lat="59.205395" lon="18.141353">
        <ele>43</ele>
        <time>2019-12-10T09:34:01Z</time>
      </trkpt>
      <trkpt lat="59.205347" lon="18.141395">
        <ele>43</ele>
        <time>2019-12-10T09:34:02Z</time>
      </trkpt>
      <trkpt lat="59.205295" lon="18.141435">
        <ele>43</ele>
        <time>2019-12-10T09:34:04Z</time>
      </trkpt>
      <trkpt lat="59.20524" lon="18.141478">
        <ele>43</ele>
        <time>2019-12-10T09:34:05Z</time>
      </trkpt>
      <trkpt lat="59.205182" lon="18.141525">
        <ele>43</ele>
        <time>2019-12-10T09:34:06Z</time>
      </trkpt>
      <trkpt lat="59.205123" lon="18.141572">
        <ele>0</ele>
        <time>2019-12-10T09:34:06Z</time>
      </trkpt>
      <trkpt lat="59.205063" lon="18.14162">
        <ele>43</ele>
        <time>2019-12-10T09:34:07Z</time>
      </trkpt>
      <trkpt lat="59.205002" lon="18.141669">
        <ele>42</ele>
        <time>2019-12-10T09:34:09Z</time>
      </trkpt>
      <trkpt lat="59.204941" lon="18.141715">
        <ele>42</ele>
        <time>2019-12-10T09:34:10Z</time>
      </trkpt>
      <trkpt lat="59.204882" lon="18.141757">
        <ele>42</ele>
        <time>2019-12-10T09:34:11Z</time>
      </trkpt>
      <trkpt lat="59.204824" lon="18.141793">
        <ele>42</ele>
        <time>2019-12-10T09:34:12Z</time>
      </trkpt>
      <trkpt lat="59.204766" lon="18.141826">
        <ele>42</ele>
        <time>2019-12-10T09:34:13Z</time>
      </trkpt>
      <trkpt lat="59.204706" lon="18.141858">
        <ele>42</ele>
        <time>2019-12-10T09:34:14Z</time>
      </trkpt>
      <trkpt lat="59.204644" lon="18.141892">
        <ele>0</ele>
        <time>2019-12-10T09:34:14Z</time>
      </trkpt>
      <trkpt lat="59.204581" lon="18.141923">
        <ele>42</ele>
        <time>2019-12-10T09:34:15Z</time>
      </trkpt>
      <trkpt lat="59.204517" lon="18.141953">
        <ele>41</ele>
        <time>2019-12-10T09:34:17Z</time>
      </trkpt>
      <trkpt lat="59.204453" lon="18.14198">
        <ele>41</ele>
        <time>2019-12-10T09:34:18Z</time>
      </trkpt>
      <trkpt lat="59.204389" lon="18.142007">
        <ele>40</ele>
        <time>2019-12-10T09:34:19Z</time>
      </trkpt>
      <trkpt lat="59.204322" lon="18.142035">
        <ele>40</ele>
        <time>2019-12-10T09:34:20Z</time>
      </trkpt>
      <trkpt lat="59.204257" lon="18.142061">
        <ele>0</ele>
        <time>2019-12-10T09:34:20Z</time>
      </trkpt>
      <trkpt lat="59.204191" lon="18.142087">
        <ele>39</ele>
        <time>2019-12-10T09:34:21Z</time>
      </trkpt>
      <trkpt lat="59.204125" lon="18.142112">
        <ele>39</ele>
        <time>2019-12-10T09:34:22Z</time>
      </trkpt>
      <trkpt lat="59.20406" lon="18.142137">
        <ele>39</ele>
        <time>2019-12-10T09:34:24Z</time>
      </trkpt>
      <trkpt lat="59.203995" lon="18.142161">
        <ele>39</ele>
        <time>2019-12-10T09:34:25Z</time>
      </trkpt>
      <trkpt lat="59.203932" lon="18.142184">
        <ele>39</ele>
        <time>2019-12-10T09:34:26Z</time>
      </trkpt>
      <trkpt lat="59.203869" lon="18.142204">
        <ele>39</ele>
        <time>2019-12-10T09:34:27Z</time>
      </trkpt>
      <trkpt lat="59.203807" lon="18.142221">
        <ele>38</ele>
        <time>2019-12-10T09:34:28Z</time>
      </trkpt>
      <trkpt lat="59.203745" lon="18.142236">
        <ele>38</ele>
        <time>2019-12-10T09:34:29Z</time>
      </trkpt>
      <trkpt lat="59.203685" lon="18.142249">
        <ele>0</ele>
        <time>2019-12-10T09:34:29Z</time>
      </trkpt>
      <trkpt lat="59.203625" lon="18.142259">
        <ele>38</ele>
        <time>2019-12-10T09:34:30Z</time>
      </trkpt>
      <trkpt lat="59.203566" lon="18.142266">
        <ele>38</ele>
        <time>2019-12-10T09:34:32Z</time>
      </trkpt>
      <trkpt lat="59.203507" lon="18.142272">
        <ele>38</ele>
        <time>2019-12-10T09:34:33Z</time>
      </trkpt>
      <trkpt lat="59.203449" lon="18.142275">
        <ele>38</ele>
        <time>2019-12-10T09:34:34Z</time>
      </trkpt>
      <trkpt lat="59.203391" lon="18.142275">
        <ele>38</ele>
        <time>2019-12-10T09:34:35Z</time>
      </trkpt>
      <trkpt lat="59.203333" lon="18.142271">
        <ele>38</ele>
        <time>2019-12-10T09:34:36Z</time>
      </trkpt>
      <trkpt lat="59.203276" lon="18.142263">
        <ele>38</ele>
        <time>2019-12-10T09:34:37Z</time>
      </trkpt>
      <trkpt lat="59.203219" lon="18.142253">
        <ele>38</ele>
        <time>2019-12-10T09:34:38Z</time>
      </trkpt>
      <trkpt lat="59.203161" lon="18.142242">
        <ele>0</ele>
        <time>2019-12-10T09:34:38Z</time>
      </trkpt>
      <trkpt lat="59.203104" lon="18.142232">
        <ele>38</ele>
        <time>2019-12-10T09:34:39Z</time>
      </trkpt>
      <trkpt lat="59.203048" lon="18.14222">
        <ele>38</ele>
        <time>2019-12-10T09:34:40Z</time>
      </trkpt>
      <trkpt lat="59.202991" lon="18.142209">
        <ele>38</ele>
        <time>2019-12-10T09:34:42Z</time>
      </trkpt>
      <trkpt lat="59.202935" lon="18.142201">
        <ele>38</ele>
        <time>2019-12-10T09:34:43Z</time>
      </trkpt>
      <trkpt lat="59.202879" lon="18.142196">
        <ele>38</ele>
        <time>2019-12-10T09:34:44Z</time>
      </trkpt>
      <trkpt lat="59.202823" lon="18.142193">
        <ele>38</ele>
        <time>2019-12-10T09:34:45Z</time>
      </trkpt>
      <trkpt lat="59.202766" lon="18.142192">
        <ele>38</ele>
        <time>2019-12-10T09:34:46Z</time>
      </trkpt>
      <trkpt lat="59.202709" lon="18.142194">
        <ele>38</ele>
        <time>2019-12-10T09:34:47Z</time>
      </trkpt>
      <trkpt lat="59.202651" lon="18.142201">
        <ele>0</ele>
        <time>2019-12-10T09:34:47Z</time>
      </trkpt>
      <trkpt lat="59.202593" lon="18.142211">
        <ele>38</ele>
        <time>2019-12-10T09:34:48Z</time>
      </trkpt>
      <trkpt lat="59.202534" lon="18.142221">
        <ele>38</ele>
        <time>2019-12-10T09:34:50Z</time>
      </trkpt>
      <trkpt lat="59.202473" lon="18.142231">
        <ele>38</ele>
        <time>2019-12-10T09:34:51Z</time>
      </trkpt>
      <trkpt lat="59.20241" lon="18.142239">
        <ele>38</ele>
        <time>2019-12-10T09:34:52Z</time>
      </trkpt>
      <trkpt lat="59.202346" lon="18.142239">
        <ele>38</ele>
        <time>2019-12-10T09:34:53Z</time>
      </trkpt>
      <trkpt lat="59.202281" lon="18.142224">
        <ele>38</ele>
        <time>2019-12-10T09:34:54Z</time>
      </trkpt>
      <trkpt lat="59.202215" lon="18.142196">
        <ele>0</ele>
        <time>2019-12-10T09:34:54Z</time>
      </trkpt>
      <trkpt lat="59.20215" lon="18.142165">
        <ele>38</ele>
        <time>2019-12-10T09:34:55Z</time>
      </trkpt>
      <trkpt lat="59.202084" lon="18.142135">
        <ele>37</ele>
        <time>2019-12-10T09:34:57Z</time>
      </trkpt>
      <trkpt lat="59.202019" lon="18.142106">
        <ele>37</ele>
        <time>2019-12-10T09:34:58Z</time>
      </trkpt>
      <trkpt lat="59.201953" lon="18.142077">
        <ele>0</ele>
        <time>2019-12-10T09:34:58Z</time>
      </trkpt>
      <trkpt lat="59.201888" lon="18.142047">
        <ele>37</ele>
        <time>2019-12-10T09:34:59Z</time>
      </trkpt>
      <trkpt lat="59.201823" lon="18.142015">
        <ele>37</ele>
        <time>2019-12-10T09:35:01Z</time>
      </trkpt>
      <trkpt lat="59.201759" lon="18.141983">
        <ele>36</ele>
        <time>2019-12-10T09:35:02Z</time>
      </trkpt>
      <trkpt lat="59.201695" lon="18.141954">
        <ele>0</ele>
        <time>2019-12-10T09:35:02Z</time>
      </trkpt>
      <trkpt lat="59.20163" lon="18.141927">
        <ele>36</ele>
        <time>2019-12-10T09:35:03Z</time>
      </trkpt>
      <trkpt lat="59.201565" lon="18.141895">
        <ele>36</ele>
        <time>2019-12-10T09:35:05Z</time>
      </trkpt>
      <trkpt lat="59.201501" lon="18.141856">
        <ele>36</ele>
        <time>2019-12-10T09:35:06Z</time>
      </trkpt>
      <trkpt lat="59.201438" lon="18.141813">
        <ele>35</ele>
        <time>2019-12-10T09:35:07Z</time>
      </trkpt>
      <trkpt lat="59.201375" lon="18.141769">
        <ele>35</ele>
        <time>2019-12-10T09:35:08Z</time>
      </trkpt>
      <trkpt lat="59.201311" lon="18.141722">
        <ele>35</ele>
        <time>2019-12-10T09:35:09Z</time>
      </trkpt>
      <trkpt lat="59.201251" lon="18.141671">
        <ele>0</ele>
        <time>2019-12-10T09:35:09Z</time>
      </trkpt>
      <trkpt lat="59.201191" lon="18.141619">
        <ele>35</ele>
        <time>2019-12-10T09:35:10Z</time>
      </trkpt>
      <trkpt lat="59.201131" lon="18.141567">
        <ele>35</ele>
        <time>2019-12-10T09:35:12Z</time>
      </trkpt>
      <trkpt lat="59.201072" lon="18.141515">
        <ele>34</ele>
        <time>2019-12-10T09:35:13Z</time>
      </trkpt>
      <trkpt lat="59.201014" lon="18.141467">
        <ele>34</ele>
        <time>2019-12-10T09:35:14Z</time>
      </trkpt>
      <trkpt lat="59.200959" lon="18.141425">
        <ele>34</ele>
        <time>2019-12-10T09:35:15Z</time>
      </trkpt>
      <trkpt lat="59.200907" lon="18.141385">
        <ele>34</ele>
        <time>2019-12-10T09:35:16Z</time>
      </trkpt>
      <trkpt lat="59.200858" lon="18.141351">
        <ele>33</ele>
        <time>2019-12-10T09:35:17Z</time>
      </trkpt>
      <trkpt lat="59.200807" lon="18.141324">
        <ele>0</ele>
        <time>2019-12-10T09:35:17Z</time>
      </trkpt>
      <trkpt lat="59.200755" lon="18.141306">
        <ele>33</ele>
        <time>2019-12-10T09:35:18Z</time>
      </trkpt>
      <trkpt lat="59.200702" lon="18.141301">
        <ele>32</ele>
        <time>2019-12-10T09:35:19Z</time>
      </trkpt>
      <trkpt lat="59.200647" lon="18.141313">
        <ele>32</ele>
        <time>2019-12-10T09:35:21Z</time>
      </trkpt>
      <trkpt lat="59.200595" lon="18.141344">
        <ele>32</ele>
        <time>2019-12-10T09:35:22Z</time>
      </trkpt>
      <trkpt lat="59.200543" lon="18.141391">
        <ele>31</ele>
        <time>2019-12-10T09:35:23Z</time>
      </trkpt>
      <trkpt lat="59.200491" lon="18.141451">
        <ele>31</ele>
        <time>2019-12-10T09:35:24Z</time>
      </trkpt>
      <trkpt lat="59.200435" lon="18.141515">
        <ele>31</ele>
        <time>2019-12-10T09:35:25Z</time>
      </trkpt>
      <trkpt lat="59.200378" lon="18.141581">
        <ele>30</ele>
        <time>2019-12-10T09:35:26Z</time>
      </trkpt>
      <trkpt lat="59.200318" lon="18.141648">
        <ele>0</ele>
        <time>2019-12-10T09:35:26Z</time>
      </trkpt>
      <trkpt lat="59.200257" lon="18.141717">
        <ele>30</ele>
        <time>2019-12-10T09:35:27Z</time>
      </trkpt>
      <trkpt lat="59.200195" lon="18.141788">
        <ele>29</ele>
        <time>2019-12-10T09:35:29Z</time>
      </trkpt>
      <trkpt lat="59.20013" lon="18.14186">
        <ele>29</ele>
        <time>2019-12-10T09:35:30Z</time>
      </trkpt>
      <trkpt lat="59.200066" lon="18.141932">
        <ele>28</ele>
        <time>2019-12-10T09:35:31Z</time>
      </trkpt>
      <trkpt lat="59.200001" lon="18.142005">
        <ele>28</ele>
        <time>2019-12-10T09:35:32Z</time>
      </trkpt>
      <trkpt lat="59.199939" lon="18.142082">
        <ele>27</ele>
        <time>2019-12-10T09:35:33Z</time>
      </trkpt>
      <trkpt lat="59.199879" lon="18.142167">
        <ele>0</ele>
        <time>2019-12-10T09:35:33Z</time>
      </trkpt>
      <trkpt lat="59.199824" lon="18.14226">
        <ele>27</ele>
        <time>2019-12-10T09:35:34Z</time>
      </trkpt>
      <trkpt lat="59.199775" lon="18.142364">
        <ele>27</ele>
        <time>2019-12-10T09:35:36Z</time>
      </trkpt>
      <trkpt lat="59.19973" lon="18.142471">
        <ele>0</ele>
        <time>2019-12-10T09:35:36Z</time>
      </trkpt>
      <trkpt lat="59.199686" lon="18.142577">
        <ele>27</ele>
        <time>2019-12-10T09:35:37Z</time>
      </trkpt>
      <trkpt lat="59.199643" lon="18.142689">
        <ele>26</ele>
        <time>2019-12-10T09:35:39Z</time>
      </trkpt>
      <trkpt lat="59.1996" lon="18.142787">
        <ele>26</ele>
        <time>2019-12-10T09:35:40Z</time>
      </trkpt>
      <trkpt lat="59.199554" lon="18.142866">
        <ele>0</ele>
        <time>2019-12-10T09:35:40Z</time>
      </trkpt>
      <trkpt lat="59.199501" lon="18.142933">
        <ele>26</ele>
        <time>2019-12-10T09:35:41Z</time>
      </trkpt>
      <trkpt lat="59.199447" lon="18.142978">
        <ele>26</ele>
        <time>2019-12-10T09:35:43Z</time>
      </trkpt>
      <trkpt lat="59.19939" lon="18.143005">
        <ele>26</ele>
        <time>2019-12-10T09:35:44Z</time>
      </trkpt>
      <trkpt lat="59.199333" lon="18.143017">
        <ele>26</ele>
        <time>2019-12-10T09:35:45Z</time>
      </trkpt>
      <trkpt lat="59.199274" lon="18.143022">
        <ele>26</ele>
        <time>2019-12-10T09:35:46Z</time>
      </trkpt>
      <trkpt lat="59.199218" lon="18.143021">
        <ele>26</ele>
        <time>2019-12-10T09:35:47Z</time>
      </trkpt>
      <trkpt lat="59.199163" lon="18.143018">
        <ele>26</ele>
        <time>2019-12-10T09:35:48Z</time>
      </trkpt>
      <trkpt lat="59.199109" lon="18.143015">
        <ele>26</ele>
        <time>2019-12-10T09:35:49Z</time>
      </trkpt>
      <trkpt lat="59.199053" lon="18.143009">
        <ele>0</ele>
        <time>2019-12-10T09:35:49Z</time>
      </trkpt>
      <trkpt lat="59.198998" lon="18.143005">
        <ele>26</ele>
        <time>2019-12-10T09:35:50Z</time>
      </trkpt>
      <trkpt lat="59.198939" lon="18.143002">
        <ele>26</ele>
        <time>2019-12-10T09:35:52Z</time>
      </trkpt>
      <trkpt lat="59.198879" lon="18.142998">
        <ele>26</ele>
        <time>2019-12-10T09:35:53Z</time>
      </trkpt>
      <trkpt lat="59.198819" lon="18.142993">
        <ele>26</ele>
        <time>2019-12-10T09:35:54Z</time>
      </trkpt>
      <trkpt lat="59.19876" lon="18.142989">
        <ele>26</ele>
        <time>2019-12-10T09:35:55Z</time>
      </trkpt>
      <trkpt lat="59.198699" lon="18.142983">
        <ele>0</ele>
        <time>2019-12-10T09:35:55Z</time>
      </trkpt>
      <trkpt lat="59.19864" lon="18.142969">
        <ele>26</ele>
        <time>2019-12-10T09:35:56Z</time>
      </trkpt>
      <trkpt lat="59.198579" lon="18.142953">
        <ele>0</ele>
        <time>2019-12-10T09:35:57Z</time>
      </trkpt>
      <trkpt lat="59.19852" lon="18.142933">
        <ele>26</ele>
        <time>2019-12-10T09:35:58Z</time>
      </trkpt>
      <trkpt lat="59.19846" lon="18.142907">
        <ele>25</ele>
        <time>2019-12-10T09:36:00Z</time>
      </trkpt>
      <trkpt lat="59.198401" lon="18.142878">
        <ele>25</ele>
        <time>2019-12-10T09:36:01Z</time>
      </trkpt>
      <trkpt lat="59.198343" lon="18.142843">
        <ele>25</ele>
        <time>2019-12-10T09:36:02Z</time>
      </trkpt>
      <trkpt lat="59.198286" lon="18.142803">
        <ele>25</ele>
        <time>2019-12-10T09:36:03Z</time>
      </trkpt>
      <trkpt lat="59.198229" lon="18.142762">
        <ele>25</ele>
        <time>2019-12-10T09:36:04Z</time>
      </trkpt>
      <trkpt lat="59.198173" lon="18.142719">
        <ele>25</ele>
        <time>2019-12-10T09:36:05Z</time>
      </trkpt>
      <trkpt lat="59.198117" lon="18.142676">
        <ele>25</ele>
        <time>2019-12-10T09:36:06Z</time>
      </trkpt>
      <trkpt lat="59.198061" lon="18.142631">
        <ele>0</ele>
        <time>2019-12-10T09:36:06Z</time>
      </trkpt>
      <trkpt lat="59.198006" lon="18.142587">
        <ele>25</ele>
        <time>2019-12-10T09:36:07Z</time>
      </trkpt>
      <trkpt lat="59.19795" lon="18.142543">
        <ele>24</ele>
        <time>2019-12-10T09:36:09Z</time>
      </trkpt>
      <trkpt lat="59.197894" lon="18.1425">
        <ele>24</ele>
        <time>2019-12-10T09:36:10Z</time>
      </trkpt>
      <trkpt lat="59.197838" lon="18.142459">
        <ele>24</ele>
        <time>2019-12-10T09:36:11Z</time>
      </trkpt>
      <trkpt lat="59.197782" lon="18.142419">
        <ele>24</ele>
        <time>2019-12-10T09:36:12Z</time>
      </trkpt>
      <trkpt lat="59.197726" lon="18.142383">
        <ele>24</ele>
        <time>2019-12-10T09:36:13Z</time>
      </trkpt>
      <trkpt lat="59.19767" lon="18.142346">
        <ele>24</ele>
        <time>2019-12-10T09:36:14Z</time>
      </trkpt>
      <trkpt lat="59.197616" lon="18.142305">
        <ele>0</ele>
        <time>2019-12-10T09:36:14Z</time>
      </trkpt>
      <trkpt lat="59.197563" lon="18.142261">
        <ele>24</ele>
        <time>2019-12-10T09:36:15Z</time>
      </trkpt>
      <trkpt lat="59.19751" lon="18.142219">
        <ele>24</ele>
        <time>2019-12-10T09:36:17Z</time>
      </trkpt>
      <trkpt lat="59.197458" lon="18.142178">
        <ele>24</ele>
        <time>2019-12-10T09:36:18Z</time>
      </trkpt>
      <trkpt lat="59.197407" lon="18.142136">
        <ele>24</ele>
        <time>2019-12-10T09:36:19Z</time>
      </trkpt>
      <trkpt lat="59.197358" lon="18.142093">
        <ele>24</ele>
        <time>2019-12-10T09:36:20Z</time>
      </trkpt>
      <trkpt lat="59.197314" lon="18.142042">
        <ele>24</ele>
        <time>2019-12-10T09:36:21Z</time>
      </trkpt>
      <trkpt lat="59.197271" lon="18.141988">
        <ele>25</ele>
        <time>2019-12-10T09:36:22Z</time>
      </trkpt>
      <trkpt lat="59.197231" lon="18.141937">
        <ele>25</ele>
        <time>2019-12-10T09:36:23Z</time>
      </trkpt>
      <trkpt lat="59.197192" lon="18.141889">
        <ele>25</ele>
        <time>2019-12-10T09:36:24Z</time>
      </trkpt>
      <trkpt lat="59.197153" lon="18.14184">
        <ele>0</ele>
        <time>2019-12-10T09:36:24Z</time>
      </trkpt>
      <trkpt lat="59.197115" lon="18.141791">
        <ele>25</ele>
        <time>2019-12-10T09:36:25Z</time>
      </trkpt>
      <trkpt lat="59.197078" lon="18.141738">
        <ele>25</ele>
        <time>2019-12-10T09:36:27Z</time>
      </trkpt>
      <trkpt lat="59.197043" lon="18.141683">
        <ele>25</ele>
        <time>2019-12-10T09:36:28Z</time>
      </trkpt>
      <trkpt lat="59.19701" lon="18.141629">
        <ele>25</ele>
        <time>2019-12-10T09:36:29Z</time>
      </trkpt>
      <trkpt lat="59.196978" lon="18.141571">
        <ele>26</ele>
        <time>2019-12-10T09:36:30Z</time>
      </trkpt>
      <trkpt lat="59.196948" lon="18.141511">
        <ele>26</ele>
        <time>2019-12-10T09:36:31Z</time>
      </trkpt>
      <trkpt lat="59.196919" lon="18.141451">
        <ele>26</ele>
        <time>2019-12-10T09:36:32Z</time>
      </trkpt>
      <trkpt lat="59.196889" lon="18.1414">
        <ele>26</ele>
        <time>2019-12-10T09:36:33Z</time>
      </trkpt>
      <trkpt lat="59.196859" lon="18.141353">
        <ele>0</ele>
        <time>2019-12-10T09:36:33Z</time>
      </trkpt>
      <trkpt lat="59.196829" lon="18.141308">
        <ele>26</ele>
        <time>2019-12-10T09:36:34Z</time>
      </trkpt>
      <trkpt lat="59.196799" lon="18.141264">
        <ele>26</ele>
        <time>2019-12-10T09:36:36Z</time>
      </trkpt>
      <trkpt lat="59.196768" lon="18.141223">
        <ele>0</ele>
        <time>2019-12-10T09:36:36Z</time>
      </trkpt>
      <trkpt lat="59.196736" lon="18.141185">
        <ele>26</ele>
        <time>2019-12-10T09:36:37Z</time>
      </trkpt>
      <trkpt lat="59.196705" lon="18.141148">
        <ele>27</ele>
        <time>2019-12-10T09:36:39Z</time>
      </trkpt>
      <trkpt lat="59.196674" lon="18.141113">
        <ele>27</ele>
        <time>2019-12-10T09:36:40Z</time>
      </trkpt>
      <trkpt lat="59.196643" lon="18.14108">
        <ele>27</ele>
        <time>2019-12-10T09:36:41Z</time>
      </trkpt>
      <trkpt lat="59.196612" lon="18.141048">
        <ele>27</ele>
        <time>2019-12-10T09:36:42Z</time>
      </trkpt>
      <trkpt lat="59.196581" lon="18.141017">
        <ele>27</ele>
        <time>2019-12-10T09:36:43Z</time>
      </trkpt>
      <trkpt lat="59.19655" lon="18.140989">
        <ele>27</ele>
        <time>2019-12-10T09:36:44Z</time>
      </trkpt>
      <trkpt lat="59.196518" lon="18.140965">
        <ele>27</ele>
        <time>2019-12-10T09:36:45Z</time>
      </trkpt>
      <trkpt lat="59.196487" lon="18.140943">
        <ele>28</ele>
        <time>2019-12-10T09:36:46Z</time>
      </trkpt>
      <trkpt lat="59.196456" lon="18.140924">
        <ele>28</ele>
        <time>2019-12-10T09:36:47Z</time>
      </trkpt>
      <trkpt lat="59.196425" lon="18.140907">
        <ele>28</ele>
        <time>2019-12-10T09:36:48Z</time>
      </trkpt>
      <trkpt lat="59.196393" lon="18.140891">
        <ele>28</ele>
        <time>2019-12-10T09:36:49Z</time>
      </trkpt>
      <trkpt lat="59.196361" lon="18.140876">
        <ele>28</ele>
        <time>2019-12-10T09:36:50Z</time>
      </trkpt>
      <trkpt lat="59.196328" lon="18.140861">
        <ele>0</ele>
        <time>2019-12-10T09:36:50Z</time>
      </trkpt>
      <trkpt lat="59.196293" lon="18.140849">
        <ele>28</ele>
        <time>2019-12-10T09:36:51Z</time>
      </trkpt>
      <trkpt lat="59.196258" lon="18.140838">
        <ele>0</ele>
        <time>2019-12-10T09:36:52Z</time>
      </trkpt>
      <trkpt lat="59.196223" lon="18.140828">
        <ele>29</ele>
        <time>2019-12-10T09:36:53Z</time>
      </trkpt>
      <trkpt lat="59.196187" lon="18.140818">
        <ele>29</ele>
        <time>2019-12-10T09:36:55Z</time>
      </trkpt>
      <trkpt lat="59.196151" lon="18.140809">
        <ele>29</ele>
        <time>2019-12-10T09:36:56Z</time>
      </trkpt>
      <trkpt lat="59.196115" lon="18.140801">
        <ele>30</ele>
        <time>2019-12-10T09:36:57Z</time>
      </trkpt>
      <trkpt lat="59.196079" lon="18.140792">
        <ele>30</ele>
        <time>2019-12-10T09:36:58Z</time>
      </trkpt>
      <trkpt lat="59.196043" lon="18.140785">
        <ele>30</ele>
        <time>2019-12-10T09:36:59Z</time>
      </trkpt>
      <trkpt lat="59.196008" lon="18.140778">
        <ele>30</ele>
        <time>2019-12-10T09:37:00Z</time>
      </trkpt>
      <trkpt lat="59.195974" lon="18.140772">
        <ele>30</ele>
        <time>2019-12-10T09:37:01Z</time>
      </trkpt>
      <trkpt lat="59.195941" lon="18.140765">
        <ele>30</ele>
        <time>2019-12-10T09:37:02Z</time>
      </trkpt>
      <trkpt lat="59.195908" lon="18.140759">
        <ele>30</ele>
        <time>2019-12-10T09:37:03Z</time>
      </trkpt>
      <trkpt lat="59.195874" lon="18.140753">
        <ele>31</ele>
        <time>2019-12-10T09:37:04Z</time>
      </trkpt>
      <trkpt lat="59.195841" lon="18.140747">
        <ele>31</ele>
        <time>2019-12-10T09:37:05Z</time>
      </trkpt>
      <trkpt lat="59.195806" lon="18.14074">
        <ele>0</ele>
        <time>2019-12-10T09:37:05Z</time>
      </trkpt>
      <trkpt lat="59.195772" lon="18.140733">
        <ele>31</ele>
        <time>2019-12-10T09:37:06Z</time>
      </trkpt>
      <trkpt lat="59.195739" lon="18.140727">
        <ele>31</ele>
        <time>2019-12-10T09:37:08Z</time>
      </trkpt>
      <trkpt lat="59.195706" lon="18.140721">
        <ele>31</ele>
        <time>2019-12-10T09:37:09Z</time>
      </trkpt>
      <trkpt lat="59.195673" lon="18.140715">
        <ele>31</ele>
        <time>2019-12-10T09:37:10Z</time>
      </trkpt>
      <trkpt lat="59.195641" lon="18.14071">
        <ele>32</ele>
        <time>2019-12-10T09:37:11Z</time>
      </trkpt>
      <trkpt lat="59.195608" lon="18.140704">
        <ele>0</ele>
        <time>2019-12-10T09:37:11Z</time>
      </trkpt>
      <trkpt lat="59.195576" lon="18.140697">
        <ele>32</ele>
        <time>2019-12-10T09:37:12Z</time>
      </trkpt>
      <trkpt lat="59.195544" lon="18.140692">
        <ele>32</ele>
        <time>2019-12-10T09:37:14Z</time>
      </trkpt>
      <trkpt lat="59.195511" lon="18.140686">
        <ele>32</ele>
        <time>2019-12-10T09:37:15Z</time>
      </trkpt>
      <trkpt lat="59.195478" lon="18.140682">
        <ele>32</ele>
        <time>2019-12-10T09:37:16Z</time>
      </trkpt>
      <trkpt lat="59.195446" lon="18.140678">
        <ele>32</ele>
        <time>2019-12-10T09:37:17Z</time>
      </trkpt>
      <trkpt lat="59.195413" lon="18.140675">
        <ele>32</ele>
        <time>2019-12-10T09:37:18Z</time>
      </trkpt>
      <trkpt lat="59.195381" lon="18.140672">
        <ele>32</ele>
        <time>2019-12-10T09:37:19Z</time>
      </trkpt>
      <trkpt lat="59.195349" lon="18.14067">
        <ele>33</ele>
        <time>2019-12-10T09:37:20Z</time>
      </trkpt>
      <trkpt lat="59.195317" lon="18.14067">
        <ele>0</ele>
        <time>2019-12-10T09:37:20Z</time>
      </trkpt>
      <trkpt lat="59.195284" lon="18.140674">
        <ele>33</ele>
        <time>2019-12-10T09:37:21Z</time>
      </trkpt>
      <trkpt lat="59.195252" lon="18.140682">
        <ele>33</ele>
        <time>2019-12-10T09:37:23Z</time>
      </trkpt>
      <trkpt lat="59.19522" lon="18.140691">
        <ele>33</ele>
        <time>2019-12-10T09:37:24Z</time>
      </trkpt>
      <trkpt lat="59.195189" lon="18.1407">
        <ele>33</ele>
        <time>2019-12-10T09:37:25Z</time>
      </trkpt>
      <trkpt lat="59.195157" lon="18.140708">
        <ele>33</ele>
        <time>2019-12-10T09:37:26Z</time>
      </trkpt>
      <trkpt lat="59.195127" lon="18.140717">
        <ele>34</ele>
        <time>2019-12-10T09:37:27Z</time>
      </trkpt>
      <trkpt lat="59.195097" lon="18.140728">
        <ele>34</ele>
        <time>2019-12-10T09:37:28Z</time>
      </trkpt>
      <trkpt lat="59.195068" lon="18.140741">
        <ele>34</ele>
        <time>2019-12-10T09:37:29Z</time>
      </trkpt>
      <trkpt lat="59.19504" lon="18.140759">
        <ele>34</ele>
        <time>2019-12-10T09:37:30Z</time>
      </trkpt>
      <trkpt lat="59.195011" lon="18.140777">
        <ele>0</ele>
        <time>2019-12-10T09:37:30Z</time>
      </trkpt>
      <trkpt lat="59.194984" lon="18.140796">
        <ele>35</ele>
        <time>2019-12-10T09:37:31Z</time>
      </trkpt>
      <trkpt lat="59.194956" lon="18.140815">
        <ele>35</ele>
        <time>2019-12-10T09:37:33Z</time>
      </trkpt>
      <trkpt lat="59.194929" lon="18.140837">
        <ele>35</ele>
        <time>2019-12-10T09:37:34Z</time>
      </trkpt>
      <trkpt lat="59.194902" lon="18.140859">
        <ele>35</ele>
        <time>2019-12-10T09:37:35Z</time>
      </trkpt>
      <trkpt lat="59.194876" lon="18.140883">
        <ele>36</ele>
        <time>2019-12-10T09:37:36Z</time>
      </trkpt>
      <trkpt lat="59.194849" lon="18.140908">
        <ele>0</ele>
        <time>2019-12-10T09:37:36Z</time>
      </trkpt>
      <trkpt lat="59.19482" lon="18.140934">
        <ele>36</ele>
        <time>2019-12-10T09:37:37Z</time>
      </trkpt>
      <trkpt lat="59.194792" lon="18.140961">
        <ele>36</ele>
        <time>2019-12-10T09:37:39Z</time>
      </trkpt>
      <trkpt lat="59.194764" lon="18.140989">
        <ele>37</ele>
        <time>2019-12-10T09:37:40Z</time>
      </trkpt>
      <trkpt lat="59.194737" lon="18.141017">
        <ele>37</ele>
        <time>2019-12-10T09:37:41Z</time>
      </trkpt>
      <trkpt lat="59.194709" lon="18.141043">
        <ele>37</ele>
        <time>2019-12-10T09:37:42Z</time>
      </trkpt>
      <trkpt lat="59.194682" lon="18.141067">
        <ele>37</ele>
        <time>2019-12-10T09:37:43Z</time>
      </trkpt>
      <trkpt lat="59.194655" lon="18.141092">
        <ele>37</ele>
        <time>2019-12-10T09:37:44Z</time>
      </trkpt>
      <trkpt lat="59.194627" lon="18.141119">
        <ele>38</ele>
        <time>2019-12-10T09:37:45Z</time>
      </trkpt>
      <trkpt lat="59.1946" lon="18.14115">
        <ele>38</ele>
        <time>2019-12-10T09:37:46Z</time>
      </trkpt>
      <trkpt lat="59.194571" lon="18.141179">
        <ele>38</ele>
        <time>2019-12-10T09:37:47Z</time>
      </trkpt>
      <trkpt lat="59.194542" lon="18.141207">
        <ele>38</ele>
        <time>2019-12-10T09:37:48Z</time>
      </trkpt>
      <trkpt lat="59.194513" lon="18.141236">
        <ele>38</ele>
        <time>2019-12-10T09:37:49Z</time>
      </trkpt>
      <trkpt lat="59.194484" lon="18.141265">
        <ele>0</ele>
        <time>2019-12-10T09:37:49Z</time>
      </trkpt>
      <trkpt lat="59.194453" lon="18.141292">
        <ele>39</ele>
        <time>2019-12-10T09:37:50Z</time>
      </trkpt>
      <trkpt lat="59.194421" lon="18.141323">
        <ele>39</ele>
        <time>2019-12-10T09:37:52Z</time>
      </trkpt>
      <trkpt lat="59.19439" lon="18.141353">
        <ele>0</ele>
        <time>2019-12-10T09:37:52Z</time>
      </trkpt>
      <trkpt lat="59.194357" lon="18.141382">
        <ele>39</ele>
        <time>2019-12-10T09:37:53Z</time>
      </trkpt>
      <trkpt lat="59.194325" lon="18.141412">
        <ele>39</ele>
        <time>2019-12-10T09:37:55Z</time>
      </trkpt>
      <trkpt lat="59.194291" lon="18.141443">
        <ele>39</ele>
        <time>2019-12-10T09:37:56Z</time>
      </trkpt>
      <trkpt lat="59.194257" lon="18.141474">
        <ele>39</ele>
        <time>2019-12-10T09:37:57Z</time>
      </trkpt>
      <trkpt lat="59.194223" lon="18.141505">
        <ele>39</ele>
        <time>2019-12-10T09:37:58Z</time>
      </trkpt>
      <trkpt lat="59.194189" lon="18.141537">
        <ele>39</ele>
        <time>2019-12-10T09:37:59Z</time>
      </trkpt>
      <trkpt lat="59.194156" lon="18.14157">
        <ele>39</ele>
        <time>2019-12-10T09:38:00Z</time>
      </trkpt>
      <trkpt lat="59.194122" lon="18.141603">
        <ele>40</ele>
        <time>2019-12-10T09:38:01Z</time>
      </trkpt>
      <trkpt lat="59.194088" lon="18.141634">
        <ele>40</ele>
        <time>2019-12-10T09:38:02Z</time>
      </trkpt>
      <trkpt lat="59.194054" lon="18.141666">
        <ele>40</ele>
        <time>2019-12-10T09:38:03Z</time>
      </trkpt>
      <trkpt lat="59.19402" lon="18.141699">
        <ele>40</ele>
        <time>2019-12-10T09:38:04Z</time>
      </trkpt>
      <trkpt lat="59.193986" lon="18.141731">
        <ele>40</ele>
        <time>2019-12-10T09:38:05Z</time>
      </trkpt>
      <trkpt lat="59.193952" lon="18.141763">
        <ele>0</ele>
        <time>2019-12-10T09:38:05Z</time>
      </trkpt>
      <trkpt lat="59.193918" lon="18.141794">
        <ele>40</ele>
        <time>2019-12-10T09:38:06Z</time>
      </trkpt>
      <trkpt lat="59.193884" lon="18.141825">
        <ele>40</ele>
        <time>2019-12-10T09:38:08Z</time>
      </trkpt>
      <trkpt lat="59.19385" lon="18.141858">
        <ele>0</ele>
        <time>2019-12-10T09:38:08Z</time>
      </trkpt>
      <trkpt lat="59.193816" lon="18.14189">
        <ele>40</ele>
        <time>2019-12-10T09:38:09Z</time>
      </trkpt>
      <trkpt lat="59.19378" lon="18.141921">
        <ele>40</ele>
        <time>2019-12-10T09:38:11Z</time>
      </trkpt>
      <trkpt lat="59.193744" lon="18.141955">
        <ele>40</ele>
        <time>2019-12-10T09:38:12Z</time>
      </trkpt>
      <trkpt lat="59.193706" lon="18.141991">
        <ele>40</ele>
        <time>2019-12-10T09:38:13Z</time>
      </trkpt>
      <trkpt lat="59.193668" lon="18.142025">
        <ele>41</ele>
        <time>2019-12-10T09:38:14Z</time>
      </trkpt>
      <trkpt lat="59.193628" lon="18.142059">
        <ele>41</ele>
        <time>2019-12-10T09:38:15Z</time>
      </trkpt>
      <trkpt lat="59.193589" lon="18.142095">
        <ele>41</ele>
        <time>2019-12-10T09:38:16Z</time>
      </trkpt>
      <trkpt lat="59.193548" lon="18.142132">
        <ele>41</ele>
        <time>2019-12-10T09:38:17Z</time>
      </trkpt>
      <trkpt lat="59.193506" lon="18.142168">
        <ele>0</ele>
        <time>2019-12-10T09:38:17Z</time>
      </trkpt>
      <trkpt lat="59.193463" lon="18.142203">
        <ele>41</ele>
        <time>2019-12-10T09:38:18Z</time>
      </trkpt>
      <trkpt lat="59.193418" lon="18.142237">
        <ele>41</ele>
        <time>2019-12-10T09:38:20Z</time>
      </trkpt>
      <trkpt lat="59.193372" lon="18.142267">
        <ele>41</ele>
        <time>2019-12-10T09:38:21Z</time>
      </trkpt>
      <trkpt lat="59.193324" lon="18.142296">
        <ele>41</ele>
        <time>2019-12-10T09:38:22Z</time>
      </trkpt>
      <trkpt lat="59.193276" lon="18.142327">
        <ele>41</ele>
        <time>2019-12-10T09:38:23Z</time>
      </trkpt>
      <trkpt lat="59.193226" lon="18.142363">
        <ele>41</ele>
        <time>2019-12-10T09:38:24Z</time>
      </trkpt>
      <trkpt lat="59.193178" lon="18.142404">
        <ele>41</ele>
        <time>2019-12-10T09:38:25Z</time>
      </trkpt>
      <trkpt lat="59.19313" lon="18.142448">
        <ele>41</ele>
        <time>2019-12-10T09:38:26Z</time>
      </trkpt>
      <trkpt lat="59.193081" lon="18.142496">
        <ele>41</ele>
        <time>2019-12-10T09:38:27Z</time>
      </trkpt>
      <trkpt lat="59.193032" lon="18.142545">
        <ele>0</ele>
        <time>2019-12-10T09:38:27Z</time>
      </trkpt>
      <trkpt lat="59.192982" lon="18.142596">
        <ele>41</ele>
        <time>2019-12-10T09:38:28Z</time>
      </trkpt>
      <trkpt lat="59.192934" lon="18.142645">
        <ele>41</ele>
        <time>2019-12-10T09:38:30Z</time>
      </trkpt>
      <trkpt lat="59.192882" lon="18.142696">
        <ele>41</ele>
        <time>2019-12-10T09:38:31Z</time>
      </trkpt>
      <trkpt lat="59.19283" lon="18.142749">
        <ele>40</ele>
        <time>2019-12-10T09:38:32Z</time>
      </trkpt>
      <trkpt lat="59.192778" lon="18.142803">
        <ele>40</ele>
        <time>2019-12-10T09:38:33Z</time>
      </trkpt>
      <trkpt lat="59.192726" lon="18.142856">
        <ele>40</ele>
        <time>2019-12-10T09:38:34Z</time>
      </trkpt>
      <trkpt lat="59.192672" lon="18.142913">
        <ele>40</ele>
        <time>2019-12-10T09:38:35Z</time>
      </trkpt>
      <trkpt lat="59.192618" lon="18.142968">
        <ele>0</ele>
        <time>2019-12-10T09:38:35Z</time>
      </trkpt>
      <trkpt lat="59.192564" lon="18.143021">
        <ele>40</ele>
        <time>2019-12-10T09:38:36Z</time>
      </trkpt>
      <trkpt lat="59.192508" lon="18.14308">
        <ele>40</ele>
        <time>2019-12-10T09:38:38Z</time>
      </trkpt>
      <trkpt lat="59.192449" lon="18.14314">
        <ele>40</ele>
        <time>2019-12-10T09:38:39Z</time>
      </trkpt>
      <trkpt lat="59.192393" lon="18.143201">
        <ele>39</ele>
        <time>2019-12-10T09:38:40Z</time>
      </trkpt>
      <trkpt lat="59.192341" lon="18.143258">
        <ele>39</ele>
        <time>2019-12-10T09:38:41Z</time>
      </trkpt>
      <trkpt lat="59.192288" lon="18.143318">
        <ele>39</ele>
        <time>2019-12-10T09:38:42Z</time>
      </trkpt>
      <trkpt lat="59.192239" lon="18.143376">
        <ele>39</ele>
        <time>2019-12-10T09:38:43Z</time>
      </trkpt>
      <trkpt lat="59.19219" lon="18.14343">
        <ele>39</ele>
        <time>2019-12-10T09:38:44Z</time>
      </trkpt>
      <trkpt lat="59.192144" lon="18.143479">
        <ele>0</ele>
        <time>2019-12-10T09:38:44Z</time>
      </trkpt>
      <trkpt lat="59.192102" lon="18.143523">
        <ele>39</ele>
        <time>2019-12-10T09:38:45Z</time>
      </trkpt>
      <trkpt lat="59.192058" lon="18.143562">
        <ele>0</ele>
        <time>2019-12-10T09:38:46Z</time>
      </trkpt>
      <trkpt lat="59.19202" lon="18.143599">
        <ele>39</ele>
        <time>2019-12-10T09:38:47Z</time>
      </trkpt>
      <trkpt lat="59.191984" lon="18.143634">
        <ele>38</ele>
        <time>2019-12-10T09:38:49Z</time>
      </trkpt>
      <trkpt lat="59.191948" lon="18.143669">
        <ele>38</ele>
        <time>2019-12-10T09:38:50Z</time>
      </trkpt>
      <trkpt lat="59.19191" lon="18.1437">
        <ele>38</ele>
        <time>2019-12-10T09:38:51Z</time>
      </trkpt>
      <trkpt lat="59.191885" lon="18.143721">
        <ele>38</ele>
        <time>2019-12-10T09:38:52Z</time>
      </trkpt>
      <trkpt lat="59.191863" lon="18.143728">
        <ele>38</ele>
        <time>2019-12-10T09:38:53Z</time>
      </trkpt>
      <trkpt lat="59.191842" lon="18.143732">
        <ele>38</ele>
        <time>2019-12-10T09:38:54Z</time>
      </trkpt>
      <trkpt lat="59.191823" lon="18.14374">
        <ele>38</ele>
        <time>2019-12-10T09:38:55Z</time>
      </trkpt>
      <trkpt lat="59.1918" lon="18.143752">
        <ele>38</ele>
        <time>2019-12-10T09:38:56Z</time>
      </trkpt>
      <trkpt lat="59.191771" lon="18.143771">
        <ele>37</ele>
        <time>2019-12-10T09:38:57Z</time>
      </trkpt>
      <trkpt lat="59.191738" lon="18.143795">
        <ele>37</ele>
        <time>2019-12-10T09:38:58Z</time>
      </trkpt>
      <trkpt lat="59.191702" lon="18.143821">
        <ele>0</ele>
        <time>2019-12-10T09:38:58Z</time>
      </trkpt>
      <trkpt lat="59.191664" lon="18.143843">
        <ele>37</ele>
        <time>2019-12-10T09:38:59Z</time>
      </trkpt>
      <trkpt lat="59.19163" lon="18.143867">
        <ele>36</ele>
        <time>2019-12-10T09:39:01Z</time>
      </trkpt>
      <trkpt lat="59.191607" lon="18.143899">
        <ele>36</ele>
        <time>2019-12-10T09:39:02Z</time>
      </trkpt>
      <trkpt lat="59.191592" lon="18.143936">
        <ele>36</ele>
        <time>2019-12-10T09:39:03Z</time>
      </trkpt>
      <trkpt lat="59.19158" lon="18.143967">
        <ele>36</ele>
        <time>2019-12-10T09:39:04Z</time>
      </trkpt>
      <trkpt lat="59.191563" lon="18.143988">
        <ele>36</ele>
        <time>2019-12-10T09:39:05Z</time>
      </trkpt>
      <trkpt lat="59.191536" lon="18.144002">
        <ele>0</ele>
        <time>2019-12-10T09:39:05Z</time>
      </trkpt>
      <trkpt lat="59.191499" lon="18.144017">
        <ele>36</ele>
        <time>2019-12-10T09:39:06Z</time>
      </trkpt>
      <trkpt lat="59.191458" lon="18.144035">
        <ele>35</ele>
        <time>2019-12-10T09:39:08Z</time>
      </trkpt>
      <trkpt lat="59.191411" lon="18.144056">
        <ele>35</ele>
        <time>2019-12-10T09:39:09Z</time>
      </trkpt>
      <trkpt lat="59.191361" lon="18.144082">
        <ele>35</ele>
        <time>2019-12-10T09:39:10Z</time>
      </trkpt>
      <trkpt lat="59.191307" lon="18.144111">
        <ele>35</ele>
        <time>2019-12-10T09:39:11Z</time>
      </trkpt>
      <trkpt lat="59.19125" lon="18.144137">
        <ele>0</ele>
        <time>2019-12-10T09:39:11Z</time>
      </trkpt>
      <trkpt lat="59.191191" lon="18.144158">
        <ele>35</ele>
        <time>2019-12-10T09:39:12Z</time>
      </trkpt>
      <trkpt lat="59.19113" lon="18.144171">
        <ele>34</ele>
        <time>2019-12-10T09:39:14Z</time>
      </trkpt>
      <trkpt lat="59.191068" lon="18.144182">
        <ele>34</ele>
        <time>2019-12-10T09:39:15Z</time>
      </trkpt>
      <trkpt lat="59.191008" lon="18.144193">
        <ele>34</ele>
        <time>2019-12-10T09:39:16Z</time>
      </trkpt>
      <trkpt lat="59.190943" lon="18.144206">
        <ele>34</ele>
        <time>2019-12-10T09:39:17Z</time>
      </trkpt>
      <trkpt lat="59.190876" lon="18.144216">
        <ele>33</ele>
        <time>2019-12-10T09:39:18Z</time>
      </trkpt>
      <trkpt lat="59.190808" lon="18.144228">
        <ele>33</ele>
        <time>2019-12-10T09:39:19Z</time>
      </trkpt>
      <trkpt lat="59.190736" lon="18.144241">
        <ele>0</ele>
        <time>2019-12-10T09:39:19Z</time>
      </trkpt>
      <trkpt lat="59.190666" lon="18.144256">
        <ele>33</ele>
        <time>2019-12-10T09:39:20Z</time>
      </trkpt>
      <trkpt lat="59.190595" lon="18.144272">
        <ele>33</ele>
        <time>2019-12-10T09:39:22Z</time>
      </trkpt>
      <trkpt lat="59.190526" lon="18.144289">
        <ele>33</ele>
        <time>2019-12-10T09:39:23Z</time>
      </trkpt>
      <trkpt lat="59.190462" lon="18.144314">
        <ele>33</ele>
        <time>2019-12-10T09:39:24Z</time>
      </trkpt>
      <trkpt lat="59.190398" lon="18.144348">
        <ele>0</ele>
        <time>2019-12-10T09:39:24Z</time>
      </trkpt>
      <trkpt lat="59.190339" lon="18.144374">
        <ele>33</ele>
        <time>2019-12-10T09:39:25Z</time>
      </trkpt>
      <trkpt lat="59.19029" lon="18.144389">
        <ele>33</ele>
        <time>2019-12-10T09:39:27Z</time>
      </trkpt>
      <trkpt lat="59.190242" lon="18.144399">
        <ele>0</ele>
        <time>2019-12-10T09:39:27Z</time>
      </trkpt>
      <trkpt lat="59.190191" lon="18.144409">
        <ele>33</ele>
        <time>2019-12-10T09:39:28Z</time>
      </trkpt>
      <trkpt lat="59.19013" lon="18.144432">
        <ele>32</ele>
        <time>2019-12-10T09:39:30Z</time>
      </trkpt>
      <trkpt lat="59.190066" lon="18.144462">
        <ele>32</ele>
        <time>2019-12-10T09:39:31Z</time>
      </trkpt>
      <trkpt lat="59.190003" lon="18.144478">
        <ele>31</ele>
        <time>2019-12-10T09:39:32Z</time>
      </trkpt>
      <trkpt lat="59.189923" lon="18.144493">
        <ele>31</ele>
        <time>2019-12-10T09:39:33Z</time>
      </trkpt>
      <trkpt lat="59.189846" lon="18.1445">
        <ele>31</ele>
        <time>2019-12-10T09:39:34Z</time>
      </trkpt>
      <trkpt lat="59.18978" lon="18.144515">
        <ele>0</ele>
        <time>2019-12-10T09:39:34Z</time>
      </trkpt>
      <trkpt lat="59.189718" lon="18.144538">
        <ele>31</ele>
        <time>2019-12-10T09:39:35Z</time>
      </trkpt>
      <trkpt lat="59.189659" lon="18.144572">
        <ele>30</ele>
        <time>2019-12-10T09:39:37Z</time>
      </trkpt>
      <trkpt lat="59.189606" lon="18.144604">
        <ele>30</ele>
        <time>2019-12-10T09:39:38Z</time>
      </trkpt>
      <trkpt lat="59.189555" lon="18.144637">
        <ele>30</ele>
        <time>2019-12-10T09:39:39Z</time>
      </trkpt>
      <trkpt lat="59.189503" lon="18.144667">
        <ele>30</ele>
        <time>2019-12-10T09:39:40Z</time>
      </trkpt>
      <trkpt lat="59.189453" lon="18.144697">
        <ele>30</ele>
        <time>2019-12-10T09:39:41Z</time>
      </trkpt>
      <trkpt lat="59.189406" lon="18.144729">
        <ele>29</ele>
        <time>2019-12-10T09:39:42Z</time>
      </trkpt>
      <trkpt lat="59.189358" lon="18.144764">
        <ele>29</ele>
        <time>2019-12-10T09:39:43Z</time>
      </trkpt>
      <trkpt lat="59.189313" lon="18.144801">
        <ele>0</ele>
        <time>2019-12-10T09:39:43Z</time>
      </trkpt>
      <trkpt lat="59.18927" lon="18.144844">
        <ele>29</ele>
        <time>2019-12-10T09:39:44Z</time>
      </trkpt>
      <trkpt lat="59.189228" lon="18.144889">
        <ele>29</ele>
        <time>2019-12-10T09:39:45Z</time>
      </trkpt>
      <trkpt lat="59.18919" lon="18.144935">
        <ele>29</ele>
        <time>2019-12-10T09:39:47Z</time>
      </trkpt>
      <trkpt lat="59.189151" lon="18.144986">
        <ele>29</ele>
        <time>2019-12-10T09:39:48Z</time>
      </trkpt>
      <trkpt lat="59.189112" lon="18.145042">
        <ele>29</ele>
        <time>2019-12-10T09:39:49Z</time>
      </trkpt>
      <trkpt lat="59.189074" lon="18.145099">
        <ele>29</ele>
        <time>2019-12-10T09:39:50Z</time>
      </trkpt>
      <trkpt lat="59.189035" lon="18.145157">
        <ele>30</ele>
        <time>2019-12-10T09:39:51Z</time>
      </trkpt>
      <trkpt lat="59.188998" lon="18.145217">
        <ele>30</ele>
        <time>2019-12-10T09:39:52Z</time>
      </trkpt>
      <trkpt lat="59.18896" lon="18.145278">
        <ele>30</ele>
        <time>2019-12-10T09:39:53Z</time>
      </trkpt>
      <trkpt lat="59.188917" lon="18.145336">
        <ele>30</ele>
        <time>2019-12-10T09:39:54Z</time>
      </trkpt>
      <trkpt lat="59.18887" lon="18.145389">
        <ele>0</ele>
        <time>2019-12-10T09:39:54Z</time>
      </trkpt>
      <trkpt lat="59.188823" lon="18.145444">
        <ele>30</ele>
        <time>2019-12-10T09:39:55Z</time>
      </trkpt>
      <trkpt lat="59.188777" lon="18.145501">
        <ele>30</ele>
        <time>2019-12-10T09:39:57Z</time>
      </trkpt>
      <trkpt lat="59.188731" lon="18.145559">
        <ele>29</ele>
        <time>2019-12-10T09:39:58Z</time>
      </trkpt>
      <trkpt lat="59.188683" lon="18.145611">
        <ele>29</ele>
        <time>2019-12-10T09:39:59Z</time>
      </trkpt>
      <trkpt lat="59.188633" lon="18.145662">
        <ele>29</ele>
        <time>2019-12-10T09:40:00Z</time>
      </trkpt>
      <trkpt lat="59.18858" lon="18.145714">
        <ele>29</ele>
        <time>2019-12-10T09:40:01Z</time>
      </trkpt>
      <trkpt lat="59.188526" lon="18.145762">
        <ele>29</ele>
        <time>2019-12-10T09:40:02Z</time>
      </trkpt>
      <trkpt lat="59.18847" lon="18.145806">
        <ele>0</ele>
        <time>2019-12-10T09:40:02Z</time>
      </trkpt>
      <trkpt lat="59.188412" lon="18.14585">
        <ele>29</ele>
        <time>2019-12-10T09:40:03Z</time>
      </trkpt>
      <trkpt lat="59.188352" lon="18.145892">
        <ele>29</ele>
        <time>2019-12-10T09:40:04Z</time>
      </trkpt>
      <trkpt lat="59.188291" lon="18.145938">
        <ele>28</ele>
        <time>2019-12-10T09:40:06Z</time>
      </trkpt>
      <trkpt lat="59.18823" lon="18.14598">
        <ele>28</ele>
        <time>2019-12-10T09:40:07Z</time>
      </trkpt>
      <trkpt lat="59.18817" lon="18.146024">
        <ele>28</ele>
        <time>2019-12-10T09:40:08Z</time>
      </trkpt>
      <trkpt lat="59.188109" lon="18.146066">
        <ele>28</ele>
        <time>2019-12-10T09:40:09Z</time>
      </trkpt>
      <trkpt lat="59.188044" lon="18.146112">
        <ele>28</ele>
        <time>2019-12-10T09:40:10Z</time>
      </trkpt>
      <trkpt lat="59.18798" lon="18.146162">
        <ele>0</ele>
        <time>2019-12-10T09:40:10Z</time>
      </trkpt>
      <trkpt lat="59.187914" lon="18.146208">
        <ele>28</ele>
        <time>2019-12-10T09:40:11Z</time>
      </trkpt>
      <trkpt lat="59.187848" lon="18.146252">
        <ele>27</ele>
        <time>2019-12-10T09:40:13Z</time>
      </trkpt>
      <trkpt lat="59.187783" lon="18.146296">
        <ele>27</ele>
        <time>2019-12-10T09:40:14Z</time>
      </trkpt>
      <trkpt lat="59.187717" lon="18.146337">
        <ele>27</ele>
        <time>2019-12-10T09:40:15Z</time>
      </trkpt>
      <trkpt lat="59.187651" lon="18.146378">
        <ele>26</ele>
        <time>2019-12-10T09:40:16Z</time>
      </trkpt>
      <trkpt lat="59.187584" lon="18.146416">
        <ele>26</ele>
        <time>2019-12-10T09:40:17Z</time>
      </trkpt>
      <trkpt lat="59.187516" lon="18.146448">
        <ele>0</ele>
        <time>2019-12-10T09:40:17Z</time>
      </trkpt>
      <trkpt lat="59.187446" lon="18.146474">
        <ele>26</ele>
        <time>2019-12-10T09:40:18Z</time>
      </trkpt>
      <trkpt lat="59.187376" lon="18.146498">
        <ele>26</ele>
        <time>2019-12-10T09:40:20Z</time>
      </trkpt>
      <trkpt lat="59.187308" lon="18.146518">
        <ele>25</ele>
        <time>2019-12-10T09:40:21Z</time>
      </trkpt>
      <trkpt lat="59.187241" lon="18.146534">
        <ele>0</ele>
        <time>2019-12-10T09:40:21Z</time>
      </trkpt>
      <trkpt lat="59.187175" lon="18.14655">
        <ele>25</ele>
        <time>2019-12-10T09:40:22Z</time>
      </trkpt>
      <trkpt lat="59.18711" lon="18.146566">
        <ele>25</ele>
        <time>2019-12-10T09:40:24Z</time>
      </trkpt>
      <trkpt lat="59.187047" lon="18.146584">
        <ele>25</ele>
        <time>2019-12-10T09:40:25Z</time>
      </trkpt>
      <trkpt lat="59.186984" lon="18.1466">
        <ele>0</ele>
        <time>2019-12-10T09:40:25Z</time>
      </trkpt>
      <trkpt lat="59.186922" lon="18.146618">
        <ele>25</ele>
        <time>2019-12-10T09:40:26Z</time>
      </trkpt>
      <trkpt lat="59.186861" lon="18.146634">
        <ele>25</ele>
        <time>2019-12-10T09:40:28Z</time>
      </trkpt>
      <trkpt lat="59.186799" lon="18.146652">
        <ele>25</ele>
        <time>2019-12-10T09:40:29Z</time>
      </trkpt>
      <trkpt lat="59.186737" lon="18.14667">
        <ele>25</ele>
        <time>2019-12-10T09:40:30Z</time>
      </trkpt>
      <trkpt lat="59.186676" lon="18.146688">
        <ele>25</ele>
        <time>2019-12-10T09:40:31Z</time>
      </trkpt>
      <trkpt lat="59.186614" lon="18.146704">
        <ele>25</ele>
        <time>2019-12-10T09:40:32Z</time>
      </trkpt>
      <trkpt lat="59.186553" lon="18.14672">
        <ele>25</ele>
        <time>2019-12-10T09:40:33Z</time>
      </trkpt>
      <trkpt lat="59.186492" lon="18.146736">
        <ele>0</ele>
        <time>2019-12-10T09:40:33Z</time>
      </trkpt>
      <trkpt lat="59.186432" lon="18.146752">
        <ele>25</ele>
        <time>2019-12-10T09:40:34Z</time>
      </trkpt>
      <trkpt lat="59.186372" lon="18.146764">
        <ele>25</ele>
        <time>2019-12-10T09:40:36Z</time>
      </trkpt>
      <trkpt lat="59.186312" lon="18.146778">
        <ele>25</ele>
        <time>2019-12-10T09:40:37Z</time>
      </trkpt>
      <trkpt lat="59.186252" lon="18.146793">
        <ele>25</ele>
        <time>2019-12-10T09:40:38Z</time>
      </trkpt>
      <trkpt lat="59.186192" lon="18.14681">
        <ele>25</ele>
        <time>2019-12-10T09:40:39Z</time>
      </trkpt>
      <trkpt lat="59.186133" lon="18.146824">
        <ele>25</ele>
        <time>2019-12-10T09:40:40Z</time>
      </trkpt>
      <trkpt lat="59.186074" lon="18.146834">
        <ele>0</ele>
        <time>2019-12-10T09:40:40Z</time>
      </trkpt>
      <trkpt lat="59.186015" lon="18.146842">
        <ele>25</ele>
        <time>2019-12-10T09:40:41Z</time>
      </trkpt>
      <trkpt lat="59.185956" lon="18.14685">
        <ele>25</ele>
        <time>2019-12-10T09:40:42Z</time>
      </trkpt>
      <trkpt lat="59.185897" lon="18.14686">
        <ele>25</ele>
        <time>2019-12-10T09:40:44Z</time>
      </trkpt>
      <trkpt lat="59.185839" lon="18.14687">
        <ele>25</ele>
        <time>2019-12-10T09:40:45Z</time>
      </trkpt>
      <trkpt lat="59.185781" lon="18.146882">
        <ele>25</ele>
        <time>2019-12-10T09:40:46Z</time>
      </trkpt>
      <trkpt lat="59.185722" lon="18.146892">
        <ele>25</ele>
        <time>2019-12-10T09:40:47Z</time>
      </trkpt>
      <trkpt lat="59.185664" lon="18.146904">
        <ele>25</ele>
        <time>2019-12-10T09:40:48Z</time>
      </trkpt>
      <trkpt lat="59.185607" lon="18.146914">
        <ele>25</ele>
        <time>2019-12-10T09:40:49Z</time>
      </trkpt>
      <trkpt lat="59.185554" lon="18.146922">
        <ele>25</ele>
        <time>2019-12-10T09:40:50Z</time>
      </trkpt>
      <trkpt lat="59.185506" lon="18.14693">
        <ele>0</ele>
        <time>2019-12-10T09:40:50Z</time>
      </trkpt>
      <trkpt lat="59.185462" lon="18.146938">
        <ele>25</ele>
        <time>2019-12-10T09:40:51Z</time>
      </trkpt>
      <trkpt lat="59.185422" lon="18.146938">
        <ele>25</ele>
        <time>2019-12-10T09:40:53Z</time>
      </trkpt>
      <trkpt lat="59.185388" lon="18.14692">
        <ele>25</ele>
        <time>2019-12-10T09:40:54Z</time>
      </trkpt>
      <trkpt lat="59.185361" lon="18.146884">
        <ele>25</ele>
        <time>2019-12-10T09:40:55Z</time>
      </trkpt>
      <trkpt lat="59.185341" lon="18.146836">
        <ele>0</ele>
        <time>2019-12-10T09:40:55Z</time>
      </trkpt>
      <trkpt lat="59.185321" lon="18.146786">
        <ele>25</ele>
        <time>2019-12-10T09:40:56Z</time>
      </trkpt>
      <trkpt lat="59.185298" lon="18.146748">
        <ele>26</ele>
        <time>2019-12-10T09:40:58Z</time>
      </trkpt>
      <trkpt lat="59.185271" lon="18.146728">
        <ele>26</ele>
        <time>2019-12-10T09:40:59Z</time>
      </trkpt>
      <trkpt lat="59.18524" lon="18.14672">
        <ele>0</ele>
        <time>2019-12-10T09:40:59Z</time>
      </trkpt>
      <trkpt lat="59.185209" lon="18.146726">
        <ele>26</ele>
        <time>2019-12-10T09:41:00Z</time>
      </trkpt>
      <trkpt lat="59.185178" lon="18.146744">
        <ele>26</ele>
        <time>2019-12-10T09:41:02Z</time>
      </trkpt>
      <trkpt lat="59.185146" lon="18.146771">
        <ele>26</ele>
        <time>2019-12-10T09:41:03Z</time>
      </trkpt>
      <trkpt lat="59.185114" lon="18.146804">
        <ele>26</ele>
        <time>2019-12-10T09:41:04Z</time>
      </trkpt>
      <trkpt lat="59.185081" lon="18.146838">
        <ele>27</ele>
        <time>2019-12-10T09:41:05Z</time>
      </trkpt>
      <trkpt lat="59.185046" lon="18.146874">
        <ele>0</ele>
        <time>2019-12-10T09:41:05Z</time>
      </trkpt>
      <trkpt lat="59.185012" lon="18.14691">
        <ele>27</ele>
        <time>2019-12-10T09:41:06Z</time>
      </trkpt>
      <trkpt lat="59.184976" lon="18.146944">
        <ele>27</ele>
        <time>2019-12-10T09:41:08Z</time>
      </trkpt>
      <trkpt lat="59.184939" lon="18.146976">
        <ele>27</ele>
        <time>2019-12-10T09:41:09Z</time>
      </trkpt>
      <trkpt lat="59.1849" lon="18.147004">
        <ele>27</ele>
        <time>2019-12-10T09:41:10Z</time>
      </trkpt>
      <trkpt lat="59.184861" lon="18.147027">
        <ele>27</ele>
        <time>2019-12-10T09:41:11Z</time>
      </trkpt>
      <trkpt lat="59.18482" lon="18.147045">
        <ele>27</ele>
        <time>2019-12-10T09:41:12Z</time>
      </trkpt>
      <trkpt lat="59.184779" lon="18.14706">
        <ele>27</ele>
        <time>2019-12-10T09:41:13Z</time>
      </trkpt>
      <trkpt lat="59.184736" lon="18.147072">
        <ele>27</ele>
        <time>2019-12-10T09:41:14Z</time>
      </trkpt>
      <trkpt lat="59.184694" lon="18.147084">
        <ele>27</ele>
        <time>2019-12-10T09:41:15Z</time>
      </trkpt>
      <trkpt lat="59.184652" lon="18.147095">
        <ele>27</ele>
        <time>2019-12-10T09:41:16Z</time>
      </trkpt>
      <trkpt lat="59.18461" lon="18.147105">
        <ele>27</ele>
        <time>2019-12-10T09:41:17Z</time>
      </trkpt>
      <trkpt lat="59.184568" lon="18.147115">
        <ele>0</ele>
        <time>2019-12-10T09:41:17Z</time>
      </trkpt>
      <trkpt lat="59.184527" lon="18.147125">
        <ele>27</ele>
        <time>2019-12-10T09:41:18Z</time>
      </trkpt>
      <trkpt lat="59.184485" lon="18.147135">
        <ele>27</ele>
        <time>2019-12-10T09:41:19Z</time>
      </trkpt>
      <trkpt lat="59.184444" lon="18.147144">
        <ele>28</ele>
        <time>2019-12-10T09:41:21Z</time>
      </trkpt>
      <trkpt lat="59.184403" lon="18.147152">
        <ele>27</ele>
        <time>2019-12-10T09:41:22Z</time>
      </trkpt>
      <trkpt lat="59.184365" lon="18.14716">
        <ele>28</ele>
        <time>2019-12-10T09:41:23Z</time>
      </trkpt>
      <trkpt lat="59.184328" lon="18.147169">
        <ele>28</ele>
        <time>2019-12-10T09:41:24Z</time>
      </trkpt>
      <trkpt lat="59.184293" lon="18.147176">
        <ele>28</ele>
        <time>2019-12-10T09:41:25Z</time>
      </trkpt>
      <trkpt lat="59.184259" lon="18.147183">
        <ele>28</ele>
        <time>2019-12-10T09:41:26Z</time>
      </trkpt>
      <trkpt lat="59.184226" lon="18.14719">
        <ele>28</ele>
        <time>2019-12-10T09:41:27Z</time>
      </trkpt>
      <trkpt lat="59.184193" lon="18.147195">
        <ele>28</ele>
        <time>2019-12-10T09:41:28Z</time>
      </trkpt>
      <trkpt lat="59.18416" lon="18.147201">
        <ele>28</ele>
        <time>2019-12-10T09:41:29Z</time>
      </trkpt>
      <trkpt lat="59.184127" lon="18.147206">
        <ele>28</ele>
        <time>2019-12-10T09:41:30Z</time>
      </trkpt>
      <trkpt lat="59.184094" lon="18.147213">
        <ele>28</ele>
        <time>2019-12-10T09:41:31Z</time>
      </trkpt>
      <trkpt lat="59.184061" lon="18.147221">
        <ele>0</ele>
        <time>2019-12-10T09:41:31Z</time>
      </trkpt>
      <trkpt lat="59.184029" lon="18.147229">
        <ele>28</ele>
        <time>2019-12-10T09:41:32Z</time>
      </trkpt>
      <trkpt lat="59.183997" lon="18.147237">
        <ele>28</ele>
        <time>2019-12-10T09:41:34Z</time>
      </trkpt>
      <trkpt lat="59.183965" lon="18.147243">
        <ele>29</ele>
        <time>2019-12-10T09:41:35Z</time>
      </trkpt>
      <trkpt lat="59.183932" lon="18.147249">
        <ele>29</ele>
        <time>2019-12-10T09:41:36Z</time>
      </trkpt>
      <trkpt lat="59.183898" lon="18.147255">
        <ele>29</ele>
        <time>2019-12-10T09:41:37Z</time>
      </trkpt>
      <trkpt lat="59.183864" lon="18.14726">
        <ele>0</ele>
        <time>2019-12-10T09:41:37Z</time>
      </trkpt>
      <trkpt lat="59.183829" lon="18.147264">
        <ele>29</ele>
        <time>2019-12-10T09:41:38Z</time>
      </trkpt>
      <trkpt lat="59.183794" lon="18.147268">
        <ele>29</ele>
        <time>2019-12-10T09:41:40Z</time>
      </trkpt>
      <trkpt lat="59.183758" lon="18.147273">
        <ele>29</ele>
        <time>2019-12-10T09:41:41Z</time>
      </trkpt>
      <trkpt lat="59.183722" lon="18.147276">
        <ele>29</ele>
        <time>2019-12-10T09:41:42Z</time>
      </trkpt>
      <trkpt lat="59.183686" lon="18.147279">
        <ele>29</ele>
        <time>2019-12-10T09:41:43Z</time>
      </trkpt>
      <trkpt lat="59.183651" lon="18.147285">
        <ele>30</ele>
        <time>2019-12-10T09:41:44Z</time>
      </trkpt>
      <trkpt lat="59.183616" lon="18.147294">
        <ele>30</ele>
        <time>2019-12-10T09:41:45Z</time>
      </trkpt>
      <trkpt lat="59.183581" lon="18.147311">
        <ele>0</ele>
        <time>2019-12-10T09:41:45Z</time>
      </trkpt>
      <trkpt lat="59.183547" lon="18.147331">
        <ele>30</ele>
        <time>2019-12-10T09:41:46Z</time>
      </trkpt>
      <trkpt lat="59.183512" lon="18.147346">
        <ele>30</ele>
        <time>2019-12-10T09:41:48Z</time>
      </trkpt>
      <trkpt lat="59.183475" lon="18.147351">
        <ele>30</ele>
        <time>2019-12-10T09:41:49Z</time>
      </trkpt>
      <trkpt lat="59.183439" lon="18.147349">
        <ele>30</ele>
        <time>2019-12-10T09:41:50Z</time>
      </trkpt>
      <trkpt lat="59.183402" lon="18.14734">
        <ele>30</ele>
        <time>2019-12-10T09:41:51Z</time>
      </trkpt>
      <trkpt lat="59.183367" lon="18.147322">
        <ele>30</ele>
        <time>2019-12-10T09:41:52Z</time>
      </trkpt>
      <trkpt lat="59.183335" lon="18.147294">
        <ele>30</ele>
        <time>2019-12-10T09:41:53Z</time>
      </trkpt>
      <trkpt lat="59.183304" lon="18.147262">
        <ele>31</ele>
        <time>2019-12-10T09:41:54Z</time>
      </trkpt>
      <trkpt lat="59.183271" lon="18.147234">
        <ele>31</ele>
        <time>2019-12-10T09:41:55Z</time>
      </trkpt>
      <trkpt lat="59.183237" lon="18.147209">
        <ele>31</ele>
        <time>2019-12-10T09:41:56Z</time>
      </trkpt>
      <trkpt lat="59.183202" lon="18.147191">
        <ele>0</ele>
        <time>2019-12-10T09:41:56Z</time>
      </trkpt>
      <trkpt lat="59.183165" lon="18.147176">
        <ele>31</ele>
        <time>2019-12-10T09:41:57Z</time>
      </trkpt>
      <trkpt lat="59.183127" lon="18.147162">
        <ele>31</ele>
        <time>2019-12-10T09:41:59Z</time>
      </trkpt>
      <trkpt lat="59.183088" lon="18.147146">
        <ele>0</ele>
        <time>2019-12-10T09:41:59Z</time>
      </trkpt>
      <trkpt lat="59.18305" lon="18.147131">
        <ele>31</ele>
        <time>2019-12-10T09:42:00Z</time>
      </trkpt>
      <trkpt lat="59.183009" lon="18.147116">
        <ele>32</ele>
        <time>2019-12-10T09:42:02Z</time>
      </trkpt>
      <trkpt lat="59.182968" lon="18.1471">
        <ele>32</ele>
        <time>2019-12-10T09:42:03Z</time>
      </trkpt>
      <trkpt lat="59.182927" lon="18.147078">
        <ele>32</ele>
        <time>2019-12-10T09:42:04Z</time>
      </trkpt>
      <trkpt lat="59.182888" lon="18.147056">
        <ele>32</ele>
        <time>2019-12-10T09:42:05Z</time>
      </trkpt>
      <trkpt lat="59.182849" lon="18.147032">
        <ele>32</ele>
        <time>2019-12-10T09:42:06Z</time>
      </trkpt>
      <trkpt lat="59.182809" lon="18.147006">
        <ele>32</ele>
        <time>2019-12-10T09:42:07Z</time>
      </trkpt>
      <trkpt lat="59.182769" lon="18.146982">
        <ele>32</ele>
        <time>2019-12-10T09:42:08Z</time>
      </trkpt>
      <trkpt lat="59.18273" lon="18.146958">
        <ele>32</ele>
        <time>2019-12-10T09:42:09Z</time>
      </trkpt>
      <trkpt lat="59.182692" lon="18.14693">
        <ele>32</ele>
        <time>2019-12-10T09:42:10Z</time>
      </trkpt>
      <trkpt lat="59.182653" lon="18.146898">
        <ele>33</ele>
        <time>2019-12-10T09:42:11Z</time>
      </trkpt>
      <trkpt lat="59.182613" lon="18.146867">
        <ele>0</ele>
        <time>2019-12-10T09:42:11Z</time>
      </trkpt>
      <trkpt lat="59.182573" lon="18.146836">
        <ele>33</ele>
        <time>2019-12-10T09:42:12Z</time>
      </trkpt>
      <trkpt lat="59.182534" lon="18.146805">
        <ele>33</ele>
        <time>2019-12-10T09:42:14Z</time>
      </trkpt>
      <trkpt lat="59.182496" lon="18.146774">
        <ele>33</ele>
        <time>2019-12-10T09:42:15Z</time>
      </trkpt>
      <trkpt lat="59.182457" lon="18.146742">
        <ele>0</ele>
        <time>2019-12-10T09:42:15Z</time>
      </trkpt>
      <trkpt lat="59.182419" lon="18.146707">
        <ele>34</ele>
        <time>2019-12-10T09:42:16Z</time>
      </trkpt>
      <trkpt lat="59.18238" lon="18.146666">
        <ele>34</ele>
        <time>2019-12-10T09:42:18Z</time>
      </trkpt>
      <trkpt lat="59.182343" lon="18.146623">
        <ele>34</ele>
        <time>2019-12-10T09:42:19Z</time>
      </trkpt>
      <trkpt lat="59.182305" lon="18.146583">
        <ele>34</ele>
        <time>2019-12-10T09:42:20Z</time>
      </trkpt>
      <trkpt lat="59.182268" lon="18.146547">
        <ele>34</ele>
        <time>2019-12-10T09:42:21Z</time>
      </trkpt>
      <trkpt lat="59.18223" lon="18.146513">
        <ele>34</ele>
        <time>2019-12-10T09:42:22Z</time>
      </trkpt>
      <trkpt lat="59.182191" lon="18.146468">
        <ele>0</ele>
        <time>2019-12-10T09:42:22Z</time>
      </trkpt>
      <trkpt lat="59.18215" lon="18.146422">
        <ele>34</ele>
        <time>2019-12-10T09:42:23Z</time>
      </trkpt>
      <trkpt lat="59.182109" lon="18.146372">
        <ele>34</ele>
        <time>2019-12-10T09:42:25Z</time>
      </trkpt>
      <trkpt lat="59.182069" lon="18.146323">
        <ele>34</ele>
        <time>2019-12-10T09:42:26Z</time>
      </trkpt>
      <trkpt lat="59.18203" lon="18.146275">
        <ele>34</ele>
        <time>2019-12-10T09:42:27Z</time>
      </trkpt>
      <trkpt lat="59.181989" lon="18.14623">
        <ele>34</ele>
        <time>2019-12-10T09:42:28Z</time>
      </trkpt>
      <trkpt lat="59.18195" lon="18.146185">
        <ele>34</ele>
        <time>2019-12-10T09:42:29Z</time>
      </trkpt>
      <trkpt lat="59.181911" lon="18.146141">
        <ele>34</ele>
        <time>2019-12-10T09:42:30Z</time>
      </trkpt>
      <trkpt lat="59.181873" lon="18.1461">
        <ele>34</ele>
        <time>2019-12-10T09:42:31Z</time>
      </trkpt>
      <trkpt lat="59.181835" lon="18.146055">
        <ele>34</ele>
        <time>2019-12-10T09:42:32Z</time>
      </trkpt>
      <trkpt lat="59.181798" lon="18.146008">
        <ele>34</ele>
        <time>2019-12-10T09:42:33Z</time>
      </trkpt>
      <trkpt lat="59.18176" lon="18.145961">
        <ele>0</ele>
        <time>2019-12-10T09:42:33Z</time>
      </trkpt>
      <trkpt lat="59.181722" lon="18.145915">
        <ele>34</ele>
        <time>2019-12-10T09:42:34Z</time>
      </trkpt>
      <trkpt lat="59.181684" lon="18.145869">
        <ele>34</ele>
        <time>2019-12-10T09:42:35Z</time>
      </trkpt>
      <trkpt lat="59.181646" lon="18.145822">
        <ele>34</ele>
        <time>2019-12-10T09:42:37Z</time>
      </trkpt>
      <trkpt lat="59.18161" lon="18.145775">
        <ele>35</ele>
        <time>2019-12-10T09:42:38Z</time>
      </trkpt>
      <trkpt lat="59.181573" lon="18.14573">
        <ele>35</ele>
        <time>2019-12-10T09:42:39Z</time>
      </trkpt>
      <trkpt lat="59.181536" lon="18.145687">
        <ele>35</ele>
        <time>2019-12-10T09:42:40Z</time>
      </trkpt>
      <trkpt lat="59.181499" lon="18.145645">
        <ele>35</ele>
        <time>2019-12-10T09:42:41Z</time>
      </trkpt>
      <trkpt lat="59.181463" lon="18.145602">
        <ele>35</ele>
        <time>2019-12-10T09:42:42Z</time>
      </trkpt>
      <trkpt lat="59.181427" lon="18.145558">
        <ele>35</ele>
        <time>2019-12-10T09:42:43Z</time>
      </trkpt>
      <trkpt lat="59.181389" lon="18.145516">
        <ele>35</ele>
        <time>2019-12-10T09:42:44Z</time>
      </trkpt>
      <trkpt lat="59.181349" lon="18.145473">
        <ele>35</ele>
        <time>2019-12-10T09:42:45Z</time>
      </trkpt>
      <trkpt lat="59.181308" lon="18.14543">
        <ele>0</ele>
        <time>2019-12-10T09:42:45Z</time>
      </trkpt>
      <trkpt lat="59.181267" lon="18.145388">
        <ele>34</ele>
        <time>2019-12-10T09:42:46Z</time>
      </trkpt>
      <trkpt lat="59.181225" lon="18.145345">
        <ele>34</ele>
        <time>2019-12-10T09:42:48Z</time>
      </trkpt>
      <trkpt lat="59.181182" lon="18.145302">
        <ele>34</ele>
        <time>2019-12-10T09:42:49Z</time>
      </trkpt>
      <trkpt lat="59.181139" lon="18.145258">
        <ele>34</ele>
        <time>2019-12-10T09:42:50Z</time>
      </trkpt>
      <trkpt lat="59.181096" lon="18.145213">
        <ele>34</ele>
        <time>2019-12-10T09:42:51Z</time>
      </trkpt>
      <trkpt lat="59.181053" lon="18.145167">
        <ele>35</ele>
        <time>2019-12-10T09:42:52Z</time>
      </trkpt>
      <trkpt lat="59.181009" lon="18.145122">
        <ele>35</ele>
        <time>2019-12-10T09:42:53Z</time>
      </trkpt>
      <trkpt lat="59.180966" lon="18.145074">
        <ele>0</ele>
        <time>2019-12-10T09:42:53Z</time>
      </trkpt>
      <trkpt lat="59.180923" lon="18.145025">
        <ele>35</ele>
        <time>2019-12-10T09:42:54Z</time>
      </trkpt>
      <trkpt lat="59.180879" lon="18.144977">
        <ele>0</ele>
        <time>2019-12-10T09:42:55Z</time>
      </trkpt>
      <trkpt lat="59.180836" lon="18.144931">
        <ele>35</ele>
        <time>2019-12-10T09:42:56Z</time>
      </trkpt>
      <trkpt lat="59.180794" lon="18.144887">
        <ele>35</ele>
        <time>2019-12-10T09:42:58Z</time>
      </trkpt>
      <trkpt lat="59.180752" lon="18.144843">
        <ele>35</ele>
        <time>2019-12-10T09:42:59Z</time>
      </trkpt>
      <trkpt lat="59.180712" lon="18.144796">
        <ele>35</ele>
        <time>2019-12-10T09:43:00Z</time>
      </trkpt>
      <trkpt lat="59.180675" lon="18.144743">
        <ele>35</ele>
        <time>2019-12-10T09:43:01Z</time>
      </trkpt>
      <trkpt lat="59.180639" lon="18.144687">
        <ele>35</ele>
        <time>2019-12-10T09:43:02Z</time>
      </trkpt>
      <trkpt lat="59.180603" lon="18.144629">
        <ele>35</ele>
        <time>2019-12-10T09:43:03Z</time>
      </trkpt>
      <trkpt lat="59.180567" lon="18.14457">
        <ele>35</ele>
        <time>2019-12-10T09:43:04Z</time>
      </trkpt>
      <trkpt lat="59.180529" lon="18.144511">
        <ele>35</ele>
        <time>2019-12-10T09:43:05Z</time>
      </trkpt>
      <trkpt lat="59.180488" lon="18.144456">
        <ele>0</ele>
        <time>2019-12-10T09:43:05Z</time>
      </trkpt>
      <trkpt lat="59.180446" lon="18.144403">
        <ele>35</ele>
        <time>2019-12-10T09:43:06Z</time>
      </trkpt>
      <trkpt lat="59.180403" lon="18.144349">
        <ele>35</ele>
        <time>2019-12-10T09:43:08Z</time>
      </trkpt>
      <trkpt lat="59.180358" lon="18.144293">
        <ele>35</ele>
        <time>2019-12-10T09:43:09Z</time>
      </trkpt>
      <trkpt lat="59.180312" lon="18.144239">
        <ele>35</ele>
        <time>2019-12-10T09:43:10Z</time>
      </trkpt>
      <trkpt lat="59.180265" lon="18.144184">
        <ele>35</ele>
        <time>2019-12-10T09:43:11Z</time>
      </trkpt>
      <trkpt lat="59.180218" lon="18.14413">
        <ele>35</ele>
        <time>2019-12-10T09:43:12Z</time>
      </trkpt>
      <trkpt lat="59.180173" lon="18.144077">
        <ele>0</ele>
        <time>2019-12-10T09:43:12Z</time>
      </trkpt>
      <trkpt lat="59.180127" lon="18.144024">
        <ele>35</ele>
        <time>2019-12-10T09:43:13Z</time>
      </trkpt>
      <trkpt lat="59.180079" lon="18.143971">
        <ele>35</ele>
        <time>2019-12-10T09:43:15Z</time>
      </trkpt>
      <trkpt lat="59.180031" lon="18.143918">
        <ele>0</ele>
        <time>2019-12-10T09:43:15Z</time>
      </trkpt>
      <trkpt lat="59.179983" lon="18.143868">
        <ele>35</ele>
        <time>2019-12-10T09:43:16Z</time>
      </trkpt>
      <trkpt lat="59.179933" lon="18.143821">
        <ele>35</ele>
        <time>2019-12-10T09:43:18Z</time>
      </trkpt>
      <trkpt lat="59.179882" lon="18.143779">
        <ele>35</ele>
        <time>2019-12-10T09:43:19Z</time>
      </trkpt>
      <trkpt lat="59.179831" lon="18.143738">
        <ele>34</ele>
        <time>2019-12-10T09:43:20Z</time>
      </trkpt>
      <trkpt lat="59.179778" lon="18.143697">
        <ele>34</ele>
        <time>2019-12-10T09:43:21Z</time>
      </trkpt>
      <trkpt lat="59.179729" lon="18.143661">
        <ele>35</ele>
        <time>2019-12-10T09:43:22Z</time>
      </trkpt>
      <trkpt lat="59.179679" lon="18.143637">
        <ele>35</ele>
        <time>2019-12-10T09:43:23Z</time>
      </trkpt>
      <trkpt lat="59.179628" lon="18.143628">
        <ele>35</ele>
        <time>2019-12-10T09:43:24Z</time>
      </trkpt>
      <trkpt lat="59.179575" lon="18.143632">
        <ele>0</ele>
        <time>2019-12-10T09:43:24Z</time>
      </trkpt>
      <trkpt lat="59.179522" lon="18.143644">
        <ele>35</ele>
        <time>2019-12-10T09:43:25Z</time>
      </trkpt>
      <trkpt lat="59.179468" lon="18.14366">
        <ele>35</ele>
        <time>2019-12-10T09:43:27Z</time>
      </trkpt>
      <trkpt lat="59.179419" lon="18.143678">
        <ele>35</ele>
        <time>2019-12-10T09:43:28Z</time>
      </trkpt>
      <trkpt lat="59.179373" lon="18.143689">
        <ele>35</ele>
        <time>2019-12-10T09:43:29Z</time>
      </trkpt>
      <trkpt lat="59.179331" lon="18.143686">
        <ele>34</ele>
        <time>2019-12-10T09:43:30Z</time>
      </trkpt>
      <trkpt lat="59.179288" lon="18.143665">
        <ele>34</ele>
        <time>2019-12-10T09:43:31Z</time>
      </trkpt>
      <trkpt lat="59.179247" lon="18.143623">
        <ele>0</ele>
        <time>2019-12-10T09:43:31Z</time>
      </trkpt>
      <trkpt lat="59.179209" lon="18.143563">
        <ele>34</ele>
        <time>2019-12-10T09:43:32Z</time>
      </trkpt>
      <trkpt lat="59.179168" lon="18.143498">
        <ele>34</ele>
        <time>2019-12-10T09:43:34Z</time>
      </trkpt>
      <trkpt lat="59.179128" lon="18.143437">
        <ele>0</ele>
        <time>2019-12-10T09:43:34Z</time>
      </trkpt>
      <trkpt lat="59.179087" lon="18.143383">
        <ele>33</ele>
        <time>2019-12-10T09:43:35Z</time>
      </trkpt>
      <trkpt lat="59.179043" lon="18.143334">
        <ele>33</ele>
        <time>2019-12-10T09:43:37Z</time>
      </trkpt>
      <trkpt lat="59.178998" lon="18.143292">
        <ele>33</ele>
        <time>2019-12-10T09:43:38Z</time>
      </trkpt>
      <trkpt lat="59.178953" lon="18.143256">
        <ele>33</ele>
        <time>2019-12-10T09:43:39Z</time>
      </trkpt>
      <trkpt lat="59.178908" lon="18.143223">
        <ele>33</ele>
        <time>2019-12-10T09:43:40Z</time>
      </trkpt>
      <trkpt lat="59.178862" lon="18.14319">
        <ele>33</ele>
        <time>2019-12-10T09:43:41Z</time>
      </trkpt>
      <trkpt lat="59.178814" lon="18.143158">
        <ele>33</ele>
        <time>2019-12-10T09:43:42Z</time>
      </trkpt>
      <trkpt lat="59.178767" lon="18.143125">
        <ele>33</ele>
        <time>2019-12-10T09:43:43Z</time>
      </trkpt>
      <trkpt lat="59.178719" lon="18.14309">
        <ele>33</ele>
        <time>2019-12-10T09:43:44Z</time>
      </trkpt>
      <trkpt lat="59.178671" lon="18.143053">
        <ele>0</ele>
        <time>2019-12-10T09:43:44Z</time>
      </trkpt>
      <trkpt lat="59.178622" lon="18.143017">
        <ele>33</ele>
        <time>2019-12-10T09:43:45Z</time>
      </trkpt>
      <trkpt lat="59.178573" lon="18.142982">
        <ele>33</ele>
        <time>2019-12-10T09:43:47Z</time>
      </trkpt>
      <trkpt lat="59.178525" lon="18.142947">
        <ele>34</ele>
        <time>2019-12-10T09:43:48Z</time>
      </trkpt>
      <trkpt lat="59.178478" lon="18.142913">
        <ele>34</ele>
        <time>2019-12-10T09:43:49Z</time>
      </trkpt>
      <trkpt lat="59.178431" lon="18.14288">
        <ele>34</ele>
        <time>2019-12-10T09:43:50Z</time>
      </trkpt>
      <trkpt lat="59.178385" lon="18.142849">
        <ele>0</ele>
        <time>2019-12-10T09:43:50Z</time>
      </trkpt>
      <trkpt lat="59.178339" lon="18.142817">
        <ele>34</ele>
        <time>2019-12-10T09:43:51Z</time>
      </trkpt>
      <trkpt lat="59.178294" lon="18.142786">
        <ele>34</ele>
        <time>2019-12-10T09:43:53Z</time>
      </trkpt>
      <trkpt lat="59.178249" lon="18.142757">
        <ele>34</ele>
        <time>2019-12-10T09:43:54Z</time>
      </trkpt>
      <trkpt lat="59.178205" lon="18.142728">
        <ele>0</ele>
        <time>2019-12-10T09:43:54Z</time>
      </trkpt>
      <trkpt lat="59.178161" lon="18.142699">
        <ele>34</ele>
        <time>2019-12-10T09:43:55Z</time>
      </trkpt>
      <trkpt lat="59.178118" lon="18.142671">
        <ele>34</ele>
        <time>2019-12-10T09:43:57Z</time>
      </trkpt>
      <trkpt lat="59.178074" lon="18.142648">
        <ele>35</ele>
        <time>2019-12-10T09:43:58Z</time>
      </trkpt>
      <trkpt lat="59.17803" lon="18.142634">
        <ele>35</ele>
        <time>2019-12-10T09:43:59Z</time>
      </trkpt>
      <trkpt lat="59.177986" lon="18.14263">
        <ele>35</ele>
        <time>2019-12-10T09:44:00Z</time>
      </trkpt>
      <trkpt lat="59.177942" lon="18.142636">
        <ele>35</ele>
        <time>2019-12-10T09:44:01Z</time>
      </trkpt>
      <trkpt lat="59.177896" lon="18.142647">
        <ele>34</ele>
        <time>2019-12-10T09:44:02Z</time>
      </trkpt>
      <trkpt lat="59.177848" lon="18.142661">
        <ele>34</ele>
        <time>2019-12-10T09:44:03Z</time>
      </trkpt>
      <trkpt lat="59.177797" lon="18.142676">
        <ele>34</ele>
        <time>2019-12-10T09:44:04Z</time>
      </trkpt>
      <trkpt lat="59.177742" lon="18.142694">
        <ele>34</ele>
        <time>2019-12-10T09:44:05Z</time>
      </trkpt>
      <trkpt lat="59.177683" lon="18.142711">
        <ele>0</ele>
        <time>2019-12-10T09:44:05Z</time>
      </trkpt>
      <trkpt lat="59.177624" lon="18.142726">
        <ele>34</ele>
        <time>2019-12-10T09:44:06Z</time>
      </trkpt>
      <trkpt lat="59.177567" lon="18.142738">
        <ele>35</ele>
        <time>2019-12-10T09:44:08Z</time>
      </trkpt>
      <trkpt lat="59.177512" lon="18.142749">
        <ele>35</ele>
        <time>2019-12-10T09:44:09Z</time>
      </trkpt>
      <trkpt lat="59.17746" lon="18.142757">
        <ele>0</ele>
        <time>2019-12-10T09:44:09Z</time>
      </trkpt>
      <trkpt lat="59.177411" lon="18.142762">
        <ele>35</ele>
        <time>2019-12-10T09:44:10Z</time>
      </trkpt>
      <trkpt lat="59.177366" lon="18.142761">
        <ele>35</ele>
        <time>2019-12-10T09:44:12Z</time>
      </trkpt>
      <trkpt lat="59.177326" lon="18.142761">
        <ele>35</ele>
        <time>2019-12-10T09:44:13Z</time>
      </trkpt>
      <trkpt lat="59.177286" lon="18.142762">
        <ele>35</ele>
        <time>2019-12-10T09:44:14Z</time>
      </trkpt>
      <trkpt lat="59.177248" lon="18.142763">
        <ele>35</ele>
        <time>2019-12-10T09:44:15Z</time>
      </trkpt>
      <trkpt lat="59.177209" lon="18.142766">
        <ele>0</ele>
        <time>2019-12-10T09:44:15Z</time>
      </trkpt>
      <trkpt lat="59.177168" lon="18.142769">
        <ele>35</ele>
        <time>2019-12-10T09:44:16Z</time>
      </trkpt>
      <trkpt lat="59.177128" lon="18.14277">
        <ele>35</ele>
        <time>2019-12-10T09:44:18Z</time>
      </trkpt>
      <trkpt lat="59.177089" lon="18.14277">
        <ele>36</ele>
        <time>2019-12-10T09:44:19Z</time>
      </trkpt>
      <trkpt lat="59.177048" lon="18.142768">
        <ele>36</ele>
        <time>2019-12-10T09:44:20Z</time>
      </trkpt>
      <trkpt lat="59.177008" lon="18.142764">
        <ele>36</ele>
        <time>2019-12-10T09:44:21Z</time>
      </trkpt>
      <trkpt lat="59.17697" lon="18.142756">
        <ele>36</ele>
        <time>2019-12-10T09:44:22Z</time>
      </trkpt>
      <trkpt lat="59.176932" lon="18.142747">
        <ele>36</ele>
        <time>2019-12-10T09:44:23Z</time>
      </trkpt>
      <trkpt lat="59.176892" lon="18.142737">
        <ele>37</ele>
        <time>2019-12-10T09:44:24Z</time>
      </trkpt>
      <trkpt lat="59.176853" lon="18.142725">
        <ele>37</ele>
        <time>2019-12-10T09:44:25Z</time>
      </trkpt>
      <trkpt lat="59.176813" lon="18.142714">
        <ele>37</ele>
        <time>2019-12-10T09:44:26Z</time>
      </trkpt>
      <trkpt lat="59.176774" lon="18.142702">
        <ele>37</ele>
        <time>2019-12-10T09:44:27Z</time>
      </trkpt>
      <trkpt lat="59.176735" lon="18.142687">
        <ele>37</ele>
        <time>2019-12-10T09:44:28Z</time>
      </trkpt>
      <trkpt lat="59.176695" lon="18.142668">
        <ele>0</ele>
        <time>2019-12-10T09:44:28Z</time>
      </trkpt>
      <trkpt lat="59.176654" lon="18.142646">
        <ele>37</ele>
        <time>2019-12-10T09:44:29Z</time>
      </trkpt>
      <trkpt lat="59.176614" lon="18.142624">
        <ele>38</ele>
        <time>2019-12-10T09:44:31Z</time>
      </trkpt>
      <trkpt lat="59.176573" lon="18.142605">
        <ele>38</ele>
        <time>2019-12-10T09:44:32Z</time>
      </trkpt>
      <trkpt lat="59.176534" lon="18.142584">
        <ele>38</ele>
        <time>2019-12-10T09:44:33Z</time>
      </trkpt>
      <trkpt lat="59.176495" lon="18.142562">
        <ele>38</ele>
        <time>2019-12-10T09:44:34Z</time>
      </trkpt>
      <trkpt lat="59.176456" lon="18.142541">
        <ele>0</ele>
        <time>2019-12-10T09:44:34Z</time>
      </trkpt>
      <trkpt lat="59.176418" lon="18.142519">
        <ele>38</ele>
        <time>2019-12-10T09:44:35Z</time>
      </trkpt>
      <trkpt lat="59.176381" lon="18.142495">
        <ele>39</ele>
        <time>2019-12-10T09:44:36Z</time>
      </trkpt>
      <trkpt lat="59.176344" lon="18.14247">
        <ele>39</ele>
        <time>2019-12-10T09:44:38Z</time>
      </trkpt>
      <trkpt lat="59.176307" lon="18.142442">
        <ele>39</ele>
        <time>2019-12-10T09:44:39Z</time>
      </trkpt>
      <trkpt lat="59.176271" lon="18.14241">
        <ele>39</ele>
        <time>2019-12-10T09:44:40Z</time>
      </trkpt>
      <trkpt lat="59.176235" lon="18.142374">
        <ele>0</ele>
        <time>2019-12-10T09:44:40Z</time>
      </trkpt>
      <trkpt lat="59.176203" lon="18.142331">
        <ele>39</ele>
        <time>2019-12-10T09:44:41Z</time>
      </trkpt>
      <trkpt lat="59.176175" lon="18.14228">
        <ele>39</ele>
        <time>2019-12-10T09:44:43Z</time>
      </trkpt>
      <trkpt lat="59.176153" lon="18.142222">
        <ele>39</ele>
        <time>2019-12-10T09:44:44Z</time>
      </trkpt>
      <trkpt lat="59.176136" lon="18.14216">
        <ele>39</ele>
        <time>2019-12-10T09:44:45Z</time>
      </trkpt>
      <trkpt lat="59.176125" lon="18.142096">
        <ele>39</ele>
        <time>2019-12-10T09:44:46Z</time>
      </trkpt>
      <trkpt lat="59.176117" lon="18.142031">
        <ele>39</ele>
        <time>2019-12-10T09:44:47Z</time>
      </trkpt>
      <trkpt lat="59.176109" lon="18.141968">
        <ele>0</ele>
        <time>2019-12-10T09:44:47Z</time>
      </trkpt>
      <trkpt lat="59.176104" lon="18.141914">
        <ele>40</ele>
        <time>2019-12-10T09:44:48Z</time>
      </trkpt>
      <trkpt lat="59.176101" lon="18.141879">
        <ele>40</ele>
        <time>2019-12-10T09:44:50Z</time>
      </trkpt>
      <trkpt lat="59.176095" lon="18.141838">
        <ele>39</ele>
        <time>2019-12-10T09:44:53Z</time>
      </trkpt>
      <trkpt lat="59.176093" lon="18.141797">
        <ele>40</ele>
        <time>2019-12-10T09:44:57Z</time>
      </trkpt>
      <trkpt lat="59.176086" lon="18.141763">
        <ele>40</ele>
        <time>2019-12-10T09:44:58Z</time>
      </trkpt>
      <trkpt lat="59.176077" lon="18.141719">
        <ele>40</ele>
        <time>2019-12-10T09:44:59Z</time>
      </trkpt>
      <trkpt lat="59.176068" lon="18.141677">
        <ele>40</ele>
        <time>2019-12-10T09:45:00Z</time>
      </trkpt>
      <trkpt lat="59.176059" lon="18.141634">
        <ele>40</ele>
        <time>2019-12-10T09:45:01Z</time>
      </trkpt>
      <trkpt lat="59.176048" lon="18.14158">
        <ele>40</ele>
        <time>2019-12-10T09:45:02Z</time>
      </trkpt>
      <trkpt lat="59.176034" lon="18.141517">
        <ele>0</ele>
        <time>2019-12-10T09:45:02Z</time>
      </trkpt>
      <trkpt lat="59.17602" lon="18.141448">
        <ele>40</ele>
        <time>2019-12-10T09:45:03Z</time>
      </trkpt>
      <trkpt lat="59.176007" lon="18.141381">
        <ele>40</ele>
        <time>2019-12-10T09:45:05Z</time>
      </trkpt>
      <trkpt lat="59.17599" lon="18.141323">
        <ele>40</ele>
        <time>2019-12-10T09:45:06Z</time>
      </trkpt>
      <trkpt lat="59.175967" lon="18.141282">
        <ele>0</ele>
        <time>2019-12-10T09:45:06Z</time>
      </trkpt>
      <trkpt lat="59.175938" lon="18.141255">
        <ele>40</ele>
        <time>2019-12-10T09:45:07Z</time>
      </trkpt>
      <trkpt lat="59.175907" lon="18.141235">
        <ele>40</ele>
        <time>2019-12-10T09:45:09Z</time>
      </trkpt>
      <trkpt lat="59.175873" lon="18.141217">
        <ele>40</ele>
        <time>2019-12-10T09:45:10Z</time>
      </trkpt>
      <trkpt lat="59.175839" lon="18.141203">
        <ele>40</ele>
        <time>2019-12-10T09:45:11Z</time>
      </trkpt>
      <trkpt lat="59.175808" lon="18.14119">
        <ele>40</ele>
        <time>2019-12-10T09:45:12Z</time>
      </trkpt>
      <trkpt lat="59.175777" lon="18.141181">
        <ele>40</ele>
        <time>2019-12-10T09:45:13Z</time>
      </trkpt>
      <trkpt lat="59.175748" lon="18.141174">
        <ele>41</ele>
        <time>2019-12-10T09:45:14Z</time>
      </trkpt>
      <trkpt lat="59.175723" lon="18.141171">
        <ele>41</ele>
        <time>2019-12-10T09:45:15Z</time>
      </trkpt>
      <trkpt lat="59.1757" lon="18.141172">
        <ele>41</ele>
        <time>2019-12-10T09:45:16Z</time>
      </trkpt>
      <trkpt lat="59.175681" lon="18.14118">
        <ele>41</ele>
        <time>2019-12-10T09:45:17Z</time>
      </trkpt>
      <trkpt lat="59.17565" lon="18.141206">
        <ele>41</ele>
        <time>2019-12-10T09:45:19Z</time>
      </trkpt>
      <trkpt lat="59.17563" lon="18.141236">
        <ele>42</ele>
        <time>2019-12-10T09:45:21Z</time>
      </trkpt>
      <trkpt lat="59.175625" lon="18.141251">
        <ele>0</ele>
        <time>2019-12-10T09:45:24Z</time>
      </trkpt>
      <trkpt lat="59.175595" lon="18.141289">
        <ele>0</ele>
        <time>2019-12-10T09:45:37Z</time>
      </trkpt>
      <trkpt lat="59.175578" lon="18.141331">
        <ele>42</ele>
        <time>2019-12-10T09:45:38Z</time>
      </trkpt>
      <trkpt lat="59.17556" lon="18.141383">
        <ele>0</ele>
        <time>2019-12-10T09:45:39Z</time>
      </trkpt>
      <trkpt lat="59.175542" lon="18.141439">
        <ele>43</ele>
        <time>2019-12-10T09:45:40Z</time>
      </trkpt>
      <trkpt lat="59.17552" lon="18.141495">
        <ele>43</ele>
        <time>2019-12-10T09:45:42Z</time>
      </trkpt>
      <trkpt lat="59.175494" lon="18.141551">
        <ele>43</ele>
        <time>2019-12-10T09:45:43Z</time>
      </trkpt>
      <trkpt lat="59.175469" lon="18.141609">
        <ele>43</ele>
        <time>2019-12-10T09:45:44Z</time>
      </trkpt>
      <trkpt lat="59.175444" lon="18.141667">
        <ele>43</ele>
        <time>2019-12-10T09:45:45Z</time>
      </trkpt>
      <trkpt lat="59.175418" lon="18.141714">
        <ele>43</ele>
        <time>2019-12-10T09:45:46Z</time>
      </trkpt>
      <trkpt lat="59.17539" lon="18.14175">
        <ele>43</ele>
        <time>2019-12-10T09:45:47Z</time>
      </trkpt>
      <trkpt lat="59.175361" lon="18.141779">
        <ele>43</ele>
        <time>2019-12-10T09:45:48Z</time>
      </trkpt>
      <trkpt lat="59.17533" lon="18.141803">
        <ele>43</ele>
        <time>2019-12-10T09:45:49Z</time>
      </trkpt>
      <trkpt lat="59.175297" lon="18.14182">
        <ele>43</ele>
        <time>2019-12-10T09:45:50Z</time>
      </trkpt>
      <trkpt lat="59.175263" lon="18.141833">
        <ele>43</ele>
        <time>2019-12-10T09:45:51Z</time>
      </trkpt>
      <trkpt lat="59.175226" lon="18.141843">
        <ele>43</ele>
        <time>2019-12-10T09:45:52Z</time>
      </trkpt>
      <trkpt lat="59.17519" lon="18.141853">
        <ele>43</ele>
        <time>2019-12-10T09:45:53Z</time>
      </trkpt>
      <trkpt lat="59.175153" lon="18.14186">
        <ele>0</ele>
        <time>2019-12-10T09:45:53Z</time>
      </trkpt>
      <trkpt lat="59.175115" lon="18.141866">
        <ele>44</ele>
        <time>2019-12-10T09:45:54Z</time>
      </trkpt>
      <trkpt lat="59.175078" lon="18.14187">
        <ele>44</ele>
        <time>2019-12-10T09:45:56Z</time>
      </trkpt>
      <trkpt lat="59.17504" lon="18.141876">
        <ele>0</ele>
        <time>2019-12-10T09:45:56Z</time>
      </trkpt>
      <trkpt lat="59.175003" lon="18.141886">
        <ele>44</ele>
        <time>2019-12-10T09:45:57Z</time>
      </trkpt>
      <trkpt lat="59.174967" lon="18.141904">
        <ele>44</ele>
        <time>2019-12-10T09:45:59Z</time>
      </trkpt>
      <trkpt lat="59.174932" lon="18.141932">
        <ele>44</ele>
        <time>2019-12-10T09:46:00Z</time>
      </trkpt>
      <trkpt lat="59.174898" lon="18.141962">
        <ele>44</ele>
        <time>2019-12-10T09:46:01Z</time>
      </trkpt>
      <trkpt lat="59.174866" lon="18.141994">
        <ele>44</ele>
        <time>2019-12-10T09:46:02Z</time>
      </trkpt>
      <trkpt lat="59.174831" lon="18.142032">
        <ele>44</ele>
        <time>2019-12-10T09:46:03Z</time>
      </trkpt>
      <trkpt lat="59.1748" lon="18.142072">
        <ele>44</ele>
        <time>2019-12-10T09:46:04Z</time>
      </trkpt>
      <trkpt lat="59.174773" lon="18.14212">
        <ele>44</ele>
        <time>2019-12-10T09:46:05Z</time>
      </trkpt>
      <trkpt lat="59.17475" lon="18.142176">
        <ele>44</ele>
        <time>2019-12-10T09:46:06Z</time>
      </trkpt>
      <trkpt lat="59.174728" lon="18.142233">
        <ele>0</ele>
        <time>2019-12-10T09:46:06Z</time>
      </trkpt>
      <trkpt lat="59.174705" lon="18.142278">
        <ele>44</ele>
        <time>2019-12-10T09:46:07Z</time>
      </trkpt>
      <trkpt lat="59.174676" lon="18.142308">
        <ele>44</ele>
        <time>2019-12-10T09:46:09Z</time>
      </trkpt>
      <trkpt lat="59.174644" lon="18.142324">
        <ele>44</ele>
        <time>2019-12-10T09:46:10Z</time>
      </trkpt>
      <trkpt lat="59.17461" lon="18.142324">
        <ele>44</ele>
        <time>2019-12-10T09:46:11Z</time>
      </trkpt>
      <trkpt lat="59.174575" lon="18.142316">
        <ele>44</ele>
        <time>2019-12-10T09:46:12Z</time>
      </trkpt>
      <trkpt lat="59.17454" lon="18.142307">
        <ele>44</ele>
        <time>2019-12-10T09:46:13Z</time>
      </trkpt>
      <trkpt lat="59.174504" lon="18.142301">
        <ele>44</ele>
        <time>2019-12-10T09:46:14Z</time>
      </trkpt>
      <trkpt lat="59.174468" lon="18.142298">
        <ele>44</ele>
        <time>2019-12-10T09:46:15Z</time>
      </trkpt>
      <trkpt lat="59.174431" lon="18.142294">
        <ele>0</ele>
        <time>2019-12-10T09:46:15Z</time>
      </trkpt>
      <trkpt lat="59.174396" lon="18.14229">
        <ele>44</ele>
        <time>2019-12-10T09:46:16Z</time>
      </trkpt>
      <trkpt lat="59.174361" lon="18.142286">
        <ele>44</ele>
        <time>2019-12-10T09:46:18Z</time>
      </trkpt>
      <trkpt lat="59.174329" lon="18.142285">
        <ele>45</ele>
        <time>2019-12-10T09:46:19Z</time>
      </trkpt>
      <trkpt lat="59.174299" lon="18.142291">
        <ele>45</ele>
        <time>2019-12-10T09:46:20Z</time>
      </trkpt>
      <trkpt lat="59.174271" lon="18.142308">
        <ele>45</ele>
        <time>2019-12-10T09:46:21Z</time>
      </trkpt>
      <trkpt lat="59.174242" lon="18.14233">
        <ele>0</ele>
        <time>2019-12-10T09:46:21Z</time>
      </trkpt>
      <trkpt lat="59.174218" lon="18.14235">
        <ele>45</ele>
        <time>2019-12-10T09:46:22Z</time>
      </trkpt>
      <trkpt lat="59.174191" lon="18.142374">
        <ele>45</ele>
        <time>2019-12-10T09:46:24Z</time>
      </trkpt>
      <trkpt lat="59.174164" lon="18.142403">
        <ele>45</ele>
        <time>2019-12-10T09:46:25Z</time>
      </trkpt>
      <trkpt lat="59.174138" lon="18.142435">
        <ele>46</ele>
        <time>2019-12-10T09:46:26Z</time>
      </trkpt>
      <trkpt lat="59.174113" lon="18.142465">
        <ele>46</ele>
        <time>2019-12-10T09:46:27Z</time>
      </trkpt>
      <trkpt lat="59.174089" lon="18.14249">
        <ele>46</ele>
        <time>2019-12-10T09:46:28Z</time>
      </trkpt>
      <trkpt lat="59.174066" lon="18.14251">
        <ele>46</ele>
        <time>2019-12-10T09:46:29Z</time>
      </trkpt>
      <trkpt lat="59.174045" lon="18.14253">
        <ele>46</ele>
        <time>2019-12-10T09:46:30Z</time>
      </trkpt>
      <trkpt lat="59.174029" lon="18.14256">
        <ele>46</ele>
        <time>2019-12-10T09:46:31Z</time>
      </trkpt>
      <trkpt lat="59.174021" lon="18.142597">
        <ele>47</ele>
        <time>2019-12-10T09:46:32Z</time>
      </trkpt>
      <trkpt lat="59.17402" lon="18.142635">
        <ele>47</ele>
        <time>2019-12-10T09:46:33Z</time>
      </trkpt>
      <trkpt lat="59.174021" lon="18.142671">
        <ele>47</ele>
        <time>2019-12-10T09:46:34Z</time>
      </trkpt>
      <trkpt lat="59.174021" lon="18.142708">
        <ele>0</ele>
        <time>2019-12-10T09:46:34Z</time>
      </trkpt>
      <trkpt lat="59.174013" lon="18.142759">
        <ele>47</ele>
        <time>2019-12-10T09:46:37Z</time>
      </trkpt>
      <trkpt lat="59.174001" lon="18.142791">
        <ele>48</ele>
        <time>2019-12-10T09:46:39Z</time>
      </trkpt>
      <trkpt lat="59.173981" lon="18.142798">
        <ele>48</ele>
        <time>2019-12-10T09:46:41Z</time>
      </trkpt>
      <trkpt lat="59.173959" lon="18.142803">
        <ele>49</ele>
        <time>2019-12-10T09:46:44Z</time>
      </trkpt>
      <trkpt lat="59.173942" lon="18.142815">
        <ele>49</ele>
        <time>2019-12-10T09:46:46Z</time>
      </trkpt>
      <trkpt lat="59.17393" lon="18.142858">
        <ele>49</ele>
        <time>2019-12-10T09:46:48Z</time>
      </trkpt>
      <trkpt lat="59.173928" lon="18.142925">
        <ele>49</ele>
        <time>2019-12-10T09:46:50Z</time>
      </trkpt>
      <trkpt lat="59.173929" lon="18.142963">
        <ele>0</ele>
        <time>2019-12-10T09:46:50Z</time>
      </trkpt>
      <trkpt lat="59.173929" lon="18.143002">
        <ele>49</ele>
        <time>2019-12-10T09:46:51Z</time>
      </trkpt>
      <trkpt lat="59.173926" lon="18.143044">
        <ele>49</ele>
        <time>2019-12-10T09:46:53Z</time>
      </trkpt>
      <trkpt lat="59.173919" lon="18.14309">
        <ele>0</ele>
        <time>2019-12-10T09:46:53Z</time>
      </trkpt>
      <trkpt lat="59.173911" lon="18.143136">
        <ele>49</ele>
        <time>2019-12-10T09:46:54Z</time>
      </trkpt>
      <trkpt lat="59.173902" lon="18.143183">
        <ele>49</ele>
        <time>2019-12-10T09:46:56Z</time>
      </trkpt>
      <trkpt lat="59.173898" lon="18.14323">
        <ele>49</ele>
        <time>2019-12-10T09:46:57Z</time>
      </trkpt>
      <trkpt lat="59.173897" lon="18.143279">
        <ele>49</ele>
        <time>2019-12-10T09:46:58Z</time>
      </trkpt>
      <trkpt lat="59.173897" lon="18.143321">
        <ele>49</ele>
        <time>2019-12-10T09:46:59Z</time>
      </trkpt>
      <trkpt lat="59.173892" lon="18.143365">
        <ele>49</ele>
        <time>2019-12-10T09:47:00Z</time>
      </trkpt>
      <trkpt lat="59.173883" lon="18.143407">
        <ele>49</ele>
        <time>2019-12-10T09:47:01Z</time>
      </trkpt>
      <trkpt lat="59.173871" lon="18.143442">
        <ele>50</ele>
        <time>2019-12-10T09:47:02Z</time>
      </trkpt>
      <trkpt lat="59.173856" lon="18.143472">
        <ele>50</ele>
        <time>2019-12-10T09:47:03Z</time>
      </trkpt>
      <trkpt lat="59.173837" lon="18.143508">
        <ele>50</ele>
        <time>2019-12-10T09:47:04Z</time>
      </trkpt>
      <trkpt lat="59.173813" lon="18.143524">
        <ele>50</ele>
        <time>2019-12-10T09:47:05Z</time>
      </trkpt>
      <trkpt lat="59.173785" lon="18.143532">
        <ele>50</ele>
        <time>2019-12-10T09:47:06Z</time>
      </trkpt>
      <trkpt lat="59.173756" lon="18.14353">
        <ele>50</ele>
        <time>2019-12-10T09:47:07Z</time>
      </trkpt>
      <trkpt lat="59.173727" lon="18.14353">
        <ele>50</ele>
        <time>2019-12-10T09:47:08Z</time>
      </trkpt>
      <trkpt lat="59.173698" lon="18.143529">
        <ele>51</ele>
        <time>2019-12-10T09:47:09Z</time>
      </trkpt>
      <trkpt lat="59.173671" lon="18.143527">
        <ele>52</ele>
        <time>2019-12-10T09:47:10Z</time>
      </trkpt>
      <trkpt lat="59.173645" lon="18.143525">
        <ele>0</ele>
        <time>2019-12-10T09:47:10Z</time>
      </trkpt>
      <trkpt lat="59.173619" lon="18.143522">
        <ele>52</ele>
        <time>2019-12-10T09:47:11Z</time>
      </trkpt>
      <trkpt lat="59.173567" lon="18.143517">
        <ele>0</ele>
        <time>2019-12-10T09:47:13Z</time>
      </trkpt>
    </trkseg>
  </trk>
</gpx>